<?xml version="1.0" encoding="UTF-8" standalone="no" ?>
<gpx xmlns="http://www.topografix.com/GPX/1/1" xmlns:xsi="http://www.w3.org/2001/XMLSchema-instance" xsi:schemaLocation="http://www.topografix.com/GPX/1/1 http://www.topografix.com/GPX/1/1/gpx.xsd" version="1.1" creator="VisuGPX - https://www.visugpx.com">
  <metadata>
    <name>Pornichet Estivale14/07/2022</name>
    <desc><![CDATA[Sortie jeudi 14 juillet 2022]]></desc>
  </metadata>
  <trk>
    <name><![CDATA[Pornichet Cyclisme]]></name>
    <trkseg>
      <trkpt lat="47.27033" lon="-2.34442">
        <ele>9.6000003814697</ele>
        <time>2022-07-14T07:12:32.000Z</time>
      </trkpt>
      <trkpt lat="47.27032" lon="-2.34428">
        <ele>9.6000003814697</ele>
        <time>2022-07-14T07:12:35.000Z</time>
      </trkpt>
      <trkpt lat="47.2703" lon="-2.34423">
        <ele>10.199999809265</ele>
        <time>2022-07-14T07:12:36.000Z</time>
      </trkpt>
      <trkpt lat="47.27028" lon="-2.34419">
        <ele>10.199999809265</ele>
        <time>2022-07-14T07:12:37.000Z</time>
      </trkpt>
      <trkpt lat="47.27015" lon="-2.3438">
        <ele>10.199999809265</ele>
        <time>2022-07-14T07:12:45.000Z</time>
      </trkpt>
      <trkpt lat="47.27006" lon="-2.34345">
        <ele>10.199999809265</ele>
        <time>2022-07-14T07:12:52.000Z</time>
      </trkpt>
      <trkpt lat="47.27007" lon="-2.34324">
        <ele>10.199999809265</ele>
        <time>2022-07-14T07:12:56.000Z</time>
      </trkpt>
      <trkpt lat="47.27015" lon="-2.3432">
        <ele>10.199999809265</ele>
        <time>2022-07-14T07:12:59.000Z</time>
      </trkpt>
      <trkpt lat="47.27021" lon="-2.3432">
        <ele>10.199999809265</ele>
        <time>2022-07-14T07:13:01.000Z</time>
      </trkpt>
      <trkpt lat="47.27039" lon="-2.3432">
        <ele>10.199999809265</ele>
        <time>2022-07-14T07:13:07.000Z</time>
      </trkpt>
      <trkpt lat="47.27051" lon="-2.34311">
        <ele>10.199999809265</ele>
        <time>2022-07-14T07:13:12.000Z</time>
      </trkpt>
      <trkpt lat="47.27048" lon="-2.34287">
        <ele>10.199999809265</ele>
        <time>2022-07-14T07:13:17.000Z</time>
      </trkpt>
      <trkpt lat="47.27046" lon="-2.34281">
        <ele>10.199999809265</ele>
        <time>2022-07-14T07:13:18.000Z</time>
      </trkpt>
      <trkpt lat="47.27041" lon="-2.34258">
        <ele>10.199999809265</ele>
        <time>2022-07-14T07:13:22.000Z</time>
      </trkpt>
      <trkpt lat="47.27041" lon="-2.34252">
        <ele>10.199999809265</ele>
        <time>2022-07-14T07:13:23.000Z</time>
      </trkpt>
      <trkpt lat="47.27041" lon="-2.34199">
        <ele>10.199999809265</ele>
        <time>2022-07-14T07:13:31.000Z</time>
      </trkpt>
      <trkpt lat="47.27041" lon="-2.34192">
        <ele>10.199999809265</ele>
        <time>2022-07-14T07:13:32.000Z</time>
      </trkpt>
      <trkpt lat="47.2704" lon="-2.3415">
        <ele>10.199999809265</ele>
        <time>2022-07-14T07:13:38.000Z</time>
      </trkpt>
      <trkpt lat="47.2704" lon="-2.34137">
        <ele>10.199999809265</ele>
        <time>2022-07-14T07:13:40.000Z</time>
      </trkpt>
      <trkpt lat="47.27041" lon="-2.34117">
        <ele>10.199999809265</ele>
        <time>2022-07-14T07:13:43.000Z</time>
      </trkpt>
      <trkpt lat="47.27042" lon="-2.34096">
        <ele>10.199999809265</ele>
        <time>2022-07-14T07:13:46.000Z</time>
      </trkpt>
      <trkpt lat="47.27042" lon="-2.34075">
        <ele>10.199999809265</ele>
        <time>2022-07-14T07:13:49.000Z</time>
      </trkpt>
      <trkpt lat="47.27043" lon="-2.34042">
        <ele>10.199999809265</ele>
        <time>2022-07-14T07:13:54.000Z</time>
      </trkpt>
      <trkpt lat="47.2704" lon="-2.34017">
        <ele>10.199999809265</ele>
        <time>2022-07-14T07:13:59.000Z</time>
      </trkpt>
      <trkpt lat="47.2703" lon="-2.34009">
        <ele>10.199999809265</ele>
        <time>2022-07-14T07:14:04.000Z</time>
      </trkpt>
      <trkpt lat="47.26996" lon="-2.34016">
        <ele>10.199999809265</ele>
        <time>2022-07-14T07:14:08.000Z</time>
      </trkpt>
      <trkpt lat="47.26978" lon="-2.3402">
        <ele>9.8000001907349</ele>
        <time>2022-07-14T07:14:11.000Z</time>
      </trkpt>
      <trkpt lat="47.26973" lon="-2.3402">
        <ele>9.3999996185303</ele>
        <time>2022-07-14T07:14:12.000Z</time>
      </trkpt>
      <trkpt lat="47.26968" lon="-2.34018">
        <ele>8.6000003814697</ele>
        <time>2022-07-14T07:14:13.000Z</time>
      </trkpt>
      <trkpt lat="47.26965" lon="-2.34013">
        <ele>8.1999998092651</ele>
        <time>2022-07-14T07:14:14.000Z</time>
      </trkpt>
      <trkpt lat="47.26963" lon="-2.34">
        <ele>8.1999998092651</ele>
        <time>2022-07-14T07:14:16.000Z</time>
      </trkpt>
      <trkpt lat="47.26965" lon="-2.33972">
        <ele>8.1999998092651</ele>
        <time>2022-07-14T07:14:20.000Z</time>
      </trkpt>
      <trkpt lat="47.26967" lon="-2.33964">
        <ele>8.1999998092651</ele>
        <time>2022-07-14T07:14:21.000Z</time>
      </trkpt>
      <trkpt lat="47.2697" lon="-2.33951">
        <ele>8.1999998092651</ele>
        <time>2022-07-14T07:14:23.000Z</time>
      </trkpt>
      <trkpt lat="47.26978" lon="-2.33918">
        <ele>8.1999998092651</ele>
        <time>2022-07-14T07:14:28.000Z</time>
      </trkpt>
      <trkpt lat="47.26984" lon="-2.33899">
        <ele>8.6000003814697</ele>
        <time>2022-07-14T07:14:31.000Z</time>
      </trkpt>
      <trkpt lat="47.26986" lon="-2.33893">
        <ele>9</ele>
        <time>2022-07-14T07:14:32.000Z</time>
      </trkpt>
      <trkpt lat="47.26987" lon="-2.33887">
        <ele>9.3999996185303</ele>
        <time>2022-07-14T07:14:33.000Z</time>
      </trkpt>
      <trkpt lat="47.26989" lon="-2.33882">
        <ele>9.8000001907349</ele>
        <time>2022-07-14T07:14:34.000Z</time>
      </trkpt>
      <trkpt lat="47.26991" lon="-2.33877">
        <ele>10.199999809265</ele>
        <time>2022-07-14T07:14:35.000Z</time>
      </trkpt>
      <trkpt lat="47.26992" lon="-2.3385">
        <ele>10.199999809265</ele>
        <time>2022-07-14T07:14:40.000Z</time>
      </trkpt>
      <trkpt lat="47.26973" lon="-2.33836">
        <ele>10.199999809265</ele>
        <time>2022-07-14T07:14:44.000Z</time>
      </trkpt>
      <trkpt lat="47.26936" lon="-2.33817">
        <ele>10.199999809265</ele>
        <time>2022-07-14T07:14:50.000Z</time>
      </trkpt>
      <trkpt lat="47.26923" lon="-2.33797">
        <ele>10.199999809265</ele>
        <time>2022-07-14T07:14:53.000Z</time>
      </trkpt>
      <trkpt lat="47.26926" lon="-2.33774">
        <ele>10.199999809265</ele>
        <time>2022-07-14T07:14:56.000Z</time>
      </trkpt>
      <trkpt lat="47.26927" lon="-2.33767">
        <ele>10.199999809265</ele>
        <time>2022-07-14T07:14:57.000Z</time>
      </trkpt>
      <trkpt lat="47.26936" lon="-2.33716">
        <ele>10.199999809265</ele>
        <time>2022-07-14T07:15:04.000Z</time>
      </trkpt>
      <trkpt lat="47.26932" lon="-2.33685">
        <ele>10.199999809265</ele>
        <time>2022-07-14T07:15:08.000Z</time>
      </trkpt>
      <trkpt lat="47.26931" lon="-2.33678">
        <ele>10.199999809265</ele>
        <time>2022-07-14T07:15:09.000Z</time>
      </trkpt>
      <trkpt lat="47.26921" lon="-2.33624">
        <ele>9.8000001907349</ele>
        <time>2022-07-14T07:15:16.000Z</time>
      </trkpt>
      <trkpt lat="47.2692" lon="-2.33616">
        <ele>9.3999996185303</ele>
        <time>2022-07-14T07:15:17.000Z</time>
      </trkpt>
      <trkpt lat="47.26918" lon="-2.33609">
        <ele>9</ele>
        <time>2022-07-14T07:15:18.000Z</time>
      </trkpt>
      <trkpt lat="47.26915" lon="-2.33601">
        <ele>8.6000003814697</ele>
        <time>2022-07-14T07:15:19.000Z</time>
      </trkpt>
      <trkpt lat="47.26912" lon="-2.33592">
        <ele>8.1999998092651</ele>
        <time>2022-07-14T07:15:20.000Z</time>
      </trkpt>
      <trkpt lat="47.26902" lon="-2.33569">
        <ele>8.1999998092651</ele>
        <time>2022-07-14T07:15:23.000Z</time>
      </trkpt>
      <trkpt lat="47.26889" lon="-2.33538">
        <ele>7.5999999046326</ele>
        <time>2022-07-14T07:15:27.000Z</time>
      </trkpt>
      <trkpt lat="47.26886" lon="-2.33529">
        <ele>7.1999998092651</ele>
        <time>2022-07-14T07:15:28.000Z</time>
      </trkpt>
      <trkpt lat="47.26884" lon="-2.33521">
        <ele>6.8000001907349</ele>
        <time>2022-07-14T07:15:29.000Z</time>
      </trkpt>
      <trkpt lat="47.26883" lon="-2.33513">
        <ele>6.4000000953674</ele>
        <time>2022-07-14T07:15:30.000Z</time>
      </trkpt>
      <trkpt lat="47.26883" lon="-2.33507">
        <ele>6</ele>
        <time>2022-07-14T07:15:31.000Z</time>
      </trkpt>
      <trkpt lat="47.26879" lon="-2.33484">
        <ele>6.4000000953674</ele>
        <time>2022-07-14T07:15:35.000Z</time>
      </trkpt>
      <trkpt lat="47.26878" lon="-2.33479">
        <ele>6.8000001907349</ele>
        <time>2022-07-14T07:15:36.000Z</time>
      </trkpt>
      <trkpt lat="47.26877" lon="-2.33474">
        <ele>7.1999998092651</ele>
        <time>2022-07-14T07:15:37.000Z</time>
      </trkpt>
      <trkpt lat="47.26876" lon="-2.3347">
        <ele>7.8000001907349</ele>
        <time>2022-07-14T07:15:38.000Z</time>
      </trkpt>
      <trkpt lat="47.26875" lon="-2.33466">
        <ele>8.1999998092651</ele>
        <time>2022-07-14T07:15:39.000Z</time>
      </trkpt>
      <trkpt lat="47.26874" lon="-2.33463">
        <ele>8.6000003814697</ele>
        <time>2022-07-14T07:15:40.000Z</time>
      </trkpt>
      <trkpt lat="47.26873" lon="-2.33461">
        <ele>9</ele>
        <time>2022-07-14T07:15:41.000Z</time>
      </trkpt>
      <trkpt lat="47.26873" lon="-2.33459">
        <ele>9.3999996185303</ele>
        <time>2022-07-14T07:15:42.000Z</time>
      </trkpt>
      <trkpt lat="47.26872" lon="-2.33457">
        <ele>9.8000001907349</ele>
        <time>2022-07-14T07:15:43.000Z</time>
      </trkpt>
      <trkpt lat="47.26872" lon="-2.33455">
        <ele>10.199999809265</ele>
        <time>2022-07-14T07:15:44.000Z</time>
      </trkpt>
      <trkpt lat="47.26871" lon="-2.33449">
        <ele>10.199999809265</ele>
        <time>2022-07-14T07:15:48.000Z</time>
      </trkpt>
      <trkpt lat="47.26872" lon="-2.33441">
        <ele>10.60000038147</ele>
        <time>2022-07-14T07:15:53.000Z</time>
      </trkpt>
      <trkpt lat="47.26872" lon="-2.3344">
        <ele>11</ele>
        <time>2022-07-14T07:15:54.000Z</time>
      </trkpt>
      <trkpt lat="47.26872" lon="-2.33439">
        <ele>11.39999961853</ele>
        <time>2022-07-14T07:15:55.000Z</time>
      </trkpt>
      <trkpt lat="47.26872" lon="-2.33437">
        <ele>11.800000190735</ele>
        <time>2022-07-14T07:15:56.000Z</time>
      </trkpt>
      <trkpt lat="47.26872" lon="-2.33436">
        <ele>12.199999809265</ele>
        <time>2022-07-14T07:15:57.000Z</time>
      </trkpt>
      <trkpt lat="47.26873" lon="-2.33433">
        <ele>12.199999809265</ele>
        <time>2022-07-14T07:16:00.000Z</time>
      </trkpt>
      <trkpt lat="47.26875" lon="-2.33429">
        <ele>12.199999809265</ele>
        <time>2022-07-14T07:16:02.000Z</time>
      </trkpt>
      <trkpt lat="47.26886" lon="-2.33415">
        <ele>12.199999809265</ele>
        <time>2022-07-14T07:16:08.000Z</time>
      </trkpt>
      <trkpt lat="47.26889" lon="-2.33414">
        <ele>12.60000038147</ele>
        <time>2022-07-14T07:16:09.000Z</time>
      </trkpt>
      <trkpt lat="47.26892" lon="-2.33412">
        <ele>13.199999809265</ele>
        <time>2022-07-14T07:16:10.000Z</time>
      </trkpt>
      <trkpt lat="47.26895" lon="-2.3341">
        <ele>13.60000038147</ele>
        <time>2022-07-14T07:16:11.000Z</time>
      </trkpt>
      <trkpt lat="47.26898" lon="-2.33409">
        <ele>14</ele>
        <time>2022-07-14T07:16:12.000Z</time>
      </trkpt>
      <trkpt lat="47.26901" lon="-2.33407">
        <ele>14.39999961853</ele>
        <time>2022-07-14T07:16:13.000Z</time>
      </trkpt>
      <trkpt lat="47.26908" lon="-2.33404">
        <ele>14.39999961853</ele>
        <time>2022-07-14T07:16:15.000Z</time>
      </trkpt>
      <trkpt lat="47.26918" lon="-2.33398">
        <ele>14.800000190735</ele>
        <time>2022-07-14T07:16:18.000Z</time>
      </trkpt>
      <trkpt lat="47.26921" lon="-2.33396">
        <ele>15.199999809265</ele>
        <time>2022-07-14T07:16:19.000Z</time>
      </trkpt>
      <trkpt lat="47.26925" lon="-2.33394">
        <ele>15.60000038147</ele>
        <time>2022-07-14T07:16:20.000Z</time>
      </trkpt>
      <trkpt lat="47.26929" lon="-2.33392">
        <ele>16</ele>
        <time>2022-07-14T07:16:21.000Z</time>
      </trkpt>
      <trkpt lat="47.26932" lon="-2.3339">
        <ele>16.39999961853</ele>
        <time>2022-07-14T07:16:22.000Z</time>
      </trkpt>
      <trkpt lat="47.26954" lon="-2.33381">
        <ele>16.39999961853</ele>
        <time>2022-07-14T07:16:28.000Z</time>
      </trkpt>
      <trkpt lat="47.26965" lon="-2.33374">
        <ele>16.39999961853</ele>
        <time>2022-07-14T07:16:32.000Z</time>
      </trkpt>
      <trkpt lat="47.26967" lon="-2.3337">
        <ele>16.39999961853</ele>
        <time>2022-07-14T07:16:33.000Z</time>
      </trkpt>
      <trkpt lat="47.26967" lon="-2.33365">
        <ele>16.799999237061</ele>
        <time>2022-07-14T07:16:34.000Z</time>
      </trkpt>
      <trkpt lat="47.26967" lon="-2.33361">
        <ele>17.200000762939</ele>
        <time>2022-07-14T07:16:35.000Z</time>
      </trkpt>
      <trkpt lat="47.26966" lon="-2.33356">
        <ele>17.60000038147</ele>
        <time>2022-07-14T07:16:36.000Z</time>
      </trkpt>
      <trkpt lat="47.26964" lon="-2.33351">
        <ele>18.200000762939</ele>
        <time>2022-07-14T07:16:37.000Z</time>
      </trkpt>
      <trkpt lat="47.26963" lon="-2.33346">
        <ele>18.60000038147</ele>
        <time>2022-07-14T07:16:38.000Z</time>
      </trkpt>
      <trkpt lat="47.26955" lon="-2.33324">
        <ele>18.60000038147</ele>
        <time>2022-07-14T07:16:42.000Z</time>
      </trkpt>
      <trkpt lat="47.26942" lon="-2.33283">
        <ele>18.60000038147</ele>
        <time>2022-07-14T07:16:48.000Z</time>
      </trkpt>
      <trkpt lat="47.26927" lon="-2.33237">
        <ele>18.60000038147</ele>
        <time>2022-07-14T07:16:55.000Z</time>
      </trkpt>
      <trkpt lat="47.26931" lon="-2.33221">
        <ele>18.60000038147</ele>
        <time>2022-07-14T07:16:58.000Z</time>
      </trkpt>
      <trkpt lat="47.26939" lon="-2.33216">
        <ele>18.60000038147</ele>
        <time>2022-07-14T07:17:00.000Z</time>
      </trkpt>
      <trkpt lat="47.26943" lon="-2.33215">
        <ele>18.60000038147</ele>
        <time>2022-07-14T07:17:01.000Z</time>
      </trkpt>
      <trkpt lat="47.26951" lon="-2.3321">
        <ele>18.60000038147</ele>
        <time>2022-07-14T07:17:03.000Z</time>
      </trkpt>
      <trkpt lat="47.26964" lon="-2.33199">
        <ele>18.60000038147</ele>
        <time>2022-07-14T07:17:06.000Z</time>
      </trkpt>
      <trkpt lat="47.26973" lon="-2.33189">
        <ele>18.60000038147</ele>
        <time>2022-07-14T07:17:08.000Z</time>
      </trkpt>
      <trkpt lat="47.26986" lon="-2.33174">
        <ele>18.60000038147</ele>
        <time>2022-07-14T07:17:11.000Z</time>
      </trkpt>
      <trkpt lat="47.27015" lon="-2.3315">
        <ele>18.60000038147</ele>
        <time>2022-07-14T07:17:17.000Z</time>
      </trkpt>
      <trkpt lat="47.27049" lon="-2.33115">
        <ele>18.60000038147</ele>
        <time>2022-07-14T07:17:24.000Z</time>
      </trkpt>
      <trkpt lat="47.27067" lon="-2.33094">
        <ele>18.60000038147</ele>
        <time>2022-07-14T07:17:28.000Z</time>
      </trkpt>
      <trkpt lat="47.27077" lon="-2.33084">
        <ele>18.60000038147</ele>
        <time>2022-07-14T07:17:30.000Z</time>
      </trkpt>
      <trkpt lat="47.271" lon="-2.33063">
        <ele>18.60000038147</ele>
        <time>2022-07-14T07:17:35.000Z</time>
      </trkpt>
      <trkpt lat="47.27105" lon="-2.3306">
        <ele>18.60000038147</ele>
        <time>2022-07-14T07:17:36.000Z</time>
      </trkpt>
      <trkpt lat="47.27136" lon="-2.33036">
        <ele>18.60000038147</ele>
        <time>2022-07-14T07:17:43.000Z</time>
      </trkpt>
      <trkpt lat="47.27163" lon="-2.33016">
        <ele>18.60000038147</ele>
        <time>2022-07-14T07:17:49.000Z</time>
      </trkpt>
      <trkpt lat="47.27199" lon="-2.32989">
        <ele>18.60000038147</ele>
        <time>2022-07-14T07:17:56.000Z</time>
      </trkpt>
      <trkpt lat="47.27209" lon="-2.32983">
        <ele>18.60000038147</ele>
        <time>2022-07-14T07:17:58.000Z</time>
      </trkpt>
      <trkpt lat="47.27219" lon="-2.32985">
        <ele>18.60000038147</ele>
        <time>2022-07-14T07:18:00.000Z</time>
      </trkpt>
      <trkpt lat="47.27236" lon="-2.33004">
        <ele>18.60000038147</ele>
        <time>2022-07-14T07:18:04.000Z</time>
      </trkpt>
      <trkpt lat="47.27267" lon="-2.33053">
        <ele>18.60000038147</ele>
        <time>2022-07-14T07:18:12.000Z</time>
      </trkpt>
      <trkpt lat="47.27293" lon="-2.33092">
        <ele>19</ele>
        <time>2022-07-14T07:18:19.000Z</time>
      </trkpt>
      <trkpt lat="47.27296" lon="-2.33098">
        <ele>19.799999237061</ele>
        <time>2022-07-14T07:18:20.000Z</time>
      </trkpt>
      <trkpt lat="47.273" lon="-2.33103">
        <ele>20.200000762939</ele>
        <time>2022-07-14T07:18:21.000Z</time>
      </trkpt>
      <trkpt lat="47.27303" lon="-2.33108">
        <ele>20.60000038147</ele>
        <time>2022-07-14T07:18:22.000Z</time>
      </trkpt>
      <trkpt lat="47.2731" lon="-2.3311">
        <ele>20.60000038147</ele>
        <time>2022-07-14T07:18:24.000Z</time>
      </trkpt>
      <trkpt lat="47.27318" lon="-2.33099">
        <ele>20.60000038147</ele>
        <time>2022-07-14T07:18:27.000Z</time>
      </trkpt>
      <trkpt lat="47.27327" lon="-2.33075">
        <ele>20.60000038147</ele>
        <time>2022-07-14T07:18:31.000Z</time>
      </trkpt>
      <trkpt lat="47.2733" lon="-2.33068">
        <ele>20.60000038147</ele>
        <time>2022-07-14T07:18:32.000Z</time>
      </trkpt>
      <trkpt lat="47.27342" lon="-2.33031">
        <ele>20.60000038147</ele>
        <time>2022-07-14T07:18:38.000Z</time>
      </trkpt>
      <trkpt lat="47.27351" lon="-2.33004">
        <ele>20.60000038147</ele>
        <time>2022-07-14T07:18:45.000Z</time>
      </trkpt>
      <trkpt lat="47.27363" lon="-2.32978">
        <ele>20.200000762939</ele>
        <time>2022-07-14T07:18:52.000Z</time>
      </trkpt>
      <trkpt lat="47.27365" lon="-2.32973">
        <ele>19.799999237061</ele>
        <time>2022-07-14T07:18:53.000Z</time>
      </trkpt>
      <trkpt lat="47.27367" lon="-2.32969">
        <ele>19.200000762939</ele>
        <time>2022-07-14T07:18:54.000Z</time>
      </trkpt>
      <trkpt lat="47.27369" lon="-2.32965">
        <ele>18.799999237061</ele>
        <time>2022-07-14T07:18:55.000Z</time>
      </trkpt>
      <trkpt lat="47.27371" lon="-2.3296">
        <ele>18.39999961853</ele>
        <time>2022-07-14T07:18:56.000Z</time>
      </trkpt>
      <trkpt lat="47.2738" lon="-2.32941">
        <ele>18.39999961853</ele>
        <time>2022-07-14T07:19:00.000Z</time>
      </trkpt>
      <trkpt lat="47.2739" lon="-2.32932">
        <ele>18.39999961853</ele>
        <time>2022-07-14T07:19:04.000Z</time>
      </trkpt>
      <trkpt lat="47.27402" lon="-2.32946">
        <ele>18.39999961853</ele>
        <time>2022-07-14T07:19:09.000Z</time>
      </trkpt>
      <trkpt lat="47.27404" lon="-2.32952">
        <ele>18.39999961853</ele>
        <time>2022-07-14T07:19:10.000Z</time>
      </trkpt>
      <trkpt lat="47.27411" lon="-2.32978">
        <ele>18.39999961853</ele>
        <time>2022-07-14T07:19:14.000Z</time>
      </trkpt>
      <trkpt lat="47.27427" lon="-2.33026">
        <ele>18.39999961853</ele>
        <time>2022-07-14T07:19:21.000Z</time>
      </trkpt>
      <trkpt lat="47.27435" lon="-2.33045">
        <ele>18.799999237061</ele>
        <time>2022-07-14T07:19:24.000Z</time>
      </trkpt>
      <trkpt lat="47.27439" lon="-2.33046">
        <ele>19.39999961853</ele>
        <time>2022-07-14T07:19:25.000Z</time>
      </trkpt>
      <trkpt lat="47.27444" lon="-2.33046">
        <ele>19.799999237061</ele>
        <time>2022-07-14T07:19:26.000Z</time>
      </trkpt>
      <trkpt lat="47.27448" lon="-2.33045">
        <ele>20.200000762939</ele>
        <time>2022-07-14T07:19:27.000Z</time>
      </trkpt>
      <trkpt lat="47.27452" lon="-2.33042">
        <ele>20.60000038147</ele>
        <time>2022-07-14T07:19:28.000Z</time>
      </trkpt>
      <trkpt lat="47.27468" lon="-2.33017">
        <ele>20.60000038147</ele>
        <time>2022-07-14T07:19:32.000Z</time>
      </trkpt>
      <trkpt lat="47.27471" lon="-2.33009">
        <ele>20.60000038147</ele>
        <time>2022-07-14T07:19:33.000Z</time>
      </trkpt>
      <trkpt lat="47.27485" lon="-2.32966">
        <ele>20.60000038147</ele>
        <time>2022-07-14T07:19:38.000Z</time>
      </trkpt>
      <trkpt lat="47.27492" lon="-2.32949">
        <ele>20.60000038147</ele>
        <time>2022-07-14T07:19:40.000Z</time>
      </trkpt>
      <trkpt lat="47.27498" lon="-2.32931">
        <ele>20.200000762939</ele>
        <time>2022-07-14T07:19:42.000Z</time>
      </trkpt>
      <trkpt lat="47.27501" lon="-2.32921">
        <ele>19.799999237061</ele>
        <time>2022-07-14T07:19:43.000Z</time>
      </trkpt>
      <trkpt lat="47.27503" lon="-2.3291">
        <ele>19.39999961853</ele>
        <time>2022-07-14T07:19:44.000Z</time>
      </trkpt>
      <trkpt lat="47.27506" lon="-2.32901">
        <ele>19</ele>
        <time>2022-07-14T07:19:45.000Z</time>
      </trkpt>
      <trkpt lat="47.27509" lon="-2.32891">
        <ele>18.60000038147</ele>
        <time>2022-07-14T07:19:46.000Z</time>
      </trkpt>
      <trkpt lat="47.27515" lon="-2.32874">
        <ele>18.60000038147</ele>
        <time>2022-07-14T07:19:48.000Z</time>
      </trkpt>
      <trkpt lat="47.27519" lon="-2.32867">
        <ele>18.200000762939</ele>
        <time>2022-07-14T07:19:49.000Z</time>
      </trkpt>
      <trkpt lat="47.27523" lon="-2.3286">
        <ele>17.799999237061</ele>
        <time>2022-07-14T07:19:50.000Z</time>
      </trkpt>
      <trkpt lat="47.27527" lon="-2.32856">
        <ele>17.39999961853</ele>
        <time>2022-07-14T07:19:51.000Z</time>
      </trkpt>
      <trkpt lat="47.2753" lon="-2.32852">
        <ele>17</ele>
        <time>2022-07-14T07:19:52.000Z</time>
      </trkpt>
      <trkpt lat="47.27533" lon="-2.32849">
        <ele>16.60000038147</ele>
        <time>2022-07-14T07:19:53.000Z</time>
      </trkpt>
      <trkpt lat="47.27543" lon="-2.32841">
        <ele>16.60000038147</ele>
        <time>2022-07-14T07:19:58.000Z</time>
      </trkpt>
      <trkpt lat="47.27547" lon="-2.32839">
        <ele>16.60000038147</ele>
        <time>2022-07-14T07:20:00.000Z</time>
      </trkpt>
      <trkpt lat="47.27551" lon="-2.32833">
        <ele>16.60000038147</ele>
        <time>2022-07-14T07:20:03.000Z</time>
      </trkpt>
      <trkpt lat="47.27558" lon="-2.32829">
        <ele>16.60000038147</ele>
        <time>2022-07-14T07:20:07.000Z</time>
      </trkpt>
      <trkpt lat="47.27562" lon="-2.32823">
        <ele>16.60000038147</ele>
        <time>2022-07-14T07:20:11.000Z</time>
      </trkpt>
      <trkpt lat="47.27564" lon="-2.32818">
        <ele>16.60000038147</ele>
        <time>2022-07-14T07:20:13.000Z</time>
      </trkpt>
      <trkpt lat="47.27567" lon="-2.32812">
        <ele>16.200000762939</ele>
        <time>2022-07-14T07:20:15.000Z</time>
      </trkpt>
      <trkpt lat="47.27568" lon="-2.32808">
        <ele>15.60000038147</ele>
        <time>2022-07-14T07:20:16.000Z</time>
      </trkpt>
      <trkpt lat="47.27569" lon="-2.32805">
        <ele>15.199999809265</ele>
        <time>2022-07-14T07:20:17.000Z</time>
      </trkpt>
      <trkpt lat="47.2757" lon="-2.32802">
        <ele>14.800000190735</ele>
        <time>2022-07-14T07:20:18.000Z</time>
      </trkpt>
      <trkpt lat="47.27571" lon="-2.32799">
        <ele>14.39999961853</ele>
        <time>2022-07-14T07:20:19.000Z</time>
      </trkpt>
      <trkpt lat="47.27573" lon="-2.32788">
        <ele>14.39999961853</ele>
        <time>2022-07-14T07:20:24.000Z</time>
      </trkpt>
      <trkpt lat="47.27575" lon="-2.32776">
        <ele>14.39999961853</ele>
        <time>2022-07-14T07:20:31.000Z</time>
      </trkpt>
      <trkpt lat="47.2758" lon="-2.32757">
        <ele>14</ele>
        <time>2022-07-14T07:20:36.000Z</time>
      </trkpt>
      <trkpt lat="47.2758" lon="-2.32752">
        <ele>13.60000038147</ele>
        <time>2022-07-14T07:20:37.000Z</time>
      </trkpt>
      <trkpt lat="47.2758" lon="-2.32746">
        <ele>13</ele>
        <time>2022-07-14T07:20:38.000Z</time>
      </trkpt>
      <trkpt lat="47.2758" lon="-2.3274">
        <ele>12.60000038147</ele>
        <time>2022-07-14T07:20:39.000Z</time>
      </trkpt>
      <trkpt lat="47.27582" lon="-2.32733">
        <ele>12</ele>
        <time>2022-07-14T07:20:40.000Z</time>
      </trkpt>
      <trkpt lat="47.27585" lon="-2.32726">
        <ele>11.39999961853</ele>
        <time>2022-07-14T07:20:41.000Z</time>
      </trkpt>
      <trkpt lat="47.27587" lon="-2.32719">
        <ele>10.800000190735</ele>
        <time>2022-07-14T07:20:42.000Z</time>
      </trkpt>
      <trkpt lat="47.2759" lon="-2.32711">
        <ele>10</ele>
        <time>2022-07-14T07:20:43.000Z</time>
      </trkpt>
      <trkpt lat="47.27593" lon="-2.32704">
        <ele>9.3999996185303</ele>
        <time>2022-07-14T07:20:44.000Z</time>
      </trkpt>
      <trkpt lat="47.27597" lon="-2.32699">
        <ele>9</ele>
        <time>2022-07-14T07:20:45.000Z</time>
      </trkpt>
      <trkpt lat="47.27601" lon="-2.32696">
        <ele>8.6000003814697</ele>
        <time>2022-07-14T07:20:46.000Z</time>
      </trkpt>
      <trkpt lat="47.27605" lon="-2.32696">
        <ele>7.5999999046326</ele>
        <time>2022-07-14T07:20:47.000Z</time>
      </trkpt>
      <trkpt lat="47.27609" lon="-2.32697">
        <ele>7.1999998092651</ele>
        <time>2022-07-14T07:20:48.000Z</time>
      </trkpt>
      <trkpt lat="47.27613" lon="-2.32698">
        <ele>7.1999998092651</ele>
        <time>2022-07-14T07:20:49.000Z</time>
      </trkpt>
      <trkpt lat="47.27621" lon="-2.32704">
        <ele>7.1999998092651</ele>
        <time>2022-07-14T07:20:52.000Z</time>
      </trkpt>
      <trkpt lat="47.27628" lon="-2.32706">
        <ele>7.1999998092651</ele>
        <time>2022-07-14T07:20:54.000Z</time>
      </trkpt>
      <trkpt lat="47.27635" lon="-2.32708">
        <ele>7.1999998092651</ele>
        <time>2022-07-14T07:20:56.000Z</time>
      </trkpt>
      <trkpt lat="47.27653" lon="-2.32715">
        <ele>7.1999998092651</ele>
        <time>2022-07-14T07:21:02.000Z</time>
      </trkpt>
      <trkpt lat="47.27658" lon="-2.32717">
        <ele>7.1999998092651</ele>
        <time>2022-07-14T07:21:07.000Z</time>
      </trkpt>
      <trkpt lat="47.27659" lon="-2.32717">
        <ele>7.1999998092651</ele>
        <time>2022-07-14T07:21:09.000Z</time>
      </trkpt>
      <trkpt lat="47.27678" lon="-2.32724">
        <ele>7.1999998092651</ele>
        <time>2022-07-14T07:21:44.000Z</time>
      </trkpt>
      <trkpt lat="47.27684" lon="-2.32721">
        <ele>7.1999998092651</ele>
        <time>2022-07-14T07:21:46.000Z</time>
      </trkpt>
      <trkpt lat="47.27701" lon="-2.32706">
        <ele>7.1999998092651</ele>
        <time>2022-07-14T07:21:52.000Z</time>
      </trkpt>
      <trkpt lat="47.27708" lon="-2.32692">
        <ele>7.1999998092651</ele>
        <time>2022-07-14T07:21:57.000Z</time>
      </trkpt>
      <trkpt lat="47.27713" lon="-2.32682">
        <ele>8.1999998092651</ele>
        <time>2022-07-14T07:22:01.000Z</time>
      </trkpt>
      <trkpt lat="47.27714" lon="-2.32678">
        <ele>8.6000003814697</ele>
        <time>2022-07-14T07:22:02.000Z</time>
      </trkpt>
      <trkpt lat="47.27716" lon="-2.32674">
        <ele>9.1999998092651</ele>
        <time>2022-07-14T07:22:03.000Z</time>
      </trkpt>
      <trkpt lat="47.27718" lon="-2.3267">
        <ele>9.6000003814697</ele>
        <time>2022-07-14T07:22:04.000Z</time>
      </trkpt>
      <trkpt lat="47.2772" lon="-2.32663">
        <ele>10</ele>
        <time>2022-07-14T07:22:06.000Z</time>
      </trkpt>
      <trkpt lat="47.2772" lon="-2.32659">
        <ele>10.60000038147</ele>
        <time>2022-07-14T07:22:07.000Z</time>
      </trkpt>
      <trkpt lat="47.27721" lon="-2.32655">
        <ele>11</ele>
        <time>2022-07-14T07:22:08.000Z</time>
      </trkpt>
      <trkpt lat="47.27722" lon="-2.32652">
        <ele>11.39999961853</ele>
        <time>2022-07-14T07:22:09.000Z</time>
      </trkpt>
      <trkpt lat="47.27723" lon="-2.32648">
        <ele>12</ele>
        <time>2022-07-14T07:22:10.000Z</time>
      </trkpt>
      <trkpt lat="47.27724" lon="-2.32644">
        <ele>12.39999961853</ele>
        <time>2022-07-14T07:22:11.000Z</time>
      </trkpt>
      <trkpt lat="47.27726" lon="-2.3264">
        <ele>12.800000190735</ele>
        <time>2022-07-14T07:22:12.000Z</time>
      </trkpt>
      <trkpt lat="47.27727" lon="-2.32636">
        <ele>13.39999961853</ele>
        <time>2022-07-14T07:22:13.000Z</time>
      </trkpt>
      <trkpt lat="47.27728" lon="-2.32633">
        <ele>13.800000190735</ele>
        <time>2022-07-14T07:22:14.000Z</time>
      </trkpt>
      <trkpt lat="47.27729" lon="-2.3263">
        <ele>14.199999809265</ele>
        <time>2022-07-14T07:22:15.000Z</time>
      </trkpt>
      <trkpt lat="47.27742" lon="-2.32609">
        <ele>14.199999809265</ele>
        <time>2022-07-14T07:22:20.000Z</time>
      </trkpt>
      <trkpt lat="47.27745" lon="-2.32604">
        <ele>14.60000038147</ele>
        <time>2022-07-14T07:22:21.000Z</time>
      </trkpt>
      <trkpt lat="47.27748" lon="-2.32599">
        <ele>15</ele>
        <time>2022-07-14T07:22:22.000Z</time>
      </trkpt>
      <trkpt lat="47.27751" lon="-2.32595">
        <ele>15.39999961853</ele>
        <time>2022-07-14T07:22:23.000Z</time>
      </trkpt>
      <trkpt lat="47.27755" lon="-2.3259">
        <ele>16</ele>
        <time>2022-07-14T07:22:24.000Z</time>
      </trkpt>
      <trkpt lat="47.27758" lon="-2.32586">
        <ele>16.39999961853</ele>
        <time>2022-07-14T07:22:25.000Z</time>
      </trkpt>
      <trkpt lat="47.27761" lon="-2.32581">
        <ele>16.39999961853</ele>
        <time>2022-07-14T07:22:26.000Z</time>
      </trkpt>
      <trkpt lat="47.27778" lon="-2.32557">
        <ele>16.39999961853</ele>
        <time>2022-07-14T07:22:32.000Z</time>
      </trkpt>
      <trkpt lat="47.27789" lon="-2.32541">
        <ele>16.39999961853</ele>
        <time>2022-07-14T07:22:36.000Z</time>
      </trkpt>
      <trkpt lat="47.27792" lon="-2.32537">
        <ele>16.39999961853</ele>
        <time>2022-07-14T07:22:37.000Z</time>
      </trkpt>
      <trkpt lat="47.27801" lon="-2.32525">
        <ele>16.39999961853</ele>
        <time>2022-07-14T07:22:40.000Z</time>
      </trkpt>
      <trkpt lat="47.27807" lon="-2.32518">
        <ele>16.39999961853</ele>
        <time>2022-07-14T07:22:42.000Z</time>
      </trkpt>
      <trkpt lat="47.27824" lon="-2.32488">
        <ele>16.39999961853</ele>
        <time>2022-07-14T07:22:49.000Z</time>
      </trkpt>
      <trkpt lat="47.2783" lon="-2.32479">
        <ele>16.39999961853</ele>
        <time>2022-07-14T07:22:51.000Z</time>
      </trkpt>
      <trkpt lat="47.27837" lon="-2.32473">
        <ele>16.39999961853</ele>
        <time>2022-07-14T07:22:53.000Z</time>
      </trkpt>
      <trkpt lat="47.27849" lon="-2.32456">
        <ele>16.39999961853</ele>
        <time>2022-07-14T07:22:58.000Z</time>
      </trkpt>
      <trkpt lat="47.27857" lon="-2.32444">
        <ele>16.39999961853</ele>
        <time>2022-07-14T07:23:02.000Z</time>
      </trkpt>
      <trkpt lat="47.27861" lon="-2.32438">
        <ele>16.39999961853</ele>
        <time>2022-07-14T07:23:08.000Z</time>
      </trkpt>
      <trkpt lat="47.27863" lon="-2.32434">
        <ele>16.39999961853</ele>
        <time>2022-07-14T07:23:22.000Z</time>
      </trkpt>
      <trkpt lat="47.27869" lon="-2.3242">
        <ele>16.39999961853</ele>
        <time>2022-07-14T07:23:27.000Z</time>
      </trkpt>
      <trkpt lat="47.27874" lon="-2.32413">
        <ele>16.39999961853</ele>
        <time>2022-07-14T07:23:32.000Z</time>
      </trkpt>
      <trkpt lat="47.27875" lon="-2.32409">
        <ele>16.39999961853</ele>
        <time>2022-07-14T07:23:34.000Z</time>
      </trkpt>
      <trkpt lat="47.27875" lon="-2.32403">
        <ele>16.39999961853</ele>
        <time>2022-07-14T07:23:37.000Z</time>
      </trkpt>
      <trkpt lat="47.27874" lon="-2.32395">
        <ele>16.39999961853</ele>
        <time>2022-07-14T07:23:42.000Z</time>
      </trkpt>
      <trkpt lat="47.27872" lon="-2.32394">
        <ele>16.39999961853</ele>
        <time>2022-07-14T07:23:44.000Z</time>
      </trkpt>
      <trkpt lat="47.27867" lon="-2.32395">
        <ele>16.39999961853</ele>
        <time>2022-07-14T07:23:47.000Z</time>
      </trkpt>
      <trkpt lat="47.27864" lon="-2.32397">
        <ele>16.39999961853</ele>
        <time>2022-07-14T07:23:49.000Z</time>
      </trkpt>
      <trkpt lat="47.27856" lon="-2.32395">
        <ele>16.39999961853</ele>
        <time>2022-07-14T07:23:53.000Z</time>
      </trkpt>
      <trkpt lat="47.27853" lon="-2.32393">
        <ele>16.39999961853</ele>
        <time>2022-07-14T07:23:54.000Z</time>
      </trkpt>
      <trkpt lat="47.27846" lon="-2.32387">
        <ele>16.39999961853</ele>
        <time>2022-07-14T07:23:58.000Z</time>
      </trkpt>
      <trkpt lat="47.27844" lon="-2.32386">
        <ele>16.39999961853</ele>
        <time>2022-07-14T07:23:59.000Z</time>
      </trkpt>
      <trkpt lat="47.27837" lon="-2.32384">
        <ele>16.39999961853</ele>
        <time>2022-07-14T07:24:03.000Z</time>
      </trkpt>
      <trkpt lat="47.27829" lon="-2.32387">
        <ele>16.39999961853</ele>
        <time>2022-07-14T07:24:07.000Z</time>
      </trkpt>
      <trkpt lat="47.27826" lon="-2.32388">
        <ele>16.39999961853</ele>
        <time>2022-07-14T07:24:08.000Z</time>
      </trkpt>
      <trkpt lat="47.27819" lon="-2.3239">
        <ele>16.39999961853</ele>
        <time>2022-07-14T07:24:11.000Z</time>
      </trkpt>
      <trkpt lat="47.27801" lon="-2.32389">
        <ele>16.39999961853</ele>
        <time>2022-07-14T07:24:17.000Z</time>
      </trkpt>
      <trkpt lat="47.27788" lon="-2.32386">
        <ele>16.799999237061</ele>
        <time>2022-07-14T07:24:22.000Z</time>
      </trkpt>
      <trkpt lat="47.27785" lon="-2.32387">
        <ele>17.200000762939</ele>
        <time>2022-07-14T07:24:23.000Z</time>
      </trkpt>
      <trkpt lat="47.27782" lon="-2.32387">
        <ele>17.60000038147</ele>
        <time>2022-07-14T07:24:24.000Z</time>
      </trkpt>
      <trkpt lat="47.2778" lon="-2.32386">
        <ele>18</ele>
        <time>2022-07-14T07:24:25.000Z</time>
      </trkpt>
      <trkpt lat="47.27779" lon="-2.32383">
        <ele>18.39999961853</ele>
        <time>2022-07-14T07:24:26.000Z</time>
      </trkpt>
      <trkpt lat="47.27776" lon="-2.32381">
        <ele>18.39999961853</ele>
        <time>2022-07-14T07:24:27.000Z</time>
      </trkpt>
      <trkpt lat="47.27764" lon="-2.32375">
        <ele>18.39999961853</ele>
        <time>2022-07-14T07:24:31.000Z</time>
      </trkpt>
      <trkpt lat="47.27748" lon="-2.32364">
        <ele>18.39999961853</ele>
        <time>2022-07-14T07:24:36.000Z</time>
      </trkpt>
      <trkpt lat="47.27738" lon="-2.32358">
        <ele>18.39999961853</ele>
        <time>2022-07-14T07:24:41.000Z</time>
      </trkpt>
      <trkpt lat="47.27727" lon="-2.32346">
        <ele>18.39999961853</ele>
        <time>2022-07-14T07:24:46.000Z</time>
      </trkpt>
      <trkpt lat="47.27713" lon="-2.32338">
        <ele>18.39999961853</ele>
        <time>2022-07-14T07:24:52.000Z</time>
      </trkpt>
      <trkpt lat="47.2769" lon="-2.32331">
        <ele>18.39999961853</ele>
        <time>2022-07-14T07:24:59.000Z</time>
      </trkpt>
      <trkpt lat="47.27674" lon="-2.32326">
        <ele>18.39999961853</ele>
        <time>2022-07-14T07:25:04.000Z</time>
      </trkpt>
      <trkpt lat="47.27651" lon="-2.32315">
        <ele>18.39999961853</ele>
        <time>2022-07-14T07:25:11.000Z</time>
      </trkpt>
      <trkpt lat="47.27645" lon="-2.32313">
        <ele>18</ele>
        <time>2022-07-14T07:25:13.000Z</time>
      </trkpt>
      <trkpt lat="47.27641" lon="-2.3231">
        <ele>17.60000038147</ele>
        <time>2022-07-14T07:25:14.000Z</time>
      </trkpt>
      <trkpt lat="47.27638" lon="-2.32308">
        <ele>17.200000762939</ele>
        <time>2022-07-14T07:25:15.000Z</time>
      </trkpt>
      <trkpt lat="47.27635" lon="-2.32306">
        <ele>16.799999237061</ele>
        <time>2022-07-14T07:25:16.000Z</time>
      </trkpt>
      <trkpt lat="47.27632" lon="-2.32305">
        <ele>16.39999961853</ele>
        <time>2022-07-14T07:25:17.000Z</time>
      </trkpt>
      <trkpt lat="47.27626" lon="-2.32289">
        <ele>16.39999961853</ele>
        <time>2022-07-14T07:25:20.000Z</time>
      </trkpt>
      <trkpt lat="47.27627" lon="-2.32265">
        <ele>16.39999961853</ele>
        <time>2022-07-14T07:25:24.000Z</time>
      </trkpt>
      <trkpt lat="47.27629" lon="-2.32258">
        <ele>16.39999961853</ele>
        <time>2022-07-14T07:25:25.000Z</time>
      </trkpt>
      <trkpt lat="47.27638" lon="-2.32223">
        <ele>16.39999961853</ele>
        <time>2022-07-14T07:25:30.000Z</time>
      </trkpt>
      <trkpt lat="47.27649" lon="-2.32175">
        <ele>16.39999961853</ele>
        <time>2022-07-14T07:25:36.000Z</time>
      </trkpt>
      <trkpt lat="47.27655" lon="-2.32158">
        <ele>16.39999961853</ele>
        <time>2022-07-14T07:25:38.000Z</time>
      </trkpt>
      <trkpt lat="47.27667" lon="-2.3212">
        <ele>16.39999961853</ele>
        <time>2022-07-14T07:25:42.000Z</time>
      </trkpt>
      <trkpt lat="47.2767" lon="-2.3211">
        <ele>16</ele>
        <time>2022-07-14T07:25:43.000Z</time>
      </trkpt>
      <trkpt lat="47.27674" lon="-2.32101">
        <ele>15.39999961853</ele>
        <time>2022-07-14T07:25:44.000Z</time>
      </trkpt>
      <trkpt lat="47.27678" lon="-2.32093">
        <ele>15</ele>
        <time>2022-07-14T07:25:45.000Z</time>
      </trkpt>
      <trkpt lat="47.27681" lon="-2.32084">
        <ele>14.60000038147</ele>
        <time>2022-07-14T07:25:46.000Z</time>
      </trkpt>
      <trkpt lat="47.27684" lon="-2.32075">
        <ele>14.199999809265</ele>
        <time>2022-07-14T07:25:47.000Z</time>
      </trkpt>
      <trkpt lat="47.27688" lon="-2.32037">
        <ele>14.199999809265</ele>
        <time>2022-07-14T07:25:51.000Z</time>
      </trkpt>
      <trkpt lat="47.27694" lon="-2.32005">
        <ele>14.199999809265</ele>
        <time>2022-07-14T07:25:55.000Z</time>
      </trkpt>
      <trkpt lat="47.27697" lon="-2.31998">
        <ele>14.199999809265</ele>
        <time>2022-07-14T07:25:56.000Z</time>
      </trkpt>
      <trkpt lat="47.27705" lon="-2.31978">
        <ele>14.199999809265</ele>
        <time>2022-07-14T07:25:59.000Z</time>
      </trkpt>
      <trkpt lat="47.27713" lon="-2.31958">
        <ele>14.199999809265</ele>
        <time>2022-07-14T07:26:02.000Z</time>
      </trkpt>
      <trkpt lat="47.27724" lon="-2.31932">
        <ele>14.199999809265</ele>
        <time>2022-07-14T07:26:07.000Z</time>
      </trkpt>
      <trkpt lat="47.27733" lon="-2.31897">
        <ele>14.199999809265</ele>
        <time>2022-07-14T07:26:14.000Z</time>
      </trkpt>
      <trkpt lat="47.27734" lon="-2.31892">
        <ele>14.199999809265</ele>
        <time>2022-07-14T07:26:15.000Z</time>
      </trkpt>
      <trkpt lat="47.27737" lon="-2.31873">
        <ele>14.199999809265</ele>
        <time>2022-07-14T07:26:18.000Z</time>
      </trkpt>
      <trkpt lat="47.27735" lon="-2.31844">
        <ele>14.199999809265</ele>
        <time>2022-07-14T07:26:22.000Z</time>
      </trkpt>
      <trkpt lat="47.27734" lon="-2.31836">
        <ele>14.199999809265</ele>
        <time>2022-07-14T07:26:23.000Z</time>
      </trkpt>
      <trkpt lat="47.27725" lon="-2.31803">
        <ele>14.199999809265</ele>
        <time>2022-07-14T07:26:28.000Z</time>
      </trkpt>
      <trkpt lat="47.27722" lon="-2.31772">
        <ele>14.199999809265</ele>
        <time>2022-07-14T07:26:33.000Z</time>
      </trkpt>
      <trkpt lat="47.27725" lon="-2.31743">
        <ele>14.199999809265</ele>
        <time>2022-07-14T07:26:38.000Z</time>
      </trkpt>
      <trkpt lat="47.27733" lon="-2.31719">
        <ele>14.199999809265</ele>
        <time>2022-07-14T07:26:43.000Z</time>
      </trkpt>
      <trkpt lat="47.27746" lon="-2.31717">
        <ele>14.199999809265</ele>
        <time>2022-07-14T07:26:46.000Z</time>
      </trkpt>
      <trkpt lat="47.27759" lon="-2.31718">
        <ele>14.199999809265</ele>
        <time>2022-07-14T07:26:49.000Z</time>
      </trkpt>
      <trkpt lat="47.27764" lon="-2.31719">
        <ele>14.199999809265</ele>
        <time>2022-07-14T07:26:51.000Z</time>
      </trkpt>
      <trkpt lat="47.27779" lon="-2.31724">
        <ele>14.199999809265</ele>
        <time>2022-07-14T07:26:56.000Z</time>
      </trkpt>
      <trkpt lat="47.27795" lon="-2.3174">
        <ele>14.199999809265</ele>
        <time>2022-07-14T07:27:01.000Z</time>
      </trkpt>
      <trkpt lat="47.27809" lon="-2.31749">
        <ele>14.199999809265</ele>
        <time>2022-07-14T07:27:04.000Z</time>
      </trkpt>
      <trkpt lat="47.27819" lon="-2.3175">
        <ele>14.199999809265</ele>
        <time>2022-07-14T07:27:06.000Z</time>
      </trkpt>
      <trkpt lat="47.27823" lon="-2.3175">
        <ele>14.60000038147</ele>
        <time>2022-07-14T07:27:07.000Z</time>
      </trkpt>
      <trkpt lat="47.27828" lon="-2.3175">
        <ele>15</ele>
        <time>2022-07-14T07:27:08.000Z</time>
      </trkpt>
      <trkpt lat="47.27833" lon="-2.31749">
        <ele>15.39999961853</ele>
        <time>2022-07-14T07:27:09.000Z</time>
      </trkpt>
      <trkpt lat="47.27838" lon="-2.31749">
        <ele>15.800000190735</ele>
        <time>2022-07-14T07:27:10.000Z</time>
      </trkpt>
      <trkpt lat="47.27842" lon="-2.31748">
        <ele>16.39999961853</ele>
        <time>2022-07-14T07:27:11.000Z</time>
      </trkpt>
      <trkpt lat="47.27868" lon="-2.31742">
        <ele>16.39999961853</ele>
        <time>2022-07-14T07:27:17.000Z</time>
      </trkpt>
      <trkpt lat="47.27873" lon="-2.3174">
        <ele>16.39999961853</ele>
        <time>2022-07-14T07:27:18.000Z</time>
      </trkpt>
      <trkpt lat="47.27889" lon="-2.31729">
        <ele>16.799999237061</ele>
        <time>2022-07-14T07:27:22.000Z</time>
      </trkpt>
      <trkpt lat="47.27894" lon="-2.31727">
        <ele>17.60000038147</ele>
        <time>2022-07-14T07:27:23.000Z</time>
      </trkpt>
      <trkpt lat="47.27898" lon="-2.31724">
        <ele>18</ele>
        <time>2022-07-14T07:27:24.000Z</time>
      </trkpt>
      <trkpt lat="47.27903" lon="-2.31721">
        <ele>18.39999961853</ele>
        <time>2022-07-14T07:27:25.000Z</time>
      </trkpt>
      <trkpt lat="47.27932" lon="-2.31696">
        <ele>18.39999961853</ele>
        <time>2022-07-14T07:27:32.000Z</time>
      </trkpt>
      <trkpt lat="47.27961" lon="-2.31674">
        <ele>18.39999961853</ele>
        <time>2022-07-14T07:27:38.000Z</time>
      </trkpt>
      <trkpt lat="47.27982" lon="-2.31662">
        <ele>18.39999961853</ele>
        <time>2022-07-14T07:27:42.000Z</time>
      </trkpt>
      <trkpt lat="47.27988" lon="-2.3166">
        <ele>18</ele>
        <time>2022-07-14T07:27:43.000Z</time>
      </trkpt>
      <trkpt lat="47.27993" lon="-2.31657">
        <ele>17.39999961853</ele>
        <time>2022-07-14T07:27:44.000Z</time>
      </trkpt>
      <trkpt lat="47.27999" lon="-2.31654">
        <ele>17</ele>
        <time>2022-07-14T07:27:45.000Z</time>
      </trkpt>
      <trkpt lat="47.28005" lon="-2.31651">
        <ele>16.60000038147</ele>
        <time>2022-07-14T07:27:46.000Z</time>
      </trkpt>
      <trkpt lat="47.28011" lon="-2.31648">
        <ele>16.200000762939</ele>
        <time>2022-07-14T07:27:47.000Z</time>
      </trkpt>
      <trkpt lat="47.28029" lon="-2.3164">
        <ele>16.200000762939</ele>
        <time>2022-07-14T07:27:50.000Z</time>
      </trkpt>
      <trkpt lat="47.28035" lon="-2.31638">
        <ele>16.200000762939</ele>
        <time>2022-07-14T07:27:51.000Z</time>
      </trkpt>
      <trkpt lat="47.28053" lon="-2.31631">
        <ele>16.200000762939</ele>
        <time>2022-07-14T07:27:54.000Z</time>
      </trkpt>
      <trkpt lat="47.28065" lon="-2.31631">
        <ele>16.200000762939</ele>
        <time>2022-07-14T07:27:56.000Z</time>
      </trkpt>
      <trkpt lat="47.28088" lon="-2.3163">
        <ele>16.200000762939</ele>
        <time>2022-07-14T07:28:00.000Z</time>
      </trkpt>
      <trkpt lat="47.28093" lon="-2.31629">
        <ele>16.200000762939</ele>
        <time>2022-07-14T07:28:01.000Z</time>
      </trkpt>
      <trkpt lat="47.28134" lon="-2.31627">
        <ele>16.200000762939</ele>
        <time>2022-07-14T07:28:08.000Z</time>
      </trkpt>
      <trkpt lat="47.28179" lon="-2.31622">
        <ele>16.200000762939</ele>
        <time>2022-07-14T07:28:16.000Z</time>
      </trkpt>
      <trkpt lat="47.28211" lon="-2.31616">
        <ele>16.200000762939</ele>
        <time>2022-07-14T07:28:22.000Z</time>
      </trkpt>
      <trkpt lat="47.28221" lon="-2.31614">
        <ele>16.200000762939</ele>
        <time>2022-07-14T07:28:24.000Z</time>
      </trkpt>
      <trkpt lat="47.28246" lon="-2.31607">
        <ele>16.60000038147</ele>
        <time>2022-07-14T07:28:29.000Z</time>
      </trkpt>
      <trkpt lat="47.28251" lon="-2.31606">
        <ele>17</ele>
        <time>2022-07-14T07:28:30.000Z</time>
      </trkpt>
      <trkpt lat="47.28256" lon="-2.31605">
        <ele>17.39999961853</ele>
        <time>2022-07-14T07:28:31.000Z</time>
      </trkpt>
      <trkpt lat="47.28262" lon="-2.31604">
        <ele>17.799999237061</ele>
        <time>2022-07-14T07:28:32.000Z</time>
      </trkpt>
      <trkpt lat="47.28266" lon="-2.31602">
        <ele>18.200000762939</ele>
        <time>2022-07-14T07:28:33.000Z</time>
      </trkpt>
      <trkpt lat="47.28275" lon="-2.31598">
        <ele>18.200000762939</ele>
        <time>2022-07-14T07:28:35.000Z</time>
      </trkpt>
      <trkpt lat="47.28307" lon="-2.31589">
        <ele>18.200000762939</ele>
        <time>2022-07-14T07:28:42.000Z</time>
      </trkpt>
      <trkpt lat="47.28319" lon="-2.31587">
        <ele>18.200000762939</ele>
        <time>2022-07-14T07:28:46.000Z</time>
      </trkpt>
      <trkpt lat="47.28318" lon="-2.31587">
        <ele>18.200000762939</ele>
        <time>2022-07-14T07:28:47.000Z</time>
      </trkpt>
      <trkpt lat="47.28321" lon="-2.31586">
        <ele>18.200000762939</ele>
        <time>2022-07-14T07:28:49.000Z</time>
      </trkpt>
      <trkpt lat="47.28324" lon="-2.31584">
        <ele>18.200000762939</ele>
        <time>2022-07-14T07:28:50.000Z</time>
      </trkpt>
      <trkpt lat="47.28342" lon="-2.31583">
        <ele>18.200000762939</ele>
        <time>2022-07-14T07:28:54.000Z</time>
      </trkpt>
      <trkpt lat="47.28367" lon="-2.31573">
        <ele>18.200000762939</ele>
        <time>2022-07-14T07:28:59.000Z</time>
      </trkpt>
      <trkpt lat="47.28405" lon="-2.3156">
        <ele>18.200000762939</ele>
        <time>2022-07-14T07:29:06.000Z</time>
      </trkpt>
      <trkpt lat="47.28425" lon="-2.31548">
        <ele>18.200000762939</ele>
        <time>2022-07-14T07:29:10.000Z</time>
      </trkpt>
      <trkpt lat="47.28429" lon="-2.31543">
        <ele>18.200000762939</ele>
        <time>2022-07-14T07:29:11.000Z</time>
      </trkpt>
      <trkpt lat="47.28452" lon="-2.3152">
        <ele>18.200000762939</ele>
        <time>2022-07-14T07:29:17.000Z</time>
      </trkpt>
      <trkpt lat="47.28461" lon="-2.31515">
        <ele>18.200000762939</ele>
        <time>2022-07-14T07:29:19.000Z</time>
      </trkpt>
      <trkpt lat="47.28474" lon="-2.31512">
        <ele>18.200000762939</ele>
        <time>2022-07-14T07:29:22.000Z</time>
      </trkpt>
      <trkpt lat="47.28493" lon="-2.31508">
        <ele>18.200000762939</ele>
        <time>2022-07-14T07:29:28.000Z</time>
      </trkpt>
      <trkpt lat="47.28511" lon="-2.31505">
        <ele>18.200000762939</ele>
        <time>2022-07-14T07:29:35.000Z</time>
      </trkpt>
      <trkpt lat="47.28531" lon="-2.31501">
        <ele>18.200000762939</ele>
        <time>2022-07-14T07:29:41.000Z</time>
      </trkpt>
      <trkpt lat="47.28541" lon="-2.31498">
        <ele>18.799999237061</ele>
        <time>2022-07-14T07:29:44.000Z</time>
      </trkpt>
      <trkpt lat="47.28544" lon="-2.31498">
        <ele>19.200000762939</ele>
        <time>2022-07-14T07:29:45.000Z</time>
      </trkpt>
      <trkpt lat="47.28548" lon="-2.31497">
        <ele>19.60000038147</ele>
        <time>2022-07-14T07:29:46.000Z</time>
      </trkpt>
      <trkpt lat="47.28551" lon="-2.31496">
        <ele>20</ele>
        <time>2022-07-14T07:29:47.000Z</time>
      </trkpt>
      <trkpt lat="47.28554" lon="-2.31496">
        <ele>20.39999961853</ele>
        <time>2022-07-14T07:29:48.000Z</time>
      </trkpt>
      <trkpt lat="47.2858" lon="-2.31487">
        <ele>20.39999961853</ele>
        <time>2022-07-14T07:29:55.000Z</time>
      </trkpt>
      <trkpt lat="47.28599" lon="-2.31483">
        <ele>20.39999961853</ele>
        <time>2022-07-14T07:30:01.000Z</time>
      </trkpt>
      <trkpt lat="47.28612" lon="-2.31477">
        <ele>20.39999961853</ele>
        <time>2022-07-14T07:30:06.000Z</time>
      </trkpt>
      <trkpt lat="47.28615" lon="-2.31475">
        <ele>20.799999237061</ele>
        <time>2022-07-14T07:30:07.000Z</time>
      </trkpt>
      <trkpt lat="47.28617" lon="-2.31472">
        <ele>21.200000762939</ele>
        <time>2022-07-14T07:30:08.000Z</time>
      </trkpt>
      <trkpt lat="47.2862" lon="-2.3147">
        <ele>21.60000038147</ele>
        <time>2022-07-14T07:30:09.000Z</time>
      </trkpt>
      <trkpt lat="47.28623" lon="-2.31468">
        <ele>22</ele>
        <time>2022-07-14T07:30:10.000Z</time>
      </trkpt>
      <trkpt lat="47.28626" lon="-2.31467">
        <ele>22.39999961853</ele>
        <time>2022-07-14T07:30:11.000Z</time>
      </trkpt>
      <trkpt lat="47.28643" lon="-2.31459">
        <ele>22.39999961853</ele>
        <time>2022-07-14T07:30:16.000Z</time>
      </trkpt>
      <trkpt lat="47.28664" lon="-2.31447">
        <ele>22.39999961853</ele>
        <time>2022-07-14T07:30:23.000Z</time>
      </trkpt>
      <trkpt lat="47.28671" lon="-2.31448">
        <ele>22.39999961853</ele>
        <time>2022-07-14T07:30:27.000Z</time>
      </trkpt>
      <trkpt lat="47.28671" lon="-2.31448">
        <ele>22.39999961853</ele>
        <time>2022-07-14T07:30:29.000Z</time>
      </trkpt>
      <trkpt lat="47.2867" lon="-2.31456">
        <ele>22.39999961853</ele>
        <time>2022-07-14T07:30:52.000Z</time>
      </trkpt>
      <trkpt lat="47.28671" lon="-2.31459">
        <ele>22.39999961853</ele>
        <time>2022-07-14T07:30:53.000Z</time>
      </trkpt>
      <trkpt lat="47.28679" lon="-2.3148">
        <ele>22.39999961853</ele>
        <time>2022-07-14T07:30:57.000Z</time>
      </trkpt>
      <trkpt lat="47.28684" lon="-2.31484">
        <ele>22.39999961853</ele>
        <time>2022-07-14T07:30:58.000Z</time>
      </trkpt>
      <trkpt lat="47.28694" lon="-2.31488">
        <ele>22.39999961853</ele>
        <time>2022-07-14T07:31:00.000Z</time>
      </trkpt>
      <trkpt lat="47.2871" lon="-2.31485">
        <ele>22.39999961853</ele>
        <time>2022-07-14T07:31:03.000Z</time>
      </trkpt>
      <trkpt lat="47.28715" lon="-2.31483">
        <ele>22.39999961853</ele>
        <time>2022-07-14T07:31:04.000Z</time>
      </trkpt>
      <trkpt lat="47.2874" lon="-2.3147">
        <ele>22.39999961853</ele>
        <time>2022-07-14T07:31:09.000Z</time>
      </trkpt>
      <trkpt lat="47.28744" lon="-2.31467">
        <ele>22.39999961853</ele>
        <time>2022-07-14T07:31:10.000Z</time>
      </trkpt>
      <trkpt lat="47.2878" lon="-2.3145">
        <ele>22.39999961853</ele>
        <time>2022-07-14T07:31:17.000Z</time>
      </trkpt>
      <trkpt lat="47.2881" lon="-2.31427">
        <ele>22.39999961853</ele>
        <time>2022-07-14T07:31:23.000Z</time>
      </trkpt>
      <trkpt lat="47.28853" lon="-2.31403">
        <ele>22</ele>
        <time>2022-07-14T07:31:31.000Z</time>
      </trkpt>
      <trkpt lat="47.28859" lon="-2.314">
        <ele>21.60000038147</ele>
        <time>2022-07-14T07:31:32.000Z</time>
      </trkpt>
      <trkpt lat="47.28864" lon="-2.31398">
        <ele>21.200000762939</ele>
        <time>2022-07-14T07:31:33.000Z</time>
      </trkpt>
      <trkpt lat="47.2887" lon="-2.31396">
        <ele>20.60000038147</ele>
        <time>2022-07-14T07:31:34.000Z</time>
      </trkpt>
      <trkpt lat="47.28876" lon="-2.31395">
        <ele>20.200000762939</ele>
        <time>2022-07-14T07:31:35.000Z</time>
      </trkpt>
      <trkpt lat="47.28893" lon="-2.31392">
        <ele>20.200000762939</ele>
        <time>2022-07-14T07:31:38.000Z</time>
      </trkpt>
      <trkpt lat="47.28929" lon="-2.31391">
        <ele>20.200000762939</ele>
        <time>2022-07-14T07:31:45.000Z</time>
      </trkpt>
      <trkpt lat="47.28946" lon="-2.31386">
        <ele>20.200000762939</ele>
        <time>2022-07-14T07:31:49.000Z</time>
      </trkpt>
      <trkpt lat="47.28955" lon="-2.3138">
        <ele>20.200000762939</ele>
        <time>2022-07-14T07:31:51.000Z</time>
      </trkpt>
      <trkpt lat="47.28978" lon="-2.31357">
        <ele>20.200000762939</ele>
        <time>2022-07-14T07:31:57.000Z</time>
      </trkpt>
      <trkpt lat="47.28986" lon="-2.31346">
        <ele>20.200000762939</ele>
        <time>2022-07-14T07:31:59.000Z</time>
      </trkpt>
      <trkpt lat="47.28999" lon="-2.31322">
        <ele>20.200000762939</ele>
        <time>2022-07-14T07:32:03.000Z</time>
      </trkpt>
      <trkpt lat="47.29017" lon="-2.31279">
        <ele>20.200000762939</ele>
        <time>2022-07-14T07:32:09.000Z</time>
      </trkpt>
      <trkpt lat="47.2902" lon="-2.31273">
        <ele>19.799999237061</ele>
        <time>2022-07-14T07:32:10.000Z</time>
      </trkpt>
      <trkpt lat="47.29023" lon="-2.31266">
        <ele>19.39999961853</ele>
        <time>2022-07-14T07:32:11.000Z</time>
      </trkpt>
      <trkpt lat="47.29026" lon="-2.31259">
        <ele>19</ele>
        <time>2022-07-14T07:32:12.000Z</time>
      </trkpt>
      <trkpt lat="47.29029" lon="-2.31253">
        <ele>18.60000038147</ele>
        <time>2022-07-14T07:32:13.000Z</time>
      </trkpt>
      <trkpt lat="47.29032" lon="-2.31247">
        <ele>18.200000762939</ele>
        <time>2022-07-14T07:32:14.000Z</time>
      </trkpt>
      <trkpt lat="47.29038" lon="-2.31235">
        <ele>18.200000762939</ele>
        <time>2022-07-14T07:32:16.000Z</time>
      </trkpt>
      <trkpt lat="47.2904" lon="-2.31228">
        <ele>18.200000762939</ele>
        <time>2022-07-14T07:32:17.000Z</time>
      </trkpt>
      <trkpt lat="47.29043" lon="-2.31205">
        <ele>18.200000762939</ele>
        <time>2022-07-14T07:32:20.000Z</time>
      </trkpt>
      <trkpt lat="47.29043" lon="-2.31197">
        <ele>18.200000762939</ele>
        <time>2022-07-14T07:32:21.000Z</time>
      </trkpt>
      <trkpt lat="47.29042" lon="-2.31182">
        <ele>18.200000762939</ele>
        <time>2022-07-14T07:32:23.000Z</time>
      </trkpt>
      <trkpt lat="47.29041" lon="-2.31167">
        <ele>18.200000762939</ele>
        <time>2022-07-14T07:32:25.000Z</time>
      </trkpt>
      <trkpt lat="47.29034" lon="-2.3109">
        <ele>17.799999237061</ele>
        <time>2022-07-14T07:32:34.000Z</time>
      </trkpt>
      <trkpt lat="47.29033" lon="-2.31081">
        <ele>17.39999961853</ele>
        <time>2022-07-14T07:32:35.000Z</time>
      </trkpt>
      <trkpt lat="47.29033" lon="-2.31071">
        <ele>17</ele>
        <time>2022-07-14T07:32:36.000Z</time>
      </trkpt>
      <trkpt lat="47.29032" lon="-2.31061">
        <ele>16.60000038147</ele>
        <time>2022-07-14T07:32:37.000Z</time>
      </trkpt>
      <trkpt lat="47.29032" lon="-2.31051">
        <ele>16</ele>
        <time>2022-07-14T07:32:38.000Z</time>
      </trkpt>
      <trkpt lat="47.29032" lon="-2.31019">
        <ele>16</ele>
        <time>2022-07-14T07:32:41.000Z</time>
      </trkpt>
      <trkpt lat="47.29032" lon="-2.31008">
        <ele>15.60000038147</ele>
        <time>2022-07-14T07:32:42.000Z</time>
      </trkpt>
      <trkpt lat="47.29032" lon="-2.30997">
        <ele>15.199999809265</ele>
        <time>2022-07-14T07:32:43.000Z</time>
      </trkpt>
      <trkpt lat="47.29033" lon="-2.30985">
        <ele>14.39999961853</ele>
        <time>2022-07-14T07:32:44.000Z</time>
      </trkpt>
      <trkpt lat="47.29032" lon="-2.30973">
        <ele>13.800000190735</ele>
        <time>2022-07-14T07:32:45.000Z</time>
      </trkpt>
      <trkpt lat="47.29032" lon="-2.3095">
        <ele>13.800000190735</ele>
        <time>2022-07-14T07:32:47.000Z</time>
      </trkpt>
      <trkpt lat="47.29031" lon="-2.30938">
        <ele>13.800000190735</ele>
        <time>2022-07-14T07:32:48.000Z</time>
      </trkpt>
      <trkpt lat="47.29031" lon="-2.30926">
        <ele>13.39999961853</ele>
        <time>2022-07-14T07:32:49.000Z</time>
      </trkpt>
      <trkpt lat="47.2903" lon="-2.30914">
        <ele>13</ele>
        <time>2022-07-14T07:32:50.000Z</time>
      </trkpt>
      <trkpt lat="47.29029" lon="-2.30901">
        <ele>12.60000038147</ele>
        <time>2022-07-14T07:32:51.000Z</time>
      </trkpt>
      <trkpt lat="47.29029" lon="-2.30889">
        <ele>12.199999809265</ele>
        <time>2022-07-14T07:32:52.000Z</time>
      </trkpt>
      <trkpt lat="47.29028" lon="-2.30876">
        <ele>11.800000190735</ele>
        <time>2022-07-14T07:32:53.000Z</time>
      </trkpt>
      <trkpt lat="47.29027" lon="-2.30863">
        <ele>11.199999809265</ele>
        <time>2022-07-14T07:32:54.000Z</time>
      </trkpt>
      <trkpt lat="47.29025" lon="-2.3085">
        <ele>10.800000190735</ele>
        <time>2022-07-14T07:32:55.000Z</time>
      </trkpt>
      <trkpt lat="47.29024" lon="-2.30838">
        <ele>10.39999961853</ele>
        <time>2022-07-14T07:32:56.000Z</time>
      </trkpt>
      <trkpt lat="47.29022" lon="-2.30826">
        <ele>10</ele>
        <time>2022-07-14T07:32:57.000Z</time>
      </trkpt>
      <trkpt lat="47.29021" lon="-2.30814">
        <ele>9.6000003814697</ele>
        <time>2022-07-14T07:32:58.000Z</time>
      </trkpt>
      <trkpt lat="47.29017" lon="-2.30791">
        <ele>9.1999998092651</ele>
        <time>2022-07-14T07:33:00.000Z</time>
      </trkpt>
      <trkpt lat="47.29015" lon="-2.3078">
        <ele>8.8000001907349</ele>
        <time>2022-07-14T07:33:01.000Z</time>
      </trkpt>
      <trkpt lat="47.29013" lon="-2.3077">
        <ele>8.3999996185303</ele>
        <time>2022-07-14T07:33:02.000Z</time>
      </trkpt>
      <trkpt lat="47.2901" lon="-2.30761">
        <ele>8</ele>
        <time>2022-07-14T07:33:03.000Z</time>
      </trkpt>
      <trkpt lat="47.29007" lon="-2.3075">
        <ele>7.5999999046326</ele>
        <time>2022-07-14T07:33:04.000Z</time>
      </trkpt>
      <trkpt lat="47.29005" lon="-2.30727">
        <ele>7.5999999046326</ele>
        <time>2022-07-14T07:33:06.000Z</time>
      </trkpt>
      <trkpt lat="47.29005" lon="-2.30705">
        <ele>7.5999999046326</ele>
        <time>2022-07-14T07:33:08.000Z</time>
      </trkpt>
      <trkpt lat="47.29004" lon="-2.30687">
        <ele>7.5999999046326</ele>
        <time>2022-07-14T07:33:10.000Z</time>
      </trkpt>
      <trkpt lat="47.29004" lon="-2.30653">
        <ele>7.5999999046326</ele>
        <time>2022-07-14T07:33:15.000Z</time>
      </trkpt>
      <trkpt lat="47.29002" lon="-2.30641">
        <ele>7.5999999046326</ele>
        <time>2022-07-14T07:33:17.000Z</time>
      </trkpt>
      <trkpt lat="47.29001" lon="-2.30614">
        <ele>7.5999999046326</ele>
        <time>2022-07-14T07:33:21.000Z</time>
      </trkpt>
      <trkpt lat="47.29002" lon="-2.30578">
        <ele>7.5999999046326</ele>
        <time>2022-07-14T07:33:26.000Z</time>
      </trkpt>
      <trkpt lat="47.29001" lon="-2.30572">
        <ele>7.5999999046326</ele>
        <time>2022-07-14T07:33:27.000Z</time>
      </trkpt>
      <trkpt lat="47.28995" lon="-2.30532">
        <ele>7.5999999046326</ele>
        <time>2022-07-14T07:33:33.000Z</time>
      </trkpt>
      <trkpt lat="47.28994" lon="-2.30527">
        <ele>7.5999999046326</ele>
        <time>2022-07-14T07:33:34.000Z</time>
      </trkpt>
      <trkpt lat="47.28992" lon="-2.30505">
        <ele>7.5999999046326</ele>
        <time>2022-07-14T07:33:37.000Z</time>
      </trkpt>
      <trkpt lat="47.28985" lon="-2.30451">
        <ele>7.5999999046326</ele>
        <time>2022-07-14T07:33:44.000Z</time>
      </trkpt>
      <trkpt lat="47.2898" lon="-2.30431">
        <ele>7.5999999046326</ele>
        <time>2022-07-14T07:33:48.000Z</time>
      </trkpt>
      <trkpt lat="47.28976" lon="-2.3041">
        <ele>7.5999999046326</ele>
        <time>2022-07-14T07:33:53.000Z</time>
      </trkpt>
      <trkpt lat="47.28976" lon="-2.30404">
        <ele>7.5999999046326</ele>
        <time>2022-07-14T07:33:54.000Z</time>
      </trkpt>
      <trkpt lat="47.28977" lon="-2.30381">
        <ele>7.5999999046326</ele>
        <time>2022-07-14T07:33:57.000Z</time>
      </trkpt>
      <trkpt lat="47.28977" lon="-2.3035">
        <ele>7.5999999046326</ele>
        <time>2022-07-14T07:34:01.000Z</time>
      </trkpt>
      <trkpt lat="47.28976" lon="-2.30333">
        <ele>7.5999999046326</ele>
        <time>2022-07-14T07:34:03.000Z</time>
      </trkpt>
      <trkpt lat="47.28972" lon="-2.30264">
        <ele>7.1999998092651</ele>
        <time>2022-07-14T07:34:11.000Z</time>
      </trkpt>
      <trkpt lat="47.28977" lon="-2.3026">
        <ele>6.5999999046326</ele>
        <time>2022-07-14T07:34:12.000Z</time>
      </trkpt>
      <trkpt lat="47.28981" lon="-2.30257">
        <ele>6.1999998092651</ele>
        <time>2022-07-14T07:34:13.000Z</time>
      </trkpt>
      <trkpt lat="47.28986" lon="-2.30257">
        <ele>5.8000001907349</ele>
        <time>2022-07-14T07:34:14.000Z</time>
      </trkpt>
      <trkpt lat="47.28992" lon="-2.30258">
        <ele>5.4000000953674</ele>
        <time>2022-07-14T07:34:15.000Z</time>
      </trkpt>
      <trkpt lat="47.28997" lon="-2.30258">
        <ele>5.4000000953674</ele>
        <time>2022-07-14T07:34:16.000Z</time>
      </trkpt>
      <trkpt lat="47.29014" lon="-2.30254">
        <ele>5.4000000953674</ele>
        <time>2022-07-14T07:34:19.000Z</time>
      </trkpt>
      <trkpt lat="47.29024" lon="-2.3025">
        <ele>5.4000000953674</ele>
        <time>2022-07-14T07:34:21.000Z</time>
      </trkpt>
      <trkpt lat="47.29053" lon="-2.30241">
        <ele>5.4000000953674</ele>
        <time>2022-07-14T07:34:26.000Z</time>
      </trkpt>
      <trkpt lat="47.29095" lon="-2.3022">
        <ele>5.4000000953674</ele>
        <time>2022-07-14T07:34:33.000Z</time>
      </trkpt>
      <trkpt lat="47.29142" lon="-2.30195">
        <ele>5.4000000953674</ele>
        <time>2022-07-14T07:34:41.000Z</time>
      </trkpt>
      <trkpt lat="47.29169" lon="-2.30181">
        <ele>5.4000000953674</ele>
        <time>2022-07-14T07:34:46.000Z</time>
      </trkpt>
      <trkpt lat="47.29198" lon="-2.30167">
        <ele>5.4000000953674</ele>
        <time>2022-07-14T07:34:51.000Z</time>
      </trkpt>
      <trkpt lat="47.29203" lon="-2.30163">
        <ele>5.4000000953674</ele>
        <time>2022-07-14T07:34:52.000Z</time>
      </trkpt>
      <trkpt lat="47.29219" lon="-2.30153">
        <ele>5</ele>
        <time>2022-07-14T07:34:55.000Z</time>
      </trkpt>
      <trkpt lat="47.29225" lon="-2.3015">
        <ele>4.5999999046326</ele>
        <time>2022-07-14T07:34:56.000Z</time>
      </trkpt>
      <trkpt lat="47.2923" lon="-2.30148">
        <ele>4.1999998092651</ele>
        <time>2022-07-14T07:34:57.000Z</time>
      </trkpt>
      <trkpt lat="47.29235" lon="-2.30146">
        <ele>3.7999999523163</ele>
        <time>2022-07-14T07:34:58.000Z</time>
      </trkpt>
      <trkpt lat="47.2924" lon="-2.30142">
        <ele>3.4000000953674</ele>
        <time>2022-07-14T07:34:59.000Z</time>
      </trkpt>
      <trkpt lat="47.29244" lon="-2.30137">
        <ele>3.4000000953674</ele>
        <time>2022-07-14T07:35:00.000Z</time>
      </trkpt>
      <trkpt lat="47.29246" lon="-2.30132">
        <ele>3.4000000953674</ele>
        <time>2022-07-14T07:35:01.000Z</time>
      </trkpt>
      <trkpt lat="47.2925" lon="-2.30122">
        <ele>3.4000000953674</ele>
        <time>2022-07-14T07:35:04.000Z</time>
      </trkpt>
      <trkpt lat="47.29261" lon="-2.30118">
        <ele>3.4000000953674</ele>
        <time>2022-07-14T07:35:07.000Z</time>
      </trkpt>
      <trkpt lat="47.29271" lon="-2.30117">
        <ele>3.4000000953674</ele>
        <time>2022-07-14T07:35:09.000Z</time>
      </trkpt>
      <trkpt lat="47.29287" lon="-2.30117">
        <ele>3.4000000953674</ele>
        <time>2022-07-14T07:35:12.000Z</time>
      </trkpt>
      <trkpt lat="47.29324" lon="-2.30116">
        <ele>3.4000000953674</ele>
        <time>2022-07-14T07:35:19.000Z</time>
      </trkpt>
      <trkpt lat="47.29332" lon="-2.30104">
        <ele>3.4000000953674</ele>
        <time>2022-07-14T07:35:22.000Z</time>
      </trkpt>
      <trkpt lat="47.29336" lon="-2.30076">
        <ele>3.4000000953674</ele>
        <time>2022-07-14T07:35:26.000Z</time>
      </trkpt>
      <trkpt lat="47.29342" lon="-2.30024">
        <ele>3.4000000953674</ele>
        <time>2022-07-14T07:35:34.000Z</time>
      </trkpt>
      <trkpt lat="47.29344" lon="-2.30013">
        <ele>3.4000000953674</ele>
        <time>2022-07-14T07:35:38.000Z</time>
      </trkpt>
      <trkpt lat="47.29345" lon="-2.30006">
        <ele>3.4000000953674</ele>
        <time>2022-07-14T07:35:43.000Z</time>
      </trkpt>
      <trkpt lat="47.29347" lon="-2.30003">
        <ele>3.4000000953674</ele>
        <time>2022-07-14T07:35:45.000Z</time>
      </trkpt>
      <trkpt lat="47.29351" lon="-2.30005">
        <ele>3.4000000953674</ele>
        <time>2022-07-14T07:35:47.000Z</time>
      </trkpt>
      <trkpt lat="47.29358" lon="-2.30009">
        <ele>3.4000000953674</ele>
        <time>2022-07-14T07:35:49.000Z</time>
      </trkpt>
      <trkpt lat="47.29366" lon="-2.30012">
        <ele>3.4000000953674</ele>
        <time>2022-07-14T07:35:51.000Z</time>
      </trkpt>
      <trkpt lat="47.29391" lon="-2.30024">
        <ele>3.4000000953674</ele>
        <time>2022-07-14T07:35:56.000Z</time>
      </trkpt>
      <trkpt lat="47.29424" lon="-2.3003">
        <ele>3.4000000953674</ele>
        <time>2022-07-14T07:36:02.000Z</time>
      </trkpt>
      <trkpt lat="47.29476" lon="-2.30029">
        <ele>3.4000000953674</ele>
        <time>2022-07-14T07:36:10.000Z</time>
      </trkpt>
      <trkpt lat="47.29507" lon="-2.30024">
        <ele>3.4000000953674</ele>
        <time>2022-07-14T07:36:15.000Z</time>
      </trkpt>
      <trkpt lat="47.29513" lon="-2.30023">
        <ele>3.4000000953674</ele>
        <time>2022-07-14T07:36:16.000Z</time>
      </trkpt>
      <trkpt lat="47.29524" lon="-2.30028">
        <ele>3</ele>
        <time>2022-07-14T07:36:18.000Z</time>
      </trkpt>
      <trkpt lat="47.2953" lon="-2.30029">
        <ele>2.5999999046326</ele>
        <time>2022-07-14T07:36:19.000Z</time>
      </trkpt>
      <trkpt lat="47.29536" lon="-2.30028">
        <ele>2</ele>
        <time>2022-07-14T07:36:20.000Z</time>
      </trkpt>
      <trkpt lat="47.29541" lon="-2.30026">
        <ele>1.6000000238419</ele>
        <time>2022-07-14T07:36:21.000Z</time>
      </trkpt>
      <trkpt lat="47.29546" lon="-2.30023">
        <ele>1.2000000476837</ele>
        <time>2022-07-14T07:36:22.000Z</time>
      </trkpt>
      <trkpt lat="47.29552" lon="-2.3002">
        <ele>1.2000000476837</ele>
        <time>2022-07-14T07:36:23.000Z</time>
      </trkpt>
      <trkpt lat="47.29592" lon="-2.30008">
        <ele>1.2000000476837</ele>
        <time>2022-07-14T07:36:29.000Z</time>
      </trkpt>
      <trkpt lat="47.29625" lon="-2.29996">
        <ele>1.2000000476837</ele>
        <time>2022-07-14T07:36:34.000Z</time>
      </trkpt>
      <trkpt lat="47.29631" lon="-2.29993">
        <ele>1.2000000476837</ele>
        <time>2022-07-14T07:36:35.000Z</time>
      </trkpt>
      <trkpt lat="47.29649" lon="-2.29983">
        <ele>1.2000000476837</ele>
        <time>2022-07-14T07:36:39.000Z</time>
      </trkpt>
      <trkpt lat="47.29659" lon="-2.29992">
        <ele>1.2000000476837</ele>
        <time>2022-07-14T07:36:41.000Z</time>
      </trkpt>
      <trkpt lat="47.29665" lon="-2.29996">
        <ele>1.2000000476837</ele>
        <time>2022-07-14T07:36:42.000Z</time>
      </trkpt>
      <trkpt lat="47.29678" lon="-2.30001">
        <ele>1.2000000476837</ele>
        <time>2022-07-14T07:36:44.000Z</time>
      </trkpt>
      <trkpt lat="47.29692" lon="-2.30001">
        <ele>1.2000000476837</ele>
        <time>2022-07-14T07:36:46.000Z</time>
      </trkpt>
      <trkpt lat="47.29726" lon="-2.29995">
        <ele>1.2000000476837</ele>
        <time>2022-07-14T07:36:51.000Z</time>
      </trkpt>
      <trkpt lat="47.29732" lon="-2.29992">
        <ele>1.2000000476837</ele>
        <time>2022-07-14T07:36:52.000Z</time>
      </trkpt>
      <trkpt lat="47.29738" lon="-2.29988">
        <ele>1.2000000476837</ele>
        <time>2022-07-14T07:36:53.000Z</time>
      </trkpt>
      <trkpt lat="47.29763" lon="-2.29971">
        <ele>1.2000000476837</ele>
        <time>2022-07-14T07:36:57.000Z</time>
      </trkpt>
      <trkpt lat="47.29785" lon="-2.29955">
        <ele>1.2000000476837</ele>
        <time>2022-07-14T07:37:01.000Z</time>
      </trkpt>
      <trkpt lat="47.29791" lon="-2.29954">
        <ele>1.2000000476837</ele>
        <time>2022-07-14T07:37:02.000Z</time>
      </trkpt>
      <trkpt lat="47.2981" lon="-2.29956">
        <ele>1.2000000476837</ele>
        <time>2022-07-14T07:37:05.000Z</time>
      </trkpt>
      <trkpt lat="47.29817" lon="-2.29956">
        <ele>1.2000000476837</ele>
        <time>2022-07-14T07:37:06.000Z</time>
      </trkpt>
      <trkpt lat="47.2985" lon="-2.29951">
        <ele>1.2000000476837</ele>
        <time>2022-07-14T07:37:11.000Z</time>
      </trkpt>
      <trkpt lat="47.29857" lon="-2.29949">
        <ele>1.2000000476837</ele>
        <time>2022-07-14T07:37:12.000Z</time>
      </trkpt>
      <trkpt lat="47.299" lon="-2.29939">
        <ele>1.2000000476837</ele>
        <time>2022-07-14T07:37:18.000Z</time>
      </trkpt>
      <trkpt lat="47.29911" lon="-2.29919">
        <ele>1.2000000476837</ele>
        <time>2022-07-14T07:37:21.000Z</time>
      </trkpt>
      <trkpt lat="47.29909" lon="-2.29904">
        <ele>1.2000000476837</ele>
        <time>2022-07-14T07:37:23.000Z</time>
      </trkpt>
      <trkpt lat="47.29908" lon="-2.29897">
        <ele>1.2000000476837</ele>
        <time>2022-07-14T07:37:24.000Z</time>
      </trkpt>
      <trkpt lat="47.29902" lon="-2.29853">
        <ele>1.2000000476837</ele>
        <time>2022-07-14T07:37:30.000Z</time>
      </trkpt>
      <trkpt lat="47.29902" lon="-2.29845">
        <ele>1.2000000476837</ele>
        <time>2022-07-14T07:37:31.000Z</time>
      </trkpt>
      <trkpt lat="47.29902" lon="-2.29837">
        <ele>1.2000000476837</ele>
        <time>2022-07-14T07:37:32.000Z</time>
      </trkpt>
      <trkpt lat="47.29908" lon="-2.29828">
        <ele>1.2000000476837</ele>
        <time>2022-07-14T07:37:34.000Z</time>
      </trkpt>
      <trkpt lat="47.29916" lon="-2.29822">
        <ele>1.2000000476837</ele>
        <time>2022-07-14T07:37:36.000Z</time>
      </trkpt>
      <trkpt lat="47.2992" lon="-2.2982">
        <ele>1.2000000476837</ele>
        <time>2022-07-14T07:37:37.000Z</time>
      </trkpt>
      <trkpt lat="47.29924" lon="-2.29818">
        <ele>1.2000000476837</ele>
        <time>2022-07-14T07:37:38.000Z</time>
      </trkpt>
      <trkpt lat="47.29939" lon="-2.29805">
        <ele>1.2000000476837</ele>
        <time>2022-07-14T07:37:43.000Z</time>
      </trkpt>
      <trkpt lat="47.29943" lon="-2.298">
        <ele>1.2000000476837</ele>
        <time>2022-07-14T07:37:44.000Z</time>
      </trkpt>
      <trkpt lat="47.29947" lon="-2.29795">
        <ele>1.2000000476837</ele>
        <time>2022-07-14T07:37:45.000Z</time>
      </trkpt>
      <trkpt lat="47.2995" lon="-2.29785">
        <ele>1.2000000476837</ele>
        <time>2022-07-14T07:37:47.000Z</time>
      </trkpt>
      <trkpt lat="47.29951" lon="-2.2978">
        <ele>1.2000000476837</ele>
        <time>2022-07-14T07:37:48.000Z</time>
      </trkpt>
      <trkpt lat="47.29949" lon="-2.29762">
        <ele>1.2000000476837</ele>
        <time>2022-07-14T07:37:51.000Z</time>
      </trkpt>
      <trkpt lat="47.29947" lon="-2.2975">
        <ele>1.2000000476837</ele>
        <time>2022-07-14T07:37:53.000Z</time>
      </trkpt>
      <trkpt lat="47.29944" lon="-2.29737">
        <ele>1.2000000476837</ele>
        <time>2022-07-14T07:37:55.000Z</time>
      </trkpt>
      <trkpt lat="47.29934" lon="-2.29715">
        <ele>1.2000000476837</ele>
        <time>2022-07-14T07:37:58.000Z</time>
      </trkpt>
      <trkpt lat="47.29921" lon="-2.29683">
        <ele>1.2000000476837</ele>
        <time>2022-07-14T07:38:03.000Z</time>
      </trkpt>
      <trkpt lat="47.2992" lon="-2.29676">
        <ele>1.2000000476837</ele>
        <time>2022-07-14T07:38:04.000Z</time>
      </trkpt>
      <trkpt lat="47.29926" lon="-2.29656">
        <ele>1.2000000476837</ele>
        <time>2022-07-14T07:38:07.000Z</time>
      </trkpt>
      <trkpt lat="47.2994" lon="-2.29645">
        <ele>1.2000000476837</ele>
        <time>2022-07-14T07:38:10.000Z</time>
      </trkpt>
      <trkpt lat="47.2995" lon="-2.2964">
        <ele>1.2000000476837</ele>
        <time>2022-07-14T07:38:12.000Z</time>
      </trkpt>
      <trkpt lat="47.2996" lon="-2.29636">
        <ele>1.2000000476837</ele>
        <time>2022-07-14T07:38:14.000Z</time>
      </trkpt>
      <trkpt lat="47.29977" lon="-2.29633">
        <ele>1.2000000476837</ele>
        <time>2022-07-14T07:38:17.000Z</time>
      </trkpt>
      <trkpt lat="47.30026" lon="-2.29629">
        <ele>1.2000000476837</ele>
        <time>2022-07-14T07:38:26.000Z</time>
      </trkpt>
      <trkpt lat="47.30053" lon="-2.29631">
        <ele>1.2000000476837</ele>
        <time>2022-07-14T07:38:31.000Z</time>
      </trkpt>
      <trkpt lat="47.30059" lon="-2.29633">
        <ele>1.2000000476837</ele>
        <time>2022-07-14T07:38:32.000Z</time>
      </trkpt>
      <trkpt lat="47.30096" lon="-2.29646">
        <ele>0.80000001192093</ele>
        <time>2022-07-14T07:38:39.000Z</time>
      </trkpt>
      <trkpt lat="47.30101" lon="-2.29648">
        <ele>0.40000000596046</ele>
        <time>2022-07-14T07:38:40.000Z</time>
      </trkpt>
      <trkpt lat="47.30106" lon="-2.2965">
        <ele>3.7</ele>
        <time>2022-07-14T07:38:41.000Z</time>
      </trkpt>
      <trkpt lat="47.30111" lon="-2.29651">
        <ele>-0.40000000596046</ele>
        <time>2022-07-14T07:38:42.000Z</time>
      </trkpt>
      <trkpt lat="47.30115" lon="-2.29652">
        <ele>-1</ele>
        <time>2022-07-14T07:38:43.000Z</time>
      </trkpt>
      <trkpt lat="47.30128" lon="-2.29656">
        <ele>-1</ele>
        <time>2022-07-14T07:38:46.000Z</time>
      </trkpt>
      <trkpt lat="47.30149" lon="-2.29663">
        <ele>-1</ele>
        <time>2022-07-14T07:38:51.000Z</time>
      </trkpt>
      <trkpt lat="47.30153" lon="-2.29665">
        <ele>-1</ele>
        <time>2022-07-14T07:38:52.000Z</time>
      </trkpt>
      <trkpt lat="47.30191" lon="-2.29684">
        <ele>-1</ele>
        <time>2022-07-14T07:39:00.000Z</time>
      </trkpt>
      <trkpt lat="47.30224" lon="-2.29702">
        <ele>-1</ele>
        <time>2022-07-14T07:39:07.000Z</time>
      </trkpt>
      <trkpt lat="47.30232" lon="-2.29705">
        <ele>-1</ele>
        <time>2022-07-14T07:39:10.000Z</time>
      </trkpt>
      <trkpt lat="47.30237" lon="-2.29708">
        <ele>-1</ele>
        <time>2022-07-14T07:39:15.000Z</time>
      </trkpt>
      <trkpt lat="47.30244" lon="-2.29712">
        <ele>-1</ele>
        <time>2022-07-14T07:39:52.000Z</time>
      </trkpt>
      <trkpt lat="47.30247" lon="-2.29717">
        <ele>-1</ele>
        <time>2022-07-14T07:39:58.000Z</time>
      </trkpt>
      <trkpt lat="47.30241" lon="-2.2973">
        <ele>-1</ele>
        <time>2022-07-14T07:40:03.000Z</time>
      </trkpt>
      <trkpt lat="47.30236" lon="-2.29741">
        <ele>-1</ele>
        <time>2022-07-14T07:40:08.000Z</time>
      </trkpt>
      <trkpt lat="47.30228" lon="-2.29758">
        <ele>-1</ele>
        <time>2022-07-14T07:40:13.000Z</time>
      </trkpt>
      <trkpt lat="47.30217" lon="-2.29775">
        <ele>-1</ele>
        <time>2022-07-14T07:40:18.000Z</time>
      </trkpt>
      <trkpt lat="47.30205" lon="-2.29785">
        <ele>-1</ele>
        <time>2022-07-14T07:40:23.000Z</time>
      </trkpt>
      <trkpt lat="47.30198" lon="-2.29798">
        <ele>-1</ele>
        <time>2022-07-14T07:40:28.000Z</time>
      </trkpt>
      <trkpt lat="47.30191" lon="-2.29807">
        <ele>-1</ele>
        <time>2022-07-14T07:40:34.000Z</time>
      </trkpt>
      <trkpt lat="47.30188" lon="-2.29813">
        <ele>-1</ele>
        <time>2022-07-14T07:40:38.000Z</time>
      </trkpt>
      <trkpt lat="47.30186" lon="-2.2982">
        <ele>-1</ele>
        <time>2022-07-14T07:40:40.000Z</time>
      </trkpt>
      <trkpt lat="47.30177" lon="-2.29838">
        <ele>-1</ele>
        <time>2022-07-14T07:40:46.000Z</time>
      </trkpt>
      <trkpt lat="47.3017" lon="-2.29849">
        <ele>-1</ele>
        <time>2022-07-14T07:40:51.000Z</time>
      </trkpt>
      <trkpt lat="47.30167" lon="-2.29851">
        <ele>-1</ele>
        <time>2022-07-14T07:40:52.000Z</time>
      </trkpt>
      <trkpt lat="47.30162" lon="-2.29856">
        <ele>-1</ele>
        <time>2022-07-14T07:40:54.000Z</time>
      </trkpt>
      <trkpt lat="47.30155" lon="-2.29865">
        <ele>-1</ele>
        <time>2022-07-14T07:40:57.000Z</time>
      </trkpt>
      <trkpt lat="47.30135" lon="-2.29888">
        <ele>-1</ele>
        <time>2022-07-14T07:41:05.000Z</time>
      </trkpt>
      <trkpt lat="47.30127" lon="-2.29893">
        <ele>-1</ele>
        <time>2022-07-14T07:41:08.000Z</time>
      </trkpt>
      <trkpt lat="47.30125" lon="-2.29897">
        <ele>-1</ele>
        <time>2022-07-14T07:41:09.000Z</time>
      </trkpt>
      <trkpt lat="47.30119" lon="-2.29914">
        <ele>-1</ele>
        <time>2022-07-14T07:41:13.000Z</time>
      </trkpt>
      <trkpt lat="47.30119" lon="-2.29917">
        <ele>-1</ele>
        <time>2022-07-14T07:41:14.000Z</time>
      </trkpt>
      <trkpt lat="47.30122" lon="-2.29936">
        <ele>-1</ele>
        <time>2022-07-14T07:41:20.000Z</time>
      </trkpt>
      <trkpt lat="47.3012" lon="-2.29951">
        <ele>-1</ele>
        <time>2022-07-14T07:41:24.000Z</time>
      </trkpt>
      <trkpt lat="47.30121" lon="-2.29966">
        <ele>-1</ele>
        <time>2022-07-14T07:41:28.000Z</time>
      </trkpt>
      <trkpt lat="47.30121" lon="-2.29982">
        <ele>-1</ele>
        <time>2022-07-14T07:41:32.000Z</time>
      </trkpt>
      <trkpt lat="47.30131" lon="-2.29996">
        <ele>-1</ele>
        <time>2022-07-14T07:41:37.000Z</time>
      </trkpt>
      <trkpt lat="47.30146" lon="-2.30012">
        <ele>-1</ele>
        <time>2022-07-14T07:41:42.000Z</time>
      </trkpt>
      <trkpt lat="47.30149" lon="-2.30016">
        <ele>-1</ele>
        <time>2022-07-14T07:41:43.000Z</time>
      </trkpt>
      <trkpt lat="47.30162" lon="-2.30041">
        <ele>-1</ele>
        <time>2022-07-14T07:41:48.000Z</time>
      </trkpt>
      <trkpt lat="47.30173" lon="-2.30067">
        <ele>-1</ele>
        <time>2022-07-14T07:41:53.000Z</time>
      </trkpt>
      <trkpt lat="47.30185" lon="-2.30108">
        <ele>-1</ele>
        <time>2022-07-14T07:42:00.000Z</time>
      </trkpt>
      <trkpt lat="47.30194" lon="-2.30133">
        <ele>-1</ele>
        <time>2022-07-14T07:42:05.000Z</time>
      </trkpt>
      <trkpt lat="47.30204" lon="-2.30162">
        <ele>-1</ele>
        <time>2022-07-14T07:42:12.000Z</time>
      </trkpt>
      <trkpt lat="47.30211" lon="-2.30183">
        <ele>-1</ele>
        <time>2022-07-14T07:42:18.000Z</time>
      </trkpt>
      <trkpt lat="47.30212" lon="-2.30194">
        <ele>-1</ele>
        <time>2022-07-14T07:42:20.000Z</time>
      </trkpt>
      <trkpt lat="47.30211" lon="-2.30204">
        <ele>-1</ele>
        <time>2022-07-14T07:42:22.000Z</time>
      </trkpt>
      <trkpt lat="47.302" lon="-2.30224">
        <ele>-1</ele>
        <time>2022-07-14T07:42:26.000Z</time>
      </trkpt>
      <trkpt lat="47.30177" lon="-2.30242">
        <ele>-1</ele>
        <time>2022-07-14T07:42:30.000Z</time>
      </trkpt>
      <trkpt lat="47.3017" lon="-2.30247">
        <ele>-1</ele>
        <time>2022-07-14T07:42:31.000Z</time>
      </trkpt>
      <trkpt lat="47.30163" lon="-2.30251">
        <ele>-1</ele>
        <time>2022-07-14T07:42:32.000Z</time>
      </trkpt>
      <trkpt lat="47.3013" lon="-2.30265">
        <ele>-1</ele>
        <time>2022-07-14T07:42:37.000Z</time>
      </trkpt>
      <trkpt lat="47.30118" lon="-2.30269">
        <ele>-1</ele>
        <time>2022-07-14T07:42:39.000Z</time>
      </trkpt>
      <trkpt lat="47.30109" lon="-2.30279">
        <ele>-1</ele>
        <time>2022-07-14T07:42:41.000Z</time>
      </trkpt>
      <trkpt lat="47.30107" lon="-2.30302">
        <ele>-1</ele>
        <time>2022-07-14T07:42:44.000Z</time>
      </trkpt>
      <trkpt lat="47.30112" lon="-2.30325">
        <ele>-1</ele>
        <time>2022-07-14T07:42:47.000Z</time>
      </trkpt>
      <trkpt lat="47.30118" lon="-2.30348">
        <ele>-1</ele>
        <time>2022-07-14T07:42:50.000Z</time>
      </trkpt>
      <trkpt lat="47.30137" lon="-2.30421">
        <ele>-1</ele>
        <time>2022-07-14T07:42:59.000Z</time>
      </trkpt>
      <trkpt lat="47.30144" lon="-2.30444">
        <ele>-1</ele>
        <time>2022-07-14T07:43:02.000Z</time>
      </trkpt>
      <trkpt lat="47.3015" lon="-2.30457">
        <ele>-1</ele>
        <time>2022-07-14T07:43:04.000Z</time>
      </trkpt>
      <trkpt lat="47.30171" lon="-2.3049">
        <ele>-1</ele>
        <time>2022-07-14T07:43:11.000Z</time>
      </trkpt>
      <trkpt lat="47.30178" lon="-2.30497">
        <ele>-1</ele>
        <time>2022-07-14T07:43:16.000Z</time>
      </trkpt>
      <trkpt lat="47.30188" lon="-2.30507">
        <ele>-1</ele>
        <time>2022-07-14T07:43:20.000Z</time>
      </trkpt>
      <trkpt lat="47.30191" lon="-2.30511">
        <ele>-1</ele>
        <time>2022-07-14T07:43:21.000Z</time>
      </trkpt>
      <trkpt lat="47.30203" lon="-2.30521">
        <ele>-1</ele>
        <time>2022-07-14T07:43:24.000Z</time>
      </trkpt>
      <trkpt lat="47.30215" lon="-2.30528">
        <ele>-1</ele>
        <time>2022-07-14T07:43:27.000Z</time>
      </trkpt>
      <trkpt lat="47.30222" lon="-2.30537">
        <ele>-1</ele>
        <time>2022-07-14T07:43:29.000Z</time>
      </trkpt>
      <trkpt lat="47.30228" lon="-2.30553">
        <ele>-1</ele>
        <time>2022-07-14T07:43:32.000Z</time>
      </trkpt>
      <trkpt lat="47.30231" lon="-2.30562">
        <ele>-1</ele>
        <time>2022-07-14T07:43:34.000Z</time>
      </trkpt>
      <trkpt lat="47.30233" lon="-2.30579">
        <ele>-1</ele>
        <time>2022-07-14T07:43:39.000Z</time>
      </trkpt>
      <trkpt lat="47.30223" lon="-2.30592">
        <ele>-1</ele>
        <time>2022-07-14T07:43:42.000Z</time>
      </trkpt>
      <trkpt lat="47.30204" lon="-2.306">
        <ele>-1</ele>
        <time>2022-07-14T07:43:46.000Z</time>
      </trkpt>
      <trkpt lat="47.302" lon="-2.30602">
        <ele>-1</ele>
        <time>2022-07-14T07:43:47.000Z</time>
      </trkpt>
      <trkpt lat="47.30195" lon="-2.30606">
        <ele>-1</ele>
        <time>2022-07-14T07:43:50.000Z</time>
      </trkpt>
      <trkpt lat="47.30193" lon="-2.30611">
        <ele>-1</ele>
        <time>2022-07-14T07:43:54.000Z</time>
      </trkpt>
      <trkpt lat="47.30193" lon="-2.30613">
        <ele>-1</ele>
        <time>2022-07-14T07:43:55.000Z</time>
      </trkpt>
      <trkpt lat="47.30185" lon="-2.30626">
        <ele>-1</ele>
        <time>2022-07-14T07:43:59.000Z</time>
      </trkpt>
      <trkpt lat="47.30181" lon="-2.30629">
        <ele>-1</ele>
        <time>2022-07-14T07:44:00.000Z</time>
      </trkpt>
      <trkpt lat="47.30172" lon="-2.30636">
        <ele>-1</ele>
        <time>2022-07-14T07:44:02.000Z</time>
      </trkpt>
      <trkpt lat="47.30169" lon="-2.30642">
        <ele>-1</ele>
        <time>2022-07-14T07:44:03.000Z</time>
      </trkpt>
      <trkpt lat="47.30165" lon="-2.30669">
        <ele>-1</ele>
        <time>2022-07-14T07:44:06.000Z</time>
      </trkpt>
      <trkpt lat="47.30166" lon="-2.30687">
        <ele>-1</ele>
        <time>2022-07-14T07:44:08.000Z</time>
      </trkpt>
      <trkpt lat="47.30168" lon="-2.30723">
        <ele>-1</ele>
        <time>2022-07-14T07:44:12.000Z</time>
      </trkpt>
      <trkpt lat="47.30169" lon="-2.30737">
        <ele>-1</ele>
        <time>2022-07-14T07:44:14.000Z</time>
      </trkpt>
      <trkpt lat="47.30172" lon="-2.30744">
        <ele>-1</ele>
        <time>2022-07-14T07:44:16.000Z</time>
      </trkpt>
      <trkpt lat="47.3018" lon="-2.30755">
        <ele>-1</ele>
        <time>2022-07-14T07:44:20.000Z</time>
      </trkpt>
      <trkpt lat="47.30181" lon="-2.30765">
        <ele>-1</ele>
        <time>2022-07-14T07:44:22.000Z</time>
      </trkpt>
      <trkpt lat="47.30183" lon="-2.30781">
        <ele>-1</ele>
        <time>2022-07-14T07:44:25.000Z</time>
      </trkpt>
      <trkpt lat="47.30184" lon="-2.30788">
        <ele>-1</ele>
        <time>2022-07-14T07:44:26.000Z</time>
      </trkpt>
      <trkpt lat="47.30191" lon="-2.3081">
        <ele>-1</ele>
        <time>2022-07-14T07:44:30.000Z</time>
      </trkpt>
      <trkpt lat="47.30194" lon="-2.30815">
        <ele>-1</ele>
        <time>2022-07-14T07:44:31.000Z</time>
      </trkpt>
      <trkpt lat="47.30197" lon="-2.3082">
        <ele>-1</ele>
        <time>2022-07-14T07:44:32.000Z</time>
      </trkpt>
      <trkpt lat="47.30207" lon="-2.30833">
        <ele>-1</ele>
        <time>2022-07-14T07:44:35.000Z</time>
      </trkpt>
      <trkpt lat="47.30232" lon="-2.30863">
        <ele>-1</ele>
        <time>2022-07-14T07:44:42.000Z</time>
      </trkpt>
      <trkpt lat="47.30252" lon="-2.30887">
        <ele>-0.40000000596046</ele>
        <time>2022-07-14T07:44:47.000Z</time>
      </trkpt>
      <trkpt lat="47.30255" lon="-2.30892">
        <ele>7.4</ele>
        <time>2022-07-14T07:44:48.000Z</time>
      </trkpt>
      <trkpt lat="47.30258" lon="-2.30897">
        <ele>0.40000000596046</ele>
        <time>2022-07-14T07:44:49.000Z</time>
      </trkpt>
      <trkpt lat="47.30261" lon="-2.30901">
        <ele>0.80000001192093</ele>
        <time>2022-07-14T07:44:50.000Z</time>
      </trkpt>
      <trkpt lat="47.30265" lon="-2.30906">
        <ele>1.2000000476837</ele>
        <time>2022-07-14T07:44:51.000Z</time>
      </trkpt>
      <trkpt lat="47.30271" lon="-2.30917">
        <ele>1.2000000476837</ele>
        <time>2022-07-14T07:44:53.000Z</time>
      </trkpt>
      <trkpt lat="47.30275" lon="-2.30922">
        <ele>1.2000000476837</ele>
        <time>2022-07-14T07:44:54.000Z</time>
      </trkpt>
      <trkpt lat="47.30284" lon="-2.30932">
        <ele>1.6000000238419</ele>
        <time>2022-07-14T07:44:56.000Z</time>
      </trkpt>
      <trkpt lat="47.30288" lon="-2.30938">
        <ele>2</ele>
        <time>2022-07-14T07:44:57.000Z</time>
      </trkpt>
      <trkpt lat="47.30292" lon="-2.30943">
        <ele>2.4000000953674</ele>
        <time>2022-07-14T07:44:58.000Z</time>
      </trkpt>
      <trkpt lat="47.30295" lon="-2.30948">
        <ele>2.7999999523163</ele>
        <time>2022-07-14T07:44:59.000Z</time>
      </trkpt>
      <trkpt lat="47.30299" lon="-2.30955">
        <ele>3.2000000476837</ele>
        <time>2022-07-14T07:45:00.000Z</time>
      </trkpt>
      <trkpt lat="47.30303" lon="-2.30961">
        <ele>3.2000000476837</ele>
        <time>2022-07-14T07:45:01.000Z</time>
      </trkpt>
      <trkpt lat="47.30321" lon="-2.30988">
        <ele>3.7999999523163</ele>
        <time>2022-07-14T07:45:06.000Z</time>
      </trkpt>
      <trkpt lat="47.30325" lon="-2.30993">
        <ele>4.1999998092651</ele>
        <time>2022-07-14T07:45:07.000Z</time>
      </trkpt>
      <trkpt lat="47.30329" lon="-2.30998">
        <ele>4.5999999046326</ele>
        <time>2022-07-14T07:45:08.000Z</time>
      </trkpt>
      <trkpt lat="47.30332" lon="-2.31003">
        <ele>5.1999998092651</ele>
        <time>2022-07-14T07:45:09.000Z</time>
      </trkpt>
      <trkpt lat="47.30336" lon="-2.31008">
        <ele>5.5999999046326</ele>
        <time>2022-07-14T07:45:10.000Z</time>
      </trkpt>
      <trkpt lat="47.30355" lon="-2.31031">
        <ele>6</ele>
        <time>2022-07-14T07:45:15.000Z</time>
      </trkpt>
      <trkpt lat="47.30359" lon="-2.31036">
        <ele>6.4000000953674</ele>
        <time>2022-07-14T07:45:16.000Z</time>
      </trkpt>
      <trkpt lat="47.30363" lon="-2.3104">
        <ele>6.8000001907349</ele>
        <time>2022-07-14T07:45:17.000Z</time>
      </trkpt>
      <trkpt lat="47.30368" lon="-2.31044">
        <ele>7.1999998092651</ele>
        <time>2022-07-14T07:45:18.000Z</time>
      </trkpt>
      <trkpt lat="47.30372" lon="-2.31049">
        <ele>7.5999999046326</ele>
        <time>2022-07-14T07:45:19.000Z</time>
      </trkpt>
      <trkpt lat="47.30375" lon="-2.31054">
        <ele>7.5999999046326</ele>
        <time>2022-07-14T07:45:20.000Z</time>
      </trkpt>
      <trkpt lat="47.30391" lon="-2.31075">
        <ele>7.5999999046326</ele>
        <time>2022-07-14T07:45:24.000Z</time>
      </trkpt>
      <trkpt lat="47.30401" lon="-2.31083">
        <ele>7.5999999046326</ele>
        <time>2022-07-14T07:45:26.000Z</time>
      </trkpt>
      <trkpt lat="47.30424" lon="-2.31104">
        <ele>7.5999999046326</ele>
        <time>2022-07-14T07:45:31.000Z</time>
      </trkpt>
      <trkpt lat="47.30432" lon="-2.3111">
        <ele>8</ele>
        <time>2022-07-14T07:45:33.000Z</time>
      </trkpt>
      <trkpt lat="47.30436" lon="-2.31114">
        <ele>8.6000003814697</ele>
        <time>2022-07-14T07:45:34.000Z</time>
      </trkpt>
      <trkpt lat="47.3044" lon="-2.31118">
        <ele>9</ele>
        <time>2022-07-14T07:45:35.000Z</time>
      </trkpt>
      <trkpt lat="47.30443" lon="-2.31122">
        <ele>9.3999996185303</ele>
        <time>2022-07-14T07:45:36.000Z</time>
      </trkpt>
      <trkpt lat="47.30446" lon="-2.31127">
        <ele>9.8000001907349</ele>
        <time>2022-07-14T07:45:37.000Z</time>
      </trkpt>
      <trkpt lat="47.30452" lon="-2.31136">
        <ele>9.8000001907349</ele>
        <time>2022-07-14T07:45:39.000Z</time>
      </trkpt>
      <trkpt lat="47.30456" lon="-2.31148">
        <ele>9.8000001907349</ele>
        <time>2022-07-14T07:45:41.000Z</time>
      </trkpt>
      <trkpt lat="47.30461" lon="-2.31161">
        <ele>9.8000001907349</ele>
        <time>2022-07-14T07:45:43.000Z</time>
      </trkpt>
      <trkpt lat="47.30465" lon="-2.31173">
        <ele>9.8000001907349</ele>
        <time>2022-07-14T07:45:45.000Z</time>
      </trkpt>
      <trkpt lat="47.30476" lon="-2.31202">
        <ele>9.8000001907349</ele>
        <time>2022-07-14T07:45:49.000Z</time>
      </trkpt>
      <trkpt lat="47.30479" lon="-2.31209">
        <ele>9.8000001907349</ele>
        <time>2022-07-14T07:45:50.000Z</time>
      </trkpt>
      <trkpt lat="47.30487" lon="-2.31232">
        <ele>9.8000001907349</ele>
        <time>2022-07-14T07:45:53.000Z</time>
      </trkpt>
      <trkpt lat="47.30493" lon="-2.31247">
        <ele>9.8000001907349</ele>
        <time>2022-07-14T07:45:55.000Z</time>
      </trkpt>
      <trkpt lat="47.3052" lon="-2.31297">
        <ele>9.8000001907349</ele>
        <time>2022-07-14T07:46:02.000Z</time>
      </trkpt>
      <trkpt lat="47.30542" lon="-2.31328">
        <ele>9.8000001907349</ele>
        <time>2022-07-14T07:46:07.000Z</time>
      </trkpt>
      <trkpt lat="47.30566" lon="-2.31368">
        <ele>9.8000001907349</ele>
        <time>2022-07-14T07:46:13.000Z</time>
      </trkpt>
      <trkpt lat="47.30578" lon="-2.31388">
        <ele>9.8000001907349</ele>
        <time>2022-07-14T07:46:16.000Z</time>
      </trkpt>
      <trkpt lat="47.30588" lon="-2.31409">
        <ele>9.8000001907349</ele>
        <time>2022-07-14T07:46:19.000Z</time>
      </trkpt>
      <trkpt lat="47.30607" lon="-2.31458">
        <ele>9.8000001907349</ele>
        <time>2022-07-14T07:46:25.000Z</time>
      </trkpt>
      <trkpt lat="47.30623" lon="-2.31496">
        <ele>9.8000001907349</ele>
        <time>2022-07-14T07:46:30.000Z</time>
      </trkpt>
      <trkpt lat="47.30626" lon="-2.31504">
        <ele>9.8000001907349</ele>
        <time>2022-07-14T07:46:31.000Z</time>
      </trkpt>
      <trkpt lat="47.30645" lon="-2.31555">
        <ele>9.8000001907349</ele>
        <time>2022-07-14T07:46:37.000Z</time>
      </trkpt>
      <trkpt lat="47.30656" lon="-2.31583">
        <ele>9.3999996185303</ele>
        <time>2022-07-14T07:46:40.000Z</time>
      </trkpt>
      <trkpt lat="47.3066" lon="-2.31591">
        <ele>9</ele>
        <time>2022-07-14T07:46:41.000Z</time>
      </trkpt>
      <trkpt lat="47.30665" lon="-2.31601">
        <ele>8.3999996185303</ele>
        <time>2022-07-14T07:46:42.000Z</time>
      </trkpt>
      <trkpt lat="47.30669" lon="-2.3161">
        <ele>8</ele>
        <time>2022-07-14T07:46:43.000Z</time>
      </trkpt>
      <trkpt lat="47.30674" lon="-2.3162">
        <ele>7.5999999046326</ele>
        <time>2022-07-14T07:46:44.000Z</time>
      </trkpt>
      <trkpt lat="47.30682" lon="-2.3164">
        <ele>7.5999999046326</ele>
        <time>2022-07-14T07:46:46.000Z</time>
      </trkpt>
      <trkpt lat="47.30689" lon="-2.3166">
        <ele>7.5999999046326</ele>
        <time>2022-07-14T07:46:48.000Z</time>
      </trkpt>
      <trkpt lat="47.30695" lon="-2.31679">
        <ele>7.5999999046326</ele>
        <time>2022-07-14T07:46:50.000Z</time>
      </trkpt>
      <trkpt lat="47.30704" lon="-2.317">
        <ele>7.5999999046326</ele>
        <time>2022-07-14T07:46:53.000Z</time>
      </trkpt>
      <trkpt lat="47.30725" lon="-2.31752">
        <ele>7.5999999046326</ele>
        <time>2022-07-14T07:47:01.000Z</time>
      </trkpt>
      <trkpt lat="47.30729" lon="-2.31757">
        <ele>7.5999999046326</ele>
        <time>2022-07-14T07:47:02.000Z</time>
      </trkpt>
      <trkpt lat="47.30736" lon="-2.3176">
        <ele>7.5999999046326</ele>
        <time>2022-07-14T07:47:04.000Z</time>
      </trkpt>
      <trkpt lat="47.30744" lon="-2.31756">
        <ele>7.5999999046326</ele>
        <time>2022-07-14T07:47:06.000Z</time>
      </trkpt>
      <trkpt lat="47.30752" lon="-2.3175">
        <ele>7.5999999046326</ele>
        <time>2022-07-14T07:47:08.000Z</time>
      </trkpt>
      <trkpt lat="47.30764" lon="-2.31739">
        <ele>7.5999999046326</ele>
        <time>2022-07-14T07:47:11.000Z</time>
      </trkpt>
      <trkpt lat="47.30772" lon="-2.31729">
        <ele>7.5999999046326</ele>
        <time>2022-07-14T07:47:13.000Z</time>
      </trkpt>
      <trkpt lat="47.30803" lon="-2.31693">
        <ele>7.5999999046326</ele>
        <time>2022-07-14T07:47:21.000Z</time>
      </trkpt>
      <trkpt lat="47.30809" lon="-2.31687">
        <ele>8</ele>
        <time>2022-07-14T07:47:23.000Z</time>
      </trkpt>
      <trkpt lat="47.30811" lon="-2.31684">
        <ele>8.3999996185303</ele>
        <time>2022-07-14T07:47:24.000Z</time>
      </trkpt>
      <trkpt lat="47.30813" lon="-2.31681">
        <ele>8.8000001907349</ele>
        <time>2022-07-14T07:47:25.000Z</time>
      </trkpt>
      <trkpt lat="47.30816" lon="-2.31678">
        <ele>9.1999998092651</ele>
        <time>2022-07-14T07:47:26.000Z</time>
      </trkpt>
      <trkpt lat="47.30819" lon="-2.31674">
        <ele>9.6000003814697</ele>
        <time>2022-07-14T07:47:27.000Z</time>
      </trkpt>
      <trkpt lat="47.30832" lon="-2.31658">
        <ele>9.6000003814697</ele>
        <time>2022-07-14T07:47:31.000Z</time>
      </trkpt>
      <trkpt lat="47.30842" lon="-2.3165">
        <ele>9.6000003814697</ele>
        <time>2022-07-14T07:47:34.000Z</time>
      </trkpt>
      <trkpt lat="47.30846" lon="-2.3165">
        <ele>9.6000003814697</ele>
        <time>2022-07-14T07:47:35.000Z</time>
      </trkpt>
      <trkpt lat="47.3086" lon="-2.31666">
        <ele>9.6000003814697</ele>
        <time>2022-07-14T07:47:39.000Z</time>
      </trkpt>
      <trkpt lat="47.30893" lon="-2.31706">
        <ele>9.6000003814697</ele>
        <time>2022-07-14T07:47:48.000Z</time>
      </trkpt>
      <trkpt lat="47.30904" lon="-2.31719">
        <ele>10</ele>
        <time>2022-07-14T07:47:51.000Z</time>
      </trkpt>
      <trkpt lat="47.30908" lon="-2.31723">
        <ele>10.39999961853</ele>
        <time>2022-07-14T07:47:52.000Z</time>
      </trkpt>
      <trkpt lat="47.30912" lon="-2.31728">
        <ele>11</ele>
        <time>2022-07-14T07:47:53.000Z</time>
      </trkpt>
      <trkpt lat="47.30915" lon="-2.31732">
        <ele>11.39999961853</ele>
        <time>2022-07-14T07:47:54.000Z</time>
      </trkpt>
      <trkpt lat="47.30919" lon="-2.31737">
        <ele>11.800000190735</ele>
        <time>2022-07-14T07:47:55.000Z</time>
      </trkpt>
      <trkpt lat="47.30926" lon="-2.31746">
        <ele>11.800000190735</ele>
        <time>2022-07-14T07:47:57.000Z</time>
      </trkpt>
      <trkpt lat="47.30957" lon="-2.31779">
        <ele>11.800000190735</ele>
        <time>2022-07-14T07:48:04.000Z</time>
      </trkpt>
      <trkpt lat="47.30992" lon="-2.31814">
        <ele>11.800000190735</ele>
        <time>2022-07-14T07:48:12.000Z</time>
      </trkpt>
      <trkpt lat="47.30999" lon="-2.31823">
        <ele>11.800000190735</ele>
        <time>2022-07-14T07:48:14.000Z</time>
      </trkpt>
      <trkpt lat="47.31004" lon="-2.31835">
        <ele>11.800000190735</ele>
        <time>2022-07-14T07:48:17.000Z</time>
      </trkpt>
      <trkpt lat="47.31004" lon="-2.31839">
        <ele>11.800000190735</ele>
        <time>2022-07-14T07:48:18.000Z</time>
      </trkpt>
      <trkpt lat="47.31" lon="-2.3185">
        <ele>11.800000190735</ele>
        <time>2022-07-14T07:48:20.000Z</time>
      </trkpt>
      <trkpt lat="47.30995" lon="-2.3187">
        <ele>11.800000190735</ele>
        <time>2022-07-14T07:48:23.000Z</time>
      </trkpt>
      <trkpt lat="47.30994" lon="-2.31877">
        <ele>11.800000190735</ele>
        <time>2022-07-14T07:48:24.000Z</time>
      </trkpt>
      <trkpt lat="47.30992" lon="-2.31884">
        <ele>11.39999961853</ele>
        <time>2022-07-14T07:48:25.000Z</time>
      </trkpt>
      <trkpt lat="47.30992" lon="-2.31891">
        <ele>10.800000190735</ele>
        <time>2022-07-14T07:48:26.000Z</time>
      </trkpt>
      <trkpt lat="47.3099" lon="-2.31898">
        <ele>10.39999961853</ele>
        <time>2022-07-14T07:48:27.000Z</time>
      </trkpt>
      <trkpt lat="47.30988" lon="-2.31905">
        <ele>10</ele>
        <time>2022-07-14T07:48:28.000Z</time>
      </trkpt>
      <trkpt lat="47.30986" lon="-2.31911">
        <ele>9.6000003814697</ele>
        <time>2022-07-14T07:48:29.000Z</time>
      </trkpt>
      <trkpt lat="47.30983" lon="-2.31916">
        <ele>9.6000003814697</ele>
        <time>2022-07-14T07:48:30.000Z</time>
      </trkpt>
      <trkpt lat="47.30979" lon="-2.31928">
        <ele>9.6000003814697</ele>
        <time>2022-07-14T07:48:32.000Z</time>
      </trkpt>
      <trkpt lat="47.30975" lon="-2.31944">
        <ele>9.6000003814697</ele>
        <time>2022-07-14T07:48:34.000Z</time>
      </trkpt>
      <trkpt lat="47.30974" lon="-2.31952">
        <ele>9.6000003814697</ele>
        <time>2022-07-14T07:48:35.000Z</time>
      </trkpt>
      <trkpt lat="47.30975" lon="-2.31966">
        <ele>9.6000003814697</ele>
        <time>2022-07-14T07:48:37.000Z</time>
      </trkpt>
      <trkpt lat="47.3098" lon="-2.31984">
        <ele>9.6000003814697</ele>
        <time>2022-07-14T07:48:40.000Z</time>
      </trkpt>
      <trkpt lat="47.30986" lon="-2.32001">
        <ele>9.6000003814697</ele>
        <time>2022-07-14T07:48:43.000Z</time>
      </trkpt>
      <trkpt lat="47.30997" lon="-2.32029">
        <ele>9.6000003814697</ele>
        <time>2022-07-14T07:48:49.000Z</time>
      </trkpt>
      <trkpt lat="47.31003" lon="-2.32046">
        <ele>9.6000003814697</ele>
        <time>2022-07-14T07:48:52.000Z</time>
      </trkpt>
      <trkpt lat="47.31011" lon="-2.32062">
        <ele>9.6000003814697</ele>
        <time>2022-07-14T07:48:55.000Z</time>
      </trkpt>
      <trkpt lat="47.31017" lon="-2.32073">
        <ele>10</ele>
        <time>2022-07-14T07:48:57.000Z</time>
      </trkpt>
      <trkpt lat="47.3102" lon="-2.32078">
        <ele>10.39999961853</ele>
        <time>2022-07-14T07:48:58.000Z</time>
      </trkpt>
      <trkpt lat="47.31023" lon="-2.32084">
        <ele>10.800000190735</ele>
        <time>2022-07-14T07:48:59.000Z</time>
      </trkpt>
      <trkpt lat="47.31026" lon="-2.32089">
        <ele>11.199999809265</ele>
        <time>2022-07-14T07:49:00.000Z</time>
      </trkpt>
      <trkpt lat="47.31029" lon="-2.32094">
        <ele>11.800000190735</ele>
        <time>2022-07-14T07:49:01.000Z</time>
      </trkpt>
      <trkpt lat="47.31041" lon="-2.32113">
        <ele>11.800000190735</ele>
        <time>2022-07-14T07:49:05.000Z</time>
      </trkpt>
      <trkpt lat="47.31047" lon="-2.32123">
        <ele>11.800000190735</ele>
        <time>2022-07-14T07:49:07.000Z</time>
      </trkpt>
      <trkpt lat="47.31057" lon="-2.32137">
        <ele>11.800000190735</ele>
        <time>2022-07-14T07:49:10.000Z</time>
      </trkpt>
      <trkpt lat="47.31059" lon="-2.32143">
        <ele>12.199999809265</ele>
        <time>2022-07-14T07:49:11.000Z</time>
      </trkpt>
      <trkpt lat="47.31063" lon="-2.32149">
        <ele>12.60000038147</ele>
        <time>2022-07-14T07:49:12.000Z</time>
      </trkpt>
      <trkpt lat="47.31066" lon="-2.32154">
        <ele>13</ele>
        <time>2022-07-14T07:49:13.000Z</time>
      </trkpt>
      <trkpt lat="47.31069" lon="-2.32159">
        <ele>13.800000190735</ele>
        <time>2022-07-14T07:49:14.000Z</time>
      </trkpt>
      <trkpt lat="47.31074" lon="-2.32169">
        <ele>13.800000190735</ele>
        <time>2022-07-14T07:49:16.000Z</time>
      </trkpt>
      <trkpt lat="47.31089" lon="-2.32198">
        <ele>13.800000190735</ele>
        <time>2022-07-14T07:49:22.000Z</time>
      </trkpt>
      <trkpt lat="47.31097" lon="-2.32221">
        <ele>13.800000190735</ele>
        <time>2022-07-14T07:49:27.000Z</time>
      </trkpt>
      <trkpt lat="47.31103" lon="-2.32235">
        <ele>14.199999809265</ele>
        <time>2022-07-14T07:49:31.000Z</time>
      </trkpt>
      <trkpt lat="47.31105" lon="-2.32239">
        <ele>14.60000038147</ele>
        <time>2022-07-14T07:49:32.000Z</time>
      </trkpt>
      <trkpt lat="47.31107" lon="-2.32243">
        <ele>15.199999809265</ele>
        <time>2022-07-14T07:49:33.000Z</time>
      </trkpt>
      <trkpt lat="47.31109" lon="-2.32248">
        <ele>15.60000038147</ele>
        <time>2022-07-14T07:49:34.000Z</time>
      </trkpt>
      <trkpt lat="47.31111" lon="-2.32252">
        <ele>16</ele>
        <time>2022-07-14T07:49:35.000Z</time>
      </trkpt>
      <trkpt lat="47.31119" lon="-2.32269">
        <ele>16</ele>
        <time>2022-07-14T07:49:39.000Z</time>
      </trkpt>
      <trkpt lat="47.31128" lon="-2.3229">
        <ele>16</ele>
        <time>2022-07-14T07:49:44.000Z</time>
      </trkpt>
      <trkpt lat="47.3113" lon="-2.32295">
        <ele>16.39999961853</ele>
        <time>2022-07-14T07:49:45.000Z</time>
      </trkpt>
      <trkpt lat="47.31132" lon="-2.323">
        <ele>16.799999237061</ele>
        <time>2022-07-14T07:49:46.000Z</time>
      </trkpt>
      <trkpt lat="47.31134" lon="-2.32305">
        <ele>17.200000762939</ele>
        <time>2022-07-14T07:49:47.000Z</time>
      </trkpt>
      <trkpt lat="47.31136" lon="-2.32311">
        <ele>17.60000038147</ele>
        <time>2022-07-14T07:49:48.000Z</time>
      </trkpt>
      <trkpt lat="47.31138" lon="-2.32317">
        <ele>18</ele>
        <time>2022-07-14T07:49:49.000Z</time>
      </trkpt>
      <trkpt lat="47.3114" lon="-2.32323">
        <ele>18</ele>
        <time>2022-07-14T07:49:50.000Z</time>
      </trkpt>
      <trkpt lat="47.31145" lon="-2.3235">
        <ele>18</ele>
        <time>2022-07-14T07:49:55.000Z</time>
      </trkpt>
      <trkpt lat="47.31148" lon="-2.32374">
        <ele>18</ele>
        <time>2022-07-14T07:50:01.000Z</time>
      </trkpt>
      <trkpt lat="47.31149" lon="-2.32382">
        <ele>18.39999961853</ele>
        <time>2022-07-14T07:50:03.000Z</time>
      </trkpt>
      <trkpt lat="47.3115" lon="-2.32387">
        <ele>18.799999237061</ele>
        <time>2022-07-14T07:50:04.000Z</time>
      </trkpt>
      <trkpt lat="47.3115" lon="-2.32391">
        <ele>19.200000762939</ele>
        <time>2022-07-14T07:50:05.000Z</time>
      </trkpt>
      <trkpt lat="47.3115" lon="-2.32395">
        <ele>19.60000038147</ele>
        <time>2022-07-14T07:50:06.000Z</time>
      </trkpt>
      <trkpt lat="47.31151" lon="-2.324">
        <ele>20</ele>
        <time>2022-07-14T07:50:07.000Z</time>
      </trkpt>
      <trkpt lat="47.31156" lon="-2.32413">
        <ele>20</ele>
        <time>2022-07-14T07:50:10.000Z</time>
      </trkpt>
      <trkpt lat="47.31167" lon="-2.32421">
        <ele>20</ele>
        <time>2022-07-14T07:50:15.000Z</time>
      </trkpt>
      <trkpt lat="47.31173" lon="-2.32427">
        <ele>20</ele>
        <time>2022-07-14T07:50:20.000Z</time>
      </trkpt>
      <trkpt lat="47.31179" lon="-2.3243">
        <ele>20</ele>
        <time>2022-07-14T07:50:25.000Z</time>
      </trkpt>
      <trkpt lat="47.31179" lon="-2.32433">
        <ele>20</ele>
        <time>2022-07-14T07:50:46.000Z</time>
      </trkpt>
      <trkpt lat="47.31178" lon="-2.32449">
        <ele>20</ele>
        <time>2022-07-14T07:50:51.000Z</time>
      </trkpt>
      <trkpt lat="47.31178" lon="-2.32453">
        <ele>20</ele>
        <time>2022-07-14T07:50:52.000Z</time>
      </trkpt>
      <trkpt lat="47.31176" lon="-2.32482">
        <ele>20</ele>
        <time>2022-07-14T07:50:58.000Z</time>
      </trkpt>
      <trkpt lat="47.31176" lon="-2.32488">
        <ele>20</ele>
        <time>2022-07-14T07:50:59.000Z</time>
      </trkpt>
      <trkpt lat="47.31176" lon="-2.32523">
        <ele>20</ele>
        <time>2022-07-14T07:51:04.000Z</time>
      </trkpt>
      <trkpt lat="47.31176" lon="-2.32542">
        <ele>20</ele>
        <time>2022-07-14T07:51:07.000Z</time>
      </trkpt>
      <trkpt lat="47.31177" lon="-2.32562">
        <ele>20</ele>
        <time>2022-07-14T07:51:10.000Z</time>
      </trkpt>
      <trkpt lat="47.31178" lon="-2.32589">
        <ele>20.60000038147</ele>
        <time>2022-07-14T07:51:14.000Z</time>
      </trkpt>
      <trkpt lat="47.31178" lon="-2.32596">
        <ele>21</ele>
        <time>2022-07-14T07:51:15.000Z</time>
      </trkpt>
      <trkpt lat="47.31177" lon="-2.32603">
        <ele>21.39999961853</ele>
        <time>2022-07-14T07:51:16.000Z</time>
      </trkpt>
      <trkpt lat="47.31178" lon="-2.32609">
        <ele>22.200000762939</ele>
        <time>2022-07-14T07:51:17.000Z</time>
      </trkpt>
      <trkpt lat="47.31179" lon="-2.32623">
        <ele>22.200000762939</ele>
        <time>2022-07-14T07:51:19.000Z</time>
      </trkpt>
      <trkpt lat="47.31186" lon="-2.3265">
        <ele>22.200000762939</ele>
        <time>2022-07-14T07:51:23.000Z</time>
      </trkpt>
      <trkpt lat="47.31189" lon="-2.32662">
        <ele>22.200000762939</ele>
        <time>2022-07-14T07:51:25.000Z</time>
      </trkpt>
      <trkpt lat="47.31193" lon="-2.3268">
        <ele>22.200000762939</ele>
        <time>2022-07-14T07:51:28.000Z</time>
      </trkpt>
      <trkpt lat="47.31197" lon="-2.32692">
        <ele>22.200000762939</ele>
        <time>2022-07-14T07:51:30.000Z</time>
      </trkpt>
      <trkpt lat="47.31199" lon="-2.32698">
        <ele>22.200000762939</ele>
        <time>2022-07-14T07:51:31.000Z</time>
      </trkpt>
      <trkpt lat="47.31204" lon="-2.32717">
        <ele>22.200000762939</ele>
        <time>2022-07-14T07:51:34.000Z</time>
      </trkpt>
      <trkpt lat="47.31207" lon="-2.32722">
        <ele>22.200000762939</ele>
        <time>2022-07-14T07:51:35.000Z</time>
      </trkpt>
      <trkpt lat="47.31222" lon="-2.3274">
        <ele>22.200000762939</ele>
        <time>2022-07-14T07:51:39.000Z</time>
      </trkpt>
      <trkpt lat="47.31253" lon="-2.32761">
        <ele>22.200000762939</ele>
        <time>2022-07-14T07:51:45.000Z</time>
      </trkpt>
      <trkpt lat="47.3127" lon="-2.32772">
        <ele>22.200000762939</ele>
        <time>2022-07-14T07:51:48.000Z</time>
      </trkpt>
      <trkpt lat="47.31275" lon="-2.32778">
        <ele>22.200000762939</ele>
        <time>2022-07-14T07:51:49.000Z</time>
      </trkpt>
      <trkpt lat="47.31292" lon="-2.32805">
        <ele>22.200000762939</ele>
        <time>2022-07-14T07:51:53.000Z</time>
      </trkpt>
      <trkpt lat="47.31297" lon="-2.32812">
        <ele>22.200000762939</ele>
        <time>2022-07-14T07:51:54.000Z</time>
      </trkpt>
      <trkpt lat="47.31311" lon="-2.32831">
        <ele>22.200000762939</ele>
        <time>2022-07-14T07:51:57.000Z</time>
      </trkpt>
      <trkpt lat="47.31338" lon="-2.32863">
        <ele>22.200000762939</ele>
        <time>2022-07-14T07:52:02.000Z</time>
      </trkpt>
      <trkpt lat="47.31347" lon="-2.32874">
        <ele>22.200000762939</ele>
        <time>2022-07-14T07:52:04.000Z</time>
      </trkpt>
      <trkpt lat="47.31353" lon="-2.32887">
        <ele>22.200000762939</ele>
        <time>2022-07-14T07:52:06.000Z</time>
      </trkpt>
      <trkpt lat="47.31352" lon="-2.32904">
        <ele>22.200000762939</ele>
        <time>2022-07-14T07:52:09.000Z</time>
      </trkpt>
      <trkpt lat="47.31347" lon="-2.32915">
        <ele>22.200000762939</ele>
        <time>2022-07-14T07:52:11.000Z</time>
      </trkpt>
      <trkpt lat="47.31339" lon="-2.32933">
        <ele>22.200000762939</ele>
        <time>2022-07-14T07:52:14.000Z</time>
      </trkpt>
      <trkpt lat="47.31329" lon="-2.32959">
        <ele>22.200000762939</ele>
        <time>2022-07-14T07:52:17.000Z</time>
      </trkpt>
      <trkpt lat="47.31314" lon="-2.32986">
        <ele>22.200000762939</ele>
        <time>2022-07-14T07:52:21.000Z</time>
      </trkpt>
      <trkpt lat="47.31293" lon="-2.33019">
        <ele>22.200000762939</ele>
        <time>2022-07-14T07:52:26.000Z</time>
      </trkpt>
      <trkpt lat="47.31283" lon="-2.33035">
        <ele>22.200000762939</ele>
        <time>2022-07-14T07:52:28.000Z</time>
      </trkpt>
      <trkpt lat="47.31271" lon="-2.33056">
        <ele>22.200000762939</ele>
        <time>2022-07-14T07:52:31.000Z</time>
      </trkpt>
      <trkpt lat="47.31258" lon="-2.33082">
        <ele>22.200000762939</ele>
        <time>2022-07-14T07:52:35.000Z</time>
      </trkpt>
      <trkpt lat="47.31254" lon="-2.33088">
        <ele>22.200000762939</ele>
        <time>2022-07-14T07:52:36.000Z</time>
      </trkpt>
      <trkpt lat="47.31243" lon="-2.33113">
        <ele>22.200000762939</ele>
        <time>2022-07-14T07:52:40.000Z</time>
      </trkpt>
      <trkpt lat="47.31241" lon="-2.33117">
        <ele>22.200000762939</ele>
        <time>2022-07-14T07:52:41.000Z</time>
      </trkpt>
      <trkpt lat="47.31238" lon="-2.33127">
        <ele>22.200000762939</ele>
        <time>2022-07-14T07:52:43.000Z</time>
      </trkpt>
      <trkpt lat="47.31242" lon="-2.33136">
        <ele>22.200000762939</ele>
        <time>2022-07-14T07:52:45.000Z</time>
      </trkpt>
      <trkpt lat="47.31253" lon="-2.3314">
        <ele>22.200000762939</ele>
        <time>2022-07-14T07:52:48.000Z</time>
      </trkpt>
      <trkpt lat="47.31261" lon="-2.33144">
        <ele>22.200000762939</ele>
        <time>2022-07-14T07:52:50.000Z</time>
      </trkpt>
      <trkpt lat="47.31276" lon="-2.33151">
        <ele>22.200000762939</ele>
        <time>2022-07-14T07:52:53.000Z</time>
      </trkpt>
      <trkpt lat="47.31285" lon="-2.33157">
        <ele>22.200000762939</ele>
        <time>2022-07-14T07:52:55.000Z</time>
      </trkpt>
      <trkpt lat="47.31295" lon="-2.33165">
        <ele>22.200000762939</ele>
        <time>2022-07-14T07:52:57.000Z</time>
      </trkpt>
      <trkpt lat="47.31319" lon="-2.33186">
        <ele>22.200000762939</ele>
        <time>2022-07-14T07:53:02.000Z</time>
      </trkpt>
      <trkpt lat="47.31349" lon="-2.33217">
        <ele>22.200000762939</ele>
        <time>2022-07-14T07:53:08.000Z</time>
      </trkpt>
      <trkpt lat="47.31381" lon="-2.33241">
        <ele>22.60000038147</ele>
        <time>2022-07-14T07:53:14.000Z</time>
      </trkpt>
      <trkpt lat="47.31387" lon="-2.33245">
        <ele>23</ele>
        <time>2022-07-14T07:53:15.000Z</time>
      </trkpt>
      <trkpt lat="47.31392" lon="-2.3325">
        <ele>23.39999961853</ele>
        <time>2022-07-14T07:53:16.000Z</time>
      </trkpt>
      <trkpt lat="47.31398" lon="-2.33253">
        <ele>23.799999237061</ele>
        <time>2022-07-14T07:53:17.000Z</time>
      </trkpt>
      <trkpt lat="47.31404" lon="-2.33258">
        <ele>24.200000762939</ele>
        <time>2022-07-14T07:53:18.000Z</time>
      </trkpt>
      <trkpt lat="47.31416" lon="-2.33268">
        <ele>24.200000762939</ele>
        <time>2022-07-14T07:53:20.000Z</time>
      </trkpt>
      <trkpt lat="47.31432" lon="-2.33283">
        <ele>24.200000762939</ele>
        <time>2022-07-14T07:53:23.000Z</time>
      </trkpt>
      <trkpt lat="47.31447" lon="-2.33299">
        <ele>24.200000762939</ele>
        <time>2022-07-14T07:53:26.000Z</time>
      </trkpt>
      <trkpt lat="47.31451" lon="-2.33304">
        <ele>24.200000762939</ele>
        <time>2022-07-14T07:53:27.000Z</time>
      </trkpt>
      <trkpt lat="47.31458" lon="-2.33315">
        <ele>24.200000762939</ele>
        <time>2022-07-14T07:53:29.000Z</time>
      </trkpt>
      <trkpt lat="47.31461" lon="-2.33321">
        <ele>24.200000762939</ele>
        <time>2022-07-14T07:53:30.000Z</time>
      </trkpt>
      <trkpt lat="47.31467" lon="-2.33333">
        <ele>24.200000762939</ele>
        <time>2022-07-14T07:53:32.000Z</time>
      </trkpt>
      <trkpt lat="47.31481" lon="-2.33363">
        <ele>24.200000762939</ele>
        <time>2022-07-14T07:53:37.000Z</time>
      </trkpt>
      <trkpt lat="47.31485" lon="-2.33366">
        <ele>24.200000762939</ele>
        <time>2022-07-14T07:53:38.000Z</time>
      </trkpt>
      <trkpt lat="47.31495" lon="-2.33365">
        <ele>24.200000762939</ele>
        <time>2022-07-14T07:53:40.000Z</time>
      </trkpt>
      <trkpt lat="47.31506" lon="-2.3336">
        <ele>24.60000038147</ele>
        <time>2022-07-14T07:53:42.000Z</time>
      </trkpt>
      <trkpt lat="47.31511" lon="-2.33357">
        <ele>25</ele>
        <time>2022-07-14T07:53:43.000Z</time>
      </trkpt>
      <trkpt lat="47.31516" lon="-2.33354">
        <ele>25.39999961853</ele>
        <time>2022-07-14T07:53:44.000Z</time>
      </trkpt>
      <trkpt lat="47.31522" lon="-2.33351">
        <ele>26.39999961853</ele>
        <time>2022-07-14T07:53:45.000Z</time>
      </trkpt>
      <trkpt lat="47.31552" lon="-2.33338">
        <ele>26.39999961853</ele>
        <time>2022-07-14T07:53:51.000Z</time>
      </trkpt>
      <trkpt lat="47.31557" lon="-2.33335">
        <ele>26.39999961853</ele>
        <time>2022-07-14T07:53:52.000Z</time>
      </trkpt>
      <trkpt lat="47.31577" lon="-2.33325">
        <ele>26.39999961853</ele>
        <time>2022-07-14T07:53:56.000Z</time>
      </trkpt>
      <trkpt lat="47.31613" lon="-2.33303">
        <ele>26.39999961853</ele>
        <time>2022-07-14T07:54:03.000Z</time>
      </trkpt>
      <trkpt lat="47.31646" lon="-2.33284">
        <ele>26.39999961853</ele>
        <time>2022-07-14T07:54:09.000Z</time>
      </trkpt>
      <trkpt lat="47.31658" lon="-2.33279">
        <ele>26.39999961853</ele>
        <time>2022-07-14T07:54:11.000Z</time>
      </trkpt>
      <trkpt lat="47.31681" lon="-2.33269">
        <ele>26.39999961853</ele>
        <time>2022-07-14T07:54:15.000Z</time>
      </trkpt>
      <trkpt lat="47.31691" lon="-2.33265">
        <ele>26.39999961853</ele>
        <time>2022-07-14T07:54:17.000Z</time>
      </trkpt>
      <trkpt lat="47.317" lon="-2.3326">
        <ele>25.799999237061</ele>
        <time>2022-07-14T07:54:19.000Z</time>
      </trkpt>
      <trkpt lat="47.31705" lon="-2.33257">
        <ele>25.39999961853</ele>
        <time>2022-07-14T07:54:20.000Z</time>
      </trkpt>
      <trkpt lat="47.31709" lon="-2.33255">
        <ele>25</ele>
        <time>2022-07-14T07:54:21.000Z</time>
      </trkpt>
      <trkpt lat="47.31714" lon="-2.33253">
        <ele>24.60000038147</ele>
        <time>2022-07-14T07:54:22.000Z</time>
      </trkpt>
      <trkpt lat="47.31719" lon="-2.33251">
        <ele>24.200000762939</ele>
        <time>2022-07-14T07:54:23.000Z</time>
      </trkpt>
      <trkpt lat="47.31727" lon="-2.33248">
        <ele>23.799999237061</ele>
        <time>2022-07-14T07:54:25.000Z</time>
      </trkpt>
      <trkpt lat="47.31732" lon="-2.33246">
        <ele>23.39999961853</ele>
        <time>2022-07-14T07:54:26.000Z</time>
      </trkpt>
      <trkpt lat="47.31736" lon="-2.33247">
        <ele>23</ele>
        <time>2022-07-14T07:54:27.000Z</time>
      </trkpt>
      <trkpt lat="47.31739" lon="-2.3325">
        <ele>22.60000038147</ele>
        <time>2022-07-14T07:54:28.000Z</time>
      </trkpt>
      <trkpt lat="47.31742" lon="-2.33255">
        <ele>22.200000762939</ele>
        <time>2022-07-14T07:54:29.000Z</time>
      </trkpt>
      <trkpt lat="47.31743" lon="-2.3326">
        <ele>22.200000762939</ele>
        <time>2022-07-14T07:54:30.000Z</time>
      </trkpt>
      <trkpt lat="47.31751" lon="-2.33283">
        <ele>22.200000762939</ele>
        <time>2022-07-14T07:54:35.000Z</time>
      </trkpt>
      <trkpt lat="47.31758" lon="-2.33298">
        <ele>22.200000762939</ele>
        <time>2022-07-14T07:54:38.000Z</time>
      </trkpt>
      <trkpt lat="47.31761" lon="-2.33303">
        <ele>22.200000762939</ele>
        <time>2022-07-14T07:54:39.000Z</time>
      </trkpt>
      <trkpt lat="47.31764" lon="-2.33307">
        <ele>22.200000762939</ele>
        <time>2022-07-14T07:54:40.000Z</time>
      </trkpt>
      <trkpt lat="47.31772" lon="-2.33316">
        <ele>22.200000762939</ele>
        <time>2022-07-14T07:54:43.000Z</time>
      </trkpt>
      <trkpt lat="47.31775" lon="-2.33319">
        <ele>21.799999237061</ele>
        <time>2022-07-14T07:54:44.000Z</time>
      </trkpt>
      <trkpt lat="47.31778" lon="-2.33319">
        <ele>21.200000762939</ele>
        <time>2022-07-14T07:54:45.000Z</time>
      </trkpt>
      <trkpt lat="47.3178" lon="-2.33318">
        <ele>20.799999237061</ele>
        <time>2022-07-14T07:54:46.000Z</time>
      </trkpt>
      <trkpt lat="47.31782" lon="-2.33317">
        <ele>20.39999961853</ele>
        <time>2022-07-14T07:54:47.000Z</time>
      </trkpt>
      <trkpt lat="47.31784" lon="-2.33314">
        <ele>19.799999237061</ele>
        <time>2022-07-14T07:54:48.000Z</time>
      </trkpt>
      <trkpt lat="47.3179" lon="-2.33308">
        <ele>19.39999961853</ele>
        <time>2022-07-14T07:54:51.000Z</time>
      </trkpt>
      <trkpt lat="47.31791" lon="-2.33306">
        <ele>19</ele>
        <time>2022-07-14T07:54:52.000Z</time>
      </trkpt>
      <trkpt lat="47.31794" lon="-2.33304">
        <ele>18.39999961853</ele>
        <time>2022-07-14T07:54:53.000Z</time>
      </trkpt>
      <trkpt lat="47.31796" lon="-2.33302">
        <ele>18</ele>
        <time>2022-07-14T07:54:54.000Z</time>
      </trkpt>
      <trkpt lat="47.31798" lon="-2.333">
        <ele>17.60000038147</ele>
        <time>2022-07-14T07:54:55.000Z</time>
      </trkpt>
      <trkpt lat="47.318" lon="-2.33299">
        <ele>17.60000038147</ele>
        <time>2022-07-14T07:54:56.000Z</time>
      </trkpt>
      <trkpt lat="47.31805" lon="-2.33294">
        <ele>17.200000762939</ele>
        <time>2022-07-14T07:54:58.000Z</time>
      </trkpt>
      <trkpt lat="47.31807" lon="-2.33292">
        <ele>16.200000762939</ele>
        <time>2022-07-14T07:54:59.000Z</time>
      </trkpt>
      <trkpt lat="47.3181" lon="-2.33289">
        <ele>15.800000190735</ele>
        <time>2022-07-14T07:55:00.000Z</time>
      </trkpt>
      <trkpt lat="47.31813" lon="-2.33285">
        <ele>15.39999961853</ele>
        <time>2022-07-14T07:55:01.000Z</time>
      </trkpt>
      <trkpt lat="47.31831" lon="-2.33263">
        <ele>15.39999961853</ele>
        <time>2022-07-14T07:55:08.000Z</time>
      </trkpt>
      <trkpt lat="47.31835" lon="-2.33257">
        <ele>15.39999961853</ele>
        <time>2022-07-14T07:55:09.000Z</time>
      </trkpt>
      <trkpt lat="47.31849" lon="-2.3323">
        <ele>15</ele>
        <time>2022-07-14T07:55:13.000Z</time>
      </trkpt>
      <trkpt lat="47.31851" lon="-2.33222">
        <ele>14.60000038147</ele>
        <time>2022-07-14T07:55:14.000Z</time>
      </trkpt>
      <trkpt lat="47.31853" lon="-2.33215">
        <ele>14.199999809265</ele>
        <time>2022-07-14T07:55:15.000Z</time>
      </trkpt>
      <trkpt lat="47.31854" lon="-2.33208">
        <ele>13.60000038147</ele>
        <time>2022-07-14T07:55:16.000Z</time>
      </trkpt>
      <trkpt lat="47.31856" lon="-2.332">
        <ele>13.199999809265</ele>
        <time>2022-07-14T07:55:17.000Z</time>
      </trkpt>
      <trkpt lat="47.31857" lon="-2.33192">
        <ele>13.199999809265</ele>
        <time>2022-07-14T07:55:18.000Z</time>
      </trkpt>
      <trkpt lat="47.31861" lon="-2.33178">
        <ele>13.199999809265</ele>
        <time>2022-07-14T07:55:20.000Z</time>
      </trkpt>
      <trkpt lat="47.31864" lon="-2.33162">
        <ele>12.800000190735</ele>
        <time>2022-07-14T07:55:22.000Z</time>
      </trkpt>
      <trkpt lat="47.31865" lon="-2.33154">
        <ele>12.39999961853</ele>
        <time>2022-07-14T07:55:23.000Z</time>
      </trkpt>
      <trkpt lat="47.31866" lon="-2.33145">
        <ele>11.39999961853</ele>
        <time>2022-07-14T07:55:24.000Z</time>
      </trkpt>
      <trkpt lat="47.31867" lon="-2.33137">
        <ele>10.800000190735</ele>
        <time>2022-07-14T07:55:25.000Z</time>
      </trkpt>
      <trkpt lat="47.3187" lon="-2.33122">
        <ele>10.800000190735</ele>
        <time>2022-07-14T07:55:27.000Z</time>
      </trkpt>
      <trkpt lat="47.31871" lon="-2.33114">
        <ele>10.800000190735</ele>
        <time>2022-07-14T07:55:28.000Z</time>
      </trkpt>
      <trkpt lat="47.31874" lon="-2.33087">
        <ele>10.39999961853</ele>
        <time>2022-07-14T07:55:31.000Z</time>
      </trkpt>
      <trkpt lat="47.31874" lon="-2.33079">
        <ele>10</ele>
        <time>2022-07-14T07:55:32.000Z</time>
      </trkpt>
      <trkpt lat="47.31874" lon="-2.33071">
        <ele>9.6000003814697</ele>
        <time>2022-07-14T07:55:33.000Z</time>
      </trkpt>
      <trkpt lat="47.31874" lon="-2.33063">
        <ele>9.1999998092651</ele>
        <time>2022-07-14T07:55:34.000Z</time>
      </trkpt>
      <trkpt lat="47.31874" lon="-2.33054">
        <ele>8.8000001907349</ele>
        <time>2022-07-14T07:55:35.000Z</time>
      </trkpt>
      <trkpt lat="47.31876" lon="-2.33024">
        <ele>8.8000001907349</ele>
        <time>2022-07-14T07:55:38.000Z</time>
      </trkpt>
      <trkpt lat="47.31874" lon="-2.33">
        <ele>8.8000001907349</ele>
        <time>2022-07-14T07:55:40.000Z</time>
      </trkpt>
      <trkpt lat="47.31874" lon="-2.32966">
        <ele>8.8000001907349</ele>
        <time>2022-07-14T07:55:44.000Z</time>
      </trkpt>
      <trkpt lat="47.31875" lon="-2.3295">
        <ele>8.8000001907349</ele>
        <time>2022-07-14T07:55:46.000Z</time>
      </trkpt>
      <trkpt lat="47.3188" lon="-2.32928">
        <ele>8.8000001907349</ele>
        <time>2022-07-14T07:55:50.000Z</time>
      </trkpt>
      <trkpt lat="47.31883" lon="-2.32897">
        <ele>8.8000001907349</ele>
        <time>2022-07-14T07:55:55.000Z</time>
      </trkpt>
      <trkpt lat="47.31885" lon="-2.32868">
        <ele>8.8000001907349</ele>
        <time>2022-07-14T07:55:59.000Z</time>
      </trkpt>
      <trkpt lat="47.31885" lon="-2.3286">
        <ele>8.8000001907349</ele>
        <time>2022-07-14T07:56:00.000Z</time>
      </trkpt>
      <trkpt lat="47.31884" lon="-2.32844">
        <ele>8.8000001907349</ele>
        <time>2022-07-14T07:56:02.000Z</time>
      </trkpt>
      <trkpt lat="47.31883" lon="-2.32816">
        <ele>8.8000001907349</ele>
        <time>2022-07-14T07:56:06.000Z</time>
      </trkpt>
      <trkpt lat="47.31882" lon="-2.32794">
        <ele>8.8000001907349</ele>
        <time>2022-07-14T07:56:09.000Z</time>
      </trkpt>
      <trkpt lat="47.3188" lon="-2.32781">
        <ele>8.8000001907349</ele>
        <time>2022-07-14T07:56:11.000Z</time>
      </trkpt>
      <trkpt lat="47.31878" lon="-2.32763">
        <ele>9.6000003814697</ele>
        <time>2022-07-14T07:56:14.000Z</time>
      </trkpt>
      <trkpt lat="47.31877" lon="-2.32757">
        <ele>10</ele>
        <time>2022-07-14T07:56:15.000Z</time>
      </trkpt>
      <trkpt lat="47.31876" lon="-2.32752">
        <ele>10.39999961853</ele>
        <time>2022-07-14T07:56:16.000Z</time>
      </trkpt>
      <trkpt lat="47.31874" lon="-2.32745">
        <ele>10.800000190735</ele>
        <time>2022-07-14T07:56:17.000Z</time>
      </trkpt>
      <trkpt lat="47.31872" lon="-2.3274">
        <ele>10.800000190735</ele>
        <time>2022-07-14T07:56:18.000Z</time>
      </trkpt>
      <trkpt lat="47.31858" lon="-2.327">
        <ele>10.800000190735</ele>
        <time>2022-07-14T07:56:25.000Z</time>
      </trkpt>
      <trkpt lat="47.31847" lon="-2.32672">
        <ele>10.800000190735</ele>
        <time>2022-07-14T07:56:31.000Z</time>
      </trkpt>
      <trkpt lat="47.31846" lon="-2.32666">
        <ele>11.39999961853</ele>
        <time>2022-07-14T07:56:32.000Z</time>
      </trkpt>
      <trkpt lat="47.31845" lon="-2.32661">
        <ele>11.800000190735</ele>
        <time>2022-07-14T07:56:33.000Z</time>
      </trkpt>
      <trkpt lat="47.31843" lon="-2.32656">
        <ele>12.199999809265</ele>
        <time>2022-07-14T07:56:34.000Z</time>
      </trkpt>
      <trkpt lat="47.31842" lon="-2.3265">
        <ele>12.60000038147</ele>
        <time>2022-07-14T07:56:35.000Z</time>
      </trkpt>
      <trkpt lat="47.31841" lon="-2.32644">
        <ele>13</ele>
        <time>2022-07-14T07:56:36.000Z</time>
      </trkpt>
      <trkpt lat="47.31832" lon="-2.32601">
        <ele>13</ele>
        <time>2022-07-14T07:56:43.000Z</time>
      </trkpt>
      <trkpt lat="47.31827" lon="-2.32581">
        <ele>13.39999961853</ele>
        <time>2022-07-14T07:56:46.000Z</time>
      </trkpt>
      <trkpt lat="47.31825" lon="-2.32575">
        <ele>13.800000190735</ele>
        <time>2022-07-14T07:56:47.000Z</time>
      </trkpt>
      <trkpt lat="47.31824" lon="-2.3257">
        <ele>14.199999809265</ele>
        <time>2022-07-14T07:56:48.000Z</time>
      </trkpt>
      <trkpt lat="47.31822" lon="-2.32565">
        <ele>14.800000190735</ele>
        <time>2022-07-14T07:56:49.000Z</time>
      </trkpt>
      <trkpt lat="47.31821" lon="-2.3256">
        <ele>15.199999809265</ele>
        <time>2022-07-14T07:56:50.000Z</time>
      </trkpt>
      <trkpt lat="47.31816" lon="-2.32538">
        <ele>15.199999809265</ele>
        <time>2022-07-14T07:56:55.000Z</time>
      </trkpt>
      <trkpt lat="47.31811" lon="-2.32519">
        <ele>15.60000038147</ele>
        <time>2022-07-14T07:57:01.000Z</time>
      </trkpt>
      <trkpt lat="47.31809" lon="-2.32515">
        <ele>16</ele>
        <time>2022-07-14T07:57:02.000Z</time>
      </trkpt>
      <trkpt lat="47.31808" lon="-2.32511">
        <ele>16.799999237061</ele>
        <time>2022-07-14T07:57:03.000Z</time>
      </trkpt>
      <trkpt lat="47.31808" lon="-2.32508">
        <ele>17.200000762939</ele>
        <time>2022-07-14T07:57:04.000Z</time>
      </trkpt>
      <trkpt lat="47.31807" lon="-2.32504">
        <ele>17.200000762939</ele>
        <time>2022-07-14T07:57:05.000Z</time>
      </trkpt>
      <trkpt lat="47.31805" lon="-2.32498">
        <ele>17.200000762939</ele>
        <time>2022-07-14T07:57:07.000Z</time>
      </trkpt>
      <trkpt lat="47.31804" lon="-2.32486">
        <ele>17.60000038147</ele>
        <time>2022-07-14T07:57:12.000Z</time>
      </trkpt>
      <trkpt lat="47.31802" lon="-2.32482">
        <ele>18</ele>
        <time>2022-07-14T07:57:13.000Z</time>
      </trkpt>
      <trkpt lat="47.31801" lon="-2.32478">
        <ele>18.60000038147</ele>
        <time>2022-07-14T07:57:14.000Z</time>
      </trkpt>
      <trkpt lat="47.31799" lon="-2.32474">
        <ele>19</ele>
        <time>2022-07-14T07:57:15.000Z</time>
      </trkpt>
      <trkpt lat="47.31798" lon="-2.32469">
        <ele>19.39999961853</ele>
        <time>2022-07-14T07:57:16.000Z</time>
      </trkpt>
      <trkpt lat="47.31794" lon="-2.32445">
        <ele>19.39999961853</ele>
        <time>2022-07-14T07:57:19.000Z</time>
      </trkpt>
      <trkpt lat="47.31785" lon="-2.32418">
        <ele>19.799999237061</ele>
        <time>2022-07-14T07:57:23.000Z</time>
      </trkpt>
      <trkpt lat="47.31784" lon="-2.32411">
        <ele>20.200000762939</ele>
        <time>2022-07-14T07:57:24.000Z</time>
      </trkpt>
      <trkpt lat="47.31783" lon="-2.32404">
        <ele>20.60000038147</ele>
        <time>2022-07-14T07:57:25.000Z</time>
      </trkpt>
      <trkpt lat="47.31782" lon="-2.32399">
        <ele>21</ele>
        <time>2022-07-14T07:57:26.000Z</time>
      </trkpt>
      <trkpt lat="47.3178" lon="-2.32393">
        <ele>21.60000038147</ele>
        <time>2022-07-14T07:57:27.000Z</time>
      </trkpt>
      <trkpt lat="47.31775" lon="-2.32364">
        <ele>21.60000038147</ele>
        <time>2022-07-14T07:57:32.000Z</time>
      </trkpt>
      <trkpt lat="47.31769" lon="-2.32333">
        <ele>21.60000038147</ele>
        <time>2022-07-14T07:57:38.000Z</time>
      </trkpt>
      <trkpt lat="47.31765" lon="-2.32315">
        <ele>22</ele>
        <time>2022-07-14T07:57:41.000Z</time>
      </trkpt>
      <trkpt lat="47.31764" lon="-2.3231">
        <ele>22.39999961853</ele>
        <time>2022-07-14T07:57:42.000Z</time>
      </trkpt>
      <trkpt lat="47.31763" lon="-2.32306">
        <ele>22.799999237061</ele>
        <time>2022-07-14T07:57:43.000Z</time>
      </trkpt>
      <trkpt lat="47.31762" lon="-2.32301">
        <ele>23.200000762939</ele>
        <time>2022-07-14T07:57:44.000Z</time>
      </trkpt>
      <trkpt lat="47.31761" lon="-2.32296">
        <ele>23.60000038147</ele>
        <time>2022-07-14T07:57:45.000Z</time>
      </trkpt>
      <trkpt lat="47.31758" lon="-2.32279">
        <ele>23.60000038147</ele>
        <time>2022-07-14T07:57:49.000Z</time>
      </trkpt>
      <trkpt lat="47.31754" lon="-2.32263">
        <ele>23.60000038147</ele>
        <time>2022-07-14T07:57:54.000Z</time>
      </trkpt>
      <trkpt lat="47.31753" lon="-2.3226">
        <ele>23.60000038147</ele>
        <time>2022-07-14T07:57:58.000Z</time>
      </trkpt>
      <trkpt lat="47.31752" lon="-2.32253">
        <ele>23.60000038147</ele>
        <time>2022-07-14T07:58:15.000Z</time>
      </trkpt>
      <trkpt lat="47.31759" lon="-2.32243">
        <ele>23.60000038147</ele>
        <time>2022-07-14T07:58:19.000Z</time>
      </trkpt>
      <trkpt lat="47.3177" lon="-2.32239">
        <ele>23.60000038147</ele>
        <time>2022-07-14T07:58:22.000Z</time>
      </trkpt>
      <trkpt lat="47.31778" lon="-2.32236">
        <ele>23.60000038147</ele>
        <time>2022-07-14T07:58:24.000Z</time>
      </trkpt>
      <trkpt lat="47.31804" lon="-2.32232">
        <ele>23.60000038147</ele>
        <time>2022-07-14T07:58:29.000Z</time>
      </trkpt>
      <trkpt lat="47.31816" lon="-2.32229">
        <ele>23.60000038147</ele>
        <time>2022-07-14T07:58:31.000Z</time>
      </trkpt>
      <trkpt lat="47.31828" lon="-2.32225">
        <ele>23.60000038147</ele>
        <time>2022-07-14T07:58:33.000Z</time>
      </trkpt>
      <trkpt lat="47.31835" lon="-2.32223">
        <ele>23.200000762939</ele>
        <time>2022-07-14T07:58:34.000Z</time>
      </trkpt>
      <trkpt lat="47.31841" lon="-2.3222">
        <ele>22.799999237061</ele>
        <time>2022-07-14T07:58:35.000Z</time>
      </trkpt>
      <trkpt lat="47.31849" lon="-2.32219">
        <ele>22.39999961853</ele>
        <time>2022-07-14T07:58:36.000Z</time>
      </trkpt>
      <trkpt lat="47.31857" lon="-2.32217">
        <ele>22</ele>
        <time>2022-07-14T07:58:37.000Z</time>
      </trkpt>
      <trkpt lat="47.31865" lon="-2.32215">
        <ele>21.39999961853</ele>
        <time>2022-07-14T07:58:38.000Z</time>
      </trkpt>
      <trkpt lat="47.31873" lon="-2.32213">
        <ele>21</ele>
        <time>2022-07-14T07:58:39.000Z</time>
      </trkpt>
      <trkpt lat="47.31881" lon="-2.3221">
        <ele>20.39999961853</ele>
        <time>2022-07-14T07:58:40.000Z</time>
      </trkpt>
      <trkpt lat="47.3189" lon="-2.3221">
        <ele>20</ele>
        <time>2022-07-14T07:58:41.000Z</time>
      </trkpt>
      <trkpt lat="47.31898" lon="-2.32209">
        <ele>19.39999961853</ele>
        <time>2022-07-14T07:58:42.000Z</time>
      </trkpt>
      <trkpt lat="47.31907" lon="-2.32209">
        <ele>19</ele>
        <time>2022-07-14T07:58:43.000Z</time>
      </trkpt>
      <trkpt lat="47.31915" lon="-2.3221">
        <ele>18.60000038147</ele>
        <time>2022-07-14T07:58:44.000Z</time>
      </trkpt>
      <trkpt lat="47.31924" lon="-2.32211">
        <ele>18.200000762939</ele>
        <time>2022-07-14T07:58:45.000Z</time>
      </trkpt>
      <trkpt lat="47.31931" lon="-2.32213">
        <ele>17.799999237061</ele>
        <time>2022-07-14T07:58:46.000Z</time>
      </trkpt>
      <trkpt lat="47.31938" lon="-2.32214">
        <ele>17.200000762939</ele>
        <time>2022-07-14T07:58:47.000Z</time>
      </trkpt>
      <trkpt lat="47.31944" lon="-2.32216">
        <ele>16.60000038147</ele>
        <time>2022-07-14T07:58:48.000Z</time>
      </trkpt>
      <trkpt lat="47.3195" lon="-2.32218">
        <ele>16</ele>
        <time>2022-07-14T07:58:49.000Z</time>
      </trkpt>
      <trkpt lat="47.31954" lon="-2.3222">
        <ele>15.39999961853</ele>
        <time>2022-07-14T07:58:50.000Z</time>
      </trkpt>
      <trkpt lat="47.31956" lon="-2.32222">
        <ele>14.800000190735</ele>
        <time>2022-07-14T07:58:51.000Z</time>
      </trkpt>
      <trkpt lat="47.31956" lon="-2.32226">
        <ele>14.800000190735</ele>
        <time>2022-07-14T07:58:52.000Z</time>
      </trkpt>
      <trkpt lat="47.31955" lon="-2.32233">
        <ele>14.39999961853</ele>
        <time>2022-07-14T07:58:54.000Z</time>
      </trkpt>
      <trkpt lat="47.31953" lon="-2.32237">
        <ele>14</ele>
        <time>2022-07-14T07:58:55.000Z</time>
      </trkpt>
      <trkpt lat="47.31952" lon="-2.32242">
        <ele>13.60000038147</ele>
        <time>2022-07-14T07:58:56.000Z</time>
      </trkpt>
      <trkpt lat="47.31951" lon="-2.32248">
        <ele>13.199999809265</ele>
        <time>2022-07-14T07:58:57.000Z</time>
      </trkpt>
      <trkpt lat="47.3195" lon="-2.32253">
        <ele>12.800000190735</ele>
        <time>2022-07-14T07:58:58.000Z</time>
      </trkpt>
      <trkpt lat="47.31951" lon="-2.32263">
        <ele>12.800000190735</ele>
        <time>2022-07-14T07:59:00.000Z</time>
      </trkpt>
      <trkpt lat="47.31954" lon="-2.32265">
        <ele>12.800000190735</ele>
        <time>2022-07-14T07:59:01.000Z</time>
      </trkpt>
      <trkpt lat="47.31961" lon="-2.32258">
        <ele>12.800000190735</ele>
        <time>2022-07-14T07:59:03.000Z</time>
      </trkpt>
      <trkpt lat="47.31965" lon="-2.32251">
        <ele>12.39999961853</ele>
        <time>2022-07-14T07:59:04.000Z</time>
      </trkpt>
      <trkpt lat="47.31968" lon="-2.32245">
        <ele>12</ele>
        <time>2022-07-14T07:59:05.000Z</time>
      </trkpt>
      <trkpt lat="47.31972" lon="-2.32238">
        <ele>11.199999809265</ele>
        <time>2022-07-14T07:59:06.000Z</time>
      </trkpt>
      <trkpt lat="47.31976" lon="-2.32232">
        <ele>10.800000190735</ele>
        <time>2022-07-14T07:59:07.000Z</time>
      </trkpt>
      <trkpt lat="47.31986" lon="-2.32219">
        <ele>10.199999809265</ele>
        <time>2022-07-14T07:59:09.000Z</time>
      </trkpt>
      <trkpt lat="47.31991" lon="-2.32213">
        <ele>9.8000001907349</ele>
        <time>2022-07-14T07:59:10.000Z</time>
      </trkpt>
      <trkpt lat="47.31996" lon="-2.32208">
        <ele>9.3999996185303</ele>
        <time>2022-07-14T07:59:11.000Z</time>
      </trkpt>
      <trkpt lat="47.32001" lon="-2.32202">
        <ele>9</ele>
        <time>2022-07-14T07:59:12.000Z</time>
      </trkpt>
      <trkpt lat="47.32022" lon="-2.32187">
        <ele>8.3999996185303</ele>
        <time>2022-07-14T07:59:16.000Z</time>
      </trkpt>
      <trkpt lat="47.32027" lon="-2.32186">
        <ele>8.3999996185303</ele>
        <time>2022-07-14T07:59:17.000Z</time>
      </trkpt>
      <trkpt lat="47.32065" lon="-2.32183">
        <ele>8</ele>
        <time>2022-07-14T07:59:21.000Z</time>
      </trkpt>
      <trkpt lat="47.32073" lon="-2.32182">
        <ele>7.5999999046326</ele>
        <time>2022-07-14T07:59:22.000Z</time>
      </trkpt>
      <trkpt lat="47.32081" lon="-2.32182">
        <ele>7.1999998092651</ele>
        <time>2022-07-14T07:59:23.000Z</time>
      </trkpt>
      <trkpt lat="47.32089" lon="-2.32182">
        <ele>6.8000001907349</ele>
        <time>2022-07-14T07:59:24.000Z</time>
      </trkpt>
      <trkpt lat="47.32097" lon="-2.32181">
        <ele>6.4000000953674</ele>
        <time>2022-07-14T07:59:25.000Z</time>
      </trkpt>
      <trkpt lat="47.3212" lon="-2.32176">
        <ele>6.4000000953674</ele>
        <time>2022-07-14T07:59:28.000Z</time>
      </trkpt>
      <trkpt lat="47.32139" lon="-2.32163">
        <ele>5.4000000953674</ele>
        <time>2022-07-14T07:59:31.000Z</time>
      </trkpt>
      <trkpt lat="47.32145" lon="-2.32158">
        <ele>5</ele>
        <time>2022-07-14T07:59:32.000Z</time>
      </trkpt>
      <trkpt lat="47.32152" lon="-2.32153">
        <ele>4.5999999046326</ele>
        <time>2022-07-14T07:59:33.000Z</time>
      </trkpt>
      <trkpt lat="47.32158" lon="-2.32149">
        <ele>4.1999998092651</ele>
        <time>2022-07-14T07:59:34.000Z</time>
      </trkpt>
      <trkpt lat="47.32171" lon="-2.32139">
        <ele>4.1999998092651</ele>
        <time>2022-07-14T07:59:37.000Z</time>
      </trkpt>
      <trkpt lat="47.32181" lon="-2.3213">
        <ele>4.1999998092651</ele>
        <time>2022-07-14T07:59:42.000Z</time>
      </trkpt>
      <trkpt lat="47.32191" lon="-2.3212">
        <ele>4.1999998092651</ele>
        <time>2022-07-14T07:59:48.000Z</time>
      </trkpt>
      <trkpt lat="47.32201" lon="-2.32111">
        <ele>4.1999998092651</ele>
        <time>2022-07-14T07:59:54.000Z</time>
      </trkpt>
      <trkpt lat="47.32221" lon="-2.32106">
        <ele>4.1999998092651</ele>
        <time>2022-07-14T07:59:58.000Z</time>
      </trkpt>
      <trkpt lat="47.32254" lon="-2.32105">
        <ele>4.1999998092651</ele>
        <time>2022-07-14T08:00:04.000Z</time>
      </trkpt>
      <trkpt lat="47.32266" lon="-2.32105">
        <ele>4.1999998092651</ele>
        <time>2022-07-14T08:00:06.000Z</time>
      </trkpt>
      <trkpt lat="47.32284" lon="-2.32101">
        <ele>4.5999999046326</ele>
        <time>2022-07-14T08:00:09.000Z</time>
      </trkpt>
      <trkpt lat="47.3229" lon="-2.32101">
        <ele>5</ele>
        <time>2022-07-14T08:00:10.000Z</time>
      </trkpt>
      <trkpt lat="47.32296" lon="-2.32101">
        <ele>5.4000000953674</ele>
        <time>2022-07-14T08:00:11.000Z</time>
      </trkpt>
      <trkpt lat="47.32302" lon="-2.32101">
        <ele>5.8000001907349</ele>
        <time>2022-07-14T08:00:12.000Z</time>
      </trkpt>
      <trkpt lat="47.32307" lon="-2.32101">
        <ele>6.1999998092651</ele>
        <time>2022-07-14T08:00:13.000Z</time>
      </trkpt>
      <trkpt lat="47.32317" lon="-2.32103">
        <ele>6.1999998092651</ele>
        <time>2022-07-14T08:00:15.000Z</time>
      </trkpt>
      <trkpt lat="47.32345" lon="-2.32109">
        <ele>6.1999998092651</ele>
        <time>2022-07-14T08:00:21.000Z</time>
      </trkpt>
      <trkpt lat="47.32365" lon="-2.3211">
        <ele>6.1999998092651</ele>
        <time>2022-07-14T08:00:27.000Z</time>
      </trkpt>
      <trkpt lat="47.32391" lon="-2.32108">
        <ele>6.1999998092651</ele>
        <time>2022-07-14T08:00:32.000Z</time>
      </trkpt>
      <trkpt lat="47.32414" lon="-2.32106">
        <ele>6.1999998092651</ele>
        <time>2022-07-14T08:00:36.000Z</time>
      </trkpt>
      <trkpt lat="47.32424" lon="-2.32104">
        <ele>6.1999998092651</ele>
        <time>2022-07-14T08:00:38.000Z</time>
      </trkpt>
      <trkpt lat="47.32459" lon="-2.32101">
        <ele>6.1999998092651</ele>
        <time>2022-07-14T08:00:44.000Z</time>
      </trkpt>
      <trkpt lat="47.32492" lon="-2.32098">
        <ele>6.1999998092651</ele>
        <time>2022-07-14T08:00:51.000Z</time>
      </trkpt>
      <trkpt lat="47.32498" lon="-2.32089">
        <ele>6.1999998092651</ele>
        <time>2022-07-14T08:00:54.000Z</time>
      </trkpt>
      <trkpt lat="47.32499" lon="-2.32079">
        <ele>6.1999998092651</ele>
        <time>2022-07-14T08:00:56.000Z</time>
      </trkpt>
      <trkpt lat="47.32499" lon="-2.32069">
        <ele>6.1999998092651</ele>
        <time>2022-07-14T08:00:58.000Z</time>
      </trkpt>
      <trkpt lat="47.32501" lon="-2.32035">
        <ele>6.1999998092651</ele>
        <time>2022-07-14T08:01:03.000Z</time>
      </trkpt>
      <trkpt lat="47.32504" lon="-2.31989">
        <ele>6.1999998092651</ele>
        <time>2022-07-14T08:01:09.000Z</time>
      </trkpt>
      <trkpt lat="47.32505" lon="-2.31982">
        <ele>6.1999998092651</ele>
        <time>2022-07-14T08:01:10.000Z</time>
      </trkpt>
      <trkpt lat="47.32508" lon="-2.31958">
        <ele>6.1999998092651</ele>
        <time>2022-07-14T08:01:13.000Z</time>
      </trkpt>
      <trkpt lat="47.32516" lon="-2.31894">
        <ele>6.1999998092651</ele>
        <time>2022-07-14T08:01:20.000Z</time>
      </trkpt>
      <trkpt lat="47.32519" lon="-2.31848">
        <ele>6.1999998092651</ele>
        <time>2022-07-14T08:01:25.000Z</time>
      </trkpt>
      <trkpt lat="47.32519" lon="-2.31839">
        <ele>6.1999998092651</ele>
        <time>2022-07-14T08:01:26.000Z</time>
      </trkpt>
      <trkpt lat="47.32516" lon="-2.31813">
        <ele>6.1999998092651</ele>
        <time>2022-07-14T08:01:29.000Z</time>
      </trkpt>
      <trkpt lat="47.32515" lon="-2.31798">
        <ele>6.1999998092651</ele>
        <time>2022-07-14T08:01:31.000Z</time>
      </trkpt>
      <trkpt lat="47.32513" lon="-2.31777">
        <ele>6.1999998092651</ele>
        <time>2022-07-14T08:01:34.000Z</time>
      </trkpt>
      <trkpt lat="47.32513" lon="-2.31769">
        <ele>6.1999998092651</ele>
        <time>2022-07-14T08:01:35.000Z</time>
      </trkpt>
      <trkpt lat="47.32509" lon="-2.31727">
        <ele>6.1999998092651</ele>
        <time>2022-07-14T08:01:40.000Z</time>
      </trkpt>
      <trkpt lat="47.32509" lon="-2.3172">
        <ele>6.1999998092651</ele>
        <time>2022-07-14T08:01:41.000Z</time>
      </trkpt>
      <trkpt lat="47.32507" lon="-2.31671">
        <ele>6.1999998092651</ele>
        <time>2022-07-14T08:01:47.000Z</time>
      </trkpt>
      <trkpt lat="47.32508" lon="-2.31663">
        <ele>6.1999998092651</ele>
        <time>2022-07-14T08:01:48.000Z</time>
      </trkpt>
      <trkpt lat="47.32513" lon="-2.3165">
        <ele>6.1999998092651</ele>
        <time>2022-07-14T08:01:50.000Z</time>
      </trkpt>
      <trkpt lat="47.32535" lon="-2.31613">
        <ele>6.1999998092651</ele>
        <time>2022-07-14T08:01:56.000Z</time>
      </trkpt>
      <trkpt lat="47.32552" lon="-2.31589">
        <ele>6.1999998092651</ele>
        <time>2022-07-14T08:02:00.000Z</time>
      </trkpt>
      <trkpt lat="47.32563" lon="-2.31583">
        <ele>6.1999998092651</ele>
        <time>2022-07-14T08:02:02.000Z</time>
      </trkpt>
      <trkpt lat="47.32578" lon="-2.31575">
        <ele>6.1999998092651</ele>
        <time>2022-07-14T08:02:05.000Z</time>
      </trkpt>
      <trkpt lat="47.32588" lon="-2.3157">
        <ele>6.1999998092651</ele>
        <time>2022-07-14T08:02:07.000Z</time>
      </trkpt>
      <trkpt lat="47.32607" lon="-2.31559">
        <ele>6.1999998092651</ele>
        <time>2022-07-14T08:02:12.000Z</time>
      </trkpt>
      <trkpt lat="47.32643" lon="-2.31545">
        <ele>6.1999998092651</ele>
        <time>2022-07-14T08:02:20.000Z</time>
      </trkpt>
      <trkpt lat="47.32665" lon="-2.31533">
        <ele>6.1999998092651</ele>
        <time>2022-07-14T08:02:25.000Z</time>
      </trkpt>
      <trkpt lat="47.32694" lon="-2.31513">
        <ele>6.1999998092651</ele>
        <time>2022-07-14T08:02:31.000Z</time>
      </trkpt>
      <trkpt lat="47.327" lon="-2.3151">
        <ele>5.8000001907349</ele>
        <time>2022-07-14T08:02:32.000Z</time>
      </trkpt>
      <trkpt lat="47.32705" lon="-2.31505">
        <ele>5.4000000953674</ele>
        <time>2022-07-14T08:02:33.000Z</time>
      </trkpt>
      <trkpt lat="47.32709" lon="-2.31501">
        <ele>5</ele>
        <time>2022-07-14T08:02:34.000Z</time>
      </trkpt>
      <trkpt lat="47.32713" lon="-2.31496">
        <ele>4.5999999046326</ele>
        <time>2022-07-14T08:02:35.000Z</time>
      </trkpt>
      <trkpt lat="47.32717" lon="-2.31489">
        <ele>4</ele>
        <time>2022-07-14T08:02:36.000Z</time>
      </trkpt>
      <trkpt lat="47.32746" lon="-2.31447">
        <ele>4</ele>
        <time>2022-07-14T08:02:42.000Z</time>
      </trkpt>
      <trkpt lat="47.32765" lon="-2.3142">
        <ele>4</ele>
        <time>2022-07-14T08:02:46.000Z</time>
      </trkpt>
      <trkpt lat="47.32774" lon="-2.3141">
        <ele>4</ele>
        <time>2022-07-14T08:02:48.000Z</time>
      </trkpt>
      <trkpt lat="47.32783" lon="-2.31406">
        <ele>4</ele>
        <time>2022-07-14T08:02:49.000Z</time>
      </trkpt>
      <trkpt lat="47.32804" lon="-2.31393">
        <ele>4</ele>
        <time>2022-07-14T08:02:52.000Z</time>
      </trkpt>
      <trkpt lat="47.32834" lon="-2.31363">
        <ele>4</ele>
        <time>2022-07-14T08:02:57.000Z</time>
      </trkpt>
      <trkpt lat="47.32838" lon="-2.31355">
        <ele>4</ele>
        <time>2022-07-14T08:02:58.000Z</time>
      </trkpt>
      <trkpt lat="47.32841" lon="-2.31337">
        <ele>3.5999999046326</ele>
        <time>2022-07-14T08:03:00.000Z</time>
      </trkpt>
      <trkpt lat="47.32842" lon="-2.31328">
        <ele>3.2000000476837</ele>
        <time>2022-07-14T08:03:01.000Z</time>
      </trkpt>
      <trkpt lat="47.32845" lon="-2.3132">
        <ele>2.7999999523163</ele>
        <time>2022-07-14T08:03:02.000Z</time>
      </trkpt>
      <trkpt lat="47.32849" lon="-2.31314">
        <ele>2.4000000953674</ele>
        <time>2022-07-14T08:03:03.000Z</time>
      </trkpt>
      <trkpt lat="47.32854" lon="-2.31309">
        <ele>2</ele>
        <time>2022-07-14T08:03:04.000Z</time>
      </trkpt>
      <trkpt lat="47.32871" lon="-2.31303">
        <ele>2</ele>
        <time>2022-07-14T08:03:07.000Z</time>
      </trkpt>
      <trkpt lat="47.32878" lon="-2.313">
        <ele>2</ele>
        <time>2022-07-14T08:03:08.000Z</time>
      </trkpt>
      <trkpt lat="47.3292" lon="-2.31283">
        <ele>2</ele>
        <time>2022-07-14T08:03:14.000Z</time>
      </trkpt>
      <trkpt lat="47.3293" lon="-2.31273">
        <ele>2</ele>
        <time>2022-07-14T08:03:16.000Z</time>
      </trkpt>
      <trkpt lat="47.32934" lon="-2.31266">
        <ele>2</ele>
        <time>2022-07-14T08:03:17.000Z</time>
      </trkpt>
      <trkpt lat="47.32933" lon="-2.31241">
        <ele>2</ele>
        <time>2022-07-14T08:03:20.000Z</time>
      </trkpt>
      <trkpt lat="47.32928" lon="-2.31225">
        <ele>1.6000000238419</ele>
        <time>2022-07-14T08:03:22.000Z</time>
      </trkpt>
      <trkpt lat="47.32926" lon="-2.31217">
        <ele>1.2000000476837</ele>
        <time>2022-07-14T08:03:23.000Z</time>
      </trkpt>
      <trkpt lat="47.32924" lon="-2.31208">
        <ele>0.80000001192093</ele>
        <time>2022-07-14T08:03:24.000Z</time>
      </trkpt>
      <trkpt lat="47.32922" lon="-2.31199">
        <ele>0.40000000596046</ele>
        <time>2022-07-14T08:03:25.000Z</time>
      </trkpt>
      <trkpt lat="47.3292" lon="-2.3119">
        <ele>-0.20000000298023</ele>
        <time>2022-07-14T08:03:26.000Z</time>
      </trkpt>
      <trkpt lat="47.32911" lon="-2.31154">
        <ele>-0.20000000298023</ele>
        <time>2022-07-14T08:03:30.000Z</time>
      </trkpt>
      <trkpt lat="47.32907" lon="-2.31135">
        <ele>-0.20000000298023</ele>
        <time>2022-07-14T08:03:32.000Z</time>
      </trkpt>
      <trkpt lat="47.32893" lon="-2.31073">
        <ele>-0.20000000298023</ele>
        <time>2022-07-14T08:03:38.000Z</time>
      </trkpt>
      <trkpt lat="47.32893" lon="-2.31063">
        <ele>-0.20000000298023</ele>
        <time>2022-07-14T08:03:39.000Z</time>
      </trkpt>
      <trkpt lat="47.32894" lon="-2.3101">
        <ele>-0.20000000298023</ele>
        <time>2022-07-14T08:03:44.000Z</time>
      </trkpt>
      <trkpt lat="47.32899" lon="-2.30947">
        <ele>-0.20000000298023</ele>
        <time>2022-07-14T08:03:50.000Z</time>
      </trkpt>
      <trkpt lat="47.32903" lon="-2.30888">
        <ele>-0.20000000298023</ele>
        <time>2022-07-14T08:03:56.000Z</time>
      </trkpt>
      <trkpt lat="47.32908" lon="-2.3084">
        <ele>-0.20000000298023</ele>
        <time>2022-07-14T08:04:02.000Z</time>
      </trkpt>
      <trkpt lat="47.3291" lon="-2.30825">
        <ele>-0.20000000298023</ele>
        <time>2022-07-14T08:04:04.000Z</time>
      </trkpt>
      <trkpt lat="47.32918" lon="-2.30815">
        <ele>-0.20000000298023</ele>
        <time>2022-07-14T08:04:06.000Z</time>
      </trkpt>
      <trkpt lat="47.32933" lon="-2.30812">
        <ele>-0.20000000298023</ele>
        <time>2022-07-14T08:04:09.000Z</time>
      </trkpt>
      <trkpt lat="47.32939" lon="-2.30811">
        <ele>-0.20000000298023</ele>
        <time>2022-07-14T08:04:10.000Z</time>
      </trkpt>
      <trkpt lat="47.32965" lon="-2.30808">
        <ele>-0.20000000298023</ele>
        <time>2022-07-14T08:04:14.000Z</time>
      </trkpt>
      <trkpt lat="47.33006" lon="-2.3081">
        <ele>-0.20000000298023</ele>
        <time>2022-07-14T08:04:20.000Z</time>
      </trkpt>
      <trkpt lat="47.33041" lon="-2.30808">
        <ele>-0.20000000298023</ele>
        <time>2022-07-14T08:04:26.000Z</time>
      </trkpt>
      <trkpt lat="47.33053" lon="-2.30792">
        <ele>-0.20000000298023</ele>
        <time>2022-07-14T08:04:29.000Z</time>
      </trkpt>
      <trkpt lat="47.33062" lon="-2.30751">
        <ele>-0.20000000298023</ele>
        <time>2022-07-14T08:04:34.000Z</time>
      </trkpt>
      <trkpt lat="47.33071" lon="-2.30705">
        <ele>-0.20000000298023</ele>
        <time>2022-07-14T08:04:39.000Z</time>
      </trkpt>
      <trkpt lat="47.33078" lon="-2.30672">
        <ele>-0.20000000298023</ele>
        <time>2022-07-14T08:04:43.000Z</time>
      </trkpt>
      <trkpt lat="47.33078" lon="-2.30664">
        <ele>-0.20000000298023</ele>
        <time>2022-07-14T08:04:44.000Z</time>
      </trkpt>
      <trkpt lat="47.33086" lon="-2.30616">
        <ele>-0.20000000298023</ele>
        <time>2022-07-14T08:04:50.000Z</time>
      </trkpt>
      <trkpt lat="47.33091" lon="-2.30595">
        <ele>-0.20000000298023</ele>
        <time>2022-07-14T08:04:53.000Z</time>
      </trkpt>
      <trkpt lat="47.33096" lon="-2.30584">
        <ele>-0.20000000298023</ele>
        <time>2022-07-14T08:04:55.000Z</time>
      </trkpt>
      <trkpt lat="47.33109" lon="-2.3057">
        <ele>-0.20000000298023</ele>
        <time>2022-07-14T08:04:59.000Z</time>
      </trkpt>
      <trkpt lat="47.33114" lon="-2.30567">
        <ele>-0.20000000298023</ele>
        <time>2022-07-14T08:05:00.000Z</time>
      </trkpt>
      <trkpt lat="47.33138" lon="-2.30552">
        <ele>-0.20000000298023</ele>
        <time>2022-07-14T08:05:05.000Z</time>
      </trkpt>
      <trkpt lat="47.33172" lon="-2.30531">
        <ele>-0.20000000298023</ele>
        <time>2022-07-14T08:05:12.000Z</time>
      </trkpt>
      <trkpt lat="47.33206" lon="-2.30518">
        <ele>-0.60000002384186</ele>
        <time>2022-07-14T08:05:18.000Z</time>
      </trkpt>
      <trkpt lat="47.33213" lon="-2.30516">
        <ele>-1</ele>
        <time>2022-07-14T08:05:19.000Z</time>
      </trkpt>
      <trkpt lat="47.33219" lon="-2.30514">
        <ele>-1.3999999761581</ele>
        <time>2022-07-14T08:05:20.000Z</time>
      </trkpt>
      <trkpt lat="47.33226" lon="-2.30513">
        <ele>-1.7999999523163</ele>
        <time>2022-07-14T08:05:21.000Z</time>
      </trkpt>
      <trkpt lat="47.33234" lon="-2.30511">
        <ele>-2.2000000476837</ele>
        <time>2022-07-14T08:05:22.000Z</time>
      </trkpt>
      <trkpt lat="47.33242" lon="-2.30511">
        <ele>-2.2000000476837</ele>
        <time>2022-07-14T08:05:23.000Z</time>
      </trkpt>
      <trkpt lat="47.33249" lon="-2.3051">
        <ele>-2.2000000476837</ele>
        <time>2022-07-14T08:05:24.000Z</time>
      </trkpt>
      <trkpt lat="47.33269" lon="-2.30507">
        <ele>-2.2000000476837</ele>
        <time>2022-07-14T08:05:27.000Z</time>
      </trkpt>
      <trkpt lat="47.33283" lon="-2.30505">
        <ele>-2.2000000476837</ele>
        <time>2022-07-14T08:05:29.000Z</time>
      </trkpt>
      <trkpt lat="47.333" lon="-2.30504">
        <ele>-2.2000000476837</ele>
        <time>2022-07-14T08:05:33.000Z</time>
      </trkpt>
      <trkpt lat="47.33314" lon="-2.30503">
        <ele>-2.2000000476837</ele>
        <time>2022-07-14T08:05:38.000Z</time>
      </trkpt>
      <trkpt lat="47.33315" lon="-2.30503">
        <ele>-2.2000000476837</ele>
        <time>2022-07-14T08:05:41.000Z</time>
      </trkpt>
      <trkpt lat="47.33321" lon="-2.30497">
        <ele>-2.2000000476837</ele>
        <time>2022-07-14T08:07:14.000Z</time>
      </trkpt>
      <trkpt lat="47.33323" lon="-2.30494">
        <ele>-2.2000000476837</ele>
        <time>2022-07-14T08:07:15.000Z</time>
      </trkpt>
      <trkpt lat="47.3333" lon="-2.30477">
        <ele>-2.2000000476837</ele>
        <time>2022-07-14T08:07:19.000Z</time>
      </trkpt>
      <trkpt lat="47.33333" lon="-2.30459">
        <ele>-2.2000000476837</ele>
        <time>2022-07-14T08:07:23.000Z</time>
      </trkpt>
      <trkpt lat="47.33334" lon="-2.30454">
        <ele>-2.2000000476837</ele>
        <time>2022-07-14T08:07:24.000Z</time>
      </trkpt>
      <trkpt lat="47.33339" lon="-2.30429">
        <ele>-2.2000000476837</ele>
        <time>2022-07-14T08:07:28.000Z</time>
      </trkpt>
      <trkpt lat="47.33341" lon="-2.3042">
        <ele>-2.2000000476837</ele>
        <time>2022-07-14T08:07:29.000Z</time>
      </trkpt>
      <trkpt lat="47.33354" lon="-2.30403">
        <ele>-2.2000000476837</ele>
        <time>2022-07-14T08:07:32.000Z</time>
      </trkpt>
      <trkpt lat="47.33366" lon="-2.30397">
        <ele>-2.2000000476837</ele>
        <time>2022-07-14T08:07:34.000Z</time>
      </trkpt>
      <trkpt lat="47.33371" lon="-2.30393">
        <ele>-2.2000000476837</ele>
        <time>2022-07-14T08:07:35.000Z</time>
      </trkpt>
      <trkpt lat="47.33375" lon="-2.30385">
        <ele>-2.2000000476837</ele>
        <time>2022-07-14T08:07:36.000Z</time>
      </trkpt>
      <trkpt lat="47.33384" lon="-2.30364">
        <ele>-2.2000000476837</ele>
        <time>2022-07-14T08:07:39.000Z</time>
      </trkpt>
      <trkpt lat="47.33386" lon="-2.30357">
        <ele>-2.2000000476837</ele>
        <time>2022-07-14T08:07:40.000Z</time>
      </trkpt>
      <trkpt lat="47.3339" lon="-2.30335">
        <ele>-2.2000000476837</ele>
        <time>2022-07-14T08:07:43.000Z</time>
      </trkpt>
      <trkpt lat="47.33391" lon="-2.30321">
        <ele>-2.2000000476837</ele>
        <time>2022-07-14T08:07:45.000Z</time>
      </trkpt>
      <trkpt lat="47.33391" lon="-2.30308">
        <ele>-2.2000000476837</ele>
        <time>2022-07-14T08:07:47.000Z</time>
      </trkpt>
      <trkpt lat="47.33391" lon="-2.30285">
        <ele>-2.2000000476837</ele>
        <time>2022-07-14T08:07:50.000Z</time>
      </trkpt>
      <trkpt lat="47.33394" lon="-2.30259">
        <ele>-2.2000000476837</ele>
        <time>2022-07-14T08:07:53.000Z</time>
      </trkpt>
      <trkpt lat="47.33396" lon="-2.30244">
        <ele>-2.2000000476837</ele>
        <time>2022-07-14T08:07:55.000Z</time>
      </trkpt>
      <trkpt lat="47.33402" lon="-2.30222">
        <ele>-2.2000000476837</ele>
        <time>2022-07-14T08:07:58.000Z</time>
      </trkpt>
      <trkpt lat="47.33408" lon="-2.30206">
        <ele>-2.2000000476837</ele>
        <time>2022-07-14T08:08:00.000Z</time>
      </trkpt>
      <trkpt lat="47.33419" lon="-2.30177">
        <ele>-2.2000000476837</ele>
        <time>2022-07-14T08:08:04.000Z</time>
      </trkpt>
      <trkpt lat="47.33426" lon="-2.30165">
        <ele>-2.2000000476837</ele>
        <time>2022-07-14T08:08:06.000Z</time>
      </trkpt>
      <trkpt lat="47.33438" lon="-2.30149">
        <ele>-2.2000000476837</ele>
        <time>2022-07-14T08:08:09.000Z</time>
      </trkpt>
      <trkpt lat="47.3344" lon="-2.30143">
        <ele>-2.2000000476837</ele>
        <time>2022-07-14T08:08:10.000Z</time>
      </trkpt>
      <trkpt lat="47.33442" lon="-2.30136">
        <ele>-2.2000000476837</ele>
        <time>2022-07-14T08:08:11.000Z</time>
      </trkpt>
      <trkpt lat="47.33449" lon="-2.30118">
        <ele>-2.2000000476837</ele>
        <time>2022-07-14T08:08:15.000Z</time>
      </trkpt>
      <trkpt lat="47.33454" lon="-2.30102">
        <ele>-2.2000000476837</ele>
        <time>2022-07-14T08:08:19.000Z</time>
      </trkpt>
      <trkpt lat="47.33461" lon="-2.30082">
        <ele>-2.2000000476837</ele>
        <time>2022-07-14T08:08:23.000Z</time>
      </trkpt>
      <trkpt lat="47.33462" lon="-2.30076">
        <ele>-2.2000000476837</ele>
        <time>2022-07-14T08:08:24.000Z</time>
      </trkpt>
      <trkpt lat="47.33466" lon="-2.30063">
        <ele>-2.2000000476837</ele>
        <time>2022-07-14T08:08:26.000Z</time>
      </trkpt>
      <trkpt lat="47.3347" lon="-2.30043">
        <ele>-2.2000000476837</ele>
        <time>2022-07-14T08:08:29.000Z</time>
      </trkpt>
      <trkpt lat="47.33473" lon="-2.30038">
        <ele>-2.2000000476837</ele>
        <time>2022-07-14T08:08:30.000Z</time>
      </trkpt>
      <trkpt lat="47.33482" lon="-2.30011">
        <ele>-2.2000000476837</ele>
        <time>2022-07-14T08:08:36.000Z</time>
      </trkpt>
      <trkpt lat="47.33496" lon="-2.30002">
        <ele>-2.2000000476837</ele>
        <time>2022-07-14T08:08:40.000Z</time>
      </trkpt>
      <trkpt lat="47.33519" lon="-2.30002">
        <ele>-2.2000000476837</ele>
        <time>2022-07-14T08:08:45.000Z</time>
      </trkpt>
      <trkpt lat="47.33557" lon="-2.30007">
        <ele>-2.2000000476837</ele>
        <time>2022-07-14T08:08:52.000Z</time>
      </trkpt>
      <trkpt lat="47.33563" lon="-2.30006">
        <ele>-2.2000000476837</ele>
        <time>2022-07-14T08:08:53.000Z</time>
      </trkpt>
      <trkpt lat="47.33578" lon="-2.29995">
        <ele>-2.2000000476837</ele>
        <time>2022-07-14T08:08:56.000Z</time>
      </trkpt>
      <trkpt lat="47.33583" lon="-2.29989">
        <ele>-2.2000000476837</ele>
        <time>2022-07-14T08:08:57.000Z</time>
      </trkpt>
      <trkpt lat="47.33591" lon="-2.29978">
        <ele>-2.2000000476837</ele>
        <time>2022-07-14T08:08:59.000Z</time>
      </trkpt>
      <trkpt lat="47.33599" lon="-2.29966">
        <ele>-2.2000000476837</ele>
        <time>2022-07-14T08:09:01.000Z</time>
      </trkpt>
      <trkpt lat="47.33625" lon="-2.29931">
        <ele>-2.2000000476837</ele>
        <time>2022-07-14T08:09:07.000Z</time>
      </trkpt>
      <trkpt lat="47.33629" lon="-2.29925">
        <ele>-2.2000000476837</ele>
        <time>2022-07-14T08:09:08.000Z</time>
      </trkpt>
      <trkpt lat="47.33648" lon="-2.29892">
        <ele>-2.2000000476837</ele>
        <time>2022-07-14T08:09:13.000Z</time>
      </trkpt>
      <trkpt lat="47.33645" lon="-2.29868">
        <ele>-2.2000000476837</ele>
        <time>2022-07-14T08:09:16.000Z</time>
      </trkpt>
      <trkpt lat="47.33636" lon="-2.29842">
        <ele>-2.2000000476837</ele>
        <time>2022-07-14T08:09:20.000Z</time>
      </trkpt>
      <trkpt lat="47.33635" lon="-2.29829">
        <ele>-2.2000000476837</ele>
        <time>2022-07-14T08:09:22.000Z</time>
      </trkpt>
      <trkpt lat="47.33636" lon="-2.29822">
        <ele>-2.2000000476837</ele>
        <time>2022-07-14T08:09:23.000Z</time>
      </trkpt>
      <trkpt lat="47.33642" lon="-2.29813">
        <ele>-2.2000000476837</ele>
        <time>2022-07-14T08:09:25.000Z</time>
      </trkpt>
      <trkpt lat="47.33658" lon="-2.29807">
        <ele>-2.2000000476837</ele>
        <time>2022-07-14T08:09:28.000Z</time>
      </trkpt>
      <trkpt lat="47.33664" lon="-2.29804">
        <ele>-2.2000000476837</ele>
        <time>2022-07-14T08:09:29.000Z</time>
      </trkpt>
      <trkpt lat="47.33681" lon="-2.29793">
        <ele>-2.2000000476837</ele>
        <time>2022-07-14T08:09:32.000Z</time>
      </trkpt>
      <trkpt lat="47.33686" lon="-2.29793">
        <ele>-2.2000000476837</ele>
        <time>2022-07-14T08:09:33.000Z</time>
      </trkpt>
      <trkpt lat="47.33697" lon="-2.29794">
        <ele>-2.2000000476837</ele>
        <time>2022-07-14T08:09:35.000Z</time>
      </trkpt>
      <trkpt lat="47.33713" lon="-2.29795">
        <ele>-2.2000000476837</ele>
        <time>2022-07-14T08:09:38.000Z</time>
      </trkpt>
      <trkpt lat="47.33725" lon="-2.29799">
        <ele>-2.2000000476837</ele>
        <time>2022-07-14T08:09:40.000Z</time>
      </trkpt>
      <trkpt lat="47.33741" lon="-2.29803">
        <ele>-2.2000000476837</ele>
        <time>2022-07-14T08:09:43.000Z</time>
      </trkpt>
      <trkpt lat="47.33759" lon="-2.29808">
        <ele>-2.2000000476837</ele>
        <time>2022-07-14T08:09:46.000Z</time>
      </trkpt>
      <trkpt lat="47.33777" lon="-2.29813">
        <ele>-2.2000000476837</ele>
        <time>2022-07-14T08:09:49.000Z</time>
      </trkpt>
      <trkpt lat="47.33796" lon="-2.29817">
        <ele>-2.2000000476837</ele>
        <time>2022-07-14T08:09:52.000Z</time>
      </trkpt>
      <trkpt lat="47.33802" lon="-2.29816">
        <ele>-2.2000000476837</ele>
        <time>2022-07-14T08:09:53.000Z</time>
      </trkpt>
      <trkpt lat="47.33831" lon="-2.29804">
        <ele>-2.2000000476837</ele>
        <time>2022-07-14T08:09:58.000Z</time>
      </trkpt>
      <trkpt lat="47.33865" lon="-2.29783">
        <ele>-2.2000000476837</ele>
        <time>2022-07-14T08:10:04.000Z</time>
      </trkpt>
      <trkpt lat="47.3387" lon="-2.29777">
        <ele>-2.2000000476837</ele>
        <time>2022-07-14T08:10:05.000Z</time>
      </trkpt>
      <trkpt lat="47.33882" lon="-2.29745">
        <ele>-2.2000000476837</ele>
        <time>2022-07-14T08:10:09.000Z</time>
      </trkpt>
      <trkpt lat="47.33896" lon="-2.29698">
        <ele>-2.2000000476837</ele>
        <time>2022-07-14T08:10:15.000Z</time>
      </trkpt>
      <trkpt lat="47.33912" lon="-2.29644">
        <ele>-2.2000000476837</ele>
        <time>2022-07-14T08:10:22.000Z</time>
      </trkpt>
      <trkpt lat="47.33913" lon="-2.29636">
        <ele>-2.2000000476837</ele>
        <time>2022-07-14T08:10:23.000Z</time>
      </trkpt>
      <trkpt lat="47.33916" lon="-2.29605">
        <ele>-2.2000000476837</ele>
        <time>2022-07-14T08:10:27.000Z</time>
      </trkpt>
      <trkpt lat="47.33917" lon="-2.29573">
        <ele>-2.2000000476837</ele>
        <time>2022-07-14T08:10:32.000Z</time>
      </trkpt>
      <trkpt lat="47.33917" lon="-2.29549">
        <ele>-2.2000000476837</ele>
        <time>2022-07-14T08:10:37.000Z</time>
      </trkpt>
      <trkpt lat="47.33916" lon="-2.29545">
        <ele>-2.2000000476837</ele>
        <time>2022-07-14T08:10:38.000Z</time>
      </trkpt>
      <trkpt lat="47.33919" lon="-2.29531">
        <ele>-2.2000000476837</ele>
        <time>2022-07-14T08:10:44.000Z</time>
      </trkpt>
      <trkpt lat="47.33919" lon="-2.29521">
        <ele>-2.2000000476837</ele>
        <time>2022-07-14T08:10:48.000Z</time>
      </trkpt>
      <trkpt lat="47.33919" lon="-2.29514">
        <ele>-2.2000000476837</ele>
        <time>2022-07-14T08:10:50.000Z</time>
      </trkpt>
      <trkpt lat="47.3392" lon="-2.29498">
        <ele>-2.2000000476837</ele>
        <time>2022-07-14T08:10:54.000Z</time>
      </trkpt>
      <trkpt lat="47.3393" lon="-2.29484">
        <ele>-2.2000000476837</ele>
        <time>2022-07-14T08:11:00.000Z</time>
      </trkpt>
      <trkpt lat="47.33941" lon="-2.29465">
        <ele>-2.2000000476837</ele>
        <time>2022-07-14T08:11:07.000Z</time>
      </trkpt>
      <trkpt lat="47.3395" lon="-2.29448">
        <ele>-2.2000000476837</ele>
        <time>2022-07-14T08:11:12.000Z</time>
      </trkpt>
      <trkpt lat="47.33949" lon="-2.29441">
        <ele>-2.2000000476837</ele>
        <time>2022-07-14T08:11:14.000Z</time>
      </trkpt>
      <trkpt lat="47.33947" lon="-2.29439">
        <ele>-2.2000000476837</ele>
        <time>2022-07-14T08:11:15.000Z</time>
      </trkpt>
      <trkpt lat="47.33939" lon="-2.2943">
        <ele>-2.2000000476837</ele>
        <time>2022-07-14T08:11:20.000Z</time>
      </trkpt>
      <trkpt lat="47.33926" lon="-2.29418">
        <ele>-2.2000000476837</ele>
        <time>2022-07-14T08:11:26.000Z</time>
      </trkpt>
      <trkpt lat="47.33907" lon="-2.29398">
        <ele>-2.2000000476837</ele>
        <time>2022-07-14T08:11:33.000Z</time>
      </trkpt>
      <trkpt lat="47.33888" lon="-2.29381">
        <ele>-2.2000000476837</ele>
        <time>2022-07-14T08:11:39.000Z</time>
      </trkpt>
      <trkpt lat="47.33869" lon="-2.29367">
        <ele>-2.2000000476837</ele>
        <time>2022-07-14T08:11:44.000Z</time>
      </trkpt>
      <trkpt lat="47.33844" lon="-2.29347">
        <ele>-2.2000000476837</ele>
        <time>2022-07-14T08:11:51.000Z</time>
      </trkpt>
      <trkpt lat="47.33821" lon="-2.29329">
        <ele>-2.2000000476837</ele>
        <time>2022-07-14T08:11:57.000Z</time>
      </trkpt>
      <trkpt lat="47.33817" lon="-2.29323">
        <ele>-2.2000000476837</ele>
        <time>2022-07-14T08:11:58.000Z</time>
      </trkpt>
      <trkpt lat="47.33811" lon="-2.29305">
        <ele>-2.2000000476837</ele>
        <time>2022-07-14T08:12:00.000Z</time>
      </trkpt>
      <trkpt lat="47.33815" lon="-2.29286">
        <ele>-2.2000000476837</ele>
        <time>2022-07-14T08:12:03.000Z</time>
      </trkpt>
      <trkpt lat="47.33817" lon="-2.29282">
        <ele>-2.2000000476837</ele>
        <time>2022-07-14T08:12:04.000Z</time>
      </trkpt>
      <trkpt lat="47.3383" lon="-2.29266">
        <ele>-2.2000000476837</ele>
        <time>2022-07-14T08:12:08.000Z</time>
      </trkpt>
      <trkpt lat="47.3385" lon="-2.29252">
        <ele>-2.2000000476837</ele>
        <time>2022-07-14T08:12:13.000Z</time>
      </trkpt>
      <trkpt lat="47.33854" lon="-2.2925">
        <ele>-2.2000000476837</ele>
        <time>2022-07-14T08:12:14.000Z</time>
      </trkpt>
      <trkpt lat="47.3388" lon="-2.2924">
        <ele>-2.2000000476837</ele>
        <time>2022-07-14T08:12:19.000Z</time>
      </trkpt>
      <trkpt lat="47.33886" lon="-2.29239">
        <ele>-1.7999999523163</ele>
        <time>2022-07-14T08:12:20.000Z</time>
      </trkpt>
      <trkpt lat="47.33891" lon="-2.29237">
        <ele>-1.3999999761581</ele>
        <time>2022-07-14T08:12:21.000Z</time>
      </trkpt>
      <trkpt lat="47.33897" lon="-2.29236">
        <ele>-1</ele>
        <time>2022-07-14T08:12:22.000Z</time>
      </trkpt>
      <trkpt lat="47.33903" lon="-2.29234">
        <ele>-0.60000002384186</ele>
        <time>2022-07-14T08:12:23.000Z</time>
      </trkpt>
      <trkpt lat="47.33909" lon="-2.29234">
        <ele>-0.20000000298023</ele>
        <time>2022-07-14T08:12:24.000Z</time>
      </trkpt>
      <trkpt lat="47.33915" lon="-2.29233">
        <ele>-0.20000000298023</ele>
        <time>2022-07-14T08:12:25.000Z</time>
      </trkpt>
      <trkpt lat="47.33947" lon="-2.29228">
        <ele>-0.20000000298023</ele>
        <time>2022-07-14T08:12:30.000Z</time>
      </trkpt>
      <trkpt lat="47.33987" lon="-2.29219">
        <ele>-0.20000000298023</ele>
        <time>2022-07-14T08:12:36.000Z</time>
      </trkpt>
      <trkpt lat="47.34027" lon="-2.292">
        <ele>-0.20000000298023</ele>
        <time>2022-07-14T08:12:42.000Z</time>
      </trkpt>
      <trkpt lat="47.34039" lon="-2.29194">
        <ele>-0.20000000298023</ele>
        <time>2022-07-14T08:12:44.000Z</time>
      </trkpt>
      <trkpt lat="47.34058" lon="-2.2918">
        <ele>-0.20000000298023</ele>
        <time>2022-07-14T08:12:47.000Z</time>
      </trkpt>
      <trkpt lat="47.34085" lon="-2.29154">
        <ele>-0.20000000298023</ele>
        <time>2022-07-14T08:12:52.000Z</time>
      </trkpt>
      <trkpt lat="47.3412" lon="-2.29122">
        <ele>-0.20000000298023</ele>
        <time>2022-07-14T08:12:58.000Z</time>
      </trkpt>
      <trkpt lat="47.34158" lon="-2.29098">
        <ele>-0.20000000298023</ele>
        <time>2022-07-14T08:13:04.000Z</time>
      </trkpt>
      <trkpt lat="47.34213" lon="-2.29078">
        <ele>-0.20000000298023</ele>
        <time>2022-07-14T08:13:12.000Z</time>
      </trkpt>
      <trkpt lat="47.34221" lon="-2.29077">
        <ele>-0.20000000298023</ele>
        <time>2022-07-14T08:13:13.000Z</time>
      </trkpt>
      <trkpt lat="47.34254" lon="-2.29074">
        <ele>-0.20000000298023</ele>
        <time>2022-07-14T08:13:18.000Z</time>
      </trkpt>
      <trkpt lat="47.34282" lon="-2.29071">
        <ele>-0.20000000298023</ele>
        <time>2022-07-14T08:13:24.000Z</time>
      </trkpt>
      <trkpt lat="47.34309" lon="-2.29068">
        <ele>-0.20000000298023</ele>
        <time>2022-07-14T08:13:30.000Z</time>
      </trkpt>
      <trkpt lat="47.34313" lon="-2.29066">
        <ele>-0.20000000298023</ele>
        <time>2022-07-14T08:13:31.000Z</time>
      </trkpt>
      <trkpt lat="47.34318" lon="-2.29053">
        <ele>-0.20000000298023</ele>
        <time>2022-07-14T08:13:34.000Z</time>
      </trkpt>
      <trkpt lat="47.34315" lon="-2.29044">
        <ele>-0.20000000298023</ele>
        <time>2022-07-14T08:13:36.000Z</time>
      </trkpt>
      <trkpt lat="47.34311" lon="-2.29027">
        <ele>-0.20000000298023</ele>
        <time>2022-07-14T08:13:39.000Z</time>
      </trkpt>
      <trkpt lat="47.34302" lon="-2.28986">
        <ele>-0.20000000298023</ele>
        <time>2022-07-14T08:13:44.000Z</time>
      </trkpt>
      <trkpt lat="47.34292" lon="-2.28942">
        <ele>-0.20000000298023</ele>
        <time>2022-07-14T08:13:49.000Z</time>
      </trkpt>
      <trkpt lat="47.34286" lon="-2.28924">
        <ele>-0.20000000298023</ele>
        <time>2022-07-14T08:13:51.000Z</time>
      </trkpt>
      <trkpt lat="47.34276" lon="-2.28889">
        <ele>-0.60000002384186</ele>
        <time>2022-07-14T08:13:55.000Z</time>
      </trkpt>
      <trkpt lat="47.34273" lon="-2.28881">
        <ele>-1.3999999761581</ele>
        <time>2022-07-14T08:13:56.000Z</time>
      </trkpt>
      <trkpt lat="47.34271" lon="-2.28873">
        <ele>-1.7999999523163</ele>
        <time>2022-07-14T08:13:57.000Z</time>
      </trkpt>
      <trkpt lat="47.34268" lon="-2.28865">
        <ele>-2.2000000476837</ele>
        <time>2022-07-14T08:13:58.000Z</time>
      </trkpt>
      <trkpt lat="47.34263" lon="-2.2885">
        <ele>-2.2000000476837</ele>
        <time>2022-07-14T08:14:00.000Z</time>
      </trkpt>
      <trkpt lat="47.34256" lon="-2.28842">
        <ele>-2.2000000476837</ele>
        <time>2022-07-14T08:14:02.000Z</time>
      </trkpt>
      <trkpt lat="47.34244" lon="-2.28844">
        <ele>-2.2000000476837</ele>
        <time>2022-07-14T08:14:06.000Z</time>
      </trkpt>
      <trkpt lat="47.34234" lon="-2.2885">
        <ele>-2.2000000476837</ele>
        <time>2022-07-14T08:14:09.000Z</time>
      </trkpt>
      <trkpt lat="47.34229" lon="-2.28853">
        <ele>-2.2000000476837</ele>
        <time>2022-07-14T08:14:10.000Z</time>
      </trkpt>
      <trkpt lat="47.3422" lon="-2.2886">
        <ele>-2.2000000476837</ele>
        <time>2022-07-14T08:14:12.000Z</time>
      </trkpt>
      <trkpt lat="47.34206" lon="-2.28872">
        <ele>-2.2000000476837</ele>
        <time>2022-07-14T08:14:15.000Z</time>
      </trkpt>
      <trkpt lat="47.34201" lon="-2.28872">
        <ele>-2.2000000476837</ele>
        <time>2022-07-14T08:14:16.000Z</time>
      </trkpt>
      <trkpt lat="47.34189" lon="-2.28867">
        <ele>-2.2000000476837</ele>
        <time>2022-07-14T08:14:19.000Z</time>
      </trkpt>
      <trkpt lat="47.34187" lon="-2.28862">
        <ele>-2.2000000476837</ele>
        <time>2022-07-14T08:14:20.000Z</time>
      </trkpt>
      <trkpt lat="47.34185" lon="-2.28856">
        <ele>-2.2000000476837</ele>
        <time>2022-07-14T08:14:21.000Z</time>
      </trkpt>
      <trkpt lat="47.34183" lon="-2.28848">
        <ele>-2.2000000476837</ele>
        <time>2022-07-14T08:14:22.000Z</time>
      </trkpt>
      <trkpt lat="47.34181" lon="-2.28821">
        <ele>-2.2000000476837</ele>
        <time>2022-07-14T08:14:25.000Z</time>
      </trkpt>
      <trkpt lat="47.34179" lon="-2.28794">
        <ele>-2.2000000476837</ele>
        <time>2022-07-14T08:14:28.000Z</time>
      </trkpt>
      <trkpt lat="47.34179" lon="-2.28786">
        <ele>-2.2000000476837</ele>
        <time>2022-07-14T08:14:29.000Z</time>
      </trkpt>
      <trkpt lat="47.34178" lon="-2.2875">
        <ele>-2.2000000476837</ele>
        <time>2022-07-14T08:14:33.000Z</time>
      </trkpt>
      <trkpt lat="47.34177" lon="-2.28724">
        <ele>-2.2000000476837</ele>
        <time>2022-07-14T08:14:36.000Z</time>
      </trkpt>
      <trkpt lat="47.34172" lon="-2.28709">
        <ele>-2.2000000476837</ele>
        <time>2022-07-14T08:14:38.000Z</time>
      </trkpt>
      <trkpt lat="47.3416" lon="-2.28697">
        <ele>-2.2000000476837</ele>
        <time>2022-07-14T08:14:41.000Z</time>
      </trkpt>
      <trkpt lat="47.34139" lon="-2.28695">
        <ele>-2.2000000476837</ele>
        <time>2022-07-14T08:14:45.000Z</time>
      </trkpt>
      <trkpt lat="47.34124" lon="-2.28697">
        <ele>-2.2000000476837</ele>
        <time>2022-07-14T08:14:48.000Z</time>
      </trkpt>
      <trkpt lat="47.34116" lon="-2.28705">
        <ele>-2.2000000476837</ele>
        <time>2022-07-14T08:14:50.000Z</time>
      </trkpt>
      <trkpt lat="47.34106" lon="-2.28723">
        <ele>-2.2000000476837</ele>
        <time>2022-07-14T08:14:53.000Z</time>
      </trkpt>
      <trkpt lat="47.34102" lon="-2.28729">
        <ele>-2.2000000476837</ele>
        <time>2022-07-14T08:14:54.000Z</time>
      </trkpt>
      <trkpt lat="47.34098" lon="-2.28733">
        <ele>-2.2000000476837</ele>
        <time>2022-07-14T08:14:55.000Z</time>
      </trkpt>
      <trkpt lat="47.34082" lon="-2.28733">
        <ele>-2.2000000476837</ele>
        <time>2022-07-14T08:14:58.000Z</time>
      </trkpt>
      <trkpt lat="47.3407" lon="-2.28729">
        <ele>-2.2000000476837</ele>
        <time>2022-07-14T08:15:00.000Z</time>
      </trkpt>
      <trkpt lat="47.34064" lon="-2.28727">
        <ele>-2.2000000476837</ele>
        <time>2022-07-14T08:15:01.000Z</time>
      </trkpt>
      <trkpt lat="47.34051" lon="-2.28723">
        <ele>-2.2000000476837</ele>
        <time>2022-07-14T08:15:03.000Z</time>
      </trkpt>
      <trkpt lat="47.34003" lon="-2.28705">
        <ele>-2.2000000476837</ele>
        <time>2022-07-14T08:15:11.000Z</time>
      </trkpt>
      <trkpt lat="47.3399" lon="-2.28689">
        <ele>-2.2000000476837</ele>
        <time>2022-07-14T08:15:14.000Z</time>
      </trkpt>
      <trkpt lat="47.33987" lon="-2.28682">
        <ele>-2.2000000476837</ele>
        <time>2022-07-14T08:15:15.000Z</time>
      </trkpt>
      <trkpt lat="47.33985" lon="-2.28656">
        <ele>-2.2000000476837</ele>
        <time>2022-07-14T08:15:18.000Z</time>
      </trkpt>
      <trkpt lat="47.33978" lon="-2.28638">
        <ele>-2.2000000476837</ele>
        <time>2022-07-14T08:15:21.000Z</time>
      </trkpt>
      <trkpt lat="47.33974" lon="-2.28633">
        <ele>-2.2000000476837</ele>
        <time>2022-07-14T08:15:22.000Z</time>
      </trkpt>
      <trkpt lat="47.33947" lon="-2.28597">
        <ele>-2.2000000476837</ele>
        <time>2022-07-14T08:15:29.000Z</time>
      </trkpt>
      <trkpt lat="47.3392" lon="-2.2856">
        <ele>-2.2000000476837</ele>
        <time>2022-07-14T08:15:35.000Z</time>
      </trkpt>
      <trkpt lat="47.33903" lon="-2.28539">
        <ele>-2.2000000476837</ele>
        <time>2022-07-14T08:15:39.000Z</time>
      </trkpt>
      <trkpt lat="47.33895" lon="-2.2853">
        <ele>-2.2000000476837</ele>
        <time>2022-07-14T08:15:41.000Z</time>
      </trkpt>
      <trkpt lat="47.33886" lon="-2.28519">
        <ele>-2.2000000476837</ele>
        <time>2022-07-14T08:15:43.000Z</time>
      </trkpt>
      <trkpt lat="47.33872" lon="-2.28502">
        <ele>-2.2000000476837</ele>
        <time>2022-07-14T08:15:46.000Z</time>
      </trkpt>
      <trkpt lat="47.33853" lon="-2.28479">
        <ele>-2.2000000476837</ele>
        <time>2022-07-14T08:15:51.000Z</time>
      </trkpt>
      <trkpt lat="47.3384" lon="-2.28463">
        <ele>-2.2000000476837</ele>
        <time>2022-07-14T08:15:56.000Z</time>
      </trkpt>
      <trkpt lat="47.33824" lon="-2.2845">
        <ele>-2.2000000476837</ele>
        <time>2022-07-14T08:16:01.000Z</time>
      </trkpt>
      <trkpt lat="47.33811" lon="-2.28446">
        <ele>-2.2000000476837</ele>
        <time>2022-07-14T08:16:05.000Z</time>
      </trkpt>
      <trkpt lat="47.33806" lon="-2.28443">
        <ele>-2.2000000476837</ele>
        <time>2022-07-14T08:16:07.000Z</time>
      </trkpt>
      <trkpt lat="47.33803" lon="-2.2844">
        <ele>-2.2000000476837</ele>
        <time>2022-07-14T08:16:09.000Z</time>
      </trkpt>
      <trkpt lat="47.33802" lon="-2.28438">
        <ele>-2.2000000476837</ele>
        <time>2022-07-14T08:16:10.000Z</time>
      </trkpt>
      <trkpt lat="47.33803" lon="-2.28434">
        <ele>-2.2000000476837</ele>
        <time>2022-07-14T08:29:37.000Z</time>
      </trkpt>
      <trkpt lat="47.33803" lon="-2.28435">
        <ele>-2.2000000476837</ele>
        <time>2022-07-14T08:29:38.000Z</time>
      </trkpt>
      <trkpt lat="47.33806" lon="-2.28444">
        <ele>-2.2000000476837</ele>
        <time>2022-07-14T08:29:41.000Z</time>
      </trkpt>
      <trkpt lat="47.33808" lon="-2.28452">
        <ele>-2.2000000476837</ele>
        <time>2022-07-14T08:29:43.000Z</time>
      </trkpt>
      <trkpt lat="47.33808" lon="-2.28461">
        <ele>-2.2000000476837</ele>
        <time>2022-07-14T08:29:47.000Z</time>
      </trkpt>
      <trkpt lat="47.338" lon="-2.28472">
        <ele>-2.2000000476837</ele>
        <time>2022-07-14T08:29:52.000Z</time>
      </trkpt>
      <trkpt lat="47.33795" lon="-2.28475">
        <ele>-2.2000000476837</ele>
        <time>2022-07-14T08:29:54.000Z</time>
      </trkpt>
      <trkpt lat="47.33787" lon="-2.28482">
        <ele>-2.2000000476837</ele>
        <time>2022-07-14T08:29:58.000Z</time>
      </trkpt>
      <trkpt lat="47.33771" lon="-2.28493">
        <ele>-2.2000000476837</ele>
        <time>2022-07-14T08:30:04.000Z</time>
      </trkpt>
      <trkpt lat="47.33761" lon="-2.28503">
        <ele>-2.2000000476837</ele>
        <time>2022-07-14T08:30:07.000Z</time>
      </trkpt>
      <trkpt lat="47.3375" lon="-2.28513">
        <ele>-2.2000000476837</ele>
        <time>2022-07-14T08:30:09.000Z</time>
      </trkpt>
      <trkpt lat="47.33724" lon="-2.28536">
        <ele>-2.2000000476837</ele>
        <time>2022-07-14T08:30:15.000Z</time>
      </trkpt>
      <trkpt lat="47.33715" lon="-2.28542">
        <ele>-2.2000000476837</ele>
        <time>2022-07-14T08:30:17.000Z</time>
      </trkpt>
      <trkpt lat="47.33703" lon="-2.2854">
        <ele>-2.2000000476837</ele>
        <time>2022-07-14T08:30:19.000Z</time>
      </trkpt>
      <trkpt lat="47.33696" lon="-2.28523">
        <ele>-2.2000000476837</ele>
        <time>2022-07-14T08:30:22.000Z</time>
      </trkpt>
      <trkpt lat="47.33695" lon="-2.28517">
        <ele>-2.2000000476837</ele>
        <time>2022-07-14T08:30:23.000Z</time>
      </trkpt>
      <trkpt lat="47.33692" lon="-2.28508">
        <ele>-2.2000000476837</ele>
        <time>2022-07-14T08:30:26.000Z</time>
      </trkpt>
      <trkpt lat="47.3369" lon="-2.28504">
        <ele>-2.2000000476837</ele>
        <time>2022-07-14T08:30:31.000Z</time>
      </trkpt>
      <trkpt lat="47.33683" lon="-2.28482">
        <ele>-2.2000000476837</ele>
        <time>2022-07-14T08:31:00.000Z</time>
      </trkpt>
      <trkpt lat="47.33682" lon="-2.28478">
        <ele>-2.2000000476837</ele>
        <time>2022-07-14T08:31:02.000Z</time>
      </trkpt>
      <trkpt lat="47.33681" lon="-2.28475">
        <ele>-2.2000000476837</ele>
        <time>2022-07-14T08:31:03.000Z</time>
      </trkpt>
      <trkpt lat="47.33678" lon="-2.28461">
        <ele>-2.2000000476837</ele>
        <time>2022-07-14T08:31:06.000Z</time>
      </trkpt>
      <trkpt lat="47.33676" lon="-2.28456">
        <ele>-2.2000000476837</ele>
        <time>2022-07-14T08:31:07.000Z</time>
      </trkpt>
      <trkpt lat="47.3367" lon="-2.28446">
        <ele>-2.2000000476837</ele>
        <time>2022-07-14T08:31:09.000Z</time>
      </trkpt>
      <trkpt lat="47.33662" lon="-2.28433">
        <ele>-2.2000000476837</ele>
        <time>2022-07-14T08:31:12.000Z</time>
      </trkpt>
      <trkpt lat="47.33654" lon="-2.2842">
        <ele>-2.2000000476837</ele>
        <time>2022-07-14T08:31:15.000Z</time>
      </trkpt>
      <trkpt lat="47.33648" lon="-2.28412">
        <ele>-2.2000000476837</ele>
        <time>2022-07-14T08:31:17.000Z</time>
      </trkpt>
      <trkpt lat="47.33633" lon="-2.2839">
        <ele>-2.2000000476837</ele>
        <time>2022-07-14T08:31:22.000Z</time>
      </trkpt>
      <trkpt lat="47.33629" lon="-2.28387">
        <ele>-2.2000000476837</ele>
        <time>2022-07-14T08:31:23.000Z</time>
      </trkpt>
      <trkpt lat="47.33617" lon="-2.28371">
        <ele>-2.2000000476837</ele>
        <time>2022-07-14T08:31:27.000Z</time>
      </trkpt>
      <trkpt lat="47.33604" lon="-2.28351">
        <ele>-2.2000000476837</ele>
        <time>2022-07-14T08:31:31.000Z</time>
      </trkpt>
      <trkpt lat="47.33601" lon="-2.28346">
        <ele>-2.2000000476837</ele>
        <time>2022-07-14T08:31:32.000Z</time>
      </trkpt>
      <trkpt lat="47.33588" lon="-2.28329">
        <ele>-2.2000000476837</ele>
        <time>2022-07-14T08:31:37.000Z</time>
      </trkpt>
      <trkpt lat="47.33574" lon="-2.28305">
        <ele>-2.2000000476837</ele>
        <time>2022-07-14T08:31:41.000Z</time>
      </trkpt>
      <trkpt lat="47.33554" lon="-2.28265">
        <ele>-2.2000000476837</ele>
        <time>2022-07-14T08:31:47.000Z</time>
      </trkpt>
      <trkpt lat="47.33547" lon="-2.28253">
        <ele>-2.2000000476837</ele>
        <time>2022-07-14T08:31:49.000Z</time>
      </trkpt>
      <trkpt lat="47.33533" lon="-2.28239">
        <ele>-2.2000000476837</ele>
        <time>2022-07-14T08:31:52.000Z</time>
      </trkpt>
      <trkpt lat="47.33528" lon="-2.28238">
        <ele>-2.2000000476837</ele>
        <time>2022-07-14T08:31:53.000Z</time>
      </trkpt>
      <trkpt lat="47.33515" lon="-2.28243">
        <ele>-2.2000000476837</ele>
        <time>2022-07-14T08:31:56.000Z</time>
      </trkpt>
      <trkpt lat="47.33503" lon="-2.28252">
        <ele>-2.2000000476837</ele>
        <time>2022-07-14T08:31:59.000Z</time>
      </trkpt>
      <trkpt lat="47.33499" lon="-2.28255">
        <ele>-2.2000000476837</ele>
        <time>2022-07-14T08:32:00.000Z</time>
      </trkpt>
      <trkpt lat="47.33494" lon="-2.28254">
        <ele>-2.2000000476837</ele>
        <time>2022-07-14T08:32:01.000Z</time>
      </trkpt>
      <trkpt lat="47.33475" lon="-2.28246">
        <ele>-2.2000000476837</ele>
        <time>2022-07-14T08:32:06.000Z</time>
      </trkpt>
      <trkpt lat="47.33471" lon="-2.28229">
        <ele>-2.2000000476837</ele>
        <time>2022-07-14T08:32:10.000Z</time>
      </trkpt>
      <trkpt lat="47.33467" lon="-2.2821">
        <ele>-2.2000000476837</ele>
        <time>2022-07-14T08:32:15.000Z</time>
      </trkpt>
      <trkpt lat="47.33465" lon="-2.28186">
        <ele>-2.2000000476837</ele>
        <time>2022-07-14T08:32:21.000Z</time>
      </trkpt>
      <trkpt lat="47.33464" lon="-2.28181">
        <ele>-2.2000000476837</ele>
        <time>2022-07-14T08:32:25.000Z</time>
      </trkpt>
      <trkpt lat="47.33463" lon="-2.28177">
        <ele>-2.2000000476837</ele>
        <time>2022-07-14T08:32:29.000Z</time>
      </trkpt>
      <trkpt lat="47.33462" lon="-2.28169">
        <ele>-2.2000000476837</ele>
        <time>2022-07-14T08:32:31.000Z</time>
      </trkpt>
      <trkpt lat="47.3346" lon="-2.2815">
        <ele>-2.2000000476837</ele>
        <time>2022-07-14T08:32:35.000Z</time>
      </trkpt>
      <trkpt lat="47.33459" lon="-2.28138">
        <ele>-2.2000000476837</ele>
        <time>2022-07-14T08:32:37.000Z</time>
      </trkpt>
      <trkpt lat="47.33458" lon="-2.28132">
        <ele>-2.2000000476837</ele>
        <time>2022-07-14T08:32:38.000Z</time>
      </trkpt>
      <trkpt lat="47.33455" lon="-2.28122">
        <ele>-2.2000000476837</ele>
        <time>2022-07-14T08:32:40.000Z</time>
      </trkpt>
      <trkpt lat="47.33452" lon="-2.28092">
        <ele>-2.2000000476837</ele>
        <time>2022-07-14T08:32:45.000Z</time>
      </trkpt>
      <trkpt lat="47.33444" lon="-2.28043">
        <ele>-2.2000000476837</ele>
        <time>2022-07-14T08:32:52.000Z</time>
      </trkpt>
      <trkpt lat="47.33441" lon="-2.28009">
        <ele>-2.2000000476837</ele>
        <time>2022-07-14T08:32:57.000Z</time>
      </trkpt>
      <trkpt lat="47.33438" lon="-2.27995">
        <ele>-2.2000000476837</ele>
        <time>2022-07-14T08:32:59.000Z</time>
      </trkpt>
      <trkpt lat="47.33436" lon="-2.27981">
        <ele>-2.2000000476837</ele>
        <time>2022-07-14T08:33:01.000Z</time>
      </trkpt>
      <trkpt lat="47.33434" lon="-2.27967">
        <ele>-2.2000000476837</ele>
        <time>2022-07-14T08:33:03.000Z</time>
      </trkpt>
      <trkpt lat="47.33431" lon="-2.27945">
        <ele>-2.2000000476837</ele>
        <time>2022-07-14T08:33:06.000Z</time>
      </trkpt>
      <trkpt lat="47.33429" lon="-2.27923">
        <ele>-2.2000000476837</ele>
        <time>2022-07-14T08:33:09.000Z</time>
      </trkpt>
      <trkpt lat="47.33429" lon="-2.27915">
        <ele>-2.2000000476837</ele>
        <time>2022-07-14T08:33:10.000Z</time>
      </trkpt>
      <trkpt lat="47.33428" lon="-2.27909">
        <ele>-2.2000000476837</ele>
        <time>2022-07-14T08:33:11.000Z</time>
      </trkpt>
      <trkpt lat="47.33426" lon="-2.27888">
        <ele>-2.2000000476837</ele>
        <time>2022-07-14T08:33:14.000Z</time>
      </trkpt>
      <trkpt lat="47.33426" lon="-2.27864">
        <ele>-2.2000000476837</ele>
        <time>2022-07-14T08:33:19.000Z</time>
      </trkpt>
      <trkpt lat="47.33424" lon="-2.2784">
        <ele>-2.2000000476837</ele>
        <time>2022-07-14T08:33:24.000Z</time>
      </trkpt>
      <trkpt lat="47.3342" lon="-2.27818">
        <ele>-2.2000000476837</ele>
        <time>2022-07-14T08:33:29.000Z</time>
      </trkpt>
      <trkpt lat="47.33418" lon="-2.27802">
        <ele>-2.2000000476837</ele>
        <time>2022-07-14T08:33:34.000Z</time>
      </trkpt>
      <trkpt lat="47.33415" lon="-2.27779">
        <ele>-2.2000000476837</ele>
        <time>2022-07-14T08:33:38.000Z</time>
      </trkpt>
      <trkpt lat="47.3341" lon="-2.27753">
        <ele>-2.2000000476837</ele>
        <time>2022-07-14T08:33:42.000Z</time>
      </trkpt>
      <trkpt lat="47.33408" lon="-2.27738">
        <ele>-2.2000000476837</ele>
        <time>2022-07-14T08:33:44.000Z</time>
      </trkpt>
      <trkpt lat="47.33404" lon="-2.27701">
        <ele>-2.2000000476837</ele>
        <time>2022-07-14T08:33:49.000Z</time>
      </trkpt>
      <trkpt lat="47.33404" lon="-2.27693">
        <ele>-2.2000000476837</ele>
        <time>2022-07-14T08:33:50.000Z</time>
      </trkpt>
      <trkpt lat="47.33405" lon="-2.27686">
        <ele>-2.2000000476837</ele>
        <time>2022-07-14T08:33:51.000Z</time>
      </trkpt>
      <trkpt lat="47.33405" lon="-2.27661">
        <ele>-2.2000000476837</ele>
        <time>2022-07-14T08:33:54.000Z</time>
      </trkpt>
      <trkpt lat="47.33407" lon="-2.27647">
        <ele>-2.2000000476837</ele>
        <time>2022-07-14T08:33:56.000Z</time>
      </trkpt>
      <trkpt lat="47.33408" lon="-2.27641">
        <ele>-2.2000000476837</ele>
        <time>2022-07-14T08:33:57.000Z</time>
      </trkpt>
      <trkpt lat="47.3342" lon="-2.27623">
        <ele>-2.2000000476837</ele>
        <time>2022-07-14T08:34:00.000Z</time>
      </trkpt>
      <trkpt lat="47.33446" lon="-2.27591">
        <ele>-2.2000000476837</ele>
        <time>2022-07-14T08:34:06.000Z</time>
      </trkpt>
      <trkpt lat="47.33476" lon="-2.27559">
        <ele>-2.2000000476837</ele>
        <time>2022-07-14T08:34:12.000Z</time>
      </trkpt>
      <trkpt lat="47.33494" lon="-2.27539">
        <ele>-2.2000000476837</ele>
        <time>2022-07-14T08:34:17.000Z</time>
      </trkpt>
      <trkpt lat="47.33491" lon="-2.27524">
        <ele>-2.2000000476837</ele>
        <time>2022-07-14T08:34:20.000Z</time>
      </trkpt>
      <trkpt lat="47.33489" lon="-2.27518">
        <ele>-2.2000000476837</ele>
        <time>2022-07-14T08:34:21.000Z</time>
      </trkpt>
      <trkpt lat="47.33486" lon="-2.27506">
        <ele>-2.2000000476837</ele>
        <time>2022-07-14T08:34:23.000Z</time>
      </trkpt>
      <trkpt lat="47.33484" lon="-2.27491">
        <ele>-2.2000000476837</ele>
        <time>2022-07-14T08:34:25.000Z</time>
      </trkpt>
      <trkpt lat="47.33473" lon="-2.27429">
        <ele>-2.2000000476837</ele>
        <time>2022-07-14T08:34:33.000Z</time>
      </trkpt>
      <trkpt lat="47.33469" lon="-2.27391">
        <ele>-2.2000000476837</ele>
        <time>2022-07-14T08:34:38.000Z</time>
      </trkpt>
      <trkpt lat="47.33466" lon="-2.27376">
        <ele>-2.2000000476837</ele>
        <time>2022-07-14T08:34:40.000Z</time>
      </trkpt>
      <trkpt lat="47.33464" lon="-2.2736">
        <ele>-2.2000000476837</ele>
        <time>2022-07-14T08:34:42.000Z</time>
      </trkpt>
      <trkpt lat="47.33457" lon="-2.27332">
        <ele>-2.2000000476837</ele>
        <time>2022-07-14T08:34:46.000Z</time>
      </trkpt>
      <trkpt lat="47.33455" lon="-2.27318">
        <ele>-2.2000000476837</ele>
        <time>2022-07-14T08:34:48.000Z</time>
      </trkpt>
      <trkpt lat="47.3345" lon="-2.27296">
        <ele>-2.2000000476837</ele>
        <time>2022-07-14T08:34:51.000Z</time>
      </trkpt>
      <trkpt lat="47.33445" lon="-2.27269">
        <ele>-2.2000000476837</ele>
        <time>2022-07-14T08:34:55.000Z</time>
      </trkpt>
      <trkpt lat="47.33441" lon="-2.27247">
        <ele>-2.2000000476837</ele>
        <time>2022-07-14T08:34:58.000Z</time>
      </trkpt>
      <trkpt lat="47.3344" lon="-2.27239">
        <ele>-2.2000000476837</ele>
        <time>2022-07-14T08:34:59.000Z</time>
      </trkpt>
      <trkpt lat="47.33437" lon="-2.27225">
        <ele>-2.2000000476837</ele>
        <time>2022-07-14T08:35:01.000Z</time>
      </trkpt>
      <trkpt lat="47.33434" lon="-2.27202">
        <ele>-2.2000000476837</ele>
        <time>2022-07-14T08:35:04.000Z</time>
      </trkpt>
      <trkpt lat="47.33432" lon="-2.27195">
        <ele>-2.2000000476837</ele>
        <time>2022-07-14T08:35:05.000Z</time>
      </trkpt>
      <trkpt lat="47.33427" lon="-2.27166">
        <ele>-2.2000000476837</ele>
        <time>2022-07-14T08:35:09.000Z</time>
      </trkpt>
      <trkpt lat="47.33421" lon="-2.27137">
        <ele>-2.2000000476837</ele>
        <time>2022-07-14T08:35:13.000Z</time>
      </trkpt>
      <trkpt lat="47.33414" lon="-2.27117">
        <ele>-2.2000000476837</ele>
        <time>2022-07-14T08:35:16.000Z</time>
      </trkpt>
      <trkpt lat="47.33398" lon="-2.27075">
        <ele>-2.2000000476837</ele>
        <time>2022-07-14T08:35:23.000Z</time>
      </trkpt>
      <trkpt lat="47.33387" lon="-2.27049">
        <ele>-2.2000000476837</ele>
        <time>2022-07-14T08:35:28.000Z</time>
      </trkpt>
      <trkpt lat="47.33385" lon="-2.27044">
        <ele>-2.2000000476837</ele>
        <time>2022-07-14T08:35:29.000Z</time>
      </trkpt>
      <trkpt lat="47.33377" lon="-2.27025">
        <ele>-2.2000000476837</ele>
        <time>2022-07-14T08:35:34.000Z</time>
      </trkpt>
      <trkpt lat="47.33371" lon="-2.27012">
        <ele>-2.2000000476837</ele>
        <time>2022-07-14T08:35:40.000Z</time>
      </trkpt>
      <trkpt lat="47.33369" lon="-2.27007">
        <ele>-2.2000000476837</ele>
        <time>2022-07-14T08:35:44.000Z</time>
      </trkpt>
      <trkpt lat="47.33366" lon="-2.27">
        <ele>-2.2000000476837</ele>
        <time>2022-07-14T08:35:54.000Z</time>
      </trkpt>
      <trkpt lat="47.33365" lon="-2.26999">
        <ele>-2.2000000476837</ele>
        <time>2022-07-14T08:35:55.000Z</time>
      </trkpt>
      <trkpt lat="47.33363" lon="-2.26999">
        <ele>-2.2000000476837</ele>
        <time>2022-07-14T08:35:56.000Z</time>
      </trkpt>
      <trkpt lat="47.33357" lon="-2.27001">
        <ele>-2.2000000476837</ele>
        <time>2022-07-14T08:36:01.000Z</time>
      </trkpt>
      <trkpt lat="47.33339" lon="-2.27006">
        <ele>-2.2000000476837</ele>
        <time>2022-07-14T08:36:08.000Z</time>
      </trkpt>
      <trkpt lat="47.33319" lon="-2.27007">
        <ele>-2.2000000476837</ele>
        <time>2022-07-14T08:36:13.000Z</time>
      </trkpt>
      <trkpt lat="47.33304" lon="-2.27">
        <ele>-1.7999999523163</ele>
        <time>2022-07-14T08:36:17.000Z</time>
      </trkpt>
      <trkpt lat="47.333" lon="-2.26997">
        <ele>-1.3999999761581</ele>
        <time>2022-07-14T08:36:18.000Z</time>
      </trkpt>
      <trkpt lat="47.33296" lon="-2.26995">
        <ele>-1</ele>
        <time>2022-07-14T08:36:19.000Z</time>
      </trkpt>
      <trkpt lat="47.33293" lon="-2.26993">
        <ele>-0.60000002384186</ele>
        <time>2022-07-14T08:36:20.000Z</time>
      </trkpt>
      <trkpt lat="47.33288" lon="-2.26991">
        <ele>-0.20000000298023</ele>
        <time>2022-07-14T08:36:21.000Z</time>
      </trkpt>
      <trkpt lat="47.33281" lon="-2.26989">
        <ele>-0.20000000298023</ele>
        <time>2022-07-14T08:36:23.000Z</time>
      </trkpt>
      <trkpt lat="47.33266" lon="-2.26984">
        <ele>-0.20000000298023</ele>
        <time>2022-07-14T08:36:28.000Z</time>
      </trkpt>
      <trkpt lat="47.33252" lon="-2.26983">
        <ele>-0.20000000298023</ele>
        <time>2022-07-14T08:36:32.000Z</time>
      </trkpt>
      <trkpt lat="47.33242" lon="-2.26983">
        <ele>-0.20000000298023</ele>
        <time>2022-07-14T08:36:34.000Z</time>
      </trkpt>
      <trkpt lat="47.33229" lon="-2.26985">
        <ele>-0.20000000298023</ele>
        <time>2022-07-14T08:36:37.000Z</time>
      </trkpt>
      <trkpt lat="47.33218" lon="-2.26995">
        <ele>-0.20000000298023</ele>
        <time>2022-07-14T08:36:40.000Z</time>
      </trkpt>
      <trkpt lat="47.33214" lon="-2.26999">
        <ele>-0.20000000298023</ele>
        <time>2022-07-14T08:36:41.000Z</time>
      </trkpt>
      <trkpt lat="47.33197" lon="-2.27021">
        <ele>-0.20000000298023</ele>
        <time>2022-07-14T08:36:46.000Z</time>
      </trkpt>
      <trkpt lat="47.33187" lon="-2.27038">
        <ele>-0.20000000298023</ele>
        <time>2022-07-14T08:36:49.000Z</time>
      </trkpt>
      <trkpt lat="47.33176" lon="-2.27054">
        <ele>-0.20000000298023</ele>
        <time>2022-07-14T08:36:52.000Z</time>
      </trkpt>
      <trkpt lat="47.3316" lon="-2.27093">
        <ele>-0.20000000298023</ele>
        <time>2022-07-14T08:36:58.000Z</time>
      </trkpt>
      <trkpt lat="47.33155" lon="-2.27106">
        <ele>-0.20000000298023</ele>
        <time>2022-07-14T08:37:00.000Z</time>
      </trkpt>
      <trkpt lat="47.33151" lon="-2.27118">
        <ele>-0.20000000298023</ele>
        <time>2022-07-14T08:37:02.000Z</time>
      </trkpt>
      <trkpt lat="47.33148" lon="-2.27129">
        <ele>-0.20000000298023</ele>
        <time>2022-07-14T08:37:04.000Z</time>
      </trkpt>
      <trkpt lat="47.33142" lon="-2.27152">
        <ele>-0.20000000298023</ele>
        <time>2022-07-14T08:37:08.000Z</time>
      </trkpt>
      <trkpt lat="47.33138" lon="-2.27162">
        <ele>-0.20000000298023</ele>
        <time>2022-07-14T08:37:10.000Z</time>
      </trkpt>
      <trkpt lat="47.33132" lon="-2.27173">
        <ele>-0.20000000298023</ele>
        <time>2022-07-14T08:37:12.000Z</time>
      </trkpt>
      <trkpt lat="47.33111" lon="-2.27218">
        <ele>-0.20000000298023</ele>
        <time>2022-07-14T08:37:19.000Z</time>
      </trkpt>
      <trkpt lat="47.33105" lon="-2.27229">
        <ele>-0.20000000298023</ele>
        <time>2022-07-14T08:37:21.000Z</time>
      </trkpt>
      <trkpt lat="47.33099" lon="-2.2724">
        <ele>-0.20000000298023</ele>
        <time>2022-07-14T08:37:23.000Z</time>
      </trkpt>
      <trkpt lat="47.33097" lon="-2.27246">
        <ele>-0.20000000298023</ele>
        <time>2022-07-14T08:37:24.000Z</time>
      </trkpt>
      <trkpt lat="47.33084" lon="-2.27274">
        <ele>-0.20000000298023</ele>
        <time>2022-07-14T08:37:29.000Z</time>
      </trkpt>
      <trkpt lat="47.33063" lon="-2.27317">
        <ele>-0.20000000298023</ele>
        <time>2022-07-14T08:37:36.000Z</time>
      </trkpt>
      <trkpt lat="47.33057" lon="-2.2733">
        <ele>-0.20000000298023</ele>
        <time>2022-07-14T08:37:38.000Z</time>
      </trkpt>
      <trkpt lat="47.33051" lon="-2.27342">
        <ele>-0.20000000298023</ele>
        <time>2022-07-14T08:37:40.000Z</time>
      </trkpt>
      <trkpt lat="47.33048" lon="-2.27349">
        <ele>-0.20000000298023</ele>
        <time>2022-07-14T08:37:41.000Z</time>
      </trkpt>
      <trkpt lat="47.33025" lon="-2.27403">
        <ele>-0.20000000298023</ele>
        <time>2022-07-14T08:37:49.000Z</time>
      </trkpt>
      <trkpt lat="47.33012" lon="-2.27441">
        <ele>-0.20000000298023</ele>
        <time>2022-07-14T08:37:55.000Z</time>
      </trkpt>
      <trkpt lat="47.33" lon="-2.27482">
        <ele>-0.20000000298023</ele>
        <time>2022-07-14T08:38:01.000Z</time>
      </trkpt>
      <trkpt lat="47.32988" lon="-2.27516">
        <ele>-0.20000000298023</ele>
        <time>2022-07-14T08:38:06.000Z</time>
      </trkpt>
      <trkpt lat="47.32972" lon="-2.27556">
        <ele>-0.20000000298023</ele>
        <time>2022-07-14T08:38:12.000Z</time>
      </trkpt>
      <trkpt lat="47.3297" lon="-2.27563">
        <ele>-0.20000000298023</ele>
        <time>2022-07-14T08:38:13.000Z</time>
      </trkpt>
      <trkpt lat="47.32967" lon="-2.27579">
        <ele>-0.20000000298023</ele>
        <time>2022-07-14T08:38:15.000Z</time>
      </trkpt>
      <trkpt lat="47.32958" lon="-2.27629">
        <ele>-0.20000000298023</ele>
        <time>2022-07-14T08:38:22.000Z</time>
      </trkpt>
      <trkpt lat="47.32955" lon="-2.27642">
        <ele>-0.20000000298023</ele>
        <time>2022-07-14T08:38:24.000Z</time>
      </trkpt>
      <trkpt lat="47.32957" lon="-2.27664">
        <ele>-0.20000000298023</ele>
        <time>2022-07-14T08:38:27.000Z</time>
      </trkpt>
      <trkpt lat="47.32959" lon="-2.27687">
        <ele>-0.20000000298023</ele>
        <time>2022-07-14T08:38:30.000Z</time>
      </trkpt>
      <trkpt lat="47.3296" lon="-2.27701">
        <ele>-0.20000000298023</ele>
        <time>2022-07-14T08:38:32.000Z</time>
      </trkpt>
      <trkpt lat="47.32962" lon="-2.27708">
        <ele>-0.20000000298023</ele>
        <time>2022-07-14T08:38:33.000Z</time>
      </trkpt>
      <trkpt lat="47.32972" lon="-2.27747">
        <ele>-0.20000000298023</ele>
        <time>2022-07-14T08:38:39.000Z</time>
      </trkpt>
      <trkpt lat="47.32974" lon="-2.27752">
        <ele>-0.20000000298023</ele>
        <time>2022-07-14T08:38:40.000Z</time>
      </trkpt>
      <trkpt lat="47.32995" lon="-2.27788">
        <ele>-0.20000000298023</ele>
        <time>2022-07-14T08:38:47.000Z</time>
      </trkpt>
      <trkpt lat="47.33016" lon="-2.27819">
        <ele>-0.20000000298023</ele>
        <time>2022-07-14T08:38:54.000Z</time>
      </trkpt>
      <trkpt lat="47.33042" lon="-2.27842">
        <ele>-0.20000000298023</ele>
        <time>2022-07-14T08:39:01.000Z</time>
      </trkpt>
      <trkpt lat="47.33068" lon="-2.27855">
        <ele>-0.20000000298023</ele>
        <time>2022-07-14T08:39:07.000Z</time>
      </trkpt>
      <trkpt lat="47.33072" lon="-2.27858">
        <ele>-0.20000000298023</ele>
        <time>2022-07-14T08:39:08.000Z</time>
      </trkpt>
      <trkpt lat="47.3308" lon="-2.27863">
        <ele>-0.20000000298023</ele>
        <time>2022-07-14T08:39:10.000Z</time>
      </trkpt>
      <trkpt lat="47.33092" lon="-2.27868">
        <ele>-0.20000000298023</ele>
        <time>2022-07-14T08:39:13.000Z</time>
      </trkpt>
      <trkpt lat="47.33113" lon="-2.27884">
        <ele>-0.20000000298023</ele>
        <time>2022-07-14T08:39:19.000Z</time>
      </trkpt>
      <trkpt lat="47.33113" lon="-2.27891">
        <ele>-0.20000000298023</ele>
        <time>2022-07-14T08:39:22.000Z</time>
      </trkpt>
      <trkpt lat="47.33105" lon="-2.27903">
        <ele>-0.20000000298023</ele>
        <time>2022-07-14T08:39:26.000Z</time>
      </trkpt>
      <trkpt lat="47.33102" lon="-2.27912">
        <ele>-0.20000000298023</ele>
        <time>2022-07-14T08:39:27.000Z</time>
      </trkpt>
      <trkpt lat="47.33098" lon="-2.27923">
        <ele>-0.20000000298023</ele>
        <time>2022-07-14T08:39:29.000Z</time>
      </trkpt>
      <trkpt lat="47.33089" lon="-2.27936">
        <ele>-0.20000000298023</ele>
        <time>2022-07-14T08:39:32.000Z</time>
      </trkpt>
      <trkpt lat="47.33082" lon="-2.27945">
        <ele>-0.20000000298023</ele>
        <time>2022-07-14T08:39:34.000Z</time>
      </trkpt>
      <trkpt lat="47.33068" lon="-2.27965">
        <ele>-0.20000000298023</ele>
        <time>2022-07-14T08:39:38.000Z</time>
      </trkpt>
      <trkpt lat="47.33065" lon="-2.27971">
        <ele>-0.20000000298023</ele>
        <time>2022-07-14T08:39:39.000Z</time>
      </trkpt>
      <trkpt lat="47.33053" lon="-2.27992">
        <ele>-0.20000000298023</ele>
        <time>2022-07-14T08:39:42.000Z</time>
      </trkpt>
      <trkpt lat="47.33045" lon="-2.28001">
        <ele>-0.20000000298023</ele>
        <time>2022-07-14T08:39:44.000Z</time>
      </trkpt>
      <trkpt lat="47.33028" lon="-2.28028">
        <ele>-0.20000000298023</ele>
        <time>2022-07-14T08:39:49.000Z</time>
      </trkpt>
      <trkpt lat="47.33023" lon="-2.28038">
        <ele>-0.20000000298023</ele>
        <time>2022-07-14T08:39:51.000Z</time>
      </trkpt>
      <trkpt lat="47.33013" lon="-2.28055">
        <ele>-0.20000000298023</ele>
        <time>2022-07-14T08:39:54.000Z</time>
      </trkpt>
      <trkpt lat="47.3301" lon="-2.28059">
        <ele>-0.20000000298023</ele>
        <time>2022-07-14T08:39:55.000Z</time>
      </trkpt>
      <trkpt lat="47.32997" lon="-2.28068">
        <ele>-0.20000000298023</ele>
        <time>2022-07-14T08:39:58.000Z</time>
      </trkpt>
      <trkpt lat="47.32991" lon="-2.2807">
        <ele>-0.20000000298023</ele>
        <time>2022-07-14T08:39:59.000Z</time>
      </trkpt>
      <trkpt lat="47.32985" lon="-2.2807">
        <ele>-0.20000000298023</ele>
        <time>2022-07-14T08:40:00.000Z</time>
      </trkpt>
      <trkpt lat="47.32974" lon="-2.2807">
        <ele>-0.20000000298023</ele>
        <time>2022-07-14T08:40:02.000Z</time>
      </trkpt>
      <trkpt lat="47.32969" lon="-2.2807">
        <ele>-0.20000000298023</ele>
        <time>2022-07-14T08:40:03.000Z</time>
      </trkpt>
      <trkpt lat="47.32953" lon="-2.28076">
        <ele>-0.20000000298023</ele>
        <time>2022-07-14T08:40:06.000Z</time>
      </trkpt>
      <trkpt lat="47.32923" lon="-2.28089">
        <ele>-0.20000000298023</ele>
        <time>2022-07-14T08:40:11.000Z</time>
      </trkpt>
      <trkpt lat="47.32912" lon="-2.28096">
        <ele>-0.20000000298023</ele>
        <time>2022-07-14T08:40:13.000Z</time>
      </trkpt>
      <trkpt lat="47.32901" lon="-2.28102">
        <ele>-0.20000000298023</ele>
        <time>2022-07-14T08:40:15.000Z</time>
      </trkpt>
      <trkpt lat="47.3288" lon="-2.28112">
        <ele>-0.20000000298023</ele>
        <time>2022-07-14T08:40:19.000Z</time>
      </trkpt>
      <trkpt lat="47.32869" lon="-2.28117">
        <ele>-0.20000000298023</ele>
        <time>2022-07-14T08:40:21.000Z</time>
      </trkpt>
      <trkpt lat="47.32837" lon="-2.28133">
        <ele>-0.20000000298023</ele>
        <time>2022-07-14T08:40:27.000Z</time>
      </trkpt>
      <trkpt lat="47.32816" lon="-2.28143">
        <ele>-0.20000000298023</ele>
        <time>2022-07-14T08:40:31.000Z</time>
      </trkpt>
      <trkpt lat="47.32806" lon="-2.28148">
        <ele>-0.20000000298023</ele>
        <time>2022-07-14T08:40:33.000Z</time>
      </trkpt>
      <trkpt lat="47.32772" lon="-2.28167">
        <ele>-0.20000000298023</ele>
        <time>2022-07-14T08:40:40.000Z</time>
      </trkpt>
      <trkpt lat="47.3276" lon="-2.28182">
        <ele>-0.20000000298023</ele>
        <time>2022-07-14T08:40:44.000Z</time>
      </trkpt>
      <trkpt lat="47.32757" lon="-2.28197">
        <ele>-0.20000000298023</ele>
        <time>2022-07-14T08:40:48.000Z</time>
      </trkpt>
      <trkpt lat="47.32759" lon="-2.28216">
        <ele>-0.20000000298023</ele>
        <time>2022-07-14T08:40:53.000Z</time>
      </trkpt>
      <trkpt lat="47.32758" lon="-2.28221">
        <ele>-0.20000000298023</ele>
        <time>2022-07-14T08:40:54.000Z</time>
      </trkpt>
      <trkpt lat="47.32755" lon="-2.28231">
        <ele>-0.20000000298023</ele>
        <time>2022-07-14T08:40:56.000Z</time>
      </trkpt>
      <trkpt lat="47.32752" lon="-2.28235">
        <ele>-0.20000000298023</ele>
        <time>2022-07-14T08:40:57.000Z</time>
      </trkpt>
      <trkpt lat="47.32739" lon="-2.28255">
        <ele>-0.20000000298023</ele>
        <time>2022-07-14T08:41:02.000Z</time>
      </trkpt>
      <trkpt lat="47.32718" lon="-2.28283">
        <ele>-0.20000000298023</ele>
        <time>2022-07-14T08:41:09.000Z</time>
      </trkpt>
      <trkpt lat="47.32715" lon="-2.28288">
        <ele>-0.20000000298023</ele>
        <time>2022-07-14T08:41:10.000Z</time>
      </trkpt>
      <trkpt lat="47.327" lon="-2.28305">
        <ele>-0.20000000298023</ele>
        <time>2022-07-14T08:41:14.000Z</time>
      </trkpt>
      <trkpt lat="47.32672" lon="-2.28326">
        <ele>-0.20000000298023</ele>
        <time>2022-07-14T08:41:21.000Z</time>
      </trkpt>
      <trkpt lat="47.32645" lon="-2.28339">
        <ele>-0.20000000298023</ele>
        <time>2022-07-14T08:41:26.000Z</time>
      </trkpt>
      <trkpt lat="47.32638" lon="-2.28338">
        <ele>-0.20000000298023</ele>
        <time>2022-07-14T08:41:27.000Z</time>
      </trkpt>
      <trkpt lat="47.32618" lon="-2.28319">
        <ele>-0.20000000298023</ele>
        <time>2022-07-14T08:41:31.000Z</time>
      </trkpt>
      <trkpt lat="47.32612" lon="-2.28289">
        <ele>-0.20000000298023</ele>
        <time>2022-07-14T08:41:34.000Z</time>
      </trkpt>
      <trkpt lat="47.32611" lon="-2.28279">
        <ele>-0.20000000298023</ele>
        <time>2022-07-14T08:41:35.000Z</time>
      </trkpt>
      <trkpt lat="47.32598" lon="-2.28214">
        <ele>-0.20000000298023</ele>
        <time>2022-07-14T08:41:41.000Z</time>
      </trkpt>
      <trkpt lat="47.32585" lon="-2.28152">
        <ele>-0.20000000298023</ele>
        <time>2022-07-14T08:41:47.000Z</time>
      </trkpt>
      <trkpt lat="47.32569" lon="-2.28082">
        <ele>-0.20000000298023</ele>
        <time>2022-07-14T08:41:54.000Z</time>
      </trkpt>
      <trkpt lat="47.32558" lon="-2.28023">
        <ele>-0.20000000298023</ele>
        <time>2022-07-14T08:42:00.000Z</time>
      </trkpt>
      <trkpt lat="47.32544" lon="-2.27961">
        <ele>-0.20000000298023</ele>
        <time>2022-07-14T08:42:07.000Z</time>
      </trkpt>
      <trkpt lat="47.32533" lon="-2.2791">
        <ele>-0.20000000298023</ele>
        <time>2022-07-14T08:42:13.000Z</time>
      </trkpt>
      <trkpt lat="47.32527" lon="-2.27887">
        <ele>-0.20000000298023</ele>
        <time>2022-07-14T08:42:16.000Z</time>
      </trkpt>
      <trkpt lat="47.32522" lon="-2.27868">
        <ele>-0.20000000298023</ele>
        <time>2022-07-14T08:42:20.000Z</time>
      </trkpt>
      <trkpt lat="47.32519" lon="-2.27857">
        <ele>-0.20000000298023</ele>
        <time>2022-07-14T08:42:22.000Z</time>
      </trkpt>
      <trkpt lat="47.32513" lon="-2.27846">
        <ele>-0.20000000298023</ele>
        <time>2022-07-14T08:42:24.000Z</time>
      </trkpt>
      <trkpt lat="47.32494" lon="-2.27831">
        <ele>-0.20000000298023</ele>
        <time>2022-07-14T08:42:28.000Z</time>
      </trkpt>
      <trkpt lat="47.32475" lon="-2.27829">
        <ele>-0.20000000298023</ele>
        <time>2022-07-14T08:42:31.000Z</time>
      </trkpt>
      <trkpt lat="47.32463" lon="-2.27829">
        <ele>-0.20000000298023</ele>
        <time>2022-07-14T08:42:33.000Z</time>
      </trkpt>
      <trkpt lat="47.32425" lon="-2.27829">
        <ele>-0.20000000298023</ele>
        <time>2022-07-14T08:42:39.000Z</time>
      </trkpt>
      <trkpt lat="47.32379" lon="-2.27832">
        <ele>-0.20000000298023</ele>
        <time>2022-07-14T08:42:46.000Z</time>
      </trkpt>
      <trkpt lat="47.32341" lon="-2.27835">
        <ele>-0.20000000298023</ele>
        <time>2022-07-14T08:42:53.000Z</time>
      </trkpt>
      <trkpt lat="47.32328" lon="-2.27835">
        <ele>-0.20000000298023</ele>
        <time>2022-07-14T08:42:57.000Z</time>
      </trkpt>
      <trkpt lat="47.32321" lon="-2.27828">
        <ele>-0.20000000298023</ele>
        <time>2022-07-14T08:43:01.000Z</time>
      </trkpt>
      <trkpt lat="47.32323" lon="-2.27817">
        <ele>-0.20000000298023</ele>
        <time>2022-07-14T08:43:04.000Z</time>
      </trkpt>
      <trkpt lat="47.32328" lon="-2.27808">
        <ele>-0.20000000298023</ele>
        <time>2022-07-14T08:43:06.000Z</time>
      </trkpt>
      <trkpt lat="47.3233" lon="-2.27801">
        <ele>-0.20000000298023</ele>
        <time>2022-07-14T08:43:08.000Z</time>
      </trkpt>
      <trkpt lat="47.32336" lon="-2.27777">
        <ele>-0.20000000298023</ele>
        <time>2022-07-14T08:43:13.000Z</time>
      </trkpt>
      <trkpt lat="47.32343" lon="-2.27743">
        <ele>-0.20000000298023</ele>
        <time>2022-07-14T08:43:18.000Z</time>
      </trkpt>
      <trkpt lat="47.32345" lon="-2.27722">
        <ele>0.20000000298023</ele>
        <time>2022-07-14T08:43:21.000Z</time>
      </trkpt>
      <trkpt lat="47.32347" lon="-2.27715">
        <ele>0.60000002384186</ele>
        <time>2022-07-14T08:43:22.000Z</time>
      </trkpt>
      <trkpt lat="47.32348" lon="-2.27708">
        <ele>1</ele>
        <time>2022-07-14T08:43:23.000Z</time>
      </trkpt>
      <trkpt lat="47.32348" lon="-2.277">
        <ele>1.3999999761581</ele>
        <time>2022-07-14T08:43:24.000Z</time>
      </trkpt>
      <trkpt lat="47.32349" lon="-2.27693">
        <ele>1.7999999523163</ele>
        <time>2022-07-14T08:43:25.000Z</time>
      </trkpt>
      <trkpt lat="47.3235" lon="-2.27678">
        <ele>1.7999999523163</ele>
        <time>2022-07-14T08:43:28.000Z</time>
      </trkpt>
      <trkpt lat="47.32353" lon="-2.2766">
        <ele>1.7999999523163</ele>
        <time>2022-07-14T08:43:33.000Z</time>
      </trkpt>
      <trkpt lat="47.32359" lon="-2.27633">
        <ele>1.7999999523163</ele>
        <time>2022-07-14T08:43:38.000Z</time>
      </trkpt>
      <trkpt lat="47.32365" lon="-2.27584">
        <ele>1.7999999523163</ele>
        <time>2022-07-14T08:43:44.000Z</time>
      </trkpt>
      <trkpt lat="47.32366" lon="-2.27568">
        <ele>1.7999999523163</ele>
        <time>2022-07-14T08:43:46.000Z</time>
      </trkpt>
      <trkpt lat="47.32365" lon="-2.2755">
        <ele>1.7999999523163</ele>
        <time>2022-07-14T08:43:48.000Z</time>
      </trkpt>
      <trkpt lat="47.3236" lon="-2.27525">
        <ele>1.7999999523163</ele>
        <time>2022-07-14T08:43:51.000Z</time>
      </trkpt>
      <trkpt lat="47.32352" lon="-2.27513">
        <ele>1.7999999523163</ele>
        <time>2022-07-14T08:43:53.000Z</time>
      </trkpt>
      <trkpt lat="47.32335" lon="-2.27508">
        <ele>1.7999999523163</ele>
        <time>2022-07-14T08:43:56.000Z</time>
      </trkpt>
      <trkpt lat="47.32294" lon="-2.27504">
        <ele>1.7999999523163</ele>
        <time>2022-07-14T08:44:02.000Z</time>
      </trkpt>
      <trkpt lat="47.32269" lon="-2.27499">
        <ele>1.7999999523163</ele>
        <time>2022-07-14T08:44:06.000Z</time>
      </trkpt>
      <trkpt lat="47.32263" lon="-2.275">
        <ele>1.7999999523163</ele>
        <time>2022-07-14T08:44:07.000Z</time>
      </trkpt>
      <trkpt lat="47.32243" lon="-2.27496">
        <ele>1.7999999523163</ele>
        <time>2022-07-14T08:44:11.000Z</time>
      </trkpt>
      <trkpt lat="47.32241" lon="-2.27475">
        <ele>1.7999999523163</ele>
        <time>2022-07-14T08:44:14.000Z</time>
      </trkpt>
      <trkpt lat="47.32242" lon="-2.27458">
        <ele>1.7999999523163</ele>
        <time>2022-07-14T08:44:16.000Z</time>
      </trkpt>
      <trkpt lat="47.32247" lon="-2.27428">
        <ele>1.7999999523163</ele>
        <time>2022-07-14T08:44:19.000Z</time>
      </trkpt>
      <trkpt lat="47.32248" lon="-2.27417">
        <ele>1.7999999523163</ele>
        <time>2022-07-14T08:44:20.000Z</time>
      </trkpt>
      <trkpt lat="47.32249" lon="-2.27386">
        <ele>1.7999999523163</ele>
        <time>2022-07-14T08:44:23.000Z</time>
      </trkpt>
      <trkpt lat="47.32248" lon="-2.27339">
        <ele>1.7999999523163</ele>
        <time>2022-07-14T08:44:28.000Z</time>
      </trkpt>
      <trkpt lat="47.32252" lon="-2.27315">
        <ele>1.7999999523163</ele>
        <time>2022-07-14T08:44:31.000Z</time>
      </trkpt>
      <trkpt lat="47.32256" lon="-2.27309">
        <ele>1.7999999523163</ele>
        <time>2022-07-14T08:44:32.000Z</time>
      </trkpt>
      <trkpt lat="47.32269" lon="-2.27297">
        <ele>1.7999999523163</ele>
        <time>2022-07-14T08:44:35.000Z</time>
      </trkpt>
      <trkpt lat="47.32275" lon="-2.27293">
        <ele>1.7999999523163</ele>
        <time>2022-07-14T08:44:36.000Z</time>
      </trkpt>
      <trkpt lat="47.32315" lon="-2.27272">
        <ele>1.7999999523163</ele>
        <time>2022-07-14T08:44:42.000Z</time>
      </trkpt>
      <trkpt lat="47.32321" lon="-2.27268">
        <ele>2.2000000476837</ele>
        <time>2022-07-14T08:44:43.000Z</time>
      </trkpt>
      <trkpt lat="47.32327" lon="-2.27263">
        <ele>2.5999999046326</ele>
        <time>2022-07-14T08:44:44.000Z</time>
      </trkpt>
      <trkpt lat="47.32332" lon="-2.27258">
        <ele>3</ele>
        <time>2022-07-14T08:44:45.000Z</time>
      </trkpt>
      <trkpt lat="47.32338" lon="-2.27253">
        <ele>3.4000000953674</ele>
        <time>2022-07-14T08:44:46.000Z</time>
      </trkpt>
      <trkpt lat="47.32342" lon="-2.27247">
        <ele>4</ele>
        <time>2022-07-14T08:44:47.000Z</time>
      </trkpt>
      <trkpt lat="47.32347" lon="-2.27241">
        <ele>4</ele>
        <time>2022-07-14T08:44:48.000Z</time>
      </trkpt>
      <trkpt lat="47.32358" lon="-2.27222">
        <ele>4</ele>
        <time>2022-07-14T08:44:51.000Z</time>
      </trkpt>
      <trkpt lat="47.32367" lon="-2.272">
        <ele>4</ele>
        <time>2022-07-14T08:44:54.000Z</time>
      </trkpt>
      <trkpt lat="47.32379" lon="-2.27171">
        <ele>4</ele>
        <time>2022-07-14T08:44:58.000Z</time>
      </trkpt>
      <trkpt lat="47.32381" lon="-2.27163">
        <ele>4</ele>
        <time>2022-07-14T08:44:59.000Z</time>
      </trkpt>
      <trkpt lat="47.32384" lon="-2.27135">
        <ele>4</ele>
        <time>2022-07-14T08:45:02.000Z</time>
      </trkpt>
      <trkpt lat="47.32383" lon="-2.27115">
        <ele>4</ele>
        <time>2022-07-14T08:45:04.000Z</time>
      </trkpt>
      <trkpt lat="47.32381" lon="-2.27066">
        <ele>4</ele>
        <time>2022-07-14T08:45:10.000Z</time>
      </trkpt>
      <trkpt lat="47.32381" lon="-2.27043">
        <ele>4</ele>
        <time>2022-07-14T08:45:13.000Z</time>
      </trkpt>
      <trkpt lat="47.32382" lon="-2.2703">
        <ele>4</ele>
        <time>2022-07-14T08:45:15.000Z</time>
      </trkpt>
      <trkpt lat="47.32391" lon="-2.27023">
        <ele>4</ele>
        <time>2022-07-14T08:45:18.000Z</time>
      </trkpt>
      <trkpt lat="47.32395" lon="-2.27023">
        <ele>4</ele>
        <time>2022-07-14T08:45:19.000Z</time>
      </trkpt>
      <trkpt lat="47.32413" lon="-2.27023">
        <ele>4</ele>
        <time>2022-07-14T08:45:23.000Z</time>
      </trkpt>
      <trkpt lat="47.32426" lon="-2.27022">
        <ele>4</ele>
        <time>2022-07-14T08:45:25.000Z</time>
      </trkpt>
      <trkpt lat="47.32437" lon="-2.27013">
        <ele>4</ele>
        <time>2022-07-14T08:45:27.000Z</time>
      </trkpt>
      <trkpt lat="47.32445" lon="-2.26989">
        <ele>4</ele>
        <time>2022-07-14T08:45:30.000Z</time>
      </trkpt>
      <trkpt lat="47.32445" lon="-2.26972">
        <ele>3.5999999046326</ele>
        <time>2022-07-14T08:45:32.000Z</time>
      </trkpt>
      <trkpt lat="47.32444" lon="-2.26964">
        <ele>3</ele>
        <time>2022-07-14T08:45:33.000Z</time>
      </trkpt>
      <trkpt lat="47.32443" lon="-2.26955">
        <ele>2.5999999046326</ele>
        <time>2022-07-14T08:45:34.000Z</time>
      </trkpt>
      <trkpt lat="47.32441" lon="-2.26947">
        <ele>2.2000000476837</ele>
        <time>2022-07-14T08:45:35.000Z</time>
      </trkpt>
      <trkpt lat="47.32439" lon="-2.26938">
        <ele>1.7999999523163</ele>
        <time>2022-07-14T08:45:36.000Z</time>
      </trkpt>
      <trkpt lat="47.32432" lon="-2.26902">
        <ele>1.7999999523163</ele>
        <time>2022-07-14T08:45:40.000Z</time>
      </trkpt>
      <trkpt lat="47.32425" lon="-2.26843">
        <ele>1.7999999523163</ele>
        <time>2022-07-14T08:45:46.000Z</time>
      </trkpt>
      <trkpt lat="47.32417" lon="-2.26768">
        <ele>1.7999999523163</ele>
        <time>2022-07-14T08:45:53.000Z</time>
      </trkpt>
      <trkpt lat="47.32416" lon="-2.26706">
        <ele>1.7999999523163</ele>
        <time>2022-07-14T08:45:59.000Z</time>
      </trkpt>
      <trkpt lat="47.32413" lon="-2.26667">
        <ele>1.7999999523163</ele>
        <time>2022-07-14T08:46:03.000Z</time>
      </trkpt>
      <trkpt lat="47.3241" lon="-2.26657">
        <ele>1.7999999523163</ele>
        <time>2022-07-14T08:46:04.000Z</time>
      </trkpt>
      <trkpt lat="47.32395" lon="-2.2661">
        <ele>1.7999999523163</ele>
        <time>2022-07-14T08:46:09.000Z</time>
      </trkpt>
      <trkpt lat="47.32383" lon="-2.26561">
        <ele>1.7999999523163</ele>
        <time>2022-07-14T08:46:14.000Z</time>
      </trkpt>
      <trkpt lat="47.32382" lon="-2.26551">
        <ele>1.7999999523163</ele>
        <time>2022-07-14T08:46:15.000Z</time>
      </trkpt>
      <trkpt lat="47.32372" lon="-2.26529">
        <ele>1.7999999523163</ele>
        <time>2022-07-14T08:46:18.000Z</time>
      </trkpt>
      <trkpt lat="47.3236" lon="-2.26525">
        <ele>1.7999999523163</ele>
        <time>2022-07-14T08:46:21.000Z</time>
      </trkpt>
      <trkpt lat="47.32339" lon="-2.26537">
        <ele>1.7999999523163</ele>
        <time>2022-07-14T08:46:25.000Z</time>
      </trkpt>
      <trkpt lat="47.32318" lon="-2.26562">
        <ele>1.7999999523163</ele>
        <time>2022-07-14T08:46:29.000Z</time>
      </trkpt>
      <trkpt lat="47.32314" lon="-2.26569">
        <ele>1.7999999523163</ele>
        <time>2022-07-14T08:46:30.000Z</time>
      </trkpt>
      <trkpt lat="47.32298" lon="-2.2659">
        <ele>1.7999999523163</ele>
        <time>2022-07-14T08:46:33.000Z</time>
      </trkpt>
      <trkpt lat="47.32287" lon="-2.26599">
        <ele>1.7999999523163</ele>
        <time>2022-07-14T08:46:35.000Z</time>
      </trkpt>
      <trkpt lat="47.32267" lon="-2.26604">
        <ele>1.7999999523163</ele>
        <time>2022-07-14T08:46:38.000Z</time>
      </trkpt>
      <trkpt lat="47.32261" lon="-2.26604">
        <ele>1.7999999523163</ele>
        <time>2022-07-14T08:46:39.000Z</time>
      </trkpt>
      <trkpt lat="47.32214" lon="-2.26608">
        <ele>2.2000000476837</ele>
        <time>2022-07-14T08:46:46.000Z</time>
      </trkpt>
      <trkpt lat="47.32207" lon="-2.26608">
        <ele>2.5999999046326</ele>
        <time>2022-07-14T08:46:47.000Z</time>
      </trkpt>
      <trkpt lat="47.322" lon="-2.26609">
        <ele>3.2000000476837</ele>
        <time>2022-07-14T08:46:48.000Z</time>
      </trkpt>
      <trkpt lat="47.32193" lon="-2.26609">
        <ele>3.5999999046326</ele>
        <time>2022-07-14T08:46:49.000Z</time>
      </trkpt>
      <trkpt lat="47.32186" lon="-2.26608">
        <ele>4</ele>
        <time>2022-07-14T08:46:50.000Z</time>
      </trkpt>
      <trkpt lat="47.32172" lon="-2.26608">
        <ele>4</ele>
        <time>2022-07-14T08:46:52.000Z</time>
      </trkpt>
      <trkpt lat="47.32141" lon="-2.26603">
        <ele>4</ele>
        <time>2022-07-14T08:46:56.000Z</time>
      </trkpt>
      <trkpt lat="47.32104" lon="-2.26589">
        <ele>4</ele>
        <time>2022-07-14T08:47:01.000Z</time>
      </trkpt>
      <trkpt lat="47.32097" lon="-2.26588">
        <ele>4</ele>
        <time>2022-07-14T08:47:02.000Z</time>
      </trkpt>
      <trkpt lat="47.32082" lon="-2.26586">
        <ele>4</ele>
        <time>2022-07-14T08:47:04.000Z</time>
      </trkpt>
      <trkpt lat="47.32075" lon="-2.26586">
        <ele>4</ele>
        <time>2022-07-14T08:47:05.000Z</time>
      </trkpt>
      <trkpt lat="47.32062" lon="-2.26588">
        <ele>4</ele>
        <time>2022-07-14T08:47:07.000Z</time>
      </trkpt>
      <trkpt lat="47.32048" lon="-2.26595">
        <ele>4</ele>
        <time>2022-07-14T08:47:09.000Z</time>
      </trkpt>
      <trkpt lat="47.32009" lon="-2.26619">
        <ele>4</ele>
        <time>2022-07-14T08:47:15.000Z</time>
      </trkpt>
      <trkpt lat="47.3198" lon="-2.26637">
        <ele>4.4000000953674</ele>
        <time>2022-07-14T08:47:20.000Z</time>
      </trkpt>
      <trkpt lat="47.31974" lon="-2.26642">
        <ele>4.8000001907349</ele>
        <time>2022-07-14T08:47:21.000Z</time>
      </trkpt>
      <trkpt lat="47.31969" lon="-2.26645">
        <ele>5.1999998092651</ele>
        <time>2022-07-14T08:47:22.000Z</time>
      </trkpt>
      <trkpt lat="47.31963" lon="-2.26649">
        <ele>5.5999999046326</ele>
        <time>2022-07-14T08:47:23.000Z</time>
      </trkpt>
      <trkpt lat="47.31958" lon="-2.26653">
        <ele>6.1999998092651</ele>
        <time>2022-07-14T08:47:24.000Z</time>
      </trkpt>
      <trkpt lat="47.31938" lon="-2.26669">
        <ele>6.1999998092651</ele>
        <time>2022-07-14T08:47:28.000Z</time>
      </trkpt>
      <trkpt lat="47.31903" lon="-2.26698">
        <ele>6.1999998092651</ele>
        <time>2022-07-14T08:47:35.000Z</time>
      </trkpt>
      <trkpt lat="47.31868" lon="-2.26727">
        <ele>6.1999998092651</ele>
        <time>2022-07-14T08:47:42.000Z</time>
      </trkpt>
      <trkpt lat="47.31847" lon="-2.26738">
        <ele>6.1999998092651</ele>
        <time>2022-07-14T08:47:47.000Z</time>
      </trkpt>
      <trkpt lat="47.31826" lon="-2.26724">
        <ele>6.1999998092651</ele>
        <time>2022-07-14T08:47:51.000Z</time>
      </trkpt>
      <trkpt lat="47.31815" lon="-2.26705">
        <ele>6.1999998092651</ele>
        <time>2022-07-14T08:47:54.000Z</time>
      </trkpt>
      <trkpt lat="47.31812" lon="-2.26699">
        <ele>6.1999998092651</ele>
        <time>2022-07-14T08:47:55.000Z</time>
      </trkpt>
      <trkpt lat="47.31797" lon="-2.26695">
        <ele>6.1999998092651</ele>
        <time>2022-07-14T08:47:58.000Z</time>
      </trkpt>
      <trkpt lat="47.31785" lon="-2.26698">
        <ele>6.1999998092651</ele>
        <time>2022-07-14T08:48:00.000Z</time>
      </trkpt>
      <trkpt lat="47.31762" lon="-2.26706">
        <ele>6.1999998092651</ele>
        <time>2022-07-14T08:48:03.000Z</time>
      </trkpt>
      <trkpt lat="47.31754" lon="-2.2671">
        <ele>6.1999998092651</ele>
        <time>2022-07-14T08:48:04.000Z</time>
      </trkpt>
      <trkpt lat="47.3173" lon="-2.26717">
        <ele>5.5999999046326</ele>
        <time>2022-07-14T08:48:07.000Z</time>
      </trkpt>
      <trkpt lat="47.31722" lon="-2.26719">
        <ele>5.1999998092651</ele>
        <time>2022-07-14T08:48:08.000Z</time>
      </trkpt>
      <trkpt lat="47.31715" lon="-2.26721">
        <ele>4.8000001907349</ele>
        <time>2022-07-14T08:48:09.000Z</time>
      </trkpt>
      <trkpt lat="47.31707" lon="-2.26723">
        <ele>4.4000000953674</ele>
        <time>2022-07-14T08:48:10.000Z</time>
      </trkpt>
      <trkpt lat="47.317" lon="-2.26724">
        <ele>4</ele>
        <time>2022-07-14T08:48:11.000Z</time>
      </trkpt>
      <trkpt lat="47.31692" lon="-2.26725">
        <ele>4</ele>
        <time>2022-07-14T08:48:12.000Z</time>
      </trkpt>
      <trkpt lat="47.31662" lon="-2.26731">
        <ele>4</ele>
        <time>2022-07-14T08:48:16.000Z</time>
      </trkpt>
      <trkpt lat="47.31656" lon="-2.26732">
        <ele>4</ele>
        <time>2022-07-14T08:48:17.000Z</time>
      </trkpt>
      <trkpt lat="47.31641" lon="-2.26738">
        <ele>4</ele>
        <time>2022-07-14T08:48:20.000Z</time>
      </trkpt>
      <trkpt lat="47.31635" lon="-2.26743">
        <ele>4</ele>
        <time>2022-07-14T08:48:21.000Z</time>
      </trkpt>
      <trkpt lat="47.31622" lon="-2.26751">
        <ele>4</ele>
        <time>2022-07-14T08:48:23.000Z</time>
      </trkpt>
      <trkpt lat="47.31607" lon="-2.26755">
        <ele>4</ele>
        <time>2022-07-14T08:48:25.000Z</time>
      </trkpt>
      <trkpt lat="47.31589" lon="-2.26755">
        <ele>3.5999999046326</ele>
        <time>2022-07-14T08:48:28.000Z</time>
      </trkpt>
      <trkpt lat="47.31584" lon="-2.26755">
        <ele>3.2000000476837</ele>
        <time>2022-07-14T08:48:29.000Z</time>
      </trkpt>
      <trkpt lat="47.3158" lon="-2.26756">
        <ele>2.7999999523163</ele>
        <time>2022-07-14T08:48:30.000Z</time>
      </trkpt>
      <trkpt lat="47.31576" lon="-2.26757">
        <ele>2.4000000953674</ele>
        <time>2022-07-14T08:48:31.000Z</time>
      </trkpt>
      <trkpt lat="47.31573" lon="-2.26761">
        <ele>2</ele>
        <time>2022-07-14T08:48:32.000Z</time>
      </trkpt>
      <trkpt lat="47.31571" lon="-2.26766">
        <ele>2</ele>
        <time>2022-07-14T08:48:33.000Z</time>
      </trkpt>
      <trkpt lat="47.31567" lon="-2.26778">
        <ele>2</ele>
        <time>2022-07-14T08:48:35.000Z</time>
      </trkpt>
      <trkpt lat="47.3156" lon="-2.26797">
        <ele>2</ele>
        <time>2022-07-14T08:48:38.000Z</time>
      </trkpt>
      <trkpt lat="47.31557" lon="-2.26805">
        <ele>2</ele>
        <time>2022-07-14T08:48:39.000Z</time>
      </trkpt>
      <trkpt lat="47.31547" lon="-2.26829">
        <ele>2</ele>
        <time>2022-07-14T08:48:42.000Z</time>
      </trkpt>
      <trkpt lat="47.31543" lon="-2.26837">
        <ele>2</ele>
        <time>2022-07-14T08:48:43.000Z</time>
      </trkpt>
      <trkpt lat="47.31537" lon="-2.26852">
        <ele>2</ele>
        <time>2022-07-14T08:48:45.000Z</time>
      </trkpt>
      <trkpt lat="47.31531" lon="-2.26869">
        <ele>2</ele>
        <time>2022-07-14T08:48:47.000Z</time>
      </trkpt>
      <trkpt lat="47.3152" lon="-2.269">
        <ele>2</ele>
        <time>2022-07-14T08:48:52.000Z</time>
      </trkpt>
      <trkpt lat="47.31515" lon="-2.26921">
        <ele>2</ele>
        <time>2022-07-14T08:48:55.000Z</time>
      </trkpt>
      <trkpt lat="47.3151" lon="-2.26934">
        <ele>2</ele>
        <time>2022-07-14T08:48:57.000Z</time>
      </trkpt>
      <trkpt lat="47.31506" lon="-2.26953">
        <ele>2</ele>
        <time>2022-07-14T08:49:01.000Z</time>
      </trkpt>
      <trkpt lat="47.31503" lon="-2.26961">
        <ele>2</ele>
        <time>2022-07-14T08:49:03.000Z</time>
      </trkpt>
      <trkpt lat="47.31493" lon="-2.26979">
        <ele>2</ele>
        <time>2022-07-14T08:49:37.000Z</time>
      </trkpt>
      <trkpt lat="47.31491" lon="-2.26981">
        <ele>2</ele>
        <time>2022-07-14T08:49:38.000Z</time>
      </trkpt>
      <trkpt lat="47.31475" lon="-2.26994">
        <ele>2</ele>
        <time>2022-07-14T08:49:44.000Z</time>
      </trkpt>
      <trkpt lat="47.3146" lon="-2.2701">
        <ele>2</ele>
        <time>2022-07-14T08:49:48.000Z</time>
      </trkpt>
      <trkpt lat="47.31455" lon="-2.27014">
        <ele>2</ele>
        <time>2022-07-14T08:49:49.000Z</time>
      </trkpt>
      <trkpt lat="47.31426" lon="-2.27034">
        <ele>2</ele>
        <time>2022-07-14T08:49:55.000Z</time>
      </trkpt>
      <trkpt lat="47.31416" lon="-2.27041">
        <ele>2.4000000953674</ele>
        <time>2022-07-14T08:49:57.000Z</time>
      </trkpt>
      <trkpt lat="47.3141" lon="-2.27045">
        <ele>2.7999999523163</ele>
        <time>2022-07-14T08:49:58.000Z</time>
      </trkpt>
      <trkpt lat="47.31405" lon="-2.27049">
        <ele>3.2000000476837</ele>
        <time>2022-07-14T08:49:59.000Z</time>
      </trkpt>
      <trkpt lat="47.31399" lon="-2.27053">
        <ele>3.5999999046326</ele>
        <time>2022-07-14T08:50:00.000Z</time>
      </trkpt>
      <trkpt lat="47.31393" lon="-2.27056">
        <ele>4</ele>
        <time>2022-07-14T08:50:01.000Z</time>
      </trkpt>
      <trkpt lat="47.31382" lon="-2.27062">
        <ele>4</ele>
        <time>2022-07-14T08:50:03.000Z</time>
      </trkpt>
      <trkpt lat="47.31339" lon="-2.27076">
        <ele>4</ele>
        <time>2022-07-14T08:50:10.000Z</time>
      </trkpt>
      <trkpt lat="47.31309" lon="-2.27086">
        <ele>4.4000000953674</ele>
        <time>2022-07-14T08:50:15.000Z</time>
      </trkpt>
      <trkpt lat="47.31303" lon="-2.27088">
        <ele>4.8000001907349</ele>
        <time>2022-07-14T08:50:16.000Z</time>
      </trkpt>
      <trkpt lat="47.31298" lon="-2.2709">
        <ele>5.1999998092651</ele>
        <time>2022-07-14T08:50:17.000Z</time>
      </trkpt>
      <trkpt lat="47.31292" lon="-2.27092">
        <ele>5.5999999046326</ele>
        <time>2022-07-14T08:50:18.000Z</time>
      </trkpt>
      <trkpt lat="47.31287" lon="-2.27095">
        <ele>6.1999998092651</ele>
        <time>2022-07-14T08:50:19.000Z</time>
      </trkpt>
      <trkpt lat="47.31278" lon="-2.27104">
        <ele>6.1999998092651</ele>
        <time>2022-07-14T08:50:21.000Z</time>
      </trkpt>
      <trkpt lat="47.31276" lon="-2.27111">
        <ele>6.1999998092651</ele>
        <time>2022-07-14T08:50:22.000Z</time>
      </trkpt>
      <trkpt lat="47.31276" lon="-2.27138">
        <ele>6.1999998092651</ele>
        <time>2022-07-14T08:50:25.000Z</time>
      </trkpt>
      <trkpt lat="47.3128" lon="-2.27157">
        <ele>6.1999998092651</ele>
        <time>2022-07-14T08:50:27.000Z</time>
      </trkpt>
      <trkpt lat="47.31285" lon="-2.27186">
        <ele>6.1999998092651</ele>
        <time>2022-07-14T08:50:30.000Z</time>
      </trkpt>
      <trkpt lat="47.31294" lon="-2.27228">
        <ele>5.5999999046326</ele>
        <time>2022-07-14T08:50:34.000Z</time>
      </trkpt>
      <trkpt lat="47.31296" lon="-2.27238">
        <ele>5.1999998092651</ele>
        <time>2022-07-14T08:50:35.000Z</time>
      </trkpt>
      <trkpt lat="47.31298" lon="-2.27248">
        <ele>4.8000001907349</ele>
        <time>2022-07-14T08:50:36.000Z</time>
      </trkpt>
      <trkpt lat="47.31301" lon="-2.27259">
        <ele>4.4000000953674</ele>
        <time>2022-07-14T08:50:37.000Z</time>
      </trkpt>
      <trkpt lat="47.31304" lon="-2.27269">
        <ele>4</ele>
        <time>2022-07-14T08:50:38.000Z</time>
      </trkpt>
      <trkpt lat="47.31308" lon="-2.27279">
        <ele>4</ele>
        <time>2022-07-14T08:50:39.000Z</time>
      </trkpt>
      <trkpt lat="47.31317" lon="-2.27298">
        <ele>4</ele>
        <time>2022-07-14T08:50:42.000Z</time>
      </trkpt>
      <trkpt lat="47.31322" lon="-2.27307">
        <ele>4</ele>
        <time>2022-07-14T08:50:43.000Z</time>
      </trkpt>
      <trkpt lat="47.31333" lon="-2.27324">
        <ele>3.5999999046326</ele>
        <time>2022-07-14T08:50:45.000Z</time>
      </trkpt>
      <trkpt lat="47.31338" lon="-2.27332">
        <ele>3.2000000476837</ele>
        <time>2022-07-14T08:50:46.000Z</time>
      </trkpt>
      <trkpt lat="47.31343" lon="-2.2734">
        <ele>2.7999999523163</ele>
        <time>2022-07-14T08:50:47.000Z</time>
      </trkpt>
      <trkpt lat="47.31349" lon="-2.27348">
        <ele>2.4000000953674</ele>
        <time>2022-07-14T08:50:48.000Z</time>
      </trkpt>
      <trkpt lat="47.31354" lon="-2.27356">
        <ele>1.7999999523163</ele>
        <time>2022-07-14T08:50:49.000Z</time>
      </trkpt>
      <trkpt lat="47.3139" lon="-2.27405">
        <ele>1.7999999523163</ele>
        <time>2022-07-14T08:50:56.000Z</time>
      </trkpt>
      <trkpt lat="47.31411" lon="-2.27429">
        <ele>1.7999999523163</ele>
        <time>2022-07-14T08:51:00.000Z</time>
      </trkpt>
      <trkpt lat="47.31423" lon="-2.27436">
        <ele>1.7999999523163</ele>
        <time>2022-07-14T08:51:02.000Z</time>
      </trkpt>
      <trkpt lat="47.31447" lon="-2.27454">
        <ele>1.7999999523163</ele>
        <time>2022-07-14T08:51:07.000Z</time>
      </trkpt>
      <trkpt lat="47.31451" lon="-2.2746">
        <ele>1.7999999523163</ele>
        <time>2022-07-14T08:51:08.000Z</time>
      </trkpt>
      <trkpt lat="47.31458" lon="-2.27482">
        <ele>1.7999999523163</ele>
        <time>2022-07-14T08:51:12.000Z</time>
      </trkpt>
      <trkpt lat="47.3146" lon="-2.27488">
        <ele>1.7999999523163</ele>
        <time>2022-07-14T08:51:13.000Z</time>
      </trkpt>
      <trkpt lat="47.31467" lon="-2.27509">
        <ele>1.7999999523163</ele>
        <time>2022-07-14T08:51:17.000Z</time>
      </trkpt>
      <trkpt lat="47.3147" lon="-2.27515">
        <ele>1.7999999523163</ele>
        <time>2022-07-14T08:51:18.000Z</time>
      </trkpt>
      <trkpt lat="47.31486" lon="-2.27546">
        <ele>1.7999999523163</ele>
        <time>2022-07-14T08:51:23.000Z</time>
      </trkpt>
      <trkpt lat="47.31504" lon="-2.27576">
        <ele>1.7999999523163</ele>
        <time>2022-07-14T08:51:28.000Z</time>
      </trkpt>
      <trkpt lat="47.3151" lon="-2.27599">
        <ele>1.7999999523163</ele>
        <time>2022-07-14T08:51:32.000Z</time>
      </trkpt>
      <trkpt lat="47.31504" lon="-2.27623">
        <ele>1.7999999523163</ele>
        <time>2022-07-14T08:51:36.000Z</time>
      </trkpt>
      <trkpt lat="47.31497" lon="-2.27638">
        <ele>1.7999999523163</ele>
        <time>2022-07-14T08:51:38.000Z</time>
      </trkpt>
      <trkpt lat="47.31484" lon="-2.2766">
        <ele>1.7999999523163</ele>
        <time>2022-07-14T08:51:41.000Z</time>
      </trkpt>
      <trkpt lat="47.31462" lon="-2.27686">
        <ele>1.7999999523163</ele>
        <time>2022-07-14T08:51:45.000Z</time>
      </trkpt>
      <trkpt lat="47.31456" lon="-2.27692">
        <ele>1.7999999523163</ele>
        <time>2022-07-14T08:51:46.000Z</time>
      </trkpt>
      <trkpt lat="47.31425" lon="-2.27719">
        <ele>1.7999999523163</ele>
        <time>2022-07-14T08:51:51.000Z</time>
      </trkpt>
      <trkpt lat="47.31418" lon="-2.27725">
        <ele>1.7999999523163</ele>
        <time>2022-07-14T08:51:52.000Z</time>
      </trkpt>
      <trkpt lat="47.31405" lon="-2.27733">
        <ele>1.7999999523163</ele>
        <time>2022-07-14T08:51:54.000Z</time>
      </trkpt>
      <trkpt lat="47.31387" lon="-2.2774">
        <ele>1.7999999523163</ele>
        <time>2022-07-14T08:51:57.000Z</time>
      </trkpt>
      <trkpt lat="47.31348" lon="-2.27752">
        <ele>1.7999999523163</ele>
        <time>2022-07-14T08:52:03.000Z</time>
      </trkpt>
      <trkpt lat="47.31308" lon="-2.2776">
        <ele>1.7999999523163</ele>
        <time>2022-07-14T08:52:09.000Z</time>
      </trkpt>
      <trkpt lat="47.31272" lon="-2.27766">
        <ele>1.7999999523163</ele>
        <time>2022-07-14T08:52:14.000Z</time>
      </trkpt>
      <trkpt lat="47.31252" lon="-2.27767">
        <ele>1.7999999523163</ele>
        <time>2022-07-14T08:52:17.000Z</time>
      </trkpt>
      <trkpt lat="47.31245" lon="-2.27766">
        <ele>1.7999999523163</ele>
        <time>2022-07-14T08:52:18.000Z</time>
      </trkpt>
      <trkpt lat="47.31229" lon="-2.2775">
        <ele>1.7999999523163</ele>
        <time>2022-07-14T08:52:21.000Z</time>
      </trkpt>
      <trkpt lat="47.31221" lon="-2.2773">
        <ele>1.7999999523163</ele>
        <time>2022-07-14T08:52:24.000Z</time>
      </trkpt>
      <trkpt lat="47.31209" lon="-2.27728">
        <ele>1.7999999523163</ele>
        <time>2022-07-14T08:52:27.000Z</time>
      </trkpt>
      <trkpt lat="47.31204" lon="-2.27728">
        <ele>1.7999999523163</ele>
        <time>2022-07-14T08:52:28.000Z</time>
      </trkpt>
      <trkpt lat="47.31198" lon="-2.27731">
        <ele>1.7999999523163</ele>
        <time>2022-07-14T08:52:29.000Z</time>
      </trkpt>
      <trkpt lat="47.31186" lon="-2.27737">
        <ele>1.7999999523163</ele>
        <time>2022-07-14T08:52:31.000Z</time>
      </trkpt>
      <trkpt lat="47.3118" lon="-2.27739">
        <ele>1.7999999523163</ele>
        <time>2022-07-14T08:52:32.000Z</time>
      </trkpt>
      <trkpt lat="47.31161" lon="-2.2774">
        <ele>1.7999999523163</ele>
        <time>2022-07-14T08:52:35.000Z</time>
      </trkpt>
      <trkpt lat="47.31156" lon="-2.27742">
        <ele>1.7999999523163</ele>
        <time>2022-07-14T08:52:36.000Z</time>
      </trkpt>
      <trkpt lat="47.31154" lon="-2.27745">
        <ele>1.7999999523163</ele>
        <time>2022-07-14T08:52:37.000Z</time>
      </trkpt>
      <trkpt lat="47.31156" lon="-2.27765">
        <ele>1.7999999523163</ele>
        <time>2022-07-14T08:52:40.000Z</time>
      </trkpt>
      <trkpt lat="47.31161" lon="-2.27798">
        <ele>1.7999999523163</ele>
        <time>2022-07-14T08:52:44.000Z</time>
      </trkpt>
      <trkpt lat="47.31165" lon="-2.27821">
        <ele>1.7999999523163</ele>
        <time>2022-07-14T08:52:47.000Z</time>
      </trkpt>
      <trkpt lat="47.31164" lon="-2.27827">
        <ele>1.7999999523163</ele>
        <time>2022-07-14T08:52:48.000Z</time>
      </trkpt>
      <trkpt lat="47.31156" lon="-2.27849">
        <ele>1.7999999523163</ele>
        <time>2022-07-14T08:52:52.000Z</time>
      </trkpt>
      <trkpt lat="47.31143" lon="-2.27873">
        <ele>1.7999999523163</ele>
        <time>2022-07-14T08:52:56.000Z</time>
      </trkpt>
      <trkpt lat="47.31139" lon="-2.27879">
        <ele>1.7999999523163</ele>
        <time>2022-07-14T08:52:57.000Z</time>
      </trkpt>
      <trkpt lat="47.31118" lon="-2.27912">
        <ele>1.7999999523163</ele>
        <time>2022-07-14T08:53:01.000Z</time>
      </trkpt>
      <trkpt lat="47.31088" lon="-2.27958">
        <ele>1.7999999523163</ele>
        <time>2022-07-14T08:53:06.000Z</time>
      </trkpt>
      <trkpt lat="47.31048" lon="-2.28013">
        <ele>1.7999999523163</ele>
        <time>2022-07-14T08:53:13.000Z</time>
      </trkpt>
      <trkpt lat="47.31034" lon="-2.28028">
        <ele>1.7999999523163</ele>
        <time>2022-07-14T08:53:16.000Z</time>
      </trkpt>
      <trkpt lat="47.31029" lon="-2.28033">
        <ele>1.7999999523163</ele>
        <time>2022-07-14T08:53:17.000Z</time>
      </trkpt>
      <trkpt lat="47.30993" lon="-2.28062">
        <ele>1.7999999523163</ele>
        <time>2022-07-14T08:53:23.000Z</time>
      </trkpt>
      <trkpt lat="47.30972" lon="-2.28084">
        <ele>1.7999999523163</ele>
        <time>2022-07-14T08:53:26.000Z</time>
      </trkpt>
      <trkpt lat="47.3096" lon="-2.28101">
        <ele>1.7999999523163</ele>
        <time>2022-07-14T08:53:28.000Z</time>
      </trkpt>
      <trkpt lat="47.30936" lon="-2.28134">
        <ele>1.7999999523163</ele>
        <time>2022-07-14T08:53:33.000Z</time>
      </trkpt>
      <trkpt lat="47.30908" lon="-2.28174">
        <ele>1.7999999523163</ele>
        <time>2022-07-14T08:53:39.000Z</time>
      </trkpt>
      <trkpt lat="47.30887" lon="-2.28204">
        <ele>1.7999999523163</ele>
        <time>2022-07-14T08:53:44.000Z</time>
      </trkpt>
      <trkpt lat="47.30883" lon="-2.2821">
        <ele>1.7999999523163</ele>
        <time>2022-07-14T08:53:45.000Z</time>
      </trkpt>
      <trkpt lat="47.30868" lon="-2.28228">
        <ele>1.7999999523163</ele>
        <time>2022-07-14T08:53:48.000Z</time>
      </trkpt>
      <trkpt lat="47.30862" lon="-2.28233">
        <ele>1.7999999523163</ele>
        <time>2022-07-14T08:53:49.000Z</time>
      </trkpt>
      <trkpt lat="47.30838" lon="-2.28248">
        <ele>1.7999999523163</ele>
        <time>2022-07-14T08:53:53.000Z</time>
      </trkpt>
      <trkpt lat="47.30804" lon="-2.28253">
        <ele>1.7999999523163</ele>
        <time>2022-07-14T08:53:59.000Z</time>
      </trkpt>
      <trkpt lat="47.30797" lon="-2.28252">
        <ele>1.7999999523163</ele>
        <time>2022-07-14T08:54:00.000Z</time>
      </trkpt>
      <trkpt lat="47.30785" lon="-2.28246">
        <ele>1.7999999523163</ele>
        <time>2022-07-14T08:54:02.000Z</time>
      </trkpt>
      <trkpt lat="47.30766" lon="-2.28233">
        <ele>1.7999999523163</ele>
        <time>2022-07-14T08:54:05.000Z</time>
      </trkpt>
      <trkpt lat="47.30746" lon="-2.2821">
        <ele>1.7999999523163</ele>
        <time>2022-07-14T08:54:09.000Z</time>
      </trkpt>
      <trkpt lat="47.30741" lon="-2.28204">
        <ele>1.7999999523163</ele>
        <time>2022-07-14T08:54:10.000Z</time>
      </trkpt>
      <trkpt lat="47.30706" lon="-2.28164">
        <ele>1.7999999523163</ele>
        <time>2022-07-14T08:54:16.000Z</time>
      </trkpt>
      <trkpt lat="47.30694" lon="-2.28167">
        <ele>1.7999999523163</ele>
        <time>2022-07-14T08:54:18.000Z</time>
      </trkpt>
      <trkpt lat="47.30688" lon="-2.28179">
        <ele>1.7999999523163</ele>
        <time>2022-07-14T08:54:20.000Z</time>
      </trkpt>
      <trkpt lat="47.30685" lon="-2.28194">
        <ele>1.7999999523163</ele>
        <time>2022-07-14T08:54:22.000Z</time>
      </trkpt>
      <trkpt lat="47.30681" lon="-2.28218">
        <ele>1.7999999523163</ele>
        <time>2022-07-14T08:54:25.000Z</time>
      </trkpt>
      <trkpt lat="47.30677" lon="-2.28241">
        <ele>1.7999999523163</ele>
        <time>2022-07-14T08:54:28.000Z</time>
      </trkpt>
      <trkpt lat="47.30673" lon="-2.28248">
        <ele>1.7999999523163</ele>
        <time>2022-07-14T08:54:29.000Z</time>
      </trkpt>
      <trkpt lat="47.30655" lon="-2.28261">
        <ele>1.7999999523163</ele>
        <time>2022-07-14T08:54:32.000Z</time>
      </trkpt>
      <trkpt lat="47.30623" lon="-2.28272">
        <ele>1.7999999523163</ele>
        <time>2022-07-14T08:54:37.000Z</time>
      </trkpt>
      <trkpt lat="47.3061" lon="-2.28278">
        <ele>1.7999999523163</ele>
        <time>2022-07-14T08:54:39.000Z</time>
      </trkpt>
      <trkpt lat="47.30589" lon="-2.28287">
        <ele>1.7999999523163</ele>
        <time>2022-07-14T08:54:42.000Z</time>
      </trkpt>
      <trkpt lat="47.30549" lon="-2.28308">
        <ele>1.7999999523163</ele>
        <time>2022-07-14T08:54:48.000Z</time>
      </trkpt>
      <trkpt lat="47.30517" lon="-2.28332">
        <ele>1.7999999523163</ele>
        <time>2022-07-14T08:54:53.000Z</time>
      </trkpt>
      <trkpt lat="47.30506" lon="-2.2834">
        <ele>1.7999999523163</ele>
        <time>2022-07-14T08:54:55.000Z</time>
      </trkpt>
      <trkpt lat="47.30489" lon="-2.28351">
        <ele>1.7999999523163</ele>
        <time>2022-07-14T08:54:58.000Z</time>
      </trkpt>
      <trkpt lat="47.30457" lon="-2.2837">
        <ele>1.7999999523163</ele>
        <time>2022-07-14T08:55:03.000Z</time>
      </trkpt>
      <trkpt lat="47.30444" lon="-2.2838">
        <ele>1.7999999523163</ele>
        <time>2022-07-14T08:55:05.000Z</time>
      </trkpt>
      <trkpt lat="47.30425" lon="-2.28394">
        <ele>1.7999999523163</ele>
        <time>2022-07-14T08:55:08.000Z</time>
      </trkpt>
      <trkpt lat="47.30385" lon="-2.28419">
        <ele>1.7999999523163</ele>
        <time>2022-07-14T08:55:15.000Z</time>
      </trkpt>
      <trkpt lat="47.30348" lon="-2.28451">
        <ele>1.7999999523163</ele>
        <time>2022-07-14T08:55:22.000Z</time>
      </trkpt>
      <trkpt lat="47.30321" lon="-2.2848">
        <ele>1.7999999523163</ele>
        <time>2022-07-14T08:55:27.000Z</time>
      </trkpt>
      <trkpt lat="47.303" lon="-2.28498">
        <ele>1.7999999523163</ele>
        <time>2022-07-14T08:55:31.000Z</time>
      </trkpt>
      <trkpt lat="47.30296" lon="-2.28501">
        <ele>1.7999999523163</ele>
        <time>2022-07-14T08:55:32.000Z</time>
      </trkpt>
      <trkpt lat="47.30287" lon="-2.28506">
        <ele>1.7999999523163</ele>
        <time>2022-07-14T08:55:36.000Z</time>
      </trkpt>
      <trkpt lat="47.30275" lon="-2.28512">
        <ele>1.7999999523163</ele>
        <time>2022-07-14T08:55:42.000Z</time>
      </trkpt>
      <trkpt lat="47.30263" lon="-2.28517">
        <ele>1.7999999523163</ele>
        <time>2022-07-14T08:55:47.000Z</time>
      </trkpt>
      <trkpt lat="47.30244" lon="-2.28516">
        <ele>1.7999999523163</ele>
        <time>2022-07-14T08:55:52.000Z</time>
      </trkpt>
      <trkpt lat="47.30223" lon="-2.28509">
        <ele>1.7999999523163</ele>
        <time>2022-07-14T08:55:56.000Z</time>
      </trkpt>
      <trkpt lat="47.30217" lon="-2.28507">
        <ele>2.4000000953674</ele>
        <time>2022-07-14T08:55:57.000Z</time>
      </trkpt>
      <trkpt lat="47.30212" lon="-2.28505">
        <ele>2.7999999523163</ele>
        <time>2022-07-14T08:55:58.000Z</time>
      </trkpt>
      <trkpt lat="47.30206" lon="-2.28503">
        <ele>3.2000000476837</ele>
        <time>2022-07-14T08:55:59.000Z</time>
      </trkpt>
      <trkpt lat="47.302" lon="-2.285">
        <ele>3.5999999046326</ele>
        <time>2022-07-14T08:56:00.000Z</time>
      </trkpt>
      <trkpt lat="47.30194" lon="-2.28497">
        <ele>4</ele>
        <time>2022-07-14T08:56:01.000Z</time>
      </trkpt>
      <trkpt lat="47.30188" lon="-2.28494">
        <ele>4</ele>
        <time>2022-07-14T08:56:02.000Z</time>
      </trkpt>
      <trkpt lat="47.3016" lon="-2.28479">
        <ele>4</ele>
        <time>2022-07-14T08:56:07.000Z</time>
      </trkpt>
      <trkpt lat="47.30143" lon="-2.28468">
        <ele>4</ele>
        <time>2022-07-14T08:56:10.000Z</time>
      </trkpt>
      <trkpt lat="47.30133" lon="-2.28461">
        <ele>4</ele>
        <time>2022-07-14T08:56:12.000Z</time>
      </trkpt>
      <trkpt lat="47.30117" lon="-2.28446">
        <ele>4</ele>
        <time>2022-07-14T08:56:15.000Z</time>
      </trkpt>
      <trkpt lat="47.30112" lon="-2.2844">
        <ele>4</ele>
        <time>2022-07-14T08:56:16.000Z</time>
      </trkpt>
      <trkpt lat="47.30107" lon="-2.28436">
        <ele>4.4000000953674</ele>
        <time>2022-07-14T08:56:17.000Z</time>
      </trkpt>
      <trkpt lat="47.30101" lon="-2.28431">
        <ele>4.8000001907349</ele>
        <time>2022-07-14T08:56:18.000Z</time>
      </trkpt>
      <trkpt lat="47.30096" lon="-2.28425">
        <ele>5.1999998092651</ele>
        <time>2022-07-14T08:56:19.000Z</time>
      </trkpt>
      <trkpt lat="47.30091" lon="-2.2842">
        <ele>5.8000001907349</ele>
        <time>2022-07-14T08:56:20.000Z</time>
      </trkpt>
      <trkpt lat="47.30086" lon="-2.28416">
        <ele>6.1999998092651</ele>
        <time>2022-07-14T08:56:21.000Z</time>
      </trkpt>
      <trkpt lat="47.30075" lon="-2.28413">
        <ele>6.1999998092651</ele>
        <time>2022-07-14T08:56:23.000Z</time>
      </trkpt>
      <trkpt lat="47.30058" lon="-2.28418">
        <ele>6.1999998092651</ele>
        <time>2022-07-14T08:56:26.000Z</time>
      </trkpt>
      <trkpt lat="47.30047" lon="-2.28425">
        <ele>6.1999998092651</ele>
        <time>2022-07-14T08:56:28.000Z</time>
      </trkpt>
      <trkpt lat="47.30043" lon="-2.28427">
        <ele>6.1999998092651</ele>
        <time>2022-07-14T08:56:29.000Z</time>
      </trkpt>
      <trkpt lat="47.30032" lon="-2.2843">
        <ele>6.1999998092651</ele>
        <time>2022-07-14T08:56:31.000Z</time>
      </trkpt>
      <trkpt lat="47.30006" lon="-2.28437">
        <ele>6.1999998092651</ele>
        <time>2022-07-14T08:56:36.000Z</time>
      </trkpt>
      <trkpt lat="47.29973" lon="-2.28452">
        <ele>6.1999998092651</ele>
        <time>2022-07-14T08:56:42.000Z</time>
      </trkpt>
      <trkpt lat="47.29969" lon="-2.28456">
        <ele>6.5999999046326</ele>
        <time>2022-07-14T08:56:43.000Z</time>
      </trkpt>
      <trkpt lat="47.29964" lon="-2.2846">
        <ele>7</ele>
        <time>2022-07-14T08:56:44.000Z</time>
      </trkpt>
      <trkpt lat="47.29959" lon="-2.28465">
        <ele>7.4000000953674</ele>
        <time>2022-07-14T08:56:45.000Z</time>
      </trkpt>
      <trkpt lat="47.29955" lon="-2.28469">
        <ele>7.8000001907349</ele>
        <time>2022-07-14T08:56:46.000Z</time>
      </trkpt>
      <trkpt lat="47.29951" lon="-2.28474">
        <ele>8.1999998092651</ele>
        <time>2022-07-14T08:56:47.000Z</time>
      </trkpt>
      <trkpt lat="47.29948" lon="-2.2848">
        <ele>8.1999998092651</ele>
        <time>2022-07-14T08:56:48.000Z</time>
      </trkpt>
      <trkpt lat="47.29939" lon="-2.2849">
        <ele>8.1999998092651</ele>
        <time>2022-07-14T08:56:51.000Z</time>
      </trkpt>
      <trkpt lat="47.29935" lon="-2.28484">
        <ele>8.1999998092651</ele>
        <time>2022-07-14T08:56:54.000Z</time>
      </trkpt>
      <trkpt lat="47.29934" lon="-2.28468">
        <ele>8.1999998092651</ele>
        <time>2022-07-14T08:56:58.000Z</time>
      </trkpt>
      <trkpt lat="47.29935" lon="-2.2846">
        <ele>8.1999998092651</ele>
        <time>2022-07-14T08:57:00.000Z</time>
      </trkpt>
      <trkpt lat="47.29936" lon="-2.28452">
        <ele>8.1999998092651</ele>
        <time>2022-07-14T08:57:03.000Z</time>
      </trkpt>
      <trkpt lat="47.29943" lon="-2.28435">
        <ele>8.1999998092651</ele>
        <time>2022-07-14T08:57:08.000Z</time>
      </trkpt>
      <trkpt lat="47.29942" lon="-2.28411">
        <ele>8.1999998092651</ele>
        <time>2022-07-14T08:57:12.000Z</time>
      </trkpt>
      <trkpt lat="47.29942" lon="-2.28404">
        <ele>8.1999998092651</ele>
        <time>2022-07-14T08:57:13.000Z</time>
      </trkpt>
      <trkpt lat="47.29942" lon="-2.28382">
        <ele>8.1999998092651</ele>
        <time>2022-07-14T08:57:16.000Z</time>
      </trkpt>
      <trkpt lat="47.29944" lon="-2.28367">
        <ele>8.1999998092651</ele>
        <time>2022-07-14T08:57:18.000Z</time>
      </trkpt>
      <trkpt lat="47.29946" lon="-2.28346">
        <ele>8.1999998092651</ele>
        <time>2022-07-14T08:57:21.000Z</time>
      </trkpt>
      <trkpt lat="47.29944" lon="-2.28338">
        <ele>8.1999998092651</ele>
        <time>2022-07-14T08:57:22.000Z</time>
      </trkpt>
      <trkpt lat="47.29945" lon="-2.28315">
        <ele>8.1999998092651</ele>
        <time>2022-07-14T08:57:25.000Z</time>
      </trkpt>
      <trkpt lat="47.29945" lon="-2.28307">
        <ele>8.1999998092651</ele>
        <time>2022-07-14T08:57:26.000Z</time>
      </trkpt>
      <trkpt lat="47.29944" lon="-2.28299">
        <ele>8.1999998092651</ele>
        <time>2022-07-14T08:57:27.000Z</time>
      </trkpt>
      <trkpt lat="47.29943" lon="-2.28277">
        <ele>8.1999998092651</ele>
        <time>2022-07-14T08:57:30.000Z</time>
      </trkpt>
      <trkpt lat="47.29943" lon="-2.28269">
        <ele>8.1999998092651</ele>
        <time>2022-07-14T08:57:31.000Z</time>
      </trkpt>
      <trkpt lat="47.29942" lon="-2.28247">
        <ele>8.1999998092651</ele>
        <time>2022-07-14T08:57:34.000Z</time>
      </trkpt>
      <trkpt lat="47.29941" lon="-2.28232">
        <ele>8.1999998092651</ele>
        <time>2022-07-14T08:57:36.000Z</time>
      </trkpt>
      <trkpt lat="47.29946" lon="-2.28204">
        <ele>8.1999998092651</ele>
        <time>2022-07-14T08:57:40.000Z</time>
      </trkpt>
      <trkpt lat="47.29956" lon="-2.28166">
        <ele>8.1999998092651</ele>
        <time>2022-07-14T08:57:45.000Z</time>
      </trkpt>
      <trkpt lat="47.29965" lon="-2.28128">
        <ele>8.1999998092651</ele>
        <time>2022-07-14T08:57:50.000Z</time>
      </trkpt>
      <trkpt lat="47.29968" lon="-2.28119">
        <ele>8.1999998092651</ele>
        <time>2022-07-14T08:57:51.000Z</time>
      </trkpt>
      <trkpt lat="47.29985" lon="-2.2806">
        <ele>8.1999998092651</ele>
        <time>2022-07-14T08:57:58.000Z</time>
      </trkpt>
      <trkpt lat="47.29989" lon="-2.28041">
        <ele>8.1999998092651</ele>
        <time>2022-07-14T08:58:01.000Z</time>
      </trkpt>
      <trkpt lat="47.29982" lon="-2.28037">
        <ele>8.1999998092651</ele>
        <time>2022-07-14T08:58:04.000Z</time>
      </trkpt>
      <trkpt lat="47.29967" lon="-2.28042">
        <ele>8.1999998092651</ele>
        <time>2022-07-14T08:58:08.000Z</time>
      </trkpt>
      <trkpt lat="47.29962" lon="-2.28045">
        <ele>8.1999998092651</ele>
        <time>2022-07-14T08:58:09.000Z</time>
      </trkpt>
      <trkpt lat="47.29951" lon="-2.28046">
        <ele>8.1999998092651</ele>
        <time>2022-07-14T08:58:11.000Z</time>
      </trkpt>
      <trkpt lat="47.29946" lon="-2.28043">
        <ele>8.1999998092651</ele>
        <time>2022-07-14T08:58:12.000Z</time>
      </trkpt>
      <trkpt lat="47.29935" lon="-2.28025">
        <ele>8.1999998092651</ele>
        <time>2022-07-14T08:58:15.000Z</time>
      </trkpt>
      <trkpt lat="47.29933" lon="-2.28017">
        <ele>9</ele>
        <time>2022-07-14T08:58:16.000Z</time>
      </trkpt>
      <trkpt lat="47.29931" lon="-2.28009">
        <ele>9.3999996185303</ele>
        <time>2022-07-14T08:58:17.000Z</time>
      </trkpt>
      <trkpt lat="47.29931" lon="-2.27999">
        <ele>9.8000001907349</ele>
        <time>2022-07-14T08:58:18.000Z</time>
      </trkpt>
      <trkpt lat="47.2993" lon="-2.27989">
        <ele>10.39999961853</ele>
        <time>2022-07-14T08:58:19.000Z</time>
      </trkpt>
      <trkpt lat="47.2993" lon="-2.27979">
        <ele>10.39999961853</ele>
        <time>2022-07-14T08:58:20.000Z</time>
      </trkpt>
      <trkpt lat="47.2993" lon="-2.27961">
        <ele>10.39999961853</ele>
        <time>2022-07-14T08:58:22.000Z</time>
      </trkpt>
      <trkpt lat="47.29932" lon="-2.27933">
        <ele>10.39999961853</ele>
        <time>2022-07-14T08:58:25.000Z</time>
      </trkpt>
      <trkpt lat="47.29938" lon="-2.27877">
        <ele>10.39999961853</ele>
        <time>2022-07-14T08:58:31.000Z</time>
      </trkpt>
      <trkpt lat="47.29944" lon="-2.27806">
        <ele>10.39999961853</ele>
        <time>2022-07-14T08:58:39.000Z</time>
      </trkpt>
      <trkpt lat="47.29949" lon="-2.27743">
        <ele>10.39999961853</ele>
        <time>2022-07-14T08:58:46.000Z</time>
      </trkpt>
      <trkpt lat="47.29949" lon="-2.27735">
        <ele>10.39999961853</ele>
        <time>2022-07-14T08:58:47.000Z</time>
      </trkpt>
      <trkpt lat="47.29954" lon="-2.27698">
        <ele>10.39999961853</ele>
        <time>2022-07-14T08:58:51.000Z</time>
      </trkpt>
      <trkpt lat="47.29956" lon="-2.2768">
        <ele>10.39999961853</ele>
        <time>2022-07-14T08:58:53.000Z</time>
      </trkpt>
      <trkpt lat="47.29957" lon="-2.27655">
        <ele>10.39999961853</ele>
        <time>2022-07-14T08:58:56.000Z</time>
      </trkpt>
      <trkpt lat="47.29958" lon="-2.27646">
        <ele>9.8000001907349</ele>
        <time>2022-07-14T08:58:57.000Z</time>
      </trkpt>
      <trkpt lat="47.29959" lon="-2.27637">
        <ele>9.3999996185303</ele>
        <time>2022-07-14T08:58:58.000Z</time>
      </trkpt>
      <trkpt lat="47.2996" lon="-2.27628">
        <ele>9</ele>
        <time>2022-07-14T08:58:59.000Z</time>
      </trkpt>
      <trkpt lat="47.29959" lon="-2.27619">
        <ele>8.6000003814697</ele>
        <time>2022-07-14T08:59:00.000Z</time>
      </trkpt>
      <trkpt lat="47.29957" lon="-2.27611">
        <ele>8.1999998092651</ele>
        <time>2022-07-14T08:59:01.000Z</time>
      </trkpt>
      <trkpt lat="47.29954" lon="-2.27605">
        <ele>8.1999998092651</ele>
        <time>2022-07-14T08:59:02.000Z</time>
      </trkpt>
      <trkpt lat="47.2994" lon="-2.27599">
        <ele>8.1999998092651</ele>
        <time>2022-07-14T08:59:05.000Z</time>
      </trkpt>
      <trkpt lat="47.2993" lon="-2.276">
        <ele>8.1999998092651</ele>
        <time>2022-07-14T08:59:07.000Z</time>
      </trkpt>
      <trkpt lat="47.29919" lon="-2.27602">
        <ele>8.1999998092651</ele>
        <time>2022-07-14T08:59:09.000Z</time>
      </trkpt>
      <trkpt lat="47.29914" lon="-2.27605">
        <ele>8.1999998092651</ele>
        <time>2022-07-14T08:59:10.000Z</time>
      </trkpt>
      <trkpt lat="47.29882" lon="-2.2762">
        <ele>8.1999998092651</ele>
        <time>2022-07-14T08:59:16.000Z</time>
      </trkpt>
      <trkpt lat="47.2987" lon="-2.27625">
        <ele>8.1999998092651</ele>
        <time>2022-07-14T08:59:18.000Z</time>
      </trkpt>
      <trkpt lat="47.29858" lon="-2.27626">
        <ele>8.1999998092651</ele>
        <time>2022-07-14T08:59:20.000Z</time>
      </trkpt>
      <trkpt lat="47.29853" lon="-2.27624">
        <ele>8.1999998092651</ele>
        <time>2022-07-14T08:59:21.000Z</time>
      </trkpt>
      <trkpt lat="47.29842" lon="-2.2762">
        <ele>8.1999998092651</ele>
        <time>2022-07-14T08:59:23.000Z</time>
      </trkpt>
      <trkpt lat="47.29825" lon="-2.27612">
        <ele>8.1999998092651</ele>
        <time>2022-07-14T08:59:26.000Z</time>
      </trkpt>
      <trkpt lat="47.29802" lon="-2.27602">
        <ele>8.1999998092651</ele>
        <time>2022-07-14T08:59:30.000Z</time>
      </trkpt>
      <trkpt lat="47.2979" lon="-2.27599">
        <ele>8.1999998092651</ele>
        <time>2022-07-14T08:59:32.000Z</time>
      </trkpt>
      <trkpt lat="47.29784" lon="-2.276">
        <ele>8.1999998092651</ele>
        <time>2022-07-14T08:59:33.000Z</time>
      </trkpt>
      <trkpt lat="47.29768" lon="-2.27603">
        <ele>8.1999998092651</ele>
        <time>2022-07-14T08:59:36.000Z</time>
      </trkpt>
      <trkpt lat="47.29743" lon="-2.27611">
        <ele>8.1999998092651</ele>
        <time>2022-07-14T08:59:40.000Z</time>
      </trkpt>
      <trkpt lat="47.29716" lon="-2.2762">
        <ele>8.1999998092651</ele>
        <time>2022-07-14T08:59:44.000Z</time>
      </trkpt>
      <trkpt lat="47.2971" lon="-2.27621">
        <ele>8.1999998092651</ele>
        <time>2022-07-14T08:59:45.000Z</time>
      </trkpt>
      <trkpt lat="47.29692" lon="-2.2762">
        <ele>8.1999998092651</ele>
        <time>2022-07-14T08:59:48.000Z</time>
      </trkpt>
      <trkpt lat="47.2968" lon="-2.27616">
        <ele>8.1999998092651</ele>
        <time>2022-07-14T08:59:50.000Z</time>
      </trkpt>
      <trkpt lat="47.29669" lon="-2.27614">
        <ele>8.1999998092651</ele>
        <time>2022-07-14T08:59:52.000Z</time>
      </trkpt>
      <trkpt lat="47.29663" lon="-2.27612">
        <ele>8.1999998092651</ele>
        <time>2022-07-14T08:59:53.000Z</time>
      </trkpt>
      <trkpt lat="47.29652" lon="-2.27607">
        <ele>9.1999998092651</ele>
        <time>2022-07-14T08:59:55.000Z</time>
      </trkpt>
      <trkpt lat="47.29646" lon="-2.27603">
        <ele>9.6000003814697</ele>
        <time>2022-07-14T08:59:56.000Z</time>
      </trkpt>
      <trkpt lat="47.2964" lon="-2.27599">
        <ele>10</ele>
        <time>2022-07-14T08:59:57.000Z</time>
      </trkpt>
      <trkpt lat="47.29634" lon="-2.27595">
        <ele>10.39999961853</ele>
        <time>2022-07-14T08:59:58.000Z</time>
      </trkpt>
      <trkpt lat="47.29617" lon="-2.27585">
        <ele>10.39999961853</ele>
        <time>2022-07-14T09:00:01.000Z</time>
      </trkpt>
      <trkpt lat="47.29602" lon="-2.27577">
        <ele>10.39999961853</ele>
        <time>2022-07-14T09:00:04.000Z</time>
      </trkpt>
      <trkpt lat="47.29596" lon="-2.27573">
        <ele>10.39999961853</ele>
        <time>2022-07-14T09:00:05.000Z</time>
      </trkpt>
      <trkpt lat="47.2959" lon="-2.2757">
        <ele>10.800000190735</ele>
        <time>2022-07-14T09:00:06.000Z</time>
      </trkpt>
      <trkpt lat="47.29584" lon="-2.27568">
        <ele>11.199999809265</ele>
        <time>2022-07-14T09:00:07.000Z</time>
      </trkpt>
      <trkpt lat="47.29579" lon="-2.27564">
        <ele>11.800000190735</ele>
        <time>2022-07-14T09:00:08.000Z</time>
      </trkpt>
      <trkpt lat="47.29573" lon="-2.27563">
        <ele>12.199999809265</ele>
        <time>2022-07-14T09:00:09.000Z</time>
      </trkpt>
      <trkpt lat="47.29567" lon="-2.27561">
        <ele>12.60000038147</ele>
        <time>2022-07-14T09:00:10.000Z</time>
      </trkpt>
      <trkpt lat="47.29536" lon="-2.27549">
        <ele>12.60000038147</ele>
        <time>2022-07-14T09:00:15.000Z</time>
      </trkpt>
      <trkpt lat="47.29517" lon="-2.27543">
        <ele>12.60000038147</ele>
        <time>2022-07-14T09:00:18.000Z</time>
      </trkpt>
      <trkpt lat="47.29499" lon="-2.27538">
        <ele>12.60000038147</ele>
        <time>2022-07-14T09:00:21.000Z</time>
      </trkpt>
      <trkpt lat="47.29476" lon="-2.27528">
        <ele>13</ele>
        <time>2022-07-14T09:00:25.000Z</time>
      </trkpt>
      <trkpt lat="47.2947" lon="-2.27526">
        <ele>13.39999961853</ele>
        <time>2022-07-14T09:00:26.000Z</time>
      </trkpt>
      <trkpt lat="47.29463" lon="-2.27525">
        <ele>13.800000190735</ele>
        <time>2022-07-14T09:00:27.000Z</time>
      </trkpt>
      <trkpt lat="47.29456" lon="-2.27524">
        <ele>14.39999961853</ele>
        <time>2022-07-14T09:00:28.000Z</time>
      </trkpt>
      <trkpt lat="47.29449" lon="-2.27523">
        <ele>14.800000190735</ele>
        <time>2022-07-14T09:00:29.000Z</time>
      </trkpt>
      <trkpt lat="47.29427" lon="-2.27523">
        <ele>14.800000190735</ele>
        <time>2022-07-14T09:00:32.000Z</time>
      </trkpt>
      <trkpt lat="47.29395" lon="-2.27528">
        <ele>14.800000190735</ele>
        <time>2022-07-14T09:00:37.000Z</time>
      </trkpt>
      <trkpt lat="47.29347" lon="-2.27538">
        <ele>14.800000190735</ele>
        <time>2022-07-14T09:00:44.000Z</time>
      </trkpt>
      <trkpt lat="47.29327" lon="-2.2754">
        <ele>14.800000190735</ele>
        <time>2022-07-14T09:00:47.000Z</time>
      </trkpt>
      <trkpt lat="47.29315" lon="-2.2754">
        <ele>14.800000190735</ele>
        <time>2022-07-14T09:00:49.000Z</time>
      </trkpt>
      <trkpt lat="47.29287" lon="-2.27536">
        <ele>14.800000190735</ele>
        <time>2022-07-14T09:00:55.000Z</time>
      </trkpt>
      <trkpt lat="47.29284" lon="-2.27536">
        <ele>14.800000190735</ele>
        <time>2022-07-14T09:00:57.000Z</time>
      </trkpt>
      <trkpt lat="47.29281" lon="-2.27534">
        <ele>14.800000190735</ele>
        <time>2022-07-14T09:01:00.000Z</time>
      </trkpt>
      <trkpt lat="47.29283" lon="-2.27527">
        <ele>14.800000190735</ele>
        <time>2022-07-14T09:01:04.000Z</time>
      </trkpt>
      <trkpt lat="47.29285" lon="-2.27534">
        <ele>14.800000190735</ele>
        <time>2022-07-14T09:01:07.000Z</time>
      </trkpt>
      <trkpt lat="47.29278" lon="-2.27548">
        <ele>14.800000190735</ele>
        <time>2022-07-14T09:01:12.000Z</time>
      </trkpt>
      <trkpt lat="47.29266" lon="-2.27547">
        <ele>14.800000190735</ele>
        <time>2022-07-14T09:01:16.000Z</time>
      </trkpt>
      <trkpt lat="47.29259" lon="-2.27531">
        <ele>14.800000190735</ele>
        <time>2022-07-14T09:01:20.000Z</time>
      </trkpt>
      <trkpt lat="47.29263" lon="-2.27519">
        <ele>14.800000190735</ele>
        <time>2022-07-14T09:01:24.000Z</time>
      </trkpt>
      <trkpt lat="47.29271" lon="-2.27517">
        <ele>14.800000190735</ele>
        <time>2022-07-14T09:01:27.000Z</time>
      </trkpt>
      <trkpt lat="47.29274" lon="-2.27518">
        <ele>14.800000190735</ele>
        <time>2022-07-14T09:01:28.000Z</time>
      </trkpt>
      <trkpt lat="47.29283" lon="-2.27527">
        <ele>14.800000190735</ele>
        <time>2022-07-14T09:01:32.000Z</time>
      </trkpt>
      <trkpt lat="47.29283" lon="-2.27531">
        <ele>14.800000190735</ele>
        <time>2022-07-14T09:01:33.000Z</time>
      </trkpt>
      <trkpt lat="47.29278" lon="-2.27538">
        <ele>14.800000190735</ele>
        <time>2022-07-14T09:01:35.000Z</time>
      </trkpt>
      <trkpt lat="47.29263" lon="-2.27536">
        <ele>14.800000190735</ele>
        <time>2022-07-14T09:01:38.000Z</time>
      </trkpt>
      <trkpt lat="47.29257" lon="-2.27534">
        <ele>14.800000190735</ele>
        <time>2022-07-14T09:01:39.000Z</time>
      </trkpt>
      <trkpt lat="47.29251" lon="-2.27532">
        <ele>14.800000190735</ele>
        <time>2022-07-14T09:01:40.000Z</time>
      </trkpt>
      <trkpt lat="47.29239" lon="-2.2753">
        <ele>14.800000190735</ele>
        <time>2022-07-14T09:01:42.000Z</time>
      </trkpt>
      <trkpt lat="47.29198" lon="-2.2753">
        <ele>14.800000190735</ele>
        <time>2022-07-14T09:01:48.000Z</time>
      </trkpt>
      <trkpt lat="47.29142" lon="-2.27529">
        <ele>14.800000190735</ele>
        <time>2022-07-14T09:01:56.000Z</time>
      </trkpt>
      <trkpt lat="47.29096" lon="-2.27529">
        <ele>14.800000190735</ele>
        <time>2022-07-14T09:02:03.000Z</time>
      </trkpt>
      <trkpt lat="47.29069" lon="-2.27529">
        <ele>14.800000190735</ele>
        <time>2022-07-14T09:02:08.000Z</time>
      </trkpt>
      <trkpt lat="47.29053" lon="-2.27529">
        <ele>14.800000190735</ele>
        <time>2022-07-14T09:02:11.000Z</time>
      </trkpt>
      <trkpt lat="47.29043" lon="-2.27527">
        <ele>14.800000190735</ele>
        <time>2022-07-14T09:02:13.000Z</time>
      </trkpt>
      <trkpt lat="47.29032" lon="-2.27526">
        <ele>14.800000190735</ele>
        <time>2022-07-14T09:02:15.000Z</time>
      </trkpt>
      <trkpt lat="47.29018" lon="-2.27526">
        <ele>14.800000190735</ele>
        <time>2022-07-14T09:02:18.000Z</time>
      </trkpt>
      <trkpt lat="47.28998" lon="-2.27528">
        <ele>14.800000190735</ele>
        <time>2022-07-14T09:02:23.000Z</time>
      </trkpt>
      <trkpt lat="47.28998" lon="-2.27529">
        <ele>14.800000190735</ele>
        <time>2022-07-14T09:02:24.000Z</time>
      </trkpt>
      <trkpt lat="47.28998" lon="-2.27528">
        <ele>14.800000190735</ele>
        <time>2022-07-14T09:02:26.000Z</time>
      </trkpt>
      <trkpt lat="47.28996" lon="-2.27527">
        <ele>14.800000190735</ele>
        <time>2022-07-14T09:02:35.000Z</time>
      </trkpt>
      <trkpt lat="47.28987" lon="-2.27527">
        <ele>14.800000190735</ele>
        <time>2022-07-14T09:02:38.000Z</time>
      </trkpt>
      <trkpt lat="47.28979" lon="-2.27526">
        <ele>14.800000190735</ele>
        <time>2022-07-14T09:02:40.000Z</time>
      </trkpt>
      <trkpt lat="47.28965" lon="-2.27527">
        <ele>14.800000190735</ele>
        <time>2022-07-14T09:02:43.000Z</time>
      </trkpt>
      <trkpt lat="47.28932" lon="-2.27529">
        <ele>14.800000190735</ele>
        <time>2022-07-14T09:02:49.000Z</time>
      </trkpt>
      <trkpt lat="47.2889" lon="-2.27532">
        <ele>14.800000190735</ele>
        <time>2022-07-14T09:02:56.000Z</time>
      </trkpt>
      <trkpt lat="47.28861" lon="-2.27538">
        <ele>14.800000190735</ele>
        <time>2022-07-14T09:03:01.000Z</time>
      </trkpt>
      <trkpt lat="47.2885" lon="-2.27538">
        <ele>14.800000190735</ele>
        <time>2022-07-14T09:03:03.000Z</time>
      </trkpt>
      <trkpt lat="47.28844" lon="-2.27539">
        <ele>14.800000190735</ele>
        <time>2022-07-14T09:03:04.000Z</time>
      </trkpt>
      <trkpt lat="47.28816" lon="-2.27547">
        <ele>14.800000190735</ele>
        <time>2022-07-14T09:03:09.000Z</time>
      </trkpt>
      <trkpt lat="47.288" lon="-2.27559">
        <ele>14.800000190735</ele>
        <time>2022-07-14T09:03:12.000Z</time>
      </trkpt>
      <trkpt lat="47.28791" lon="-2.27569">
        <ele>14.800000190735</ele>
        <time>2022-07-14T09:03:14.000Z</time>
      </trkpt>
      <trkpt lat="47.28781" lon="-2.2758">
        <ele>14.800000190735</ele>
        <time>2022-07-14T09:03:16.000Z</time>
      </trkpt>
      <trkpt lat="47.28773" lon="-2.27591">
        <ele>14.800000190735</ele>
        <time>2022-07-14T09:03:18.000Z</time>
      </trkpt>
      <trkpt lat="47.28769" lon="-2.27597">
        <ele>14.800000190735</ele>
        <time>2022-07-14T09:03:19.000Z</time>
      </trkpt>
      <trkpt lat="47.28753" lon="-2.27615">
        <ele>14.800000190735</ele>
        <time>2022-07-14T09:03:23.000Z</time>
      </trkpt>
      <trkpt lat="47.28748" lon="-2.27621">
        <ele>14.800000190735</ele>
        <time>2022-07-14T09:03:24.000Z</time>
      </trkpt>
      <trkpt lat="47.28721" lon="-2.27658">
        <ele>14.800000190735</ele>
        <time>2022-07-14T09:03:30.000Z</time>
      </trkpt>
      <trkpt lat="47.28701" lon="-2.27689">
        <ele>14.800000190735</ele>
        <time>2022-07-14T09:03:35.000Z</time>
      </trkpt>
      <trkpt lat="47.28678" lon="-2.27732">
        <ele>14.800000190735</ele>
        <time>2022-07-14T09:03:41.000Z</time>
      </trkpt>
      <trkpt lat="47.2866" lon="-2.27769">
        <ele>14.800000190735</ele>
        <time>2022-07-14T09:03:46.000Z</time>
      </trkpt>
      <trkpt lat="47.28655" lon="-2.27785">
        <ele>14.800000190735</ele>
        <time>2022-07-14T09:03:48.000Z</time>
      </trkpt>
      <trkpt lat="47.28646" lon="-2.27816">
        <ele>14.800000190735</ele>
        <time>2022-07-14T09:03:52.000Z</time>
      </trkpt>
      <trkpt lat="47.28644" lon="-2.2783">
        <ele>14.800000190735</ele>
        <time>2022-07-14T09:03:54.000Z</time>
      </trkpt>
      <trkpt lat="47.28641" lon="-2.27855">
        <ele>14.800000190735</ele>
        <time>2022-07-14T09:03:57.000Z</time>
      </trkpt>
      <trkpt lat="47.28638" lon="-2.27872">
        <ele>14.800000190735</ele>
        <time>2022-07-14T09:03:59.000Z</time>
      </trkpt>
      <trkpt lat="47.28633" lon="-2.27915">
        <ele>14.800000190735</ele>
        <time>2022-07-14T09:04:05.000Z</time>
      </trkpt>
      <trkpt lat="47.28627" lon="-2.27934">
        <ele>14.800000190735</ele>
        <time>2022-07-14T09:04:08.000Z</time>
      </trkpt>
      <trkpt lat="47.28624" lon="-2.27939">
        <ele>14.800000190735</ele>
        <time>2022-07-14T09:04:09.000Z</time>
      </trkpt>
      <trkpt lat="47.28618" lon="-2.2795">
        <ele>14.800000190735</ele>
        <time>2022-07-14T09:04:11.000Z</time>
      </trkpt>
      <trkpt lat="47.28613" lon="-2.27968">
        <ele>14.800000190735</ele>
        <time>2022-07-14T09:04:14.000Z</time>
      </trkpt>
      <trkpt lat="47.28604" lon="-2.28002">
        <ele>15.199999809265</ele>
        <time>2022-07-14T09:04:19.000Z</time>
      </trkpt>
      <trkpt lat="47.286" lon="-2.28008">
        <ele>15.60000038147</ele>
        <time>2022-07-14T09:04:20.000Z</time>
      </trkpt>
      <trkpt lat="47.28597" lon="-2.28013">
        <ele>16</ele>
        <time>2022-07-14T09:04:21.000Z</time>
      </trkpt>
      <trkpt lat="47.28593" lon="-2.28017">
        <ele>16.39999961853</ele>
        <time>2022-07-14T09:04:22.000Z</time>
      </trkpt>
      <trkpt lat="47.2859" lon="-2.2802">
        <ele>16.799999237061</ele>
        <time>2022-07-14T09:04:23.000Z</time>
      </trkpt>
      <trkpt lat="47.28587" lon="-2.28024">
        <ele>16.799999237061</ele>
        <time>2022-07-14T09:04:24.000Z</time>
      </trkpt>
      <trkpt lat="47.28584" lon="-2.28028">
        <ele>16.799999237061</ele>
        <time>2022-07-14T09:04:25.000Z</time>
      </trkpt>
      <trkpt lat="47.28573" lon="-2.28042">
        <ele>16.799999237061</ele>
        <time>2022-07-14T09:04:29.000Z</time>
      </trkpt>
      <trkpt lat="47.28561" lon="-2.28051">
        <ele>16.799999237061</ele>
        <time>2022-07-14T09:04:33.000Z</time>
      </trkpt>
      <trkpt lat="47.28547" lon="-2.2805">
        <ele>16.799999237061</ele>
        <time>2022-07-14T09:04:37.000Z</time>
      </trkpt>
      <trkpt lat="47.28544" lon="-2.28052">
        <ele>17.200000762939</ele>
        <time>2022-07-14T09:04:38.000Z</time>
      </trkpt>
      <trkpt lat="47.28542" lon="-2.28052">
        <ele>17.60000038147</ele>
        <time>2022-07-14T09:04:39.000Z</time>
      </trkpt>
      <trkpt lat="47.2854" lon="-2.28051">
        <ele>18</ele>
        <time>2022-07-14T09:04:40.000Z</time>
      </trkpt>
      <trkpt lat="47.28539" lon="-2.2805">
        <ele>18.60000038147</ele>
        <time>2022-07-14T09:04:41.000Z</time>
      </trkpt>
      <trkpt lat="47.28536" lon="-2.28051">
        <ele>19</ele>
        <time>2022-07-14T09:04:42.000Z</time>
      </trkpt>
      <trkpt lat="47.28532" lon="-2.28052">
        <ele>19.39999961853</ele>
        <time>2022-07-14T09:04:44.000Z</time>
      </trkpt>
      <trkpt lat="47.28529" lon="-2.28052">
        <ele>19.799999237061</ele>
        <time>2022-07-14T09:04:45.000Z</time>
      </trkpt>
      <trkpt lat="47.28527" lon="-2.28052">
        <ele>20.200000762939</ele>
        <time>2022-07-14T09:04:46.000Z</time>
      </trkpt>
      <trkpt lat="47.28525" lon="-2.28052">
        <ele>20.60000038147</ele>
        <time>2022-07-14T09:04:47.000Z</time>
      </trkpt>
      <trkpt lat="47.28524" lon="-2.28051">
        <ele>21.200000762939</ele>
        <time>2022-07-14T09:04:48.000Z</time>
      </trkpt>
      <trkpt lat="47.28519" lon="-2.28047">
        <ele>21.60000038147</ele>
        <time>2022-07-14T09:04:51.000Z</time>
      </trkpt>
      <trkpt lat="47.28517" lon="-2.28044">
        <ele>22</ele>
        <time>2022-07-14T09:04:52.000Z</time>
      </trkpt>
      <trkpt lat="47.28515" lon="-2.28043">
        <ele>22.39999961853</ele>
        <time>2022-07-14T09:04:53.000Z</time>
      </trkpt>
      <trkpt lat="47.28514" lon="-2.28042">
        <ele>22.799999237061</ele>
        <time>2022-07-14T09:04:54.000Z</time>
      </trkpt>
      <trkpt lat="47.28512" lon="-2.2804">
        <ele>23.200000762939</ele>
        <time>2022-07-14T09:04:55.000Z</time>
      </trkpt>
      <trkpt lat="47.2851" lon="-2.28039">
        <ele>23.200000762939</ele>
        <time>2022-07-14T09:04:56.000Z</time>
      </trkpt>
      <trkpt lat="47.28503" lon="-2.2804">
        <ele>23.200000762939</ele>
        <time>2022-07-14T09:04:59.000Z</time>
      </trkpt>
      <trkpt lat="47.28498" lon="-2.28041">
        <ele>23.200000762939</ele>
        <time>2022-07-14T09:05:01.000Z</time>
      </trkpt>
      <trkpt lat="47.28494" lon="-2.28045">
        <ele>23.200000762939</ele>
        <time>2022-07-14T09:05:04.000Z</time>
      </trkpt>
      <trkpt lat="47.28494" lon="-2.28047">
        <ele>23.200000762939</ele>
        <time>2022-07-14T09:05:05.000Z</time>
      </trkpt>
      <trkpt lat="47.28494" lon="-2.28049">
        <ele>23.200000762939</ele>
        <time>2022-07-14T09:05:06.000Z</time>
      </trkpt>
      <trkpt lat="47.28497" lon="-2.28058">
        <ele>23.200000762939</ele>
        <time>2022-07-14T09:05:10.000Z</time>
      </trkpt>
      <trkpt lat="47.28494" lon="-2.28067">
        <ele>23.200000762939</ele>
        <time>2022-07-14T09:05:14.000Z</time>
      </trkpt>
      <trkpt lat="47.28492" lon="-2.2807">
        <ele>23.200000762939</ele>
        <time>2022-07-14T09:05:15.000Z</time>
      </trkpt>
      <trkpt lat="47.28484" lon="-2.28076">
        <ele>23.200000762939</ele>
        <time>2022-07-14T09:05:18.000Z</time>
      </trkpt>
      <trkpt lat="47.2847" lon="-2.28078">
        <ele>23.200000762939</ele>
        <time>2022-07-14T09:05:23.000Z</time>
      </trkpt>
      <trkpt lat="47.28452" lon="-2.28083">
        <ele>23.200000762939</ele>
        <time>2022-07-14T09:05:28.000Z</time>
      </trkpt>
      <trkpt lat="47.28441" lon="-2.28083">
        <ele>23.200000762939</ele>
        <time>2022-07-14T09:05:32.000Z</time>
      </trkpt>
      <trkpt lat="47.28438" lon="-2.28082">
        <ele>23.200000762939</ele>
        <time>2022-07-14T09:05:33.000Z</time>
      </trkpt>
      <trkpt lat="47.28432" lon="-2.28084">
        <ele>23.200000762939</ele>
        <time>2022-07-14T09:05:35.000Z</time>
      </trkpt>
      <trkpt lat="47.28424" lon="-2.28086">
        <ele>23.200000762939</ele>
        <time>2022-07-14T09:05:37.000Z</time>
      </trkpt>
      <trkpt lat="47.28415" lon="-2.28086">
        <ele>23.200000762939</ele>
        <time>2022-07-14T09:05:40.000Z</time>
      </trkpt>
      <trkpt lat="47.28409" lon="-2.28086">
        <ele>23.200000762939</ele>
        <time>2022-07-14T09:05:42.000Z</time>
      </trkpt>
      <trkpt lat="47.28403" lon="-2.28085">
        <ele>22.799999237061</ele>
        <time>2022-07-14T09:05:44.000Z</time>
      </trkpt>
      <trkpt lat="47.284" lon="-2.28086">
        <ele>22.39999961853</ele>
        <time>2022-07-14T09:05:45.000Z</time>
      </trkpt>
      <trkpt lat="47.28398" lon="-2.28085">
        <ele>22</ele>
        <time>2022-07-14T09:05:46.000Z</time>
      </trkpt>
      <trkpt lat="47.28395" lon="-2.28085">
        <ele>21.60000038147</ele>
        <time>2022-07-14T09:05:47.000Z</time>
      </trkpt>
      <trkpt lat="47.28392" lon="-2.28085">
        <ele>21.200000762939</ele>
        <time>2022-07-14T09:05:48.000Z</time>
      </trkpt>
      <trkpt lat="47.28384" lon="-2.28085">
        <ele>21.200000762939</ele>
        <time>2022-07-14T09:05:51.000Z</time>
      </trkpt>
      <trkpt lat="47.28376" lon="-2.28088">
        <ele>21.200000762939</ele>
        <time>2022-07-14T09:05:56.000Z</time>
      </trkpt>
      <trkpt lat="47.28375" lon="-2.2809">
        <ele>21.200000762939</ele>
        <time>2022-07-14T09:05:57.000Z</time>
      </trkpt>
      <trkpt lat="47.28373" lon="-2.28097">
        <ele>21.200000762939</ele>
        <time>2022-07-14T09:05:59.000Z</time>
      </trkpt>
      <trkpt lat="47.28373" lon="-2.28101">
        <ele>21.200000762939</ele>
        <time>2022-07-14T09:06:00.000Z</time>
      </trkpt>
      <trkpt lat="47.28377" lon="-2.28122">
        <ele>21.200000762939</ele>
        <time>2022-07-14T09:06:06.000Z</time>
      </trkpt>
      <trkpt lat="47.28377" lon="-2.28144">
        <ele>21.200000762939</ele>
        <time>2022-07-14T09:06:11.000Z</time>
      </trkpt>
      <trkpt lat="47.28376" lon="-2.28169">
        <ele>21.60000038147</ele>
        <time>2022-07-14T09:06:17.000Z</time>
      </trkpt>
      <trkpt lat="47.28376" lon="-2.28175">
        <ele>22</ele>
        <time>2022-07-14T09:06:18.000Z</time>
      </trkpt>
      <trkpt lat="47.28376" lon="-2.2818">
        <ele>22.39999961853</ele>
        <time>2022-07-14T09:06:19.000Z</time>
      </trkpt>
      <trkpt lat="47.28375" lon="-2.28186">
        <ele>22.799999237061</ele>
        <time>2022-07-14T09:06:20.000Z</time>
      </trkpt>
      <trkpt lat="47.28375" lon="-2.28192">
        <ele>23.200000762939</ele>
        <time>2022-07-14T09:06:21.000Z</time>
      </trkpt>
      <trkpt lat="47.28375" lon="-2.28197">
        <ele>23.200000762939</ele>
        <time>2022-07-14T09:06:22.000Z</time>
      </trkpt>
      <trkpt lat="47.28375" lon="-2.28226">
        <ele>23.60000038147</ele>
        <time>2022-07-14T09:06:27.000Z</time>
      </trkpt>
      <trkpt lat="47.28376" lon="-2.28231">
        <ele>24.200000762939</ele>
        <time>2022-07-14T09:06:28.000Z</time>
      </trkpt>
      <trkpt lat="47.28376" lon="-2.28237">
        <ele>24.60000038147</ele>
        <time>2022-07-14T09:06:29.000Z</time>
      </trkpt>
      <trkpt lat="47.28376" lon="-2.28244">
        <ele>25.39999961853</ele>
        <time>2022-07-14T09:06:30.000Z</time>
      </trkpt>
      <trkpt lat="47.28375" lon="-2.28252">
        <ele>25.39999961853</ele>
        <time>2022-07-14T09:06:31.000Z</time>
      </trkpt>
      <trkpt lat="47.28375" lon="-2.28259">
        <ele>25.39999961853</ele>
        <time>2022-07-14T09:06:32.000Z</time>
      </trkpt>
      <trkpt lat="47.28372" lon="-2.28292">
        <ele>25.39999961853</ele>
        <time>2022-07-14T09:06:37.000Z</time>
      </trkpt>
      <trkpt lat="47.28372" lon="-2.28299">
        <ele>25.799999237061</ele>
        <time>2022-07-14T09:06:38.000Z</time>
      </trkpt>
      <trkpt lat="47.28372" lon="-2.28306">
        <ele>26.200000762939</ele>
        <time>2022-07-14T09:06:39.000Z</time>
      </trkpt>
      <trkpt lat="47.28373" lon="-2.28312">
        <ele>26.60000038147</ele>
        <time>2022-07-14T09:06:40.000Z</time>
      </trkpt>
      <trkpt lat="47.28373" lon="-2.28319">
        <ele>27</ele>
        <time>2022-07-14T09:06:41.000Z</time>
      </trkpt>
      <trkpt lat="47.28373" lon="-2.28326">
        <ele>27.39999961853</ele>
        <time>2022-07-14T09:06:42.000Z</time>
      </trkpt>
      <trkpt lat="47.28373" lon="-2.28333">
        <ele>27.39999961853</ele>
        <time>2022-07-14T09:06:43.000Z</time>
      </trkpt>
      <trkpt lat="47.28374" lon="-2.2839">
        <ele>27.39999961853</ele>
        <time>2022-07-14T09:06:51.000Z</time>
      </trkpt>
      <trkpt lat="47.28377" lon="-2.28444">
        <ele>27.39999961853</ele>
        <time>2022-07-14T09:06:58.000Z</time>
      </trkpt>
      <trkpt lat="47.28379" lon="-2.28494">
        <ele>27.39999961853</ele>
        <time>2022-07-14T09:07:04.000Z</time>
      </trkpt>
      <trkpt lat="47.28378" lon="-2.28502">
        <ele>27.39999961853</ele>
        <time>2022-07-14T09:07:05.000Z</time>
      </trkpt>
      <trkpt lat="47.2838" lon="-2.28534">
        <ele>27.39999961853</ele>
        <time>2022-07-14T09:07:09.000Z</time>
      </trkpt>
      <trkpt lat="47.28384" lon="-2.28598">
        <ele>27.39999961853</ele>
        <time>2022-07-14T09:07:17.000Z</time>
      </trkpt>
      <trkpt lat="47.28385" lon="-2.28663">
        <ele>27.39999961853</ele>
        <time>2022-07-14T09:07:25.000Z</time>
      </trkpt>
      <trkpt lat="47.28388" lon="-2.28723">
        <ele>27.39999961853</ele>
        <time>2022-07-14T09:07:32.000Z</time>
      </trkpt>
      <trkpt lat="47.28388" lon="-2.2873">
        <ele>27.39999961853</ele>
        <time>2022-07-14T09:07:33.000Z</time>
      </trkpt>
      <trkpt lat="47.28392" lon="-2.28751">
        <ele>27.39999961853</ele>
        <time>2022-07-14T09:07:36.000Z</time>
      </trkpt>
      <trkpt lat="47.28393" lon="-2.28768">
        <ele>27.39999961853</ele>
        <time>2022-07-14T09:07:38.000Z</time>
      </trkpt>
      <trkpt lat="47.28394" lon="-2.28798">
        <ele>27.39999961853</ele>
        <time>2022-07-14T09:07:41.000Z</time>
      </trkpt>
      <trkpt lat="47.28393" lon="-2.28879">
        <ele>27.39999961853</ele>
        <time>2022-07-14T09:07:49.000Z</time>
      </trkpt>
      <trkpt lat="47.28395" lon="-2.28934">
        <ele>27.39999961853</ele>
        <time>2022-07-14T09:07:55.000Z</time>
      </trkpt>
      <trkpt lat="47.28396" lon="-2.28981">
        <ele>27.39999961853</ele>
        <time>2022-07-14T09:08:01.000Z</time>
      </trkpt>
      <trkpt lat="47.28399" lon="-2.28989">
        <ele>27.39999961853</ele>
        <time>2022-07-14T09:08:03.000Z</time>
      </trkpt>
      <trkpt lat="47.28411" lon="-2.28995">
        <ele>27.39999961853</ele>
        <time>2022-07-14T09:08:07.000Z</time>
      </trkpt>
      <trkpt lat="47.28414" lon="-2.28996">
        <ele>27</ele>
        <time>2022-07-14T09:08:08.000Z</time>
      </trkpt>
      <trkpt lat="47.28418" lon="-2.28996">
        <ele>26</ele>
        <time>2022-07-14T09:08:09.000Z</time>
      </trkpt>
      <trkpt lat="47.28423" lon="-2.28995">
        <ele>25.60000038147</ele>
        <time>2022-07-14T09:08:10.000Z</time>
      </trkpt>
      <trkpt lat="47.28427" lon="-2.28995">
        <ele>25.200000762939</ele>
        <time>2022-07-14T09:08:11.000Z</time>
      </trkpt>
      <trkpt lat="47.28448" lon="-2.28994">
        <ele>24.799999237061</ele>
        <time>2022-07-14T09:08:15.000Z</time>
      </trkpt>
      <trkpt lat="47.28454" lon="-2.28994">
        <ele>24.39999961853</ele>
        <time>2022-07-14T09:08:16.000Z</time>
      </trkpt>
      <trkpt lat="47.28459" lon="-2.28995">
        <ele>23.799999237061</ele>
        <time>2022-07-14T09:08:17.000Z</time>
      </trkpt>
      <trkpt lat="47.28465" lon="-2.28996">
        <ele>23.39999961853</ele>
        <time>2022-07-14T09:08:18.000Z</time>
      </trkpt>
      <trkpt lat="47.28471" lon="-2.28998">
        <ele>23</ele>
        <time>2022-07-14T09:08:19.000Z</time>
      </trkpt>
      <trkpt lat="47.28477" lon="-2.28999">
        <ele>23</ele>
        <time>2022-07-14T09:08:20.000Z</time>
      </trkpt>
      <trkpt lat="47.28496" lon="-2.29007">
        <ele>23</ele>
        <time>2022-07-14T09:08:23.000Z</time>
      </trkpt>
      <trkpt lat="47.28522" lon="-2.29017">
        <ele>23</ele>
        <time>2022-07-14T09:08:27.000Z</time>
      </trkpt>
      <trkpt lat="47.28528" lon="-2.29019">
        <ele>22.60000038147</ele>
        <time>2022-07-14T09:08:28.000Z</time>
      </trkpt>
      <trkpt lat="47.28534" lon="-2.29019">
        <ele>22</ele>
        <time>2022-07-14T09:08:29.000Z</time>
      </trkpt>
      <trkpt lat="47.2854" lon="-2.29019">
        <ele>21.60000038147</ele>
        <time>2022-07-14T09:08:30.000Z</time>
      </trkpt>
      <trkpt lat="47.28546" lon="-2.29021">
        <ele>21.200000762939</ele>
        <time>2022-07-14T09:08:31.000Z</time>
      </trkpt>
      <trkpt lat="47.28552" lon="-2.29022">
        <ele>20.799999237061</ele>
        <time>2022-07-14T09:08:32.000Z</time>
      </trkpt>
      <trkpt lat="47.28558" lon="-2.29023">
        <ele>20.799999237061</ele>
        <time>2022-07-14T09:08:33.000Z</time>
      </trkpt>
      <trkpt lat="47.28576" lon="-2.29028">
        <ele>20.799999237061</ele>
        <time>2022-07-14T09:08:36.000Z</time>
      </trkpt>
      <trkpt lat="47.28587" lon="-2.29033">
        <ele>20.799999237061</ele>
        <time>2022-07-14T09:08:38.000Z</time>
      </trkpt>
      <trkpt lat="47.28598" lon="-2.29048">
        <ele>20.799999237061</ele>
        <time>2022-07-14T09:08:42.000Z</time>
      </trkpt>
      <trkpt lat="47.28603" lon="-2.29055">
        <ele>20.799999237061</ele>
        <time>2022-07-14T09:08:44.000Z</time>
      </trkpt>
      <trkpt lat="47.28606" lon="-2.29068">
        <ele>18.799999237061</ele>
        <time>2022-07-14T09:09:51.000Z</time>
      </trkpt>
      <trkpt lat="47.28606" lon="-2.2907">
        <ele>18.799999237061</ele>
        <time>2022-07-14T09:09:52.000Z</time>
      </trkpt>
      <trkpt lat="47.28603" lon="-2.29089">
        <ele>18.799999237061</ele>
        <time>2022-07-14T09:09:58.000Z</time>
      </trkpt>
      <trkpt lat="47.28593" lon="-2.2912">
        <ele>18.799999237061</ele>
        <time>2022-07-14T09:10:05.000Z</time>
      </trkpt>
      <trkpt lat="47.28582" lon="-2.29143">
        <ele>18.799999237061</ele>
        <time>2022-07-14T09:10:11.000Z</time>
      </trkpt>
      <trkpt lat="47.28565" lon="-2.29162">
        <ele>18.799999237061</ele>
        <time>2022-07-14T09:10:17.000Z</time>
      </trkpt>
      <trkpt lat="47.28545" lon="-2.29181">
        <ele>18.799999237061</ele>
        <time>2022-07-14T09:10:23.000Z</time>
      </trkpt>
      <trkpt lat="47.28528" lon="-2.29196">
        <ele>18.799999237061</ele>
        <time>2022-07-14T09:10:28.000Z</time>
      </trkpt>
      <trkpt lat="47.28526" lon="-2.29201">
        <ele>18.799999237061</ele>
        <time>2022-07-14T09:10:29.000Z</time>
      </trkpt>
      <trkpt lat="47.28526" lon="-2.29216">
        <ele>18.799999237061</ele>
        <time>2022-07-14T09:10:31.000Z</time>
      </trkpt>
      <trkpt lat="47.28526" lon="-2.29267">
        <ele>18.799999237061</ele>
        <time>2022-07-14T09:10:38.000Z</time>
      </trkpt>
      <trkpt lat="47.28525" lon="-2.29283">
        <ele>18.799999237061</ele>
        <time>2022-07-14T09:10:41.000Z</time>
      </trkpt>
      <trkpt lat="47.28524" lon="-2.29287">
        <ele>18.799999237061</ele>
        <time>2022-07-14T09:10:42.000Z</time>
      </trkpt>
      <trkpt lat="47.28509" lon="-2.293">
        <ele>18.799999237061</ele>
        <time>2022-07-14T09:10:46.000Z</time>
      </trkpt>
      <trkpt lat="47.28496" lon="-2.29309">
        <ele>19.200000762939</ele>
        <time>2022-07-14T09:10:49.000Z</time>
      </trkpt>
      <trkpt lat="47.28492" lon="-2.29312">
        <ele>19.60000038147</ele>
        <time>2022-07-14T09:10:50.000Z</time>
      </trkpt>
      <trkpt lat="47.28487" lon="-2.29315">
        <ele>20</ele>
        <time>2022-07-14T09:10:51.000Z</time>
      </trkpt>
      <trkpt lat="47.28483" lon="-2.29318">
        <ele>20.39999961853</ele>
        <time>2022-07-14T09:10:52.000Z</time>
      </trkpt>
      <trkpt lat="47.28479" lon="-2.2932">
        <ele>20.799999237061</ele>
        <time>2022-07-14T09:10:53.000Z</time>
      </trkpt>
      <trkpt lat="47.2846" lon="-2.29327">
        <ele>20.799999237061</ele>
        <time>2022-07-14T09:10:57.000Z</time>
      </trkpt>
      <trkpt lat="47.28455" lon="-2.29329">
        <ele>21.200000762939</ele>
        <time>2022-07-14T09:10:58.000Z</time>
      </trkpt>
      <trkpt lat="47.2845" lon="-2.29331">
        <ele>21.799999237061</ele>
        <time>2022-07-14T09:10:59.000Z</time>
      </trkpt>
      <trkpt lat="47.28445" lon="-2.29333">
        <ele>22.200000762939</ele>
        <time>2022-07-14T09:11:00.000Z</time>
      </trkpt>
      <trkpt lat="47.2844" lon="-2.29334">
        <ele>23.200000762939</ele>
        <time>2022-07-14T09:11:01.000Z</time>
      </trkpt>
      <trkpt lat="47.2843" lon="-2.29338">
        <ele>23.200000762939</ele>
        <time>2022-07-14T09:11:03.000Z</time>
      </trkpt>
      <trkpt lat="47.28396" lon="-2.29356">
        <ele>23.200000762939</ele>
        <time>2022-07-14T09:11:10.000Z</time>
      </trkpt>
      <trkpt lat="47.28356" lon="-2.29383">
        <ele>23.200000762939</ele>
        <time>2022-07-14T09:11:18.000Z</time>
      </trkpt>
      <trkpt lat="47.2832" lon="-2.29421">
        <ele>23.200000762939</ele>
        <time>2022-07-14T09:11:25.000Z</time>
      </trkpt>
      <trkpt lat="47.28276" lon="-2.29461">
        <ele>23.200000762939</ele>
        <time>2022-07-14T09:11:33.000Z</time>
      </trkpt>
      <trkpt lat="47.28253" lon="-2.29474">
        <ele>23.60000038147</ele>
        <time>2022-07-14T09:11:37.000Z</time>
      </trkpt>
      <trkpt lat="47.28247" lon="-2.29477">
        <ele>24</ele>
        <time>2022-07-14T09:11:38.000Z</time>
      </trkpt>
      <trkpt lat="47.28242" lon="-2.2948">
        <ele>24.39999961853</ele>
        <time>2022-07-14T09:11:39.000Z</time>
      </trkpt>
      <trkpt lat="47.28236" lon="-2.29483">
        <ele>24.799999237061</ele>
        <time>2022-07-14T09:11:40.000Z</time>
      </trkpt>
      <trkpt lat="47.2823" lon="-2.29485">
        <ele>25.200000762939</ele>
        <time>2022-07-14T09:11:41.000Z</time>
      </trkpt>
      <trkpt lat="47.28209" lon="-2.29496">
        <ele>25.200000762939</ele>
        <time>2022-07-14T09:11:45.000Z</time>
      </trkpt>
      <trkpt lat="47.28188" lon="-2.29505">
        <ele>25.60000038147</ele>
        <time>2022-07-14T09:11:49.000Z</time>
      </trkpt>
      <trkpt lat="47.28183" lon="-2.29507">
        <ele>26.39999961853</ele>
        <time>2022-07-14T09:11:50.000Z</time>
      </trkpt>
      <trkpt lat="47.28178" lon="-2.2951">
        <ele>27</ele>
        <time>2022-07-14T09:11:51.000Z</time>
      </trkpt>
      <trkpt lat="47.28173" lon="-2.29512">
        <ele>27.39999961853</ele>
        <time>2022-07-14T09:11:52.000Z</time>
      </trkpt>
      <trkpt lat="47.28161" lon="-2.29515">
        <ele>27.39999961853</ele>
        <time>2022-07-14T09:11:54.000Z</time>
      </trkpt>
      <trkpt lat="47.28155" lon="-2.29518">
        <ele>27.39999961853</ele>
        <time>2022-07-14T09:11:55.000Z</time>
      </trkpt>
      <trkpt lat="47.28117" lon="-2.29534">
        <ele>27.799999237061</ele>
        <time>2022-07-14T09:12:01.000Z</time>
      </trkpt>
      <trkpt lat="47.2811" lon="-2.29537">
        <ele>28.200000762939</ele>
        <time>2022-07-14T09:12:02.000Z</time>
      </trkpt>
      <trkpt lat="47.28103" lon="-2.2954">
        <ele>28.60000038147</ele>
        <time>2022-07-14T09:12:03.000Z</time>
      </trkpt>
      <trkpt lat="47.28097" lon="-2.29543">
        <ele>29</ele>
        <time>2022-07-14T09:12:04.000Z</time>
      </trkpt>
      <trkpt lat="47.2809" lon="-2.29545">
        <ele>29.39999961853</ele>
        <time>2022-07-14T09:12:05.000Z</time>
      </trkpt>
      <trkpt lat="47.28071" lon="-2.29554">
        <ele>29.39999961853</ele>
        <time>2022-07-14T09:12:08.000Z</time>
      </trkpt>
      <trkpt lat="47.28032" lon="-2.29571">
        <ele>29.39999961853</ele>
        <time>2022-07-14T09:12:14.000Z</time>
      </trkpt>
      <trkpt lat="47.27984" lon="-2.29589">
        <ele>29.39999961853</ele>
        <time>2022-07-14T09:12:21.000Z</time>
      </trkpt>
      <trkpt lat="47.27946" lon="-2.29598">
        <ele>29.39999961853</ele>
        <time>2022-07-14T09:12:27.000Z</time>
      </trkpt>
      <trkpt lat="47.27913" lon="-2.29593">
        <ele>29.39999961853</ele>
        <time>2022-07-14T09:12:32.000Z</time>
      </trkpt>
      <trkpt lat="47.27864" lon="-2.29589">
        <ele>29.39999961853</ele>
        <time>2022-07-14T09:12:40.000Z</time>
      </trkpt>
      <trkpt lat="47.27855" lon="-2.29586">
        <ele>29.39999961853</ele>
        <time>2022-07-14T09:12:43.000Z</time>
      </trkpt>
      <trkpt lat="47.27842" lon="-2.29586">
        <ele>29.39999961853</ele>
        <time>2022-07-14T09:12:48.000Z</time>
      </trkpt>
      <trkpt lat="47.27834" lon="-2.29587">
        <ele>29.39999961853</ele>
        <time>2022-07-14T09:12:50.000Z</time>
      </trkpt>
      <trkpt lat="47.27823" lon="-2.29588">
        <ele>29.39999961853</ele>
        <time>2022-07-14T09:12:52.000Z</time>
      </trkpt>
      <trkpt lat="47.27792" lon="-2.29591">
        <ele>29.39999961853</ele>
        <time>2022-07-14T09:12:57.000Z</time>
      </trkpt>
      <trkpt lat="47.27785" lon="-2.29592">
        <ele>29.39999961853</ele>
        <time>2022-07-14T09:12:58.000Z</time>
      </trkpt>
      <trkpt lat="47.27771" lon="-2.29593">
        <ele>29</ele>
        <time>2022-07-14T09:13:00.000Z</time>
      </trkpt>
      <trkpt lat="47.27764" lon="-2.29593">
        <ele>28.60000038147</ele>
        <time>2022-07-14T09:13:01.000Z</time>
      </trkpt>
      <trkpt lat="47.27757" lon="-2.29593">
        <ele>28.200000762939</ele>
        <time>2022-07-14T09:13:02.000Z</time>
      </trkpt>
      <trkpt lat="47.2775" lon="-2.29593">
        <ele>27.799999237061</ele>
        <time>2022-07-14T09:13:03.000Z</time>
      </trkpt>
      <trkpt lat="47.27743" lon="-2.29593">
        <ele>27.200000762939</ele>
        <time>2022-07-14T09:13:04.000Z</time>
      </trkpt>
      <trkpt lat="47.27694" lon="-2.29596">
        <ele>27.200000762939</ele>
        <time>2022-07-14T09:13:11.000Z</time>
      </trkpt>
      <trkpt lat="47.27633" lon="-2.29595">
        <ele>27.200000762939</ele>
        <time>2022-07-14T09:13:19.000Z</time>
      </trkpt>
      <trkpt lat="47.27572" lon="-2.29595">
        <ele>27.200000762939</ele>
        <time>2022-07-14T09:13:27.000Z</time>
      </trkpt>
      <trkpt lat="47.27564" lon="-2.29595">
        <ele>27.200000762939</ele>
        <time>2022-07-14T09:13:28.000Z</time>
      </trkpt>
      <trkpt lat="47.27512" lon="-2.29597">
        <ele>27.200000762939</ele>
        <time>2022-07-14T09:13:35.000Z</time>
      </trkpt>
      <trkpt lat="47.27464" lon="-2.2961">
        <ele>27.200000762939</ele>
        <time>2022-07-14T09:13:43.000Z</time>
      </trkpt>
      <trkpt lat="47.27407" lon="-2.29622">
        <ele>27.200000762939</ele>
        <time>2022-07-14T09:13:51.000Z</time>
      </trkpt>
      <trkpt lat="47.2737" lon="-2.29631">
        <ele>27.200000762939</ele>
        <time>2022-07-14T09:13:56.000Z</time>
      </trkpt>
      <trkpt lat="47.2732" lon="-2.2964">
        <ele>27.200000762939</ele>
        <time>2022-07-14T09:14:03.000Z</time>
      </trkpt>
      <trkpt lat="47.2728" lon="-2.29642">
        <ele>27.200000762939</ele>
        <time>2022-07-14T09:14:09.000Z</time>
      </trkpt>
      <trkpt lat="47.27275" lon="-2.29642">
        <ele>27.200000762939</ele>
        <time>2022-07-14T09:14:10.000Z</time>
      </trkpt>
      <trkpt lat="47.27268" lon="-2.29649">
        <ele>27.200000762939</ele>
        <time>2022-07-14T09:14:12.000Z</time>
      </trkpt>
      <trkpt lat="47.27268" lon="-2.29667">
        <ele>27.200000762939</ele>
        <time>2022-07-14T09:14:15.000Z</time>
      </trkpt>
      <trkpt lat="47.27268" lon="-2.29674">
        <ele>27.200000762939</ele>
        <time>2022-07-14T09:14:16.000Z</time>
      </trkpt>
      <trkpt lat="47.27274" lon="-2.29702">
        <ele>27.200000762939</ele>
        <time>2022-07-14T09:14:20.000Z</time>
      </trkpt>
      <trkpt lat="47.27283" lon="-2.29733">
        <ele>27.200000762939</ele>
        <time>2022-07-14T09:14:25.000Z</time>
      </trkpt>
      <trkpt lat="47.27295" lon="-2.29768">
        <ele>27.200000762939</ele>
        <time>2022-07-14T09:14:30.000Z</time>
      </trkpt>
      <trkpt lat="47.27298" lon="-2.29775">
        <ele>27.200000762939</ele>
        <time>2022-07-14T09:14:31.000Z</time>
      </trkpt>
      <trkpt lat="47.27305" lon="-2.29789">
        <ele>27.200000762939</ele>
        <time>2022-07-14T09:14:33.000Z</time>
      </trkpt>
      <trkpt lat="47.27315" lon="-2.29807">
        <ele>27.200000762939</ele>
        <time>2022-07-14T09:14:36.000Z</time>
      </trkpt>
      <trkpt lat="47.2734" lon="-2.29838">
        <ele>27.200000762939</ele>
        <time>2022-07-14T09:14:42.000Z</time>
      </trkpt>
      <trkpt lat="47.27365" lon="-2.29883">
        <ele>27.200000762939</ele>
        <time>2022-07-14T09:14:48.000Z</time>
      </trkpt>
      <trkpt lat="47.27388" lon="-2.29946">
        <ele>27.200000762939</ele>
        <time>2022-07-14T09:14:55.000Z</time>
      </trkpt>
      <trkpt lat="47.27409" lon="-2.30005">
        <ele>27.200000762939</ele>
        <time>2022-07-14T09:15:01.000Z</time>
      </trkpt>
      <trkpt lat="47.2743" lon="-2.30065">
        <ele>27.200000762939</ele>
        <time>2022-07-14T09:15:07.000Z</time>
      </trkpt>
      <trkpt lat="47.27433" lon="-2.30075">
        <ele>27.200000762939</ele>
        <time>2022-07-14T09:15:08.000Z</time>
      </trkpt>
      <trkpt lat="47.27439" lon="-2.30105">
        <ele>27.200000762939</ele>
        <time>2022-07-14T09:15:11.000Z</time>
      </trkpt>
      <trkpt lat="47.27441" lon="-2.30115">
        <ele>26.799999237061</ele>
        <time>2022-07-14T09:15:12.000Z</time>
      </trkpt>
      <trkpt lat="47.27443" lon="-2.30126">
        <ele>26.39999961853</ele>
        <time>2022-07-14T09:15:13.000Z</time>
      </trkpt>
      <trkpt lat="47.27445" lon="-2.30136">
        <ele>26</ele>
        <time>2022-07-14T09:15:14.000Z</time>
      </trkpt>
      <trkpt lat="47.27447" lon="-2.30145">
        <ele>25.60000038147</ele>
        <time>2022-07-14T09:15:15.000Z</time>
      </trkpt>
      <trkpt lat="47.27449" lon="-2.30155">
        <ele>25.200000762939</ele>
        <time>2022-07-14T09:15:16.000Z</time>
      </trkpt>
      <trkpt lat="47.27452" lon="-2.30165">
        <ele>25.200000762939</ele>
        <time>2022-07-14T09:15:17.000Z</time>
      </trkpt>
      <trkpt lat="47.27462" lon="-2.30213">
        <ele>24.799999237061</ele>
        <time>2022-07-14T09:15:22.000Z</time>
      </trkpt>
      <trkpt lat="47.27465" lon="-2.30224">
        <ele>24.39999961853</ele>
        <time>2022-07-14T09:15:23.000Z</time>
      </trkpt>
      <trkpt lat="47.27467" lon="-2.30234">
        <ele>24</ele>
        <time>2022-07-14T09:15:24.000Z</time>
      </trkpt>
      <trkpt lat="47.27469" lon="-2.30243">
        <ele>23.60000038147</ele>
        <time>2022-07-14T09:15:25.000Z</time>
      </trkpt>
      <trkpt lat="47.27471" lon="-2.30253">
        <ele>23.200000762939</ele>
        <time>2022-07-14T09:15:26.000Z</time>
      </trkpt>
      <trkpt lat="47.27478" lon="-2.30299">
        <ele>22.799999237061</ele>
        <time>2022-07-14T09:15:30.000Z</time>
      </trkpt>
      <trkpt lat="47.27479" lon="-2.3031">
        <ele>22.39999961853</ele>
        <time>2022-07-14T09:15:31.000Z</time>
      </trkpt>
      <trkpt lat="47.27482" lon="-2.3032">
        <ele>21.60000038147</ele>
        <time>2022-07-14T09:15:32.000Z</time>
      </trkpt>
      <trkpt lat="47.27485" lon="-2.30331">
        <ele>21.200000762939</ele>
        <time>2022-07-14T09:15:33.000Z</time>
      </trkpt>
      <trkpt lat="47.27491" lon="-2.30353">
        <ele>20.799999237061</ele>
        <time>2022-07-14T09:15:35.000Z</time>
      </trkpt>
      <trkpt lat="47.27494" lon="-2.30364">
        <ele>20.39999961853</ele>
        <time>2022-07-14T09:15:36.000Z</time>
      </trkpt>
      <trkpt lat="47.27497" lon="-2.30375">
        <ele>19.799999237061</ele>
        <time>2022-07-14T09:15:37.000Z</time>
      </trkpt>
      <trkpt lat="47.27499" lon="-2.30385">
        <ele>19.39999961853</ele>
        <time>2022-07-14T09:15:38.000Z</time>
      </trkpt>
      <trkpt lat="47.27501" lon="-2.30395">
        <ele>19</ele>
        <time>2022-07-14T09:15:39.000Z</time>
      </trkpt>
      <trkpt lat="47.27503" lon="-2.30421">
        <ele>19</ele>
        <time>2022-07-14T09:15:42.000Z</time>
      </trkpt>
      <trkpt lat="47.27501" lon="-2.30426">
        <ele>19</ele>
        <time>2022-07-14T09:15:43.000Z</time>
      </trkpt>
      <trkpt lat="47.27496" lon="-2.30435">
        <ele>19</ele>
        <time>2022-07-14T09:15:45.000Z</time>
      </trkpt>
      <trkpt lat="47.27474" lon="-2.30443">
        <ele>19</ele>
        <time>2022-07-14T09:15:50.000Z</time>
      </trkpt>
      <trkpt lat="47.27449" lon="-2.30448">
        <ele>19</ele>
        <time>2022-07-14T09:15:56.000Z</time>
      </trkpt>
      <trkpt lat="47.27435" lon="-2.30452">
        <ele>19</ele>
        <time>2022-07-14T09:16:01.000Z</time>
      </trkpt>
      <trkpt lat="47.27429" lon="-2.30454">
        <ele>19</ele>
        <time>2022-07-14T09:16:06.000Z</time>
      </trkpt>
      <trkpt lat="47.27428" lon="-2.30455">
        <ele>19</ele>
        <time>2022-07-14T09:16:07.000Z</time>
      </trkpt>
      <trkpt lat="47.27427" lon="-2.30456">
        <ele>19</ele>
        <time>2022-07-14T09:16:10.000Z</time>
      </trkpt>
      <trkpt lat="47.27421" lon="-2.30462">
        <ele>19</ele>
        <time>2022-07-14T09:16:36.000Z</time>
      </trkpt>
      <trkpt lat="47.2742" lon="-2.30463">
        <ele>18.60000038147</ele>
        <time>2022-07-14T09:16:37.000Z</time>
      </trkpt>
      <trkpt lat="47.27418" lon="-2.30465">
        <ele>18.200000762939</ele>
        <time>2022-07-14T09:16:38.000Z</time>
      </trkpt>
      <trkpt lat="47.27416" lon="-2.30467">
        <ele>17.60000038147</ele>
        <time>2022-07-14T09:16:39.000Z</time>
      </trkpt>
      <trkpt lat="47.27414" lon="-2.30468">
        <ele>17.200000762939</ele>
        <time>2022-07-14T09:16:40.000Z</time>
      </trkpt>
      <trkpt lat="47.27411" lon="-2.3047">
        <ele>16.799999237061</ele>
        <time>2022-07-14T09:16:41.000Z</time>
      </trkpt>
      <trkpt lat="47.27403" lon="-2.30479">
        <ele>16.799999237061</ele>
        <time>2022-07-14T09:16:44.000Z</time>
      </trkpt>
      <trkpt lat="47.274" lon="-2.30481">
        <ele>16.799999237061</ele>
        <time>2022-07-14T09:16:45.000Z</time>
      </trkpt>
      <trkpt lat="47.2739" lon="-2.30487">
        <ele>16.799999237061</ele>
        <time>2022-07-14T09:16:49.000Z</time>
      </trkpt>
      <trkpt lat="47.27378" lon="-2.30496">
        <ele>16.799999237061</ele>
        <time>2022-07-14T09:16:54.000Z</time>
      </trkpt>
      <trkpt lat="47.27357" lon="-2.30503">
        <ele>16.799999237061</ele>
        <time>2022-07-14T09:16:59.000Z</time>
      </trkpt>
      <trkpt lat="47.27327" lon="-2.30516">
        <ele>16.799999237061</ele>
        <time>2022-07-14T09:17:05.000Z</time>
      </trkpt>
      <trkpt lat="47.27307" lon="-2.30529">
        <ele>16.799999237061</ele>
        <time>2022-07-14T09:17:09.000Z</time>
      </trkpt>
      <trkpt lat="47.27288" lon="-2.30537">
        <ele>16.799999237061</ele>
        <time>2022-07-14T09:17:14.000Z</time>
      </trkpt>
      <trkpt lat="47.27273" lon="-2.3054">
        <ele>16.799999237061</ele>
        <time>2022-07-14T09:17:19.000Z</time>
      </trkpt>
      <trkpt lat="47.2726" lon="-2.30541">
        <ele>16.799999237061</ele>
        <time>2022-07-14T09:17:23.000Z</time>
      </trkpt>
      <trkpt lat="47.27249" lon="-2.30542">
        <ele>16.799999237061</ele>
        <time>2022-07-14T09:17:28.000Z</time>
      </trkpt>
      <trkpt lat="47.27237" lon="-2.30545">
        <ele>16.799999237061</ele>
        <time>2022-07-14T09:17:32.000Z</time>
      </trkpt>
      <trkpt lat="47.27227" lon="-2.30547">
        <ele>16.799999237061</ele>
        <time>2022-07-14T09:17:36.000Z</time>
      </trkpt>
      <trkpt lat="47.27214" lon="-2.30546">
        <ele>16.799999237061</ele>
        <time>2022-07-14T09:17:40.000Z</time>
      </trkpt>
      <trkpt lat="47.27211" lon="-2.30545">
        <ele>16.799999237061</ele>
        <time>2022-07-14T09:17:41.000Z</time>
      </trkpt>
      <trkpt lat="47.27194" lon="-2.30543">
        <ele>16.799999237061</ele>
        <time>2022-07-14T09:17:46.000Z</time>
      </trkpt>
      <trkpt lat="47.27181" lon="-2.30537">
        <ele>17.200000762939</ele>
        <time>2022-07-14T09:17:50.000Z</time>
      </trkpt>
      <trkpt lat="47.27177" lon="-2.30533">
        <ele>17.60000038147</ele>
        <time>2022-07-14T09:17:51.000Z</time>
      </trkpt>
      <trkpt lat="47.27173" lon="-2.3053">
        <ele>18</ele>
        <time>2022-07-14T09:17:52.000Z</time>
      </trkpt>
      <trkpt lat="47.27167" lon="-2.30526">
        <ele>18.60000038147</ele>
        <time>2022-07-14T09:17:53.000Z</time>
      </trkpt>
      <trkpt lat="47.27162" lon="-2.30523">
        <ele>19</ele>
        <time>2022-07-14T09:17:54.000Z</time>
      </trkpt>
      <trkpt lat="47.27154" lon="-2.3052">
        <ele>19</ele>
        <time>2022-07-14T09:17:56.000Z</time>
      </trkpt>
      <trkpt lat="47.27141" lon="-2.30516">
        <ele>19</ele>
        <time>2022-07-14T09:17:59.000Z</time>
      </trkpt>
      <trkpt lat="47.27137" lon="-2.30516">
        <ele>19</ele>
        <time>2022-07-14T09:18:00.000Z</time>
      </trkpt>
      <trkpt lat="47.27123" lon="-2.30512">
        <ele>19</ele>
        <time>2022-07-14T09:18:04.000Z</time>
      </trkpt>
      <trkpt lat="47.27118" lon="-2.30511">
        <ele>19.39999961853</ele>
        <time>2022-07-14T09:18:05.000Z</time>
      </trkpt>
      <trkpt lat="47.27113" lon="-2.30509">
        <ele>19.799999237061</ele>
        <time>2022-07-14T09:18:06.000Z</time>
      </trkpt>
      <trkpt lat="47.27109" lon="-2.30507">
        <ele>20.200000762939</ele>
        <time>2022-07-14T09:18:07.000Z</time>
      </trkpt>
      <trkpt lat="47.27105" lon="-2.30505">
        <ele>20.60000038147</ele>
        <time>2022-07-14T09:18:08.000Z</time>
      </trkpt>
      <trkpt lat="47.271" lon="-2.30504">
        <ele>21</ele>
        <time>2022-07-14T09:18:09.000Z</time>
      </trkpt>
      <trkpt lat="47.27088" lon="-2.30499">
        <ele>21</ele>
        <time>2022-07-14T09:18:12.000Z</time>
      </trkpt>
      <trkpt lat="47.27069" lon="-2.30493">
        <ele>21</ele>
        <time>2022-07-14T09:18:17.000Z</time>
      </trkpt>
      <trkpt lat="47.27058" lon="-2.30486">
        <ele>21</ele>
        <time>2022-07-14T09:18:21.000Z</time>
      </trkpt>
      <trkpt lat="47.27054" lon="-2.30484">
        <ele>21</ele>
        <time>2022-07-14T09:18:23.000Z</time>
      </trkpt>
      <trkpt lat="47.27052" lon="-2.30482">
        <ele>21.39999961853</ele>
        <time>2022-07-14T09:18:25.000Z</time>
      </trkpt>
      <trkpt lat="47.2705" lon="-2.30482">
        <ele>23</ele>
        <time>2022-07-14T09:19:51.000Z</time>
      </trkpt>
      <trkpt lat="47.27043" lon="-2.30493">
        <ele>23</ele>
        <time>2022-07-14T09:19:56.000Z</time>
      </trkpt>
      <trkpt lat="47.27039" lon="-2.30509">
        <ele>23</ele>
        <time>2022-07-14T09:20:01.000Z</time>
      </trkpt>
      <trkpt lat="47.27034" lon="-2.30529">
        <ele>23</ele>
        <time>2022-07-14T09:20:05.000Z</time>
      </trkpt>
      <trkpt lat="47.27024" lon="-2.30559">
        <ele>23</ele>
        <time>2022-07-14T09:20:10.000Z</time>
      </trkpt>
      <trkpt lat="47.27019" lon="-2.30573">
        <ele>23</ele>
        <time>2022-07-14T09:20:12.000Z</time>
      </trkpt>
      <trkpt lat="47.2701" lon="-2.30583">
        <ele>23</ele>
        <time>2022-07-14T09:20:14.000Z</time>
      </trkpt>
      <trkpt lat="47.27" lon="-2.30591">
        <ele>23</ele>
        <time>2022-07-14T09:20:16.000Z</time>
      </trkpt>
      <trkpt lat="47.26983" lon="-2.30601">
        <ele>23</ele>
        <time>2022-07-14T09:20:19.000Z</time>
      </trkpt>
      <trkpt lat="47.26955" lon="-2.30624">
        <ele>23</ele>
        <time>2022-07-14T09:20:24.000Z</time>
      </trkpt>
      <trkpt lat="47.2694" lon="-2.30631">
        <ele>23</ele>
        <time>2022-07-14T09:20:27.000Z</time>
      </trkpt>
      <trkpt lat="47.26934" lon="-2.30632">
        <ele>23</ele>
        <time>2022-07-14T09:20:28.000Z</time>
      </trkpt>
      <trkpt lat="47.26929" lon="-2.30634">
        <ele>23</ele>
        <time>2022-07-14T09:20:29.000Z</time>
      </trkpt>
      <trkpt lat="47.26913" lon="-2.30646">
        <ele>23</ele>
        <time>2022-07-14T09:20:33.000Z</time>
      </trkpt>
      <trkpt lat="47.26904" lon="-2.30658">
        <ele>23</ele>
        <time>2022-07-14T09:20:36.000Z</time>
      </trkpt>
      <trkpt lat="47.26904" lon="-2.30668">
        <ele>23</ele>
        <time>2022-07-14T09:20:38.000Z</time>
      </trkpt>
      <trkpt lat="47.26912" lon="-2.30682">
        <ele>23</ele>
        <time>2022-07-14T09:20:42.000Z</time>
      </trkpt>
      <trkpt lat="47.26914" lon="-2.30686">
        <ele>23</ele>
        <time>2022-07-14T09:20:43.000Z</time>
      </trkpt>
      <trkpt lat="47.26929" lon="-2.30705">
        <ele>23</ele>
        <time>2022-07-14T09:20:49.000Z</time>
      </trkpt>
      <trkpt lat="47.26946" lon="-2.30732">
        <ele>23</ele>
        <time>2022-07-14T09:20:55.000Z</time>
      </trkpt>
      <trkpt lat="47.2695" lon="-2.30737">
        <ele>23</ele>
        <time>2022-07-14T09:20:56.000Z</time>
      </trkpt>
      <trkpt lat="47.26964" lon="-2.30755">
        <ele>23</ele>
        <time>2022-07-14T09:21:00.000Z</time>
      </trkpt>
      <trkpt lat="47.26971" lon="-2.30766">
        <ele>22.60000038147</ele>
        <time>2022-07-14T09:21:02.000Z</time>
      </trkpt>
      <trkpt lat="47.26974" lon="-2.30772">
        <ele>22.200000762939</ele>
        <time>2022-07-14T09:21:03.000Z</time>
      </trkpt>
      <trkpt lat="47.26978" lon="-2.30777">
        <ele>21.799999237061</ele>
        <time>2022-07-14T09:21:04.000Z</time>
      </trkpt>
      <trkpt lat="47.26982" lon="-2.30781">
        <ele>21.39999961853</ele>
        <time>2022-07-14T09:21:05.000Z</time>
      </trkpt>
      <trkpt lat="47.26986" lon="-2.30786">
        <ele>21</ele>
        <time>2022-07-14T09:21:06.000Z</time>
      </trkpt>
      <trkpt lat="47.27009" lon="-2.30817">
        <ele>21</ele>
        <time>2022-07-14T09:21:11.000Z</time>
      </trkpt>
      <trkpt lat="47.27013" lon="-2.30824">
        <ele>20.60000038147</ele>
        <time>2022-07-14T09:21:12.000Z</time>
      </trkpt>
      <trkpt lat="47.27016" lon="-2.30828">
        <ele>20.200000762939</ele>
        <time>2022-07-14T09:21:13.000Z</time>
      </trkpt>
      <trkpt lat="47.27017" lon="-2.30831">
        <ele>19.799999237061</ele>
        <time>2022-07-14T09:21:14.000Z</time>
      </trkpt>
      <trkpt lat="47.2702" lon="-2.30834">
        <ele>19.39999961853</ele>
        <time>2022-07-14T09:21:15.000Z</time>
      </trkpt>
      <trkpt lat="47.27023" lon="-2.30837">
        <ele>19</ele>
        <time>2022-07-14T09:21:16.000Z</time>
      </trkpt>
      <trkpt lat="47.27024" lon="-2.3084">
        <ele>19</ele>
        <time>2022-07-14T09:21:17.000Z</time>
      </trkpt>
      <trkpt lat="47.27024" lon="-2.30842">
        <ele>19</ele>
        <time>2022-07-14T09:21:18.000Z</time>
      </trkpt>
      <trkpt lat="47.27032" lon="-2.30855">
        <ele>19</ele>
        <time>2022-07-14T09:21:24.000Z</time>
      </trkpt>
      <trkpt lat="47.27035" lon="-2.3086">
        <ele>18.60000038147</ele>
        <time>2022-07-14T09:21:26.000Z</time>
      </trkpt>
      <trkpt lat="47.27037" lon="-2.30863">
        <ele>18.200000762939</ele>
        <time>2022-07-14T09:21:27.000Z</time>
      </trkpt>
      <trkpt lat="47.27039" lon="-2.30865">
        <ele>17.799999237061</ele>
        <time>2022-07-14T09:21:28.000Z</time>
      </trkpt>
      <trkpt lat="47.27041" lon="-2.30867">
        <ele>17.39999961853</ele>
        <time>2022-07-14T09:21:29.000Z</time>
      </trkpt>
      <trkpt lat="47.27043" lon="-2.30869">
        <ele>17</ele>
        <time>2022-07-14T09:21:30.000Z</time>
      </trkpt>
      <trkpt lat="47.27045" lon="-2.30871">
        <ele>17</ele>
        <time>2022-07-14T09:21:31.000Z</time>
      </trkpt>
      <trkpt lat="47.27048" lon="-2.3088">
        <ele>17</ele>
        <time>2022-07-14T09:21:35.000Z</time>
      </trkpt>
      <trkpt lat="47.27048" lon="-2.30882">
        <ele>17</ele>
        <time>2022-07-14T09:21:36.000Z</time>
      </trkpt>
      <trkpt lat="47.27049" lon="-2.30884">
        <ele>17</ele>
        <time>2022-07-14T09:21:37.000Z</time>
      </trkpt>
      <trkpt lat="47.27053" lon="-2.30893">
        <ele>17</ele>
        <time>2022-07-14T09:21:41.000Z</time>
      </trkpt>
      <trkpt lat="47.27056" lon="-2.309">
        <ele>17</ele>
        <time>2022-07-14T09:21:43.000Z</time>
      </trkpt>
      <trkpt lat="47.27061" lon="-2.30918">
        <ele>17</ele>
        <time>2022-07-14T09:21:47.000Z</time>
      </trkpt>
      <trkpt lat="47.27064" lon="-2.30935">
        <ele>17</ele>
        <time>2022-07-14T09:21:51.000Z</time>
      </trkpt>
      <trkpt lat="47.27064" lon="-2.30955">
        <ele>17</ele>
        <time>2022-07-14T09:21:55.000Z</time>
      </trkpt>
      <trkpt lat="47.27063" lon="-2.3096">
        <ele>17</ele>
        <time>2022-07-14T09:21:56.000Z</time>
      </trkpt>
      <trkpt lat="47.27055" lon="-2.30984">
        <ele>17</ele>
        <time>2022-07-14T09:22:02.000Z</time>
      </trkpt>
      <trkpt lat="47.27049" lon="-2.30992">
        <ele>17</ele>
        <time>2022-07-14T09:22:04.000Z</time>
      </trkpt>
      <trkpt lat="47.27042" lon="-2.31003">
        <ele>17</ele>
        <time>2022-07-14T09:22:07.000Z</time>
      </trkpt>
      <trkpt lat="47.27022" lon="-2.31032">
        <ele>17</ele>
        <time>2022-07-14T09:22:12.000Z</time>
      </trkpt>
      <trkpt lat="47.27009" lon="-2.31046">
        <ele>17.39999961853</ele>
        <time>2022-07-14T09:22:15.000Z</time>
      </trkpt>
      <trkpt lat="47.27007" lon="-2.31052">
        <ele>17.799999237061</ele>
        <time>2022-07-14T09:22:16.000Z</time>
      </trkpt>
      <trkpt lat="47.27006" lon="-2.31058">
        <ele>18.200000762939</ele>
        <time>2022-07-14T09:22:17.000Z</time>
      </trkpt>
      <trkpt lat="47.27007" lon="-2.31063">
        <ele>18.60000038147</ele>
        <time>2022-07-14T09:22:18.000Z</time>
      </trkpt>
      <trkpt lat="47.27007" lon="-2.31068">
        <ele>19</ele>
        <time>2022-07-14T09:22:19.000Z</time>
      </trkpt>
      <trkpt lat="47.27006" lon="-2.31073">
        <ele>19</ele>
        <time>2022-07-14T09:22:20.000Z</time>
      </trkpt>
      <trkpt lat="47.27005" lon="-2.3108">
        <ele>19</ele>
        <time>2022-07-14T09:22:21.000Z</time>
      </trkpt>
      <trkpt lat="47.27001" lon="-2.31109">
        <ele>19</ele>
        <time>2022-07-14T09:22:27.000Z</time>
      </trkpt>
      <trkpt lat="47.26998" lon="-2.31135">
        <ele>19</ele>
        <time>2022-07-14T09:22:33.000Z</time>
      </trkpt>
      <trkpt lat="47.26997" lon="-2.31146">
        <ele>19.39999961853</ele>
        <time>2022-07-14T09:22:35.000Z</time>
      </trkpt>
      <trkpt lat="47.26996" lon="-2.31151">
        <ele>19.799999237061</ele>
        <time>2022-07-14T09:22:36.000Z</time>
      </trkpt>
      <trkpt lat="47.26995" lon="-2.31157">
        <ele>20.200000762939</ele>
        <time>2022-07-14T09:22:37.000Z</time>
      </trkpt>
      <trkpt lat="47.26994" lon="-2.31162">
        <ele>20.799999237061</ele>
        <time>2022-07-14T09:22:38.000Z</time>
      </trkpt>
      <trkpt lat="47.26993" lon="-2.31167">
        <ele>21.200000762939</ele>
        <time>2022-07-14T09:22:39.000Z</time>
      </trkpt>
      <trkpt lat="47.26989" lon="-2.31193">
        <ele>21.200000762939</ele>
        <time>2022-07-14T09:22:44.000Z</time>
      </trkpt>
      <trkpt lat="47.26986" lon="-2.31223">
        <ele>21.200000762939</ele>
        <time>2022-07-14T09:22:49.000Z</time>
      </trkpt>
      <trkpt lat="47.26986" lon="-2.31253">
        <ele>21.60000038147</ele>
        <time>2022-07-14T09:22:54.000Z</time>
      </trkpt>
      <trkpt lat="47.26986" lon="-2.31258">
        <ele>22</ele>
        <time>2022-07-14T09:22:55.000Z</time>
      </trkpt>
      <trkpt lat="47.26986" lon="-2.31264">
        <ele>22.799999237061</ele>
        <time>2022-07-14T09:22:56.000Z</time>
      </trkpt>
      <trkpt lat="47.26986" lon="-2.31271">
        <ele>23.200000762939</ele>
        <time>2022-07-14T09:22:57.000Z</time>
      </trkpt>
      <trkpt lat="47.26987" lon="-2.3129">
        <ele>23.200000762939</ele>
        <time>2022-07-14T09:23:00.000Z</time>
      </trkpt>
      <trkpt lat="47.26987" lon="-2.3133">
        <ele>23.200000762939</ele>
        <time>2022-07-14T09:23:06.000Z</time>
      </trkpt>
      <trkpt lat="47.26988" lon="-2.31362">
        <ele>23.200000762939</ele>
        <time>2022-07-14T09:23:10.000Z</time>
      </trkpt>
      <trkpt lat="47.26989" lon="-2.31379">
        <ele>23.200000762939</ele>
        <time>2022-07-14T09:23:12.000Z</time>
      </trkpt>
      <trkpt lat="47.26989" lon="-2.31387">
        <ele>22.799999237061</ele>
        <time>2022-07-14T09:23:13.000Z</time>
      </trkpt>
      <trkpt lat="47.2699" lon="-2.31395">
        <ele>22.39999961853</ele>
        <time>2022-07-14T09:23:14.000Z</time>
      </trkpt>
      <trkpt lat="47.26991" lon="-2.31402">
        <ele>22</ele>
        <time>2022-07-14T09:23:15.000Z</time>
      </trkpt>
      <trkpt lat="47.26991" lon="-2.3141">
        <ele>21.60000038147</ele>
        <time>2022-07-14T09:23:16.000Z</time>
      </trkpt>
      <trkpt lat="47.26991" lon="-2.31418">
        <ele>21.200000762939</ele>
        <time>2022-07-14T09:23:17.000Z</time>
      </trkpt>
      <trkpt lat="47.26993" lon="-2.31438">
        <ele>21.200000762939</ele>
        <time>2022-07-14T09:23:20.000Z</time>
      </trkpt>
      <trkpt lat="47.26994" lon="-2.31445">
        <ele>21.200000762939</ele>
        <time>2022-07-14T09:23:21.000Z</time>
      </trkpt>
      <trkpt lat="47.26996" lon="-2.31452">
        <ele>20.799999237061</ele>
        <time>2022-07-14T09:23:22.000Z</time>
      </trkpt>
      <trkpt lat="47.26996" lon="-2.31459">
        <ele>20.39999961853</ele>
        <time>2022-07-14T09:23:23.000Z</time>
      </trkpt>
      <trkpt lat="47.26997" lon="-2.31467">
        <ele>20</ele>
        <time>2022-07-14T09:23:24.000Z</time>
      </trkpt>
      <trkpt lat="47.26999" lon="-2.31476">
        <ele>19.60000038147</ele>
        <time>2022-07-14T09:23:25.000Z</time>
      </trkpt>
      <trkpt lat="47.27001" lon="-2.31485">
        <ele>19.200000762939</ele>
        <time>2022-07-14T09:23:26.000Z</time>
      </trkpt>
      <trkpt lat="47.27006" lon="-2.31508">
        <ele>18.799999237061</ele>
        <time>2022-07-14T09:23:29.000Z</time>
      </trkpt>
      <trkpt lat="47.27007" lon="-2.31516">
        <ele>18.200000762939</ele>
        <time>2022-07-14T09:23:30.000Z</time>
      </trkpt>
      <trkpt lat="47.2701" lon="-2.31526">
        <ele>17.799999237061</ele>
        <time>2022-07-14T09:23:31.000Z</time>
      </trkpt>
      <trkpt lat="47.27012" lon="-2.31534">
        <ele>17.39999961853</ele>
        <time>2022-07-14T09:23:32.000Z</time>
      </trkpt>
      <trkpt lat="47.27015" lon="-2.31541">
        <ele>17</ele>
        <time>2022-07-14T09:23:33.000Z</time>
      </trkpt>
      <trkpt lat="47.27022" lon="-2.31561">
        <ele>16.60000038147</ele>
        <time>2022-07-14T09:23:36.000Z</time>
      </trkpt>
      <trkpt lat="47.27024" lon="-2.31566">
        <ele>16</ele>
        <time>2022-07-14T09:23:37.000Z</time>
      </trkpt>
      <trkpt lat="47.27026" lon="-2.31572">
        <ele>15.60000038147</ele>
        <time>2022-07-14T09:23:38.000Z</time>
      </trkpt>
      <trkpt lat="47.27027" lon="-2.31578">
        <ele>15.199999809265</ele>
        <time>2022-07-14T09:23:39.000Z</time>
      </trkpt>
      <trkpt lat="47.27028" lon="-2.31583">
        <ele>14.60000038147</ele>
        <time>2022-07-14T09:23:40.000Z</time>
      </trkpt>
      <trkpt lat="47.27029" lon="-2.31588">
        <ele>14.199999809265</ele>
        <time>2022-07-14T09:23:41.000Z</time>
      </trkpt>
      <trkpt lat="47.2703" lon="-2.31593">
        <ele>13.800000190735</ele>
        <time>2022-07-14T09:23:42.000Z</time>
      </trkpt>
      <trkpt lat="47.27031" lon="-2.316">
        <ele>13.39999961853</ele>
        <time>2022-07-14T09:23:43.000Z</time>
      </trkpt>
      <trkpt lat="47.27032" lon="-2.31608">
        <ele>13</ele>
        <time>2022-07-14T09:23:44.000Z</time>
      </trkpt>
      <trkpt lat="47.27033" lon="-2.31617">
        <ele>12.60000038147</ele>
        <time>2022-07-14T09:23:45.000Z</time>
      </trkpt>
      <trkpt lat="47.27034" lon="-2.3164">
        <ele>12.60000038147</ele>
        <time>2022-07-14T09:23:49.000Z</time>
      </trkpt>
      <trkpt lat="47.27034" lon="-2.31646">
        <ele>12.199999809265</ele>
        <time>2022-07-14T09:23:50.000Z</time>
      </trkpt>
      <trkpt lat="47.27035" lon="-2.31651">
        <ele>11.800000190735</ele>
        <time>2022-07-14T09:23:51.000Z</time>
      </trkpt>
      <trkpt lat="47.27035" lon="-2.31657">
        <ele>11.199999809265</ele>
        <time>2022-07-14T09:23:52.000Z</time>
      </trkpt>
      <trkpt lat="47.27034" lon="-2.31663">
        <ele>10.800000190735</ele>
        <time>2022-07-14T09:23:53.000Z</time>
      </trkpt>
      <trkpt lat="47.27033" lon="-2.31668">
        <ele>10.39999961853</ele>
        <time>2022-07-14T09:23:54.000Z</time>
      </trkpt>
      <trkpt lat="47.27033" lon="-2.31675">
        <ele>10.39999961853</ele>
        <time>2022-07-14T09:23:55.000Z</time>
      </trkpt>
      <trkpt lat="47.27034" lon="-2.31685">
        <ele>10.39999961853</ele>
        <time>2022-07-14T09:23:57.000Z</time>
      </trkpt>
      <trkpt lat="47.27041" lon="-2.31704">
        <ele>10.39999961853</ele>
        <time>2022-07-14T09:24:01.000Z</time>
      </trkpt>
      <trkpt lat="47.27044" lon="-2.31711">
        <ele>10</ele>
        <time>2022-07-14T09:24:02.000Z</time>
      </trkpt>
      <trkpt lat="47.27046" lon="-2.31717">
        <ele>9.6000003814697</ele>
        <time>2022-07-14T09:24:03.000Z</time>
      </trkpt>
      <trkpt lat="47.27046" lon="-2.31723">
        <ele>9.1999998092651</ele>
        <time>2022-07-14T09:24:04.000Z</time>
      </trkpt>
      <trkpt lat="47.27046" lon="-2.31729">
        <ele>8.8000001907349</ele>
        <time>2022-07-14T09:24:05.000Z</time>
      </trkpt>
      <trkpt lat="47.27048" lon="-2.31737">
        <ele>8.3999996185303</ele>
        <time>2022-07-14T09:24:06.000Z</time>
      </trkpt>
      <trkpt lat="47.27049" lon="-2.31744">
        <ele>8.3999996185303</ele>
        <time>2022-07-14T09:24:07.000Z</time>
      </trkpt>
      <trkpt lat="47.27051" lon="-2.31751">
        <ele>8.3999996185303</ele>
        <time>2022-07-14T09:24:08.000Z</time>
      </trkpt>
      <trkpt lat="47.27052" lon="-2.3176">
        <ele>8.3999996185303</ele>
        <time>2022-07-14T09:24:09.000Z</time>
      </trkpt>
      <trkpt lat="47.27056" lon="-2.31795">
        <ele>8.3999996185303</ele>
        <time>2022-07-14T09:24:13.000Z</time>
      </trkpt>
      <trkpt lat="47.27057" lon="-2.31804">
        <ele>7.8000001907349</ele>
        <time>2022-07-14T09:24:14.000Z</time>
      </trkpt>
      <trkpt lat="47.27058" lon="-2.31811">
        <ele>7.4000000953674</ele>
        <time>2022-07-14T09:24:15.000Z</time>
      </trkpt>
      <trkpt lat="47.27058" lon="-2.31819">
        <ele>7</ele>
        <time>2022-07-14T09:24:16.000Z</time>
      </trkpt>
      <trkpt lat="47.27059" lon="-2.31823">
        <ele>6.5999999046326</ele>
        <time>2022-07-14T09:24:17.000Z</time>
      </trkpt>
      <trkpt lat="47.27059" lon="-2.31825">
        <ele>6.1999998092651</ele>
        <time>2022-07-14T09:24:18.000Z</time>
      </trkpt>
      <trkpt lat="47.27059" lon="-2.31828">
        <ele>6.1999998092651</ele>
        <time>2022-07-14T09:24:19.000Z</time>
      </trkpt>
      <trkpt lat="47.27064" lon="-2.31842">
        <ele>6.1999998092651</ele>
        <time>2022-07-14T09:24:24.000Z</time>
      </trkpt>
      <trkpt lat="47.27072" lon="-2.31851">
        <ele>6.1999998092651</ele>
        <time>2022-07-14T09:24:32.000Z</time>
      </trkpt>
      <trkpt lat="47.27073" lon="-2.31851">
        <ele>5.8000001907349</ele>
        <time>2022-07-14T09:24:33.000Z</time>
      </trkpt>
      <trkpt lat="47.27074" lon="-2.31852">
        <ele>5.4000000953674</ele>
        <time>2022-07-14T09:24:34.000Z</time>
      </trkpt>
      <trkpt lat="47.27074" lon="-2.31852">
        <ele>4.5999999046326</ele>
        <time>2022-07-14T09:24:35.000Z</time>
      </trkpt>
      <trkpt lat="47.27075" lon="-2.31854">
        <ele>4.1999998092651</ele>
        <time>2022-07-14T09:24:36.000Z</time>
      </trkpt>
      <trkpt lat="47.27075" lon="-2.31856">
        <ele>4.1999998092651</ele>
        <time>2022-07-14T09:24:38.000Z</time>
      </trkpt>
      <trkpt lat="47.27074" lon="-2.31867">
        <ele>4.1999998092651</ele>
        <time>2022-07-14T09:24:44.000Z</time>
      </trkpt>
      <trkpt lat="47.27072" lon="-2.31875">
        <ele>4.1999998092651</ele>
        <time>2022-07-14T09:24:47.000Z</time>
      </trkpt>
      <trkpt lat="47.27073" lon="-2.31878">
        <ele>4.1999998092651</ele>
        <time>2022-07-14T09:24:48.000Z</time>
      </trkpt>
      <trkpt lat="47.27076" lon="-2.31895">
        <ele>4.1999998092651</ele>
        <time>2022-07-14T09:24:54.000Z</time>
      </trkpt>
      <trkpt lat="47.27079" lon="-2.31915">
        <ele>4.1999998092651</ele>
        <time>2022-07-14T09:25:00.000Z</time>
      </trkpt>
      <trkpt lat="47.27078" lon="-2.31931">
        <ele>4.1999998092651</ele>
        <time>2022-07-14T09:25:03.000Z</time>
      </trkpt>
      <trkpt lat="47.27075" lon="-2.31936">
        <ele>4.1999998092651</ele>
        <time>2022-07-14T09:25:04.000Z</time>
      </trkpt>
      <trkpt lat="47.2706" lon="-2.31944">
        <ele>4.1999998092651</ele>
        <time>2022-07-14T09:25:08.000Z</time>
      </trkpt>
      <trkpt lat="47.27042" lon="-2.31948">
        <ele>4.1999998092651</ele>
        <time>2022-07-14T09:25:13.000Z</time>
      </trkpt>
      <trkpt lat="47.27031" lon="-2.3196">
        <ele>4.1999998092651</ele>
        <time>2022-07-14T09:25:17.000Z</time>
      </trkpt>
      <trkpt lat="47.27023" lon="-2.3197">
        <ele>4.1999998092651</ele>
        <time>2022-07-14T09:25:22.000Z</time>
      </trkpt>
      <trkpt lat="47.27007" lon="-2.31983">
        <ele>4.1999998092651</ele>
        <time>2022-07-14T09:25:43.000Z</time>
      </trkpt>
      <trkpt lat="47.27005" lon="-2.3199">
        <ele>4.1999998092651</ele>
        <time>2022-07-14T09:25:46.000Z</time>
      </trkpt>
      <trkpt lat="47.27006" lon="-2.31993">
        <ele>4.1999998092651</ele>
        <time>2022-07-14T09:25:47.000Z</time>
      </trkpt>
      <trkpt lat="47.27007" lon="-2.32006">
        <ele>4.1999998092651</ele>
        <time>2022-07-14T09:25:50.000Z</time>
      </trkpt>
      <trkpt lat="47.27014" lon="-2.32029">
        <ele>3.5999999046326</ele>
        <time>2022-07-14T09:25:54.000Z</time>
      </trkpt>
      <trkpt lat="47.27015" lon="-2.32036">
        <ele>3.2000000476837</ele>
        <time>2022-07-14T09:25:55.000Z</time>
      </trkpt>
      <trkpt lat="47.27016" lon="-2.32042">
        <ele>2.7999999523163</ele>
        <time>2022-07-14T09:25:56.000Z</time>
      </trkpt>
      <trkpt lat="47.27018" lon="-2.32048">
        <ele>2.4000000953674</ele>
        <time>2022-07-14T09:25:57.000Z</time>
      </trkpt>
      <trkpt lat="47.27018" lon="-2.32053">
        <ele>2</ele>
        <time>2022-07-14T09:25:58.000Z</time>
      </trkpt>
      <trkpt lat="47.27018" lon="-2.32065">
        <ele>2</ele>
        <time>2022-07-14T09:26:00.000Z</time>
      </trkpt>
      <trkpt lat="47.27017" lon="-2.32081">
        <ele>2</ele>
        <time>2022-07-14T09:26:02.000Z</time>
      </trkpt>
      <trkpt lat="47.27016" lon="-2.32087">
        <ele>1.6000000238419</ele>
        <time>2022-07-14T09:26:03.000Z</time>
      </trkpt>
      <trkpt lat="47.27014" lon="-2.32094">
        <ele>1.2000000476837</ele>
        <time>2022-07-14T09:26:04.000Z</time>
      </trkpt>
      <trkpt lat="47.2701" lon="-2.32101">
        <ele>0.80000001192093</ele>
        <time>2022-07-14T09:26:05.000Z</time>
      </trkpt>
      <trkpt lat="47.27005" lon="-2.32109">
        <ele>0.40000000596046</ele>
        <time>2022-07-14T09:26:06.000Z</time>
      </trkpt>
      <trkpt lat="47.27001" lon="-2.32117">
        <ele>5.8</ele>
        <time>2022-07-14T09:26:07.000Z</time>
      </trkpt>
      <trkpt lat="47.26995" lon="-2.32132">
        <ele>5.4</ele>
        <time>2022-07-14T09:26:10.000Z</time>
      </trkpt>
      <trkpt lat="47.27005" lon="-2.32151">
        <ele>4.9</ele>
        <time>2022-07-14T09:26:13.000Z</time>
      </trkpt>
      <trkpt lat="47.27014" lon="-2.32161">
        <ele>4.6</ele>
        <time>2022-07-14T09:26:15.000Z</time>
      </trkpt>
      <trkpt lat="47.27018" lon="-2.32166">
        <ele>4.4</ele>
        <time>2022-07-14T09:26:16.000Z</time>
      </trkpt>
      <trkpt lat="47.27024" lon="-2.3218">
        <ele>4.1</ele>
        <time>2022-07-14T09:26:18.000Z</time>
      </trkpt>
      <trkpt lat="47.27027" lon="-2.32193">
        <ele>4</ele>
        <time>2022-07-14T09:26:20.000Z</time>
      </trkpt>
      <trkpt lat="47.27032" lon="-2.32205">
        <ele>3.9</ele>
        <time>2022-07-14T09:26:22.000Z</time>
      </trkpt>
      <trkpt lat="47.27034" lon="-2.3221">
        <ele>3.8</ele>
        <time>2022-07-14T09:26:23.000Z</time>
      </trkpt>
      <trkpt lat="47.27039" lon="-2.32235">
        <ele>3.8</ele>
        <time>2022-07-14T09:26:27.000Z</time>
      </trkpt>
      <trkpt lat="47.27039" lon="-2.32243">
        <ele>3.9</ele>
        <time>2022-07-14T09:26:28.000Z</time>
      </trkpt>
      <trkpt lat="47.27039" lon="-2.32272">
        <ele>-0.40000000596046</ele>
        <time>2022-07-14T09:26:31.000Z</time>
      </trkpt>
      <trkpt lat="47.27039" lon="-2.32282">
        <ele>-0.80000001192093</ele>
        <time>2022-07-14T09:26:32.000Z</time>
      </trkpt>
      <trkpt lat="47.27039" lon="-2.32291">
        <ele>-1.2000000476837</ele>
        <time>2022-07-14T09:26:33.000Z</time>
      </trkpt>
      <trkpt lat="47.2704" lon="-2.323">
        <ele>-1.6000000238419</ele>
        <time>2022-07-14T09:26:34.000Z</time>
      </trkpt>
      <trkpt lat="47.2704" lon="-2.32309">
        <ele>-2</ele>
        <time>2022-07-14T09:26:35.000Z</time>
      </trkpt>
      <trkpt lat="47.27042" lon="-2.32316">
        <ele>-2</ele>
        <time>2022-07-14T09:26:36.000Z</time>
      </trkpt>
      <trkpt lat="47.27043" lon="-2.32333">
        <ele>-2</ele>
        <time>2022-07-14T09:26:38.000Z</time>
      </trkpt>
      <trkpt lat="47.27044" lon="-2.32381">
        <ele>-2</ele>
        <time>2022-07-14T09:26:43.000Z</time>
      </trkpt>
      <trkpt lat="47.27044" lon="-2.32438">
        <ele>-2</ele>
        <time>2022-07-14T09:26:49.000Z</time>
      </trkpt>
      <trkpt lat="47.27033" lon="-2.32462">
        <ele>-2</ele>
        <time>2022-07-14T09:26:52.000Z</time>
      </trkpt>
      <trkpt lat="47.27027" lon="-2.32468">
        <ele>-2</ele>
        <time>2022-07-14T09:26:53.000Z</time>
      </trkpt>
      <trkpt lat="47.27022" lon="-2.32472">
        <ele>-2</ele>
        <time>2022-07-14T09:26:54.000Z</time>
      </trkpt>
      <trkpt lat="47.27013" lon="-2.32471">
        <ele>-2</ele>
        <time>2022-07-14T09:26:56.000Z</time>
      </trkpt>
      <trkpt lat="47.27003" lon="-2.3247">
        <ele>-2</ele>
        <time>2022-07-14T09:26:58.000Z</time>
      </trkpt>
      <trkpt lat="47.26995" lon="-2.32461">
        <ele>-1.6000000238419</ele>
        <time>2022-07-14T09:27:00.000Z</time>
      </trkpt>
      <trkpt lat="47.2699" lon="-2.32458">
        <ele>-1.2000000476837</ele>
        <time>2022-07-14T09:27:01.000Z</time>
      </trkpt>
      <trkpt lat="47.26986" lon="-2.32452">
        <ele>-0.80000001192093</ele>
        <time>2022-07-14T09:27:02.000Z</time>
      </trkpt>
      <trkpt lat="47.26981" lon="-2.32447">
        <ele>5.8</ele>
        <time>2022-07-14T09:27:03.000Z</time>
      </trkpt>
      <trkpt lat="47.26972" lon="-2.32437">
        <ele>6</ele>
        <time>2022-07-14T09:27:05.000Z</time>
      </trkpt>
      <trkpt lat="47.26963" lon="-2.32428">
        <ele>6.8</ele>
        <time>2022-07-14T09:27:07.000Z</time>
      </trkpt>
      <trkpt lat="47.26952" lon="-2.32411">
        <ele>7.3</ele>
        <time>2022-07-14T09:27:10.000Z</time>
      </trkpt>
      <trkpt lat="47.26949" lon="-2.32403">
        <ele>7.3</ele>
        <time>2022-07-14T09:27:11.000Z</time>
      </trkpt>
      <trkpt lat="47.26947" lon="-2.32396">
        <ele>7.1</ele>
        <time>2022-07-14T09:27:12.000Z</time>
      </trkpt>
      <trkpt lat="47.26941" lon="-2.32374">
        <ele>7.3</ele>
        <time>2022-07-14T09:27:15.000Z</time>
      </trkpt>
      <trkpt lat="47.26931" lon="-2.32349">
        <ele>7.8</ele>
        <time>2022-07-14T09:27:19.000Z</time>
      </trkpt>
      <trkpt lat="47.26927" lon="-2.32346">
        <ele>7.9</ele>
        <time>2022-07-14T09:27:20.000Z</time>
      </trkpt>
      <trkpt lat="47.26919" lon="-2.32328">
        <ele>7.9</ele>
        <time>2022-07-14T09:27:24.000Z</time>
      </trkpt>
      <trkpt lat="47.26912" lon="-2.32307">
        <ele>8.5</ele>
        <time>2022-07-14T09:27:30.000Z</time>
      </trkpt>
      <trkpt lat="47.2691" lon="-2.32305">
        <ele>8.7</ele>
        <time>2022-07-14T09:27:40.000Z</time>
      </trkpt>
      <trkpt lat="47.26907" lon="-2.32299">
        <ele>9.2</ele>
        <time>2022-07-14T09:27:42.000Z</time>
      </trkpt>
      <trkpt lat="47.26902" lon="-2.32285">
        <ele>0.40000000596046</ele>
        <time>2022-07-14T09:27:46.000Z</time>
      </trkpt>
      <trkpt lat="47.269" lon="-2.32281">
        <ele>1</ele>
        <time>2022-07-14T09:27:47.000Z</time>
      </trkpt>
      <trkpt lat="47.26898" lon="-2.32278">
        <ele>1.3999999761581</ele>
        <time>2022-07-14T09:27:48.000Z</time>
      </trkpt>
      <trkpt lat="47.26896" lon="-2.32274">
        <ele>1.7999999523163</ele>
        <time>2022-07-14T09:27:49.000Z</time>
      </trkpt>
      <trkpt lat="47.26895" lon="-2.32271">
        <ele>2.2000000476837</ele>
        <time>2022-07-14T09:27:50.000Z</time>
      </trkpt>
      <trkpt lat="47.26884" lon="-2.32253">
        <ele>2.2000000476837</ele>
        <time>2022-07-14T09:27:57.000Z</time>
      </trkpt>
      <trkpt lat="47.26877" lon="-2.32241">
        <ele>2.2000000476837</ele>
        <time>2022-07-14T09:28:03.000Z</time>
      </trkpt>
      <trkpt lat="47.26875" lon="-2.32237">
        <ele>2.5999999046326</ele>
        <time>2022-07-14T09:28:05.000Z</time>
      </trkpt>
      <trkpt lat="47.26873" lon="-2.32235">
        <ele>3</ele>
        <time>2022-07-14T09:28:06.000Z</time>
      </trkpt>
      <trkpt lat="47.26872" lon="-2.32232">
        <ele>3.4000000953674</ele>
        <time>2022-07-14T09:28:07.000Z</time>
      </trkpt>
      <trkpt lat="47.26871" lon="-2.3223">
        <ele>3.7999999523163</ele>
        <time>2022-07-14T09:28:08.000Z</time>
      </trkpt>
      <trkpt lat="47.2687" lon="-2.32227">
        <ele>4.1999998092651</ele>
        <time>2022-07-14T09:28:09.000Z</time>
      </trkpt>
      <trkpt lat="47.26863" lon="-2.32209">
        <ele>4.1999998092651</ele>
        <time>2022-07-14T09:28:16.000Z</time>
      </trkpt>
      <trkpt lat="47.26856" lon="-2.32194">
        <ele>4.1999998092651</ele>
        <time>2022-07-14T09:28:22.000Z</time>
      </trkpt>
      <trkpt lat="47.26849" lon="-2.32178">
        <ele>4.1999998092651</ele>
        <time>2022-07-14T09:28:28.000Z</time>
      </trkpt>
      <trkpt lat="47.26845" lon="-2.32163">
        <ele>4.5999999046326</ele>
        <time>2022-07-14T09:28:33.000Z</time>
      </trkpt>
      <trkpt lat="47.26844" lon="-2.3216">
        <ele>5</ele>
        <time>2022-07-14T09:28:34.000Z</time>
      </trkpt>
      <trkpt lat="47.26842" lon="-2.32157">
        <ele>5.4000000953674</ele>
        <time>2022-07-14T09:28:35.000Z</time>
      </trkpt>
      <trkpt lat="47.26841" lon="-2.32155">
        <ele>5.8000001907349</ele>
        <time>2022-07-14T09:28:36.000Z</time>
      </trkpt>
      <trkpt lat="47.2684" lon="-2.32152">
        <ele>6.1999998092651</ele>
        <time>2022-07-14T09:28:37.000Z</time>
      </trkpt>
      <trkpt lat="47.2684" lon="-2.32152">
        <ele>6.1999998092651</ele>
        <time>2022-07-14T09:28:38.000Z</time>
      </trkpt>
      <trkpt lat="47.2684" lon="-2.32151">
        <ele>6.1999998092651</ele>
        <time>2022-07-14T09:28:49.000Z</time>
      </trkpt>
      <trkpt lat="47.26838" lon="-2.32142">
        <ele>6.1999998092651</ele>
        <time>2022-07-14T09:28:51.000Z</time>
      </trkpt>
      <trkpt lat="47.26831" lon="-2.32116">
        <ele>6.1999998092651</ele>
        <time>2022-07-14T09:28:55.000Z</time>
      </trkpt>
      <trkpt lat="47.26829" lon="-2.32101">
        <ele>6.1999998092651</ele>
        <time>2022-07-14T09:28:57.000Z</time>
      </trkpt>
      <trkpt lat="47.26826" lon="-2.32087">
        <ele>6.1999998092651</ele>
        <time>2022-07-14T09:28:59.000Z</time>
      </trkpt>
      <trkpt lat="47.26817" lon="-2.32052">
        <ele>6.1999998092651</ele>
        <time>2022-07-14T09:29:04.000Z</time>
      </trkpt>
      <trkpt lat="47.26805" lon="-2.32017">
        <ele>6.1999998092651</ele>
        <time>2022-07-14T09:29:09.000Z</time>
      </trkpt>
      <trkpt lat="47.26803" lon="-2.32012">
        <ele>6.1999998092651</ele>
        <time>2022-07-14T09:29:10.000Z</time>
      </trkpt>
      <trkpt lat="47.268" lon="-2.32005">
        <ele>6.8000001907349</ele>
        <time>2022-07-14T09:29:11.000Z</time>
      </trkpt>
      <trkpt lat="47.26797" lon="-2.32">
        <ele>7.1999998092651</ele>
        <time>2022-07-14T09:29:12.000Z</time>
      </trkpt>
      <trkpt lat="47.26794" lon="-2.31994">
        <ele>7.5999999046326</ele>
        <time>2022-07-14T09:29:13.000Z</time>
      </trkpt>
      <trkpt lat="47.26791" lon="-2.31989">
        <ele>8</ele>
        <time>2022-07-14T09:29:14.000Z</time>
      </trkpt>
      <trkpt lat="47.26788" lon="-2.31984">
        <ele>8.3999996185303</ele>
        <time>2022-07-14T09:29:15.000Z</time>
      </trkpt>
      <trkpt lat="47.2678" lon="-2.31969">
        <ele>8.3999996185303</ele>
        <time>2022-07-14T09:29:18.000Z</time>
      </trkpt>
      <trkpt lat="47.26773" lon="-2.31955">
        <ele>8.8000001907349</ele>
        <time>2022-07-14T09:29:21.000Z</time>
      </trkpt>
      <trkpt lat="47.26771" lon="-2.31951">
        <ele>9.1999998092651</ele>
        <time>2022-07-14T09:29:22.000Z</time>
      </trkpt>
      <trkpt lat="47.2677" lon="-2.31948">
        <ele>9.6000003814697</ele>
        <time>2022-07-14T09:29:23.000Z</time>
      </trkpt>
      <trkpt lat="47.26768" lon="-2.31945">
        <ele>10.199999809265</ele>
        <time>2022-07-14T09:29:24.000Z</time>
      </trkpt>
      <trkpt lat="47.26767" lon="-2.31942">
        <ele>10.60000038147</ele>
        <time>2022-07-14T09:29:25.000Z</time>
      </trkpt>
      <trkpt lat="47.26765" lon="-2.31941">
        <ele>10.60000038147</ele>
        <time>2022-07-14T09:29:26.000Z</time>
      </trkpt>
      <trkpt lat="47.26764" lon="-2.31942">
        <ele>10.60000038147</ele>
        <time>2022-07-14T09:29:27.000Z</time>
      </trkpt>
      <trkpt lat="47.26764" lon="-2.31942">
        <ele>10.60000038147</ele>
        <time>2022-07-14T09:29:28.000Z</time>
      </trkpt>
      <trkpt lat="47.26763" lon="-2.31944">
        <ele>10.60000038147</ele>
        <time>2022-07-14T09:29:58.000Z</time>
      </trkpt>
      <trkpt lat="47.26762" lon="-2.31947">
        <ele>10.60000038147</ele>
        <time>2022-07-14T09:29:59.000Z</time>
      </trkpt>
      <trkpt lat="47.26753" lon="-2.31965">
        <ele>10.60000038147</ele>
        <time>2022-07-14T09:30:04.000Z</time>
      </trkpt>
      <trkpt lat="47.26745" lon="-2.31976">
        <ele>10.60000038147</ele>
        <time>2022-07-14T09:30:08.000Z</time>
      </trkpt>
      <trkpt lat="47.26732" lon="-2.31986">
        <ele>10.60000038147</ele>
        <time>2022-07-14T09:30:12.000Z</time>
      </trkpt>
      <trkpt lat="47.26724" lon="-2.31992">
        <ele>11</ele>
        <time>2022-07-14T09:30:15.000Z</time>
      </trkpt>
      <trkpt lat="47.26721" lon="-2.31994">
        <ele>11.39999961853</ele>
        <time>2022-07-14T09:30:16.000Z</time>
      </trkpt>
      <trkpt lat="47.26718" lon="-2.31997">
        <ele>11.800000190735</ele>
        <time>2022-07-14T09:30:17.000Z</time>
      </trkpt>
      <trkpt lat="47.26714" lon="-2.31999">
        <ele>12.199999809265</ele>
        <time>2022-07-14T09:30:18.000Z</time>
      </trkpt>
      <trkpt lat="47.26711" lon="-2.32001">
        <ele>12.60000038147</ele>
        <time>2022-07-14T09:30:19.000Z</time>
      </trkpt>
      <trkpt lat="47.26704" lon="-2.32012">
        <ele>12.60000038147</ele>
        <time>2022-07-14T09:30:22.000Z</time>
      </trkpt>
      <trkpt lat="47.26702" lon="-2.32016">
        <ele>13</ele>
        <time>2022-07-14T09:30:23.000Z</time>
      </trkpt>
      <trkpt lat="47.26699" lon="-2.3202">
        <ele>13.39999961853</ele>
        <time>2022-07-14T09:30:24.000Z</time>
      </trkpt>
      <trkpt lat="47.26696" lon="-2.32025">
        <ele>13.800000190735</ele>
        <time>2022-07-14T09:30:25.000Z</time>
      </trkpt>
      <trkpt lat="47.26694" lon="-2.32029">
        <ele>14.199999809265</ele>
        <time>2022-07-14T09:30:26.000Z</time>
      </trkpt>
      <trkpt lat="47.26692" lon="-2.32034">
        <ele>14.60000038147</ele>
        <time>2022-07-14T09:30:27.000Z</time>
      </trkpt>
      <trkpt lat="47.26689" lon="-2.32052">
        <ele>14.60000038147</ele>
        <time>2022-07-14T09:30:31.000Z</time>
      </trkpt>
      <trkpt lat="47.26687" lon="-2.32084">
        <ele>14.60000038147</ele>
        <time>2022-07-14T09:30:37.000Z</time>
      </trkpt>
      <trkpt lat="47.26684" lon="-2.32109">
        <ele>14.60000038147</ele>
        <time>2022-07-14T09:30:43.000Z</time>
      </trkpt>
      <trkpt lat="47.26683" lon="-2.32112">
        <ele>14.60000038147</ele>
        <time>2022-07-14T09:30:46.000Z</time>
      </trkpt>
      <trkpt lat="47.26682" lon="-2.32115">
        <ele>14.60000038147</ele>
        <time>2022-07-14T09:31:41.000Z</time>
      </trkpt>
      <trkpt lat="47.26678" lon="-2.32118">
        <ele>14.60000038147</ele>
        <time>2022-07-14T09:31:43.000Z</time>
      </trkpt>
      <trkpt lat="47.26674" lon="-2.32115">
        <ele>14.60000038147</ele>
        <time>2022-07-14T09:31:45.000Z</time>
      </trkpt>
      <trkpt lat="47.2667" lon="-2.32103">
        <ele>14.60000038147</ele>
        <time>2022-07-14T09:31:48.000Z</time>
      </trkpt>
      <trkpt lat="47.26668" lon="-2.32094">
        <ele>14.60000038147</ele>
        <time>2022-07-14T09:31:50.000Z</time>
      </trkpt>
      <trkpt lat="47.26656" lon="-2.32048">
        <ele>14.60000038147</ele>
        <time>2022-07-14T09:31:59.000Z</time>
      </trkpt>
      <trkpt lat="47.26646" lon="-2.32005">
        <ele>14.60000038147</ele>
        <time>2022-07-14T09:32:07.000Z</time>
      </trkpt>
      <trkpt lat="47.26642" lon="-2.32003">
        <ele>14.60000038147</ele>
        <time>2022-07-14T09:32:08.000Z</time>
      </trkpt>
      <trkpt lat="47.26636" lon="-2.32003">
        <ele>14.60000038147</ele>
        <time>2022-07-14T09:32:10.000Z</time>
      </trkpt>
      <trkpt lat="47.26628" lon="-2.32008">
        <ele>14.60000038147</ele>
        <time>2022-07-14T09:32:12.000Z</time>
      </trkpt>
      <trkpt lat="47.2662" lon="-2.32012">
        <ele>14.60000038147</ele>
        <time>2022-07-14T09:32:14.000Z</time>
      </trkpt>
      <trkpt lat="47.26615" lon="-2.32014">
        <ele>14.60000038147</ele>
        <time>2022-07-14T09:32:15.000Z</time>
      </trkpt>
      <trkpt lat="47.26587" lon="-2.32025">
        <ele>14.60000038147</ele>
        <time>2022-07-14T09:32:21.000Z</time>
      </trkpt>
      <trkpt lat="47.26561" lon="-2.32035">
        <ele>14.60000038147</ele>
        <time>2022-07-14T09:32:27.000Z</time>
      </trkpt>
      <trkpt lat="47.26553" lon="-2.32037">
        <ele>14.199999809265</ele>
        <time>2022-07-14T09:32:31.000Z</time>
      </trkpt>
      <trkpt lat="47.26551" lon="-2.32038">
        <ele>13.800000190735</ele>
        <time>2022-07-14T09:32:32.000Z</time>
      </trkpt>
      <trkpt lat="47.2655" lon="-2.32037">
        <ele>13.39999961853</ele>
        <time>2022-07-14T09:32:33.000Z</time>
      </trkpt>
      <trkpt lat="47.26549" lon="-2.32038">
        <ele>13</ele>
        <time>2022-07-14T09:32:34.000Z</time>
      </trkpt>
      <trkpt lat="47.26548" lon="-2.32038">
        <ele>12.60000038147</ele>
        <time>2022-07-14T09:32:35.000Z</time>
      </trkpt>
      <trkpt lat="47.26547" lon="-2.32038">
        <ele>12.60000038147</ele>
        <time>2022-07-14T09:32:36.000Z</time>
      </trkpt>
      <trkpt lat="47.26547" lon="-2.32037">
        <ele>12.60000038147</ele>
        <time>2022-07-14T09:32:38.000Z</time>
      </trkpt>
      <trkpt lat="47.26543" lon="-2.32033">
        <ele>12.60000038147</ele>
        <time>2022-07-14T09:32:49.000Z</time>
      </trkpt>
      <trkpt lat="47.26539" lon="-2.32019">
        <ele>12.60000038147</ele>
        <time>2022-07-14T09:32:53.000Z</time>
      </trkpt>
      <trkpt lat="47.26537" lon="-2.32018">
        <ele>12.60000038147</ele>
        <time>2022-07-14T09:32:54.000Z</time>
      </trkpt>
      <trkpt lat="47.26525" lon="-2.32003">
        <ele>12.60000038147</ele>
        <time>2022-07-14T09:33:00.000Z</time>
      </trkpt>
      <trkpt lat="47.26519" lon="-2.32001">
        <ele>12.199999809265</ele>
        <time>2022-07-14T09:33:03.000Z</time>
      </trkpt>
      <trkpt lat="47.26517" lon="-2.32001">
        <ele>11.800000190735</ele>
        <time>2022-07-14T09:33:04.000Z</time>
      </trkpt>
      <trkpt lat="47.26515" lon="-2.32001">
        <ele>11.199999809265</ele>
        <time>2022-07-14T09:33:05.000Z</time>
      </trkpt>
      <trkpt lat="47.26514" lon="-2.32001">
        <ele>10.800000190735</ele>
        <time>2022-07-14T09:33:06.000Z</time>
      </trkpt>
      <trkpt lat="47.26511" lon="-2.32002">
        <ele>10.39999961853</ele>
        <time>2022-07-14T09:33:07.000Z</time>
      </trkpt>
      <trkpt lat="47.26504" lon="-2.32004">
        <ele>10</ele>
        <time>2022-07-14T09:33:09.000Z</time>
      </trkpt>
      <trkpt lat="47.26501" lon="-2.32006">
        <ele>9.6000003814697</ele>
        <time>2022-07-14T09:33:10.000Z</time>
      </trkpt>
      <trkpt lat="47.26498" lon="-2.32008">
        <ele>9.1999998092651</ele>
        <time>2022-07-14T09:33:11.000Z</time>
      </trkpt>
      <trkpt lat="47.26495" lon="-2.3201">
        <ele>8.8000001907349</ele>
        <time>2022-07-14T09:33:12.000Z</time>
      </trkpt>
      <trkpt lat="47.26491" lon="-2.32009">
        <ele>8.3999996185303</ele>
        <time>2022-07-14T09:33:13.000Z</time>
      </trkpt>
      <trkpt lat="47.26487" lon="-2.32009">
        <ele>8</ele>
        <time>2022-07-14T09:33:14.000Z</time>
      </trkpt>
      <trkpt lat="47.26483" lon="-2.32009">
        <ele>7.5999999046326</ele>
        <time>2022-07-14T09:33:15.000Z</time>
      </trkpt>
      <trkpt lat="47.26479" lon="-2.3201">
        <ele>7.1999998092651</ele>
        <time>2022-07-14T09:33:16.000Z</time>
      </trkpt>
      <trkpt lat="47.26474" lon="-2.3201">
        <ele>6.5999999046326</ele>
        <time>2022-07-14T09:33:17.000Z</time>
      </trkpt>
      <trkpt lat="47.26468" lon="-2.3201">
        <ele>6.1999998092651</ele>
        <time>2022-07-14T09:33:18.000Z</time>
      </trkpt>
      <trkpt lat="47.26457" lon="-2.32008">
        <ele>6.1999998092651</ele>
        <time>2022-07-14T09:33:20.000Z</time>
      </trkpt>
      <trkpt lat="47.2645" lon="-2.32007">
        <ele>5.8000001907349</ele>
        <time>2022-07-14T09:33:21.000Z</time>
      </trkpt>
      <trkpt lat="47.26443" lon="-2.32005">
        <ele>5.4000000953674</ele>
        <time>2022-07-14T09:33:22.000Z</time>
      </trkpt>
      <trkpt lat="47.26437" lon="-2.32005">
        <ele>5</ele>
        <time>2022-07-14T09:33:23.000Z</time>
      </trkpt>
      <trkpt lat="47.2643" lon="-2.32003">
        <ele>4.5999999046326</ele>
        <time>2022-07-14T09:33:24.000Z</time>
      </trkpt>
      <trkpt lat="47.26424" lon="-2.32001">
        <ele>4.1999998092651</ele>
        <time>2022-07-14T09:33:25.000Z</time>
      </trkpt>
      <trkpt lat="47.26419" lon="-2.31998">
        <ele>4.1999998092651</ele>
        <time>2022-07-14T09:33:26.000Z</time>
      </trkpt>
      <trkpt lat="47.26414" lon="-2.31998">
        <ele>3.7999999523163</ele>
        <time>2022-07-14T09:33:27.000Z</time>
      </trkpt>
      <trkpt lat="47.2641" lon="-2.31995">
        <ele>3.4000000953674</ele>
        <time>2022-07-14T09:33:28.000Z</time>
      </trkpt>
      <trkpt lat="47.26405" lon="-2.31994">
        <ele>3</ele>
        <time>2022-07-14T09:33:29.000Z</time>
      </trkpt>
      <trkpt lat="47.264" lon="-2.31993">
        <ele>2.5999999046326</ele>
        <time>2022-07-14T09:33:30.000Z</time>
      </trkpt>
      <trkpt lat="47.26396" lon="-2.31992">
        <ele>2.2000000476837</ele>
        <time>2022-07-14T09:33:31.000Z</time>
      </trkpt>
      <trkpt lat="47.26386" lon="-2.31993">
        <ele>2.2000000476837</ele>
        <time>2022-07-14T09:33:33.000Z</time>
      </trkpt>
      <trkpt lat="47.26381" lon="-2.31991">
        <ele>1.7999999523163</ele>
        <time>2022-07-14T09:33:34.000Z</time>
      </trkpt>
      <trkpt lat="47.26378" lon="-2.31988">
        <ele>1.3999999761581</ele>
        <time>2022-07-14T09:33:35.000Z</time>
      </trkpt>
      <trkpt lat="47.26374" lon="-2.31984">
        <ele>1</ele>
        <time>2022-07-14T09:33:36.000Z</time>
      </trkpt>
      <trkpt lat="47.26371" lon="-2.31977">
        <ele>0.60000002384186</ele>
        <time>2022-07-14T09:33:37.000Z</time>
      </trkpt>
      <trkpt lat="47.26367" lon="-2.31971">
        <ele>0.20000000298023</ele>
        <time>2022-07-14T09:33:38.000Z</time>
      </trkpt>
      <trkpt lat="47.26364" lon="-2.31965">
        <ele>0.20000000298023</ele>
        <time>2022-07-14T09:33:39.000Z</time>
      </trkpt>
      <trkpt lat="47.26356" lon="-2.31949">
        <ele>0.20000000298023</ele>
        <time>2022-07-14T09:33:42.000Z</time>
      </trkpt>
      <trkpt lat="47.26351" lon="-2.31947">
        <ele>0.20000000298023</ele>
        <time>2022-07-14T09:33:43.000Z</time>
      </trkpt>
      <trkpt lat="47.26344" lon="-2.31947">
        <ele>-0.20000000298023</ele>
        <time>2022-07-14T09:33:45.000Z</time>
      </trkpt>
      <trkpt lat="47.26341" lon="-2.31946">
        <ele>-0.60000002384186</ele>
        <time>2022-07-14T09:33:46.000Z</time>
      </trkpt>
      <trkpt lat="47.26337" lon="-2.31946">
        <ele>-1</ele>
        <time>2022-07-14T09:33:47.000Z</time>
      </trkpt>
      <trkpt lat="47.26333" lon="-2.31946">
        <ele>-1.3999999761581</ele>
        <time>2022-07-14T09:33:48.000Z</time>
      </trkpt>
      <trkpt lat="47.26329" lon="-2.31945">
        <ele>-1.7999999523163</ele>
        <time>2022-07-14T09:33:49.000Z</time>
      </trkpt>
      <trkpt lat="47.26326" lon="-2.31944">
        <ele>-1.7999999523163</ele>
        <time>2022-07-14T09:33:50.000Z</time>
      </trkpt>
      <trkpt lat="47.26314" lon="-2.31938">
        <ele>-1.7999999523163</ele>
        <time>2022-07-14T09:33:54.000Z</time>
      </trkpt>
      <trkpt lat="47.26311" lon="-2.31916">
        <ele>-1.7999999523163</ele>
        <time>2022-07-14T09:33:59.000Z</time>
      </trkpt>
      <trkpt lat="47.26309" lon="-2.31914">
        <ele>-1.7999999523163</ele>
        <time>2022-07-14T09:34:00.000Z</time>
      </trkpt>
      <trkpt lat="47.26303" lon="-2.31913">
        <ele>-1.7999999523163</ele>
        <time>2022-07-14T09:34:02.000Z</time>
      </trkpt>
      <trkpt lat="47.26297" lon="-2.31917">
        <ele>-1.7999999523163</ele>
        <time>2022-07-14T09:34:04.000Z</time>
      </trkpt>
      <trkpt lat="47.26289" lon="-2.31922">
        <ele>-1.7999999523163</ele>
        <time>2022-07-14T09:34:06.000Z</time>
      </trkpt>
      <trkpt lat="47.26286" lon="-2.31925">
        <ele>-1.7999999523163</ele>
        <time>2022-07-14T09:34:07.000Z</time>
      </trkpt>
      <trkpt lat="47.26273" lon="-2.3194">
        <ele>-1.7999999523163</ele>
        <time>2022-07-14T09:34:11.000Z</time>
      </trkpt>
      <trkpt lat="47.26259" lon="-2.31957">
        <ele>-1.7999999523163</ele>
        <time>2022-07-14T09:34:16.000Z</time>
      </trkpt>
      <trkpt lat="47.26249" lon="-2.31968">
        <ele>-1.7999999523163</ele>
        <time>2022-07-14T09:34:19.000Z</time>
      </trkpt>
      <trkpt lat="47.26242" lon="-2.31975">
        <ele>-1.7999999523163</ele>
        <time>2022-07-14T09:34:21.000Z</time>
      </trkpt>
      <trkpt lat="47.26236" lon="-2.31982">
        <ele>-1.7999999523163</ele>
        <time>2022-07-14T09:34:23.000Z</time>
      </trkpt>
      <trkpt lat="47.26232" lon="-2.31986">
        <ele>-1.7999999523163</ele>
        <time>2022-07-14T09:34:25.000Z</time>
      </trkpt>
      <trkpt lat="47.26215" lon="-2.31997">
        <ele>-1.7999999523163</ele>
        <time>2022-07-14T09:34:30.000Z</time>
      </trkpt>
      <trkpt lat="47.26205" lon="-2.32006">
        <ele>-1.7999999523163</ele>
        <time>2022-07-14T09:34:34.000Z</time>
      </trkpt>
      <trkpt lat="47.26204" lon="-2.32008">
        <ele>-1.7999999523163</ele>
        <time>2022-07-14T09:34:36.000Z</time>
      </trkpt>
      <trkpt lat="47.26201" lon="-2.32013">
        <ele>-1.7999999523163</ele>
        <time>2022-07-14T09:34:39.000Z</time>
      </trkpt>
      <trkpt lat="47.262" lon="-2.32017">
        <ele>-1.7999999523163</ele>
        <time>2022-07-14T09:34:41.000Z</time>
      </trkpt>
      <trkpt lat="47.26193" lon="-2.32021">
        <ele>-1.7999999523163</ele>
        <time>2022-07-14T09:34:44.000Z</time>
      </trkpt>
      <trkpt lat="47.26187" lon="-2.3202">
        <ele>-1.7999999523163</ele>
        <time>2022-07-14T09:34:46.000Z</time>
      </trkpt>
      <trkpt lat="47.26179" lon="-2.32022">
        <ele>-1.7999999523163</ele>
        <time>2022-07-14T09:34:49.000Z</time>
      </trkpt>
      <trkpt lat="47.26173" lon="-2.32025">
        <ele>-1.7999999523163</ele>
        <time>2022-07-14T09:34:52.000Z</time>
      </trkpt>
      <trkpt lat="47.26171" lon="-2.32025">
        <ele>-1.7999999523163</ele>
        <time>2022-07-14T09:34:53.000Z</time>
      </trkpt>
      <trkpt lat="47.26165" lon="-2.32021">
        <ele>-1.7999999523163</ele>
        <time>2022-07-14T09:34:58.000Z</time>
      </trkpt>
      <trkpt lat="47.26165" lon="-2.32014">
        <ele>-1.7999999523163</ele>
        <time>2022-07-14T09:35:01.000Z</time>
      </trkpt>
      <trkpt lat="47.26172" lon="-2.3202">
        <ele>-1.7999999523163</ele>
        <time>2022-07-14T09:35:04.000Z</time>
      </trkpt>
      <trkpt lat="47.26179" lon="-2.32031">
        <ele>-1.7999999523163</ele>
        <time>2022-07-14T09:35:08.000Z</time>
      </trkpt>
      <trkpt lat="47.26185" lon="-2.32042">
        <ele>-1.7999999523163</ele>
        <time>2022-07-14T09:35:11.000Z</time>
      </trkpt>
      <trkpt lat="47.26199" lon="-2.32077">
        <ele>-1.7999999523163</ele>
        <time>2022-07-14T09:35:18.000Z</time>
      </trkpt>
      <trkpt lat="47.26212" lon="-2.32109">
        <ele>-1.7999999523163</ele>
        <time>2022-07-14T09:35:24.000Z</time>
      </trkpt>
      <trkpt lat="47.26225" lon="-2.32131">
        <ele>-1.7999999523163</ele>
        <time>2022-07-14T09:35:29.000Z</time>
      </trkpt>
      <trkpt lat="47.26244" lon="-2.32174">
        <ele>-1.7999999523163</ele>
        <time>2022-07-14T09:35:36.000Z</time>
      </trkpt>
      <trkpt lat="47.26263" lon="-2.32224">
        <ele>-1.7999999523163</ele>
        <time>2022-07-14T09:35:44.000Z</time>
      </trkpt>
      <trkpt lat="47.26276" lon="-2.32262">
        <ele>-1.3999999761581</ele>
        <time>2022-07-14T09:35:50.000Z</time>
      </trkpt>
      <trkpt lat="47.26278" lon="-2.32267">
        <ele>-1</ele>
        <time>2022-07-14T09:35:51.000Z</time>
      </trkpt>
      <trkpt lat="47.2628" lon="-2.32273">
        <ele>-0.60000002384186</ele>
        <time>2022-07-14T09:35:52.000Z</time>
      </trkpt>
      <trkpt lat="47.26283" lon="-2.32279">
        <ele>-0.20000000298023</ele>
        <time>2022-07-14T09:35:53.000Z</time>
      </trkpt>
      <trkpt lat="47.26285" lon="-2.32285">
        <ele>0.20000000298023</ele>
        <time>2022-07-14T09:35:54.000Z</time>
      </trkpt>
      <trkpt lat="47.263" lon="-2.32322">
        <ele>0.20000000298023</ele>
        <time>2022-07-14T09:36:00.000Z</time>
      </trkpt>
      <trkpt lat="47.26315" lon="-2.32377">
        <ele>0.20000000298023</ele>
        <time>2022-07-14T09:36:08.000Z</time>
      </trkpt>
      <trkpt lat="47.26328" lon="-2.32423">
        <ele>0.20000000298023</ele>
        <time>2022-07-14T09:36:15.000Z</time>
      </trkpt>
      <trkpt lat="47.26346" lon="-2.32472">
        <ele>0.20000000298023</ele>
        <time>2022-07-14T09:36:22.000Z</time>
      </trkpt>
      <trkpt lat="47.26346" lon="-2.32479">
        <ele>0.20000000298023</ele>
        <time>2022-07-14T09:36:23.000Z</time>
      </trkpt>
      <trkpt lat="47.26335" lon="-2.32497">
        <ele>0.20000000298023</ele>
        <time>2022-07-14T09:36:26.000Z</time>
      </trkpt>
      <trkpt lat="47.26322" lon="-2.32511">
        <ele>0.20000000298023</ele>
        <time>2022-07-14T09:36:29.000Z</time>
      </trkpt>
      <trkpt lat="47.2631" lon="-2.32524">
        <ele>0.20000000298023</ele>
        <time>2022-07-14T09:36:32.000Z</time>
      </trkpt>
      <trkpt lat="47.26307" lon="-2.32529">
        <ele>0.20000000298023</ele>
        <time>2022-07-14T09:36:33.000Z</time>
      </trkpt>
      <trkpt lat="47.26303" lon="-2.3255">
        <ele>0.20000000298023</ele>
        <time>2022-07-14T09:36:36.000Z</time>
      </trkpt>
      <trkpt lat="47.26303" lon="-2.32558">
        <ele>0.20000000298023</ele>
        <time>2022-07-14T09:36:37.000Z</time>
      </trkpt>
      <trkpt lat="47.26305" lon="-2.32594">
        <ele>0.20000000298023</ele>
        <time>2022-07-14T09:36:41.000Z</time>
      </trkpt>
      <trkpt lat="47.26306" lon="-2.32645">
        <ele>0.20000000298023</ele>
        <time>2022-07-14T09:36:47.000Z</time>
      </trkpt>
      <trkpt lat="47.26307" lon="-2.32653">
        <ele>-0.20000000298023</ele>
        <time>2022-07-14T09:36:48.000Z</time>
      </trkpt>
      <trkpt lat="47.26308" lon="-2.32661">
        <ele>-0.60000002384186</ele>
        <time>2022-07-14T09:36:49.000Z</time>
      </trkpt>
      <trkpt lat="47.26309" lon="-2.32668">
        <ele>-1.2000000476837</ele>
        <time>2022-07-14T09:36:50.000Z</time>
      </trkpt>
      <trkpt lat="47.26311" lon="-2.32675">
        <ele>-1.6000000238419</ele>
        <time>2022-07-14T09:36:51.000Z</time>
      </trkpt>
      <trkpt lat="47.26313" lon="-2.32683">
        <ele>-2</ele>
        <time>2022-07-14T09:36:52.000Z</time>
      </trkpt>
      <trkpt lat="47.26335" lon="-2.32743">
        <ele>-2</ele>
        <time>2022-07-14T09:37:00.000Z</time>
      </trkpt>
      <trkpt lat="47.26356" lon="-2.32803">
        <ele>-2</ele>
        <time>2022-07-14T09:37:07.000Z</time>
      </trkpt>
      <trkpt lat="47.26386" lon="-2.32876">
        <ele>-2</ele>
        <time>2022-07-14T09:37:16.000Z</time>
      </trkpt>
      <trkpt lat="47.26393" lon="-2.32895">
        <ele>-2</ele>
        <time>2022-07-14T09:37:20.000Z</time>
      </trkpt>
      <trkpt lat="47.26402" lon="-2.32924">
        <ele>-2</ele>
        <time>2022-07-14T09:37:25.000Z</time>
      </trkpt>
      <trkpt lat="47.26407" lon="-2.3294">
        <ele>-2</ele>
        <time>2022-07-14T09:37:27.000Z</time>
      </trkpt>
      <trkpt lat="47.26418" lon="-2.32965">
        <ele>-2</ele>
        <time>2022-07-14T09:37:30.000Z</time>
      </trkpt>
      <trkpt lat="47.26445" lon="-2.33009">
        <ele>-2</ele>
        <time>2022-07-14T09:37:36.000Z</time>
      </trkpt>
      <trkpt lat="47.26484" lon="-2.33053">
        <ele>-2</ele>
        <time>2022-07-14T09:37:43.000Z</time>
      </trkpt>
      <trkpt lat="47.26518" lon="-2.33083">
        <ele>-2</ele>
        <time>2022-07-14T09:37:49.000Z</time>
      </trkpt>
      <trkpt lat="47.26564" lon="-2.33117">
        <ele>-2</ele>
        <time>2022-07-14T09:37:57.000Z</time>
      </trkpt>
      <trkpt lat="47.26584" lon="-2.3314">
        <ele>-2</ele>
        <time>2022-07-14T09:38:01.000Z</time>
      </trkpt>
      <trkpt lat="47.26588" lon="-2.3315">
        <ele>-2</ele>
        <time>2022-07-14T09:38:02.000Z</time>
      </trkpt>
      <trkpt lat="47.26583" lon="-2.33179">
        <ele>-2</ele>
        <time>2022-07-14T09:38:05.000Z</time>
      </trkpt>
      <trkpt lat="47.26566" lon="-2.33198">
        <ele>-2</ele>
        <time>2022-07-14T09:38:08.000Z</time>
      </trkpt>
      <trkpt lat="47.26552" lon="-2.33207">
        <ele>-2</ele>
        <time>2022-07-14T09:38:10.000Z</time>
      </trkpt>
      <trkpt lat="47.26531" lon="-2.33218">
        <ele>-2</ele>
        <time>2022-07-14T09:38:13.000Z</time>
      </trkpt>
      <trkpt lat="47.26505" lon="-2.33235">
        <ele>-2</ele>
        <time>2022-07-14T09:38:17.000Z</time>
      </trkpt>
      <trkpt lat="47.26497" lon="-2.33251">
        <ele>-2</ele>
        <time>2022-07-14T09:38:19.000Z</time>
      </trkpt>
      <trkpt lat="47.26494" lon="-2.33275">
        <ele>-2</ele>
        <time>2022-07-14T09:38:22.000Z</time>
      </trkpt>
      <trkpt lat="47.26497" lon="-2.33293">
        <ele>-2</ele>
        <time>2022-07-14T09:38:26.000Z</time>
      </trkpt>
      <trkpt lat="47.26502" lon="-2.3329">
        <ele>-2</ele>
        <time>2022-07-14T09:38:29.000Z</time>
      </trkpt>
      <trkpt lat="47.26508" lon="-2.33293">
        <ele>-2</ele>
        <time>2022-07-14T09:38:35.000Z</time>
      </trkpt>
      <trkpt lat="47.26512" lon="-2.33295">
        <ele>-2</ele>
        <time>2022-07-14T09:38:37.000Z</time>
      </trkpt>
      <trkpt lat="47.26519" lon="-2.33302">
        <ele>-2</ele>
        <time>2022-07-14T09:38:39.000Z</time>
      </trkpt>
      <trkpt lat="47.26521" lon="-2.33309">
        <ele>-2</ele>
        <time>2022-07-14T09:38:40.000Z</time>
      </trkpt>
      <trkpt lat="47.26524" lon="-2.33322">
        <ele>-2</ele>
        <time>2022-07-14T09:38:42.000Z</time>
      </trkpt>
      <trkpt lat="47.26523" lon="-2.33337">
        <ele>-2</ele>
        <time>2022-07-14T09:38:44.000Z</time>
      </trkpt>
      <trkpt lat="47.26524" lon="-2.33345">
        <ele>-2</ele>
        <time>2022-07-14T09:38:45.000Z</time>
      </trkpt>
      <trkpt lat="47.26525" lon="-2.33354">
        <ele>-2</ele>
        <time>2022-07-14T09:38:46.000Z</time>
      </trkpt>
      <trkpt lat="47.26531" lon="-2.33379">
        <ele>-2</ele>
        <time>2022-07-14T09:38:49.000Z</time>
      </trkpt>
      <trkpt lat="47.26534" lon="-2.33388">
        <ele>-2</ele>
        <time>2022-07-14T09:38:50.000Z</time>
      </trkpt>
      <trkpt lat="47.26545" lon="-2.33445">
        <ele>-2</ele>
        <time>2022-07-14T09:38:56.000Z</time>
      </trkpt>
      <trkpt lat="47.26554" lon="-2.33509">
        <ele>-2</ele>
        <time>2022-07-14T09:39:03.000Z</time>
      </trkpt>
      <trkpt lat="47.26567" lon="-2.33596">
        <ele>-2</ele>
        <time>2022-07-14T09:39:12.000Z</time>
      </trkpt>
      <trkpt lat="47.26574" lon="-2.33638">
        <ele>-2</ele>
        <time>2022-07-14T09:39:17.000Z</time>
      </trkpt>
      <trkpt lat="47.26578" lon="-2.33659">
        <ele>-1.6000000238419</ele>
        <time>2022-07-14T09:39:20.000Z</time>
      </trkpt>
      <trkpt lat="47.2658" lon="-2.33665">
        <ele>-1</ele>
        <time>2022-07-14T09:39:21.000Z</time>
      </trkpt>
      <trkpt lat="47.26582" lon="-2.33671">
        <ele>-0.60000002384186</ele>
        <time>2022-07-14T09:39:22.000Z</time>
      </trkpt>
      <trkpt lat="47.26586" lon="-2.33676">
        <ele>0.20000000298023</ele>
        <time>2022-07-14T09:39:23.000Z</time>
      </trkpt>
      <trkpt lat="47.26603" lon="-2.33701">
        <ele>0.20000000298023</ele>
        <time>2022-07-14T09:39:28.000Z</time>
      </trkpt>
      <trkpt lat="47.26607" lon="-2.33702">
        <ele>0.20000000298023</ele>
        <time>2022-07-14T09:39:29.000Z</time>
      </trkpt>
      <trkpt lat="47.2662" lon="-2.33703">
        <ele>0.20000000298023</ele>
        <time>2022-07-14T09:39:32.000Z</time>
      </trkpt>
      <trkpt lat="47.26629" lon="-2.33702">
        <ele>0.20000000298023</ele>
        <time>2022-07-14T09:39:34.000Z</time>
      </trkpt>
      <trkpt lat="47.26661" lon="-2.33699">
        <ele>0.20000000298023</ele>
        <time>2022-07-14T09:39:41.000Z</time>
      </trkpt>
      <trkpt lat="47.2669" lon="-2.33697">
        <ele>0.20000000298023</ele>
        <time>2022-07-14T09:39:46.000Z</time>
      </trkpt>
      <trkpt lat="47.2674" lon="-2.33698">
        <ele>0.20000000298023</ele>
        <time>2022-07-14T09:39:54.000Z</time>
      </trkpt>
      <trkpt lat="47.26759" lon="-2.33701">
        <ele>0.20000000298023</ele>
        <time>2022-07-14T09:39:57.000Z</time>
      </trkpt>
      <trkpt lat="47.26778" lon="-2.3371">
        <ele>0.60000002384186</ele>
        <time>2022-07-14T09:40:00.000Z</time>
      </trkpt>
      <trkpt lat="47.26784" lon="-2.33713">
        <ele>1</ele>
        <time>2022-07-14T09:40:01.000Z</time>
      </trkpt>
      <trkpt lat="47.26789" lon="-2.33716">
        <ele>1.3999999761581</ele>
        <time>2022-07-14T09:40:02.000Z</time>
      </trkpt>
      <trkpt lat="47.26794" lon="-2.3372">
        <ele>1.7999999523163</ele>
        <time>2022-07-14T09:40:03.000Z</time>
      </trkpt>
      <trkpt lat="47.26799" lon="-2.33724">
        <ele>2.2000000476837</ele>
        <time>2022-07-14T09:40:04.000Z</time>
      </trkpt>
      <trkpt lat="47.26834" lon="-2.33763">
        <ele>2.2000000476837</ele>
        <time>2022-07-14T09:40:11.000Z</time>
      </trkpt>
      <trkpt lat="47.26846" lon="-2.33774">
        <ele>2.2000000476837</ele>
        <time>2022-07-14T09:40:13.000Z</time>
      </trkpt>
      <trkpt lat="47.26867" lon="-2.33783">
        <ele>2.2000000476837</ele>
        <time>2022-07-14T09:40:16.000Z</time>
      </trkpt>
      <trkpt lat="47.26886" lon="-2.3379">
        <ele>2.2000000476837</ele>
        <time>2022-07-14T09:40:19.000Z</time>
      </trkpt>
      <trkpt lat="47.26892" lon="-2.33796">
        <ele>2.2000000476837</ele>
        <time>2022-07-14T09:40:20.000Z</time>
      </trkpt>
      <trkpt lat="47.26899" lon="-2.33811">
        <ele>2.2000000476837</ele>
        <time>2022-07-14T09:40:22.000Z</time>
      </trkpt>
      <trkpt lat="47.26902" lon="-2.3383">
        <ele>2.2000000476837</ele>
        <time>2022-07-14T09:40:24.000Z</time>
      </trkpt>
      <trkpt lat="47.26905" lon="-2.33848">
        <ele>2.2000000476837</ele>
        <time>2022-07-14T09:40:26.000Z</time>
      </trkpt>
      <trkpt lat="47.26913" lon="-2.33883">
        <ele>2.2000000476837</ele>
        <time>2022-07-14T09:40:30.000Z</time>
      </trkpt>
      <trkpt lat="47.26928" lon="-2.33948">
        <ele>2.2000000476837</ele>
        <time>2022-07-14T09:40:37.000Z</time>
      </trkpt>
      <trkpt lat="47.26948" lon="-2.34032">
        <ele>2.2000000476837</ele>
        <time>2022-07-14T09:40:46.000Z</time>
      </trkpt>
      <trkpt lat="47.26961" lon="-2.34089">
        <ele>2.2000000476837</ele>
        <time>2022-07-14T09:40:52.000Z</time>
      </trkpt>
      <trkpt lat="47.2698" lon="-2.34171">
        <ele>2.2000000476837</ele>
        <time>2022-07-14T09:41:00.000Z</time>
      </trkpt>
      <trkpt lat="47.26985" lon="-2.34191">
        <ele>3</ele>
        <time>2022-07-14T09:41:02.000Z</time>
      </trkpt>
      <trkpt lat="47.26987" lon="-2.34201">
        <ele>3.4000000953674</ele>
        <time>2022-07-14T09:41:03.000Z</time>
      </trkpt>
      <trkpt lat="47.26989" lon="-2.34211">
        <ele>3.7999999523163</ele>
        <time>2022-07-14T09:41:04.000Z</time>
      </trkpt>
      <trkpt lat="47.26991" lon="-2.34221">
        <ele>4.1999998092651</ele>
        <time>2022-07-14T09:41:05.000Z</time>
      </trkpt>
      <trkpt lat="47.26993" lon="-2.3423">
        <ele>4.1999998092651</ele>
        <time>2022-07-14T09:41:06.000Z</time>
      </trkpt>
      <trkpt lat="47.27005" lon="-2.3428">
        <ele>4.1999998092651</ele>
        <time>2022-07-14T09:41:12.000Z</time>
      </trkpt>
      <trkpt lat="47.27006" lon="-2.34303">
        <ele>4.1999998092651</ele>
        <time>2022-07-14T09:41:16.000Z</time>
      </trkpt>
      <trkpt lat="47.2701" lon="-2.34319">
        <ele>4.1999998092651</ele>
        <time>2022-07-14T09:41:20.000Z</time>
      </trkpt>
      <trkpt lat="47.27013" lon="-2.34341">
        <ele>4.1999998092651</ele>
        <time>2022-07-14T09:41:24.000Z</time>
      </trkpt>
      <trkpt lat="47.27022" lon="-2.34379">
        <ele>4.1999998092651</ele>
        <time>2022-07-14T09:41:30.000Z</time>
      </trkpt>
      <trkpt lat="47.2703" lon="-2.34411">
        <ele>4.1999998092651</ele>
        <time>2022-07-14T09:41:36.000Z</time>
      </trkpt>
      <trkpt lat="47.27033" lon="-2.34447">
        <ele>4.1999998092651</ele>
        <time>2022-07-14T09:41:43.000Z</time>
      </trkpt>
      <trkpt lat="47.27029" lon="-2.34465">
        <ele>4.1999998092651</ele>
        <time>2022-07-14T09:41:48.000Z</time>
      </trkpt>
      <trkpt lat="47.27027" lon="-2.34472">
        <ele>4.1999998092651</ele>
        <time>2022-07-14T09:41:52.000Z</time>
      </trkpt>
      <trkpt lat="47.27026" lon="-2.34474">
        <ele>4.1999998092651</ele>
        <time>2022-07-14T09:41:53.000Z</time>
      </trkpt>
      <trkpt lat="47.27025" lon="-2.3448">
        <ele>4.1999998092651</ele>
        <time>2022-07-14T09:41:56.000Z</time>
      </trkpt>
      <trkpt lat="47.27024" lon="-2.34484">
        <ele>4.1999998092651</ele>
        <time>2022-07-14T09:41:58.000Z</time>
      </trkpt>
      <trkpt lat="47.27027" lon="-2.34484">
        <ele>4.1999998092651</ele>
        <time>2022-07-14T09:42:06.000Z</time>
      </trkpt>
      <trkpt lat="47.27027" lon="-2.34486">
        <ele>4.1999998092651</ele>
        <time>2022-07-14T09:42:08.000Z</time>
      </trkpt>
    </trkseg>
  </trk>
</gpx>